<?xml version="1.0" encoding="UTF-8" standalone="no" ?>
<gpx xmlns="http://www.topografix.com/GPX/1/1" xmlns:xsi="http://www.w3.org/2001/XMLSchema-instance" xsi:schemaLocation="http://www.topografix.com/GPX/1/1 http://www.topografix.com/GPX/1/1/gpx.xsd" version="1.1" creator="VisuGPX - https://www.visugpx.com">
  <metadata>
    <name>Col de Ferrière par Lanthenans avec Staiger</name>
    <desc><![CDATA[[img][/img]]]></desc>
  </metadata>
  <trk>
    <name><![CDATA[Trace sans titre]]></name>
    <trkseg>
      <trkpt lat="47.49376" lon="6.66607">
        <ele>426.682</ele>
        <time>2015-08-31T06:29:59Z</time>
      </trkpt>
      <trkpt lat="47.49366" lon="6.66606">
        <ele>415.421</ele>
        <time>2015-08-31T06:30:08Z</time>
      </trkpt>
      <trkpt lat="47.49358" lon="6.66607">
        <ele>419.31</ele>
        <time>2015-08-31T06:30:17Z</time>
      </trkpt>
      <trkpt lat="47.49352" lon="6.66606">
        <ele>410.983</ele>
        <time>2015-08-31T06:30:28Z</time>
      </trkpt>
      <trkpt lat="47.49347" lon="6.66607">
        <ele>413.986</ele>
        <time>2015-08-31T06:30:32Z</time>
      </trkpt>
      <trkpt lat="47.49342" lon="6.66609">
        <ele>409.183</ele>
        <time>2015-08-31T06:30:36Z</time>
      </trkpt>
      <trkpt lat="47.49342" lon="6.66617">
        <ele>404.74</ele>
        <time>2015-08-31T06:30:55Z</time>
      </trkpt>
      <trkpt lat="47.49346" lon="6.6662">
        <ele>405.107</ele>
        <time>2015-08-31T06:31:00Z</time>
      </trkpt>
      <trkpt lat="47.49394" lon="6.6673">
        <ele>394.1</ele>
        <time>2015-08-31T06:31:27Z</time>
      </trkpt>
      <trkpt lat="47.49409" lon="6.66721">
        <ele>109</ele>
        <time>2015-08-31T06:31:28Z</time>
      </trkpt>
      <trkpt lat="47.49421" lon="6.66718">
        <ele>110.1</ele>
        <time>2015-08-31T06:31:29Z</time>
      </trkpt>
      <trkpt lat="47.49426" lon="6.66717">
        <ele>110.9</ele>
        <time>2015-08-31T06:31:30Z</time>
      </trkpt>
      <trkpt lat="47.49428" lon="6.66716">
        <ele>111.5</ele>
        <time>2015-08-31T06:31:31Z</time>
      </trkpt>
      <trkpt lat="47.49431" lon="6.66715">
        <ele>112.1</ele>
        <time>2015-08-31T06:31:32Z</time>
      </trkpt>
      <trkpt lat="47.49433" lon="6.66713">
        <ele>112.5</ele>
        <time>2015-08-31T06:31:33Z</time>
      </trkpt>
      <trkpt lat="47.49435" lon="6.66711">
        <ele>113.1</ele>
        <time>2015-08-31T06:31:34Z</time>
      </trkpt>
      <trkpt lat="47.49436" lon="6.66708">
        <ele>114.5</ele>
        <time>2015-08-31T06:31:36Z</time>
      </trkpt>
      <trkpt lat="47.49437" lon="6.66707">
        <ele>115</ele>
        <time>2015-08-31T06:31:37Z</time>
      </trkpt>
      <trkpt lat="47.49439" lon="6.66707">
        <ele>116</ele>
        <time>2015-08-31T06:31:39Z</time>
      </trkpt>
      <trkpt lat="47.49442" lon="6.66706">
        <ele>116.2</ele>
        <time>2015-08-31T06:31:40Z</time>
      </trkpt>
      <trkpt lat="47.49442" lon="6.66704">
        <ele>116.6</ele>
        <time>2015-08-31T06:31:41Z</time>
      </trkpt>
      <trkpt lat="47.49442" lon="6.66702">
        <ele>117.7</ele>
        <time>2015-08-31T06:31:43Z</time>
      </trkpt>
      <trkpt lat="47.49443" lon="6.66701">
        <ele>118.2</ele>
        <time>2015-08-31T06:31:44Z</time>
      </trkpt>
      <trkpt lat="47.49442" lon="6.66699">
        <ele>119.1</ele>
        <time>2015-08-31T06:31:46Z</time>
      </trkpt>
      <trkpt lat="47.49442" lon="6.66697">
        <ele>119.9</ele>
        <time>2015-08-31T06:31:48Z</time>
      </trkpt>
      <trkpt lat="47.49443" lon="6.66677">
        <ele>139.3</ele>
        <time>2015-08-31T06:31:51Z</time>
      </trkpt>
      <trkpt lat="47.49443" lon="6.66675">
        <ele>145.4</ele>
        <time>2015-08-31T06:31:52Z</time>
      </trkpt>
      <trkpt lat="47.49441" lon="6.66671">
        <ele>151.3</ele>
        <time>2015-08-31T06:31:53Z</time>
      </trkpt>
      <trkpt lat="47.4944" lon="6.66669">
        <ele>155.4</ele>
        <time>2015-08-31T06:31:54Z</time>
      </trkpt>
      <trkpt lat="47.49436" lon="6.6667">
        <ele>165.1</ele>
        <time>2015-08-31T06:31:55Z</time>
      </trkpt>
      <trkpt lat="47.49422" lon="6.66672">
        <ele>192.1</ele>
        <time>2015-08-31T06:31:56Z</time>
      </trkpt>
      <trkpt lat="47.49358" lon="6.6664">
        <ele>334.8</ele>
        <time>2015-08-31T06:31:58Z</time>
      </trkpt>
      <trkpt lat="47.49348" lon="6.66636">
        <ele>357.8</ele>
        <time>2015-08-31T06:31:59Z</time>
      </trkpt>
      <trkpt lat="47.49342" lon="6.66635">
        <ele>370.2</ele>
        <time>2015-08-31T06:32:00Z</time>
      </trkpt>
      <trkpt lat="47.49338" lon="6.66635">
        <ele>378.1</ele>
        <time>2015-08-31T06:32:01Z</time>
      </trkpt>
      <trkpt lat="47.49335" lon="6.66635">
        <ele>383.9</ele>
        <time>2015-08-31T06:32:02Z</time>
      </trkpt>
      <trkpt lat="47.49333" lon="6.66636">
        <ele>388.6</ele>
        <time>2015-08-31T06:32:03Z</time>
      </trkpt>
      <trkpt lat="47.4933" lon="6.66636">
        <ele>392.1</ele>
        <time>2015-08-31T06:32:04Z</time>
      </trkpt>
      <trkpt lat="47.49332" lon="6.66635">
        <ele>393.7</ele>
        <time>2015-08-31T06:32:05Z</time>
      </trkpt>
      <trkpt lat="47.49329" lon="6.66636">
        <ele>398.2</ele>
        <time>2015-08-31T06:32:07Z</time>
      </trkpt>
      <trkpt lat="47.49331" lon="6.66634">
        <ele>399.6</ele>
        <time>2015-08-31T06:32:08Z</time>
      </trkpt>
      <trkpt lat="47.49333" lon="6.66634">
        <ele>400.8</ele>
        <time>2015-08-31T06:32:09Z</time>
      </trkpt>
      <trkpt lat="47.49334" lon="6.66633">
        <ele>401.8</ele>
        <time>2015-08-31T06:32:10Z</time>
      </trkpt>
      <trkpt lat="47.49337" lon="6.66632">
        <ele>402.9</ele>
        <time>2015-08-31T06:32:11Z</time>
      </trkpt>
      <trkpt lat="47.49339" lon="6.6663">
        <ele>404.1</ele>
        <time>2015-08-31T06:32:12Z</time>
      </trkpt>
      <trkpt lat="47.49342" lon="6.66629">
        <ele>405.2</ele>
        <time>2015-08-31T06:32:13Z</time>
      </trkpt>
      <trkpt lat="47.49344" lon="6.66628">
        <ele>406</ele>
        <time>2015-08-31T06:32:14Z</time>
      </trkpt>
      <trkpt lat="47.49346" lon="6.66627">
        <ele>406.7</ele>
        <time>2015-08-31T06:32:15Z</time>
      </trkpt>
      <trkpt lat="47.49348" lon="6.66626">
        <ele>407.4</ele>
        <time>2015-08-31T06:32:16Z</time>
      </trkpt>
      <trkpt lat="47.49349" lon="6.66626">
        <ele>408</ele>
        <time>2015-08-31T06:32:17Z</time>
      </trkpt>
      <trkpt lat="47.49351" lon="6.66625">
        <ele>408.6</ele>
        <time>2015-08-31T06:32:18Z</time>
      </trkpt>
      <trkpt lat="47.49352" lon="6.66624">
        <ele>409.2</ele>
        <time>2015-08-31T06:32:19Z</time>
      </trkpt>
      <trkpt lat="47.49354" lon="6.66624">
        <ele>409.7</ele>
        <time>2015-08-31T06:32:20Z</time>
      </trkpt>
      <trkpt lat="47.49355" lon="6.66623">
        <ele>410</ele>
        <time>2015-08-31T06:32:21Z</time>
      </trkpt>
      <trkpt lat="47.49356" lon="6.66622">
        <ele>410.5</ele>
        <time>2015-08-31T06:32:22Z</time>
      </trkpt>
      <trkpt lat="47.49357" lon="6.66622">
        <ele>410.9</ele>
        <time>2015-08-31T06:32:23Z</time>
      </trkpt>
      <trkpt lat="47.49358" lon="6.66621">
        <ele>411.2</ele>
        <time>2015-08-31T06:32:24Z</time>
      </trkpt>
      <trkpt lat="47.4936" lon="6.66618">
        <ele>416.9</ele>
        <time>2015-08-31T06:32:25Z</time>
      </trkpt>
      <trkpt lat="47.49369" lon="6.66603">
        <ele>390.5</ele>
        <time>2015-08-31T06:32:26Z</time>
      </trkpt>
      <trkpt lat="47.49371" lon="6.66603">
        <ele>395.4</ele>
        <time>2015-08-31T06:32:27Z</time>
      </trkpt>
      <trkpt lat="47.49372" lon="6.66604">
        <ele>399.5</ele>
        <time>2015-08-31T06:32:28Z</time>
      </trkpt>
      <trkpt lat="47.49372" lon="6.66606">
        <ele>406.3</ele>
        <time>2015-08-31T06:32:30Z</time>
      </trkpt>
      <trkpt lat="47.49373" lon="6.66607">
        <ele>408.7</ele>
        <time>2015-08-31T06:32:31Z</time>
      </trkpt>
      <trkpt lat="47.49373" lon="6.6661">
        <ele>413.6</ele>
        <time>2015-08-31T06:32:33Z</time>
      </trkpt>
      <trkpt lat="47.49372" lon="6.66611">
        <ele>414.6</ele>
        <time>2015-08-31T06:32:34Z</time>
      </trkpt>
      <trkpt lat="47.49371" lon="6.66612">
        <ele>415.9</ele>
        <time>2015-08-31T06:32:35Z</time>
      </trkpt>
      <trkpt lat="47.49358" lon="6.66615">
        <ele>417.7</ele>
        <time>2015-08-31T06:32:36Z</time>
      </trkpt>
      <trkpt lat="47.49351" lon="6.66617">
        <ele>419.1</ele>
        <time>2015-08-31T06:32:37Z</time>
      </trkpt>
      <trkpt lat="47.4935" lon="6.66618">
        <ele>420.1</ele>
        <time>2015-08-31T06:32:38Z</time>
      </trkpt>
      <trkpt lat="47.49351" lon="6.6662">
        <ele>421.2</ele>
        <time>2015-08-31T06:32:40Z</time>
      </trkpt>
      <trkpt lat="47.49353" lon="6.66622">
        <ele>421.8</ele>
        <time>2015-08-31T06:32:41Z</time>
      </trkpt>
      <trkpt lat="47.49354" lon="6.66625">
        <ele>422</ele>
        <time>2015-08-31T06:32:42Z</time>
      </trkpt>
      <trkpt lat="47.49354" lon="6.66631">
        <ele>422.2</ele>
        <time>2015-08-31T06:32:43Z</time>
      </trkpt>
      <trkpt lat="47.49353" lon="6.66637">
        <ele>422.8</ele>
        <time>2015-08-31T06:32:44Z</time>
      </trkpt>
      <trkpt lat="47.49351" lon="6.66645">
        <ele>423.1</ele>
        <time>2015-08-31T06:32:45Z</time>
      </trkpt>
      <trkpt lat="47.49348" lon="6.66652">
        <ele>423.7</ele>
        <time>2015-08-31T06:32:46Z</time>
      </trkpt>
      <trkpt lat="47.49342" lon="6.66657">
        <ele>423.6</ele>
        <time>2015-08-31T06:32:47Z</time>
      </trkpt>
      <trkpt lat="47.49336" lon="6.66659">
        <ele>423.7</ele>
        <time>2015-08-31T06:32:48Z</time>
      </trkpt>
      <trkpt lat="47.49329" lon="6.66657">
        <ele>423.8</ele>
        <time>2015-08-31T06:32:49Z</time>
      </trkpt>
      <trkpt lat="47.49323" lon="6.66653">
        <ele>423.9</ele>
        <time>2015-08-31T06:32:50Z</time>
      </trkpt>
      <trkpt lat="47.49317" lon="6.66649">
        <ele>423.9</ele>
        <time>2015-08-31T06:32:52Z</time>
      </trkpt>
      <trkpt lat="47.49311" lon="6.66644">
        <ele>424</ele>
        <time>2015-08-31T06:32:53Z</time>
      </trkpt>
      <trkpt lat="47.49307" lon="6.6664">
        <ele>424.1</ele>
        <time>2015-08-31T06:32:54Z</time>
      </trkpt>
      <trkpt lat="47.49303" lon="6.66636">
        <ele>424</ele>
        <time>2015-08-31T06:32:54Z</time>
      </trkpt>
      <trkpt lat="47.493" lon="6.66632">
        <ele>423.9</ele>
        <time>2015-08-31T06:32:55Z</time>
      </trkpt>
      <trkpt lat="47.49296" lon="6.66628">
        <ele>423.9</ele>
        <time>2015-08-31T06:32:56Z</time>
      </trkpt>
      <trkpt lat="47.49293" lon="6.66625">
        <ele>423.9</ele>
        <time>2015-08-31T06:32:57Z</time>
      </trkpt>
      <trkpt lat="47.49288" lon="6.66623">
        <ele>424.1</ele>
        <time>2015-08-31T06:32:58Z</time>
      </trkpt>
      <trkpt lat="47.49284" lon="6.6662">
        <ele>423.8</ele>
        <time>2015-08-31T06:32:59Z</time>
      </trkpt>
      <trkpt lat="47.49279" lon="6.66617">
        <ele>423.7</ele>
        <time>2015-08-31T06:33:00Z</time>
      </trkpt>
      <trkpt lat="47.49275" lon="6.66616">
        <ele>423.5</ele>
        <time>2015-08-31T06:33:01Z</time>
      </trkpt>
      <trkpt lat="47.49273" lon="6.66612">
        <ele>423.3</ele>
        <time>2015-08-31T06:33:02Z</time>
      </trkpt>
      <trkpt lat="47.4927" lon="6.66606">
        <ele>423.4</ele>
        <time>2015-08-31T06:33:03Z</time>
      </trkpt>
      <trkpt lat="47.49268" lon="6.666">
        <ele>423.8</ele>
        <time>2015-08-31T06:33:04Z</time>
      </trkpt>
      <trkpt lat="47.49265" lon="6.66594">
        <ele>424</ele>
        <time>2015-08-31T06:33:06Z</time>
      </trkpt>
      <trkpt lat="47.49263" lon="6.66588">
        <ele>424.3</ele>
        <time>2015-08-31T06:33:06Z</time>
      </trkpt>
      <trkpt lat="47.49261" lon="6.66583">
        <ele>424.5</ele>
        <time>2015-08-31T06:33:07Z</time>
      </trkpt>
      <trkpt lat="47.49259" lon="6.66578">
        <ele>424.7</ele>
        <time>2015-08-31T06:33:08Z</time>
      </trkpt>
      <trkpt lat="47.49257" lon="6.66574">
        <ele>424.8</ele>
        <time>2015-08-31T06:33:09Z</time>
      </trkpt>
      <trkpt lat="47.49255" lon="6.6657">
        <ele>424.8</ele>
        <time>2015-08-31T06:33:10Z</time>
      </trkpt>
      <trkpt lat="47.49253" lon="6.66566">
        <ele>424.8</ele>
        <time>2015-08-31T06:33:11Z</time>
      </trkpt>
      <trkpt lat="47.49251" lon="6.66562">
        <ele>424.7</ele>
        <time>2015-08-31T06:33:12Z</time>
      </trkpt>
      <trkpt lat="47.49249" lon="6.66557">
        <ele>424.7</ele>
        <time>2015-08-31T06:33:13Z</time>
      </trkpt>
      <trkpt lat="47.49247" lon="6.66553">
        <ele>424.8</ele>
        <time>2015-08-31T06:33:14Z</time>
      </trkpt>
      <trkpt lat="47.49243" lon="6.66549">
        <ele>424.6</ele>
        <time>2015-08-31T06:33:15Z</time>
      </trkpt>
      <trkpt lat="47.4924" lon="6.66548">
        <ele>424.2</ele>
        <time>2015-08-31T06:33:16Z</time>
      </trkpt>
      <trkpt lat="47.49236" lon="6.66549">
        <ele>423.8</ele>
        <time>2015-08-31T06:33:17Z</time>
      </trkpt>
      <trkpt lat="47.49232" lon="6.66551">
        <ele>423.5</ele>
        <time>2015-08-31T06:33:18Z</time>
      </trkpt>
      <trkpt lat="47.49228" lon="6.66554">
        <ele>423.6</ele>
        <time>2015-08-31T06:33:19Z</time>
      </trkpt>
      <trkpt lat="47.49224" lon="6.66557">
        <ele>423.4</ele>
        <time>2015-08-31T06:33:20Z</time>
      </trkpt>
      <trkpt lat="47.4922" lon="6.6656">
        <ele>423.6</ele>
        <time>2015-08-31T06:33:21Z</time>
      </trkpt>
      <trkpt lat="47.49215" lon="6.66563">
        <ele>423.9</ele>
        <time>2015-08-31T06:33:22Z</time>
      </trkpt>
      <trkpt lat="47.4921" lon="6.66566">
        <ele>423.9</ele>
        <time>2015-08-31T06:33:23Z</time>
      </trkpt>
      <trkpt lat="47.49207" lon="6.66569">
        <ele>424.2</ele>
        <time>2015-08-31T06:33:25Z</time>
      </trkpt>
      <trkpt lat="47.49202" lon="6.66569">
        <ele>424.3</ele>
        <time>2015-08-31T06:33:25Z</time>
      </trkpt>
      <trkpt lat="47.49197" lon="6.66569">
        <ele>424.2</ele>
        <time>2015-08-31T06:33:26Z</time>
      </trkpt>
      <trkpt lat="47.49191" lon="6.66567">
        <ele>423.7</ele>
        <time>2015-08-31T06:33:27Z</time>
      </trkpt>
      <trkpt lat="47.49186" lon="6.66566">
        <ele>423.4</ele>
        <time>2015-08-31T06:33:29Z</time>
      </trkpt>
      <trkpt lat="47.4918" lon="6.66565">
        <ele>423.3</ele>
        <time>2015-08-31T06:33:29Z</time>
      </trkpt>
      <trkpt lat="47.49174" lon="6.66564">
        <ele>423.1</ele>
        <time>2015-08-31T06:33:30Z</time>
      </trkpt>
      <trkpt lat="47.49169" lon="6.66563">
        <ele>423.1</ele>
        <time>2015-08-31T06:33:31Z</time>
      </trkpt>
      <trkpt lat="47.49163" lon="6.66561">
        <ele>423</ele>
        <time>2015-08-31T06:33:32Z</time>
      </trkpt>
      <trkpt lat="47.49158" lon="6.6656">
        <ele>422.9</ele>
        <time>2015-08-31T06:33:33Z</time>
      </trkpt>
      <trkpt lat="47.49152" lon="6.66559">
        <ele>422.8</ele>
        <time>2015-08-31T06:33:34Z</time>
      </trkpt>
      <trkpt lat="47.49146" lon="6.66558">
        <ele>422.7</ele>
        <time>2015-08-31T06:33:35Z</time>
      </trkpt>
      <trkpt lat="47.49141" lon="6.66556">
        <ele>422.4</ele>
        <time>2015-08-31T06:33:36Z</time>
      </trkpt>
      <trkpt lat="47.49135" lon="6.66554">
        <ele>422.1</ele>
        <time>2015-08-31T06:33:37Z</time>
      </trkpt>
      <trkpt lat="47.49128" lon="6.66553">
        <ele>421.6</ele>
        <time>2015-08-31T06:33:38Z</time>
      </trkpt>
      <trkpt lat="47.49122" lon="6.66552">
        <ele>421.4</ele>
        <time>2015-08-31T06:33:39Z</time>
      </trkpt>
      <trkpt lat="47.49116" lon="6.6655">
        <ele>421.1</ele>
        <time>2015-08-31T06:33:40Z</time>
      </trkpt>
      <trkpt lat="47.49109" lon="6.66549">
        <ele>421</ele>
        <time>2015-08-31T06:33:41Z</time>
      </trkpt>
      <trkpt lat="47.49103" lon="6.66548">
        <ele>420.9</ele>
        <time>2015-08-31T06:33:43Z</time>
      </trkpt>
      <trkpt lat="47.49096" lon="6.66547">
        <ele>420.6</ele>
        <time>2015-08-31T06:33:43Z</time>
      </trkpt>
      <trkpt lat="47.4909" lon="6.66545">
        <ele>420.1</ele>
        <time>2015-08-31T06:33:44Z</time>
      </trkpt>
      <trkpt lat="47.49083" lon="6.66542">
        <ele>419.7</ele>
        <time>2015-08-31T06:33:45Z</time>
      </trkpt>
      <trkpt lat="47.49077" lon="6.66539">
        <ele>419.5</ele>
        <time>2015-08-31T06:33:46Z</time>
      </trkpt>
      <trkpt lat="47.49071" lon="6.66536">
        <ele>419.1</ele>
        <time>2015-08-31T06:33:47Z</time>
      </trkpt>
      <trkpt lat="47.49066" lon="6.66531">
        <ele>418.9</ele>
        <time>2015-08-31T06:33:49Z</time>
      </trkpt>
      <trkpt lat="47.49058" lon="6.66526">
        <ele>418.4</ele>
        <time>2015-08-31T06:33:50Z</time>
      </trkpt>
      <trkpt lat="47.49053" lon="6.6652">
        <ele>418</ele>
        <time>2015-08-31T06:33:50Z</time>
      </trkpt>
      <trkpt lat="47.49048" lon="6.66513">
        <ele>417.6</ele>
        <time>2015-08-31T06:33:52Z</time>
      </trkpt>
      <trkpt lat="47.49045" lon="6.66507">
        <ele>417.1</ele>
        <time>2015-08-31T06:33:53Z</time>
      </trkpt>
      <trkpt lat="47.49042" lon="6.665">
        <ele>416.6</ele>
        <time>2015-08-31T06:33:53Z</time>
      </trkpt>
      <trkpt lat="47.49038" lon="6.66493">
        <ele>416</ele>
        <time>2015-08-31T06:33:54Z</time>
      </trkpt>
      <trkpt lat="47.49035" lon="6.66487">
        <ele>415.7</ele>
        <time>2015-08-31T06:33:56Z</time>
      </trkpt>
      <trkpt lat="47.49031" lon="6.6648">
        <ele>415.2</ele>
        <time>2015-08-31T06:33:57Z</time>
      </trkpt>
      <trkpt lat="47.49027" lon="6.66473">
        <ele>414.8</ele>
        <time>2015-08-31T06:33:58Z</time>
      </trkpt>
      <trkpt lat="47.49022" lon="6.66467">
        <ele>414.3</ele>
        <time>2015-08-31T06:33:58Z</time>
      </trkpt>
      <trkpt lat="47.49018" lon="6.66462">
        <ele>413.9</ele>
        <time>2015-08-31T06:33:59Z</time>
      </trkpt>
      <trkpt lat="47.49017" lon="6.66456">
        <ele>413.8</ele>
        <time>2015-08-31T06:34:00Z</time>
      </trkpt>
      <trkpt lat="47.49013" lon="6.66452">
        <ele>413.4</ele>
        <time>2015-08-31T06:34:02Z</time>
      </trkpt>
      <trkpt lat="47.49008" lon="6.66449">
        <ele>412.9</ele>
        <time>2015-08-31T06:34:02Z</time>
      </trkpt>
      <trkpt lat="47.49002" lon="6.66447">
        <ele>412.4</ele>
        <time>2015-08-31T06:34:03Z</time>
      </trkpt>
      <trkpt lat="47.48995" lon="6.66444">
        <ele>412.1</ele>
        <time>2015-08-31T06:34:04Z</time>
      </trkpt>
      <trkpt lat="47.48989" lon="6.66442">
        <ele>411.9</ele>
        <time>2015-08-31T06:34:05Z</time>
      </trkpt>
      <trkpt lat="47.48983" lon="6.66442">
        <ele>411.5</ele>
        <time>2015-08-31T06:34:06Z</time>
      </trkpt>
      <trkpt lat="47.48977" lon="6.66442">
        <ele>411.5</ele>
        <time>2015-08-31T06:34:07Z</time>
      </trkpt>
      <trkpt lat="47.48972" lon="6.66443">
        <ele>411.2</ele>
        <time>2015-08-31T06:34:08Z</time>
      </trkpt>
      <trkpt lat="47.48967" lon="6.66445">
        <ele>411.1</ele>
        <time>2015-08-31T06:34:09Z</time>
      </trkpt>
      <trkpt lat="47.48962" lon="6.66446">
        <ele>411</ele>
        <time>2015-08-31T06:34:10Z</time>
      </trkpt>
      <trkpt lat="47.48957" lon="6.66447">
        <ele>411</ele>
        <time>2015-08-31T06:34:11Z</time>
      </trkpt>
      <trkpt lat="47.48952" lon="6.6645">
        <ele>410.8</ele>
        <time>2015-08-31T06:34:12Z</time>
      </trkpt>
      <trkpt lat="47.48948" lon="6.66453">
        <ele>410.7</ele>
        <time>2015-08-31T06:34:13Z</time>
      </trkpt>
      <trkpt lat="47.48943" lon="6.66456">
        <ele>410.4</ele>
        <time>2015-08-31T06:34:14Z</time>
      </trkpt>
      <trkpt lat="47.48938" lon="6.66459">
        <ele>410</ele>
        <time>2015-08-31T06:34:15Z</time>
      </trkpt>
      <trkpt lat="47.48933" lon="6.66462">
        <ele>409.8</ele>
        <time>2015-08-31T06:34:16Z</time>
      </trkpt>
      <trkpt lat="47.48928" lon="6.66466">
        <ele>409.8</ele>
        <time>2015-08-31T06:34:17Z</time>
      </trkpt>
      <trkpt lat="47.48923" lon="6.6647">
        <ele>409.8</ele>
        <time>2015-08-31T06:34:18Z</time>
      </trkpt>
      <trkpt lat="47.48917" lon="6.66473">
        <ele>409.8</ele>
        <time>2015-08-31T06:34:19Z</time>
      </trkpt>
      <trkpt lat="47.48913" lon="6.66477">
        <ele>409.8</ele>
        <time>2015-08-31T06:34:20Z</time>
      </trkpt>
      <trkpt lat="47.48907" lon="6.6648">
        <ele>409.5</ele>
        <time>2015-08-31T06:34:21Z</time>
      </trkpt>
      <trkpt lat="47.48902" lon="6.66483">
        <ele>409.4</ele>
        <time>2015-08-31T06:34:22Z</time>
      </trkpt>
      <trkpt lat="47.48896" lon="6.66486">
        <ele>409.5</ele>
        <time>2015-08-31T06:34:23Z</time>
      </trkpt>
      <trkpt lat="47.48892" lon="6.66487">
        <ele>409.3</ele>
        <time>2015-08-31T06:34:24Z</time>
      </trkpt>
      <trkpt lat="47.48887" lon="6.66488">
        <ele>409.4</ele>
        <time>2015-08-31T06:34:25Z</time>
      </trkpt>
      <trkpt lat="47.48882" lon="6.66489">
        <ele>409.3</ele>
        <time>2015-08-31T06:34:26Z</time>
      </trkpt>
      <trkpt lat="47.48878" lon="6.66489">
        <ele>409.3</ele>
        <time>2015-08-31T06:34:27Z</time>
      </trkpt>
      <trkpt lat="47.48874" lon="6.6649">
        <ele>409.2</ele>
        <time>2015-08-31T06:34:28Z</time>
      </trkpt>
      <trkpt lat="47.4887" lon="6.66491">
        <ele>409.2</ele>
        <time>2015-08-31T06:34:29Z</time>
      </trkpt>
      <trkpt lat="47.48865" lon="6.66492">
        <ele>409.7</ele>
        <time>2015-08-31T06:34:30Z</time>
      </trkpt>
      <trkpt lat="47.48861" lon="6.66493">
        <ele>409.8</ele>
        <time>2015-08-31T06:34:31Z</time>
      </trkpt>
      <trkpt lat="47.48857" lon="6.66493">
        <ele>409.8</ele>
        <time>2015-08-31T06:34:32Z</time>
      </trkpt>
      <trkpt lat="47.48852" lon="6.66493">
        <ele>409.8</ele>
        <time>2015-08-31T06:34:33Z</time>
      </trkpt>
      <trkpt lat="47.48848" lon="6.66494">
        <ele>409.7</ele>
        <time>2015-08-31T06:34:34Z</time>
      </trkpt>
      <trkpt lat="47.48843" lon="6.66494">
        <ele>410.1</ele>
        <time>2015-08-31T06:34:35Z</time>
      </trkpt>
      <trkpt lat="47.48839" lon="6.66493">
        <ele>410.4</ele>
        <time>2015-08-31T06:34:36Z</time>
      </trkpt>
      <trkpt lat="47.48835" lon="6.66493">
        <ele>410.8</ele>
        <time>2015-08-31T06:34:37Z</time>
      </trkpt>
      <trkpt lat="47.4883" lon="6.66493">
        <ele>411.1</ele>
        <time>2015-08-31T06:34:38Z</time>
      </trkpt>
      <trkpt lat="47.48826" lon="6.66493">
        <ele>411.4</ele>
        <time>2015-08-31T06:34:39Z</time>
      </trkpt>
      <trkpt lat="47.48822" lon="6.66493">
        <ele>411.5</ele>
        <time>2015-08-31T06:34:40Z</time>
      </trkpt>
      <trkpt lat="47.48818" lon="6.66494">
        <ele>411.6</ele>
        <time>2015-08-31T06:34:41Z</time>
      </trkpt>
      <trkpt lat="47.48814" lon="6.66495">
        <ele>411.9</ele>
        <time>2015-08-31T06:34:42Z</time>
      </trkpt>
      <trkpt lat="47.4881" lon="6.66497">
        <ele>412.1</ele>
        <time>2015-08-31T06:34:43Z</time>
      </trkpt>
      <trkpt lat="47.48806" lon="6.665">
        <ele>412.3</ele>
        <time>2015-08-31T06:34:44Z</time>
      </trkpt>
      <trkpt lat="47.48801" lon="6.66503">
        <ele>412.4</ele>
        <time>2015-08-31T06:34:45Z</time>
      </trkpt>
      <trkpt lat="47.48797" lon="6.66507">
        <ele>412.5</ele>
        <time>2015-08-31T06:34:46Z</time>
      </trkpt>
      <trkpt lat="47.48793" lon="6.66511">
        <ele>412.5</ele>
        <time>2015-08-31T06:34:47Z</time>
      </trkpt>
      <trkpt lat="47.48789" lon="6.66515">
        <ele>412.6</ele>
        <time>2015-08-31T06:34:48Z</time>
      </trkpt>
      <trkpt lat="47.48784" lon="6.66519">
        <ele>412.6</ele>
        <time>2015-08-31T06:34:49Z</time>
      </trkpt>
      <trkpt lat="47.4878" lon="6.66523">
        <ele>412.6</ele>
        <time>2015-08-31T06:34:50Z</time>
      </trkpt>
      <trkpt lat="47.48776" lon="6.66527">
        <ele>412.6</ele>
        <time>2015-08-31T06:34:51Z</time>
      </trkpt>
      <trkpt lat="47.48772" lon="6.66531">
        <ele>412.5</ele>
        <time>2015-08-31T06:34:52Z</time>
      </trkpt>
      <trkpt lat="47.48768" lon="6.66536">
        <ele>412.4</ele>
        <time>2015-08-31T06:34:53Z</time>
      </trkpt>
      <trkpt lat="47.48764" lon="6.66539">
        <ele>412.3</ele>
        <time>2015-08-31T06:34:54Z</time>
      </trkpt>
      <trkpt lat="47.48759" lon="6.66544">
        <ele>411.9</ele>
        <time>2015-08-31T06:34:55Z</time>
      </trkpt>
      <trkpt lat="47.48755" lon="6.66548">
        <ele>411.6</ele>
        <time>2015-08-31T06:34:56Z</time>
      </trkpt>
      <trkpt lat="47.48751" lon="6.66552">
        <ele>411.5</ele>
        <time>2015-08-31T06:34:57Z</time>
      </trkpt>
      <trkpt lat="47.48746" lon="6.66556">
        <ele>411.4</ele>
        <time>2015-08-31T06:34:58Z</time>
      </trkpt>
      <trkpt lat="47.48742" lon="6.6656">
        <ele>411.2</ele>
        <time>2015-08-31T06:34:59Z</time>
      </trkpt>
      <trkpt lat="47.48737" lon="6.66565">
        <ele>410.9</ele>
        <time>2015-08-31T06:35:00Z</time>
      </trkpt>
      <trkpt lat="47.48732" lon="6.66569">
        <ele>410.9</ele>
        <time>2015-08-31T06:35:01Z</time>
      </trkpt>
      <trkpt lat="47.48727" lon="6.66574">
        <ele>410.6</ele>
        <time>2015-08-31T06:35:02Z</time>
      </trkpt>
      <trkpt lat="47.48722" lon="6.66579">
        <ele>410.3</ele>
        <time>2015-08-31T06:35:03Z</time>
      </trkpt>
      <trkpt lat="47.48717" lon="6.66583">
        <ele>409.9</ele>
        <time>2015-08-31T06:35:04Z</time>
      </trkpt>
      <trkpt lat="47.48711" lon="6.66588">
        <ele>409.5</ele>
        <time>2015-08-31T06:35:05Z</time>
      </trkpt>
      <trkpt lat="47.48706" lon="6.66592">
        <ele>409.1</ele>
        <time>2015-08-31T06:35:07Z</time>
      </trkpt>
      <trkpt lat="47.487" lon="6.66595">
        <ele>408.5</ele>
        <time>2015-08-31T06:35:07Z</time>
      </trkpt>
      <trkpt lat="47.48693" lon="6.66599">
        <ele>408.1</ele>
        <time>2015-08-31T06:35:08Z</time>
      </trkpt>
      <trkpt lat="47.48687" lon="6.66603">
        <ele>407.6</ele>
        <time>2015-08-31T06:35:09Z</time>
      </trkpt>
      <trkpt lat="47.4868" lon="6.66607">
        <ele>407.1</ele>
        <time>2015-08-31T06:35:10Z</time>
      </trkpt>
      <trkpt lat="47.48673" lon="6.66611">
        <ele>406.8</ele>
        <time>2015-08-31T06:35:11Z</time>
      </trkpt>
      <trkpt lat="47.48666" lon="6.66616">
        <ele>406.4</ele>
        <time>2015-08-31T06:35:12Z</time>
      </trkpt>
      <trkpt lat="47.48658" lon="6.66622">
        <ele>405.9</ele>
        <time>2015-08-31T06:35:13Z</time>
      </trkpt>
      <trkpt lat="47.48651" lon="6.66629">
        <ele>405.3</ele>
        <time>2015-08-31T06:35:14Z</time>
      </trkpt>
      <trkpt lat="47.48644" lon="6.66636">
        <ele>404.7</ele>
        <time>2015-08-31T06:35:15Z</time>
      </trkpt>
      <trkpt lat="47.48637" lon="6.66644">
        <ele>404.1</ele>
        <time>2015-08-31T06:35:16Z</time>
      </trkpt>
      <trkpt lat="47.48629" lon="6.66653">
        <ele>403.6</ele>
        <time>2015-08-31T06:35:17Z</time>
      </trkpt>
      <trkpt lat="47.48622" lon="6.66661">
        <ele>402.9</ele>
        <time>2015-08-31T06:35:18Z</time>
      </trkpt>
      <trkpt lat="47.48615" lon="6.6667">
        <ele>402.4</ele>
        <time>2015-08-31T06:35:19Z</time>
      </trkpt>
      <trkpt lat="47.48608" lon="6.66678">
        <ele>401.9</ele>
        <time>2015-08-31T06:35:20Z</time>
      </trkpt>
      <trkpt lat="47.48601" lon="6.66686">
        <ele>401.4</ele>
        <time>2015-08-31T06:35:21Z</time>
      </trkpt>
      <trkpt lat="47.48594" lon="6.66694">
        <ele>401</ele>
        <time>2015-08-31T06:35:22Z</time>
      </trkpt>
      <trkpt lat="47.48587" lon="6.66702">
        <ele>400.6</ele>
        <time>2015-08-31T06:35:23Z</time>
      </trkpt>
      <trkpt lat="47.4858" lon="6.6671">
        <ele>400.4</ele>
        <time>2015-08-31T06:35:24Z</time>
      </trkpt>
      <trkpt lat="47.48573" lon="6.66717">
        <ele>400.1</ele>
        <time>2015-08-31T06:35:25Z</time>
      </trkpt>
      <trkpt lat="47.48566" lon="6.66724">
        <ele>399.9</ele>
        <time>2015-08-31T06:35:26Z</time>
      </trkpt>
      <trkpt lat="47.48559" lon="6.6673">
        <ele>399.7</ele>
        <time>2015-08-31T06:35:27Z</time>
      </trkpt>
      <trkpt lat="47.48552" lon="6.66736">
        <ele>400.6</ele>
        <time>2015-08-31T06:35:28Z</time>
      </trkpt>
      <trkpt lat="47.48545" lon="6.6674">
        <ele>400.6</ele>
        <time>2015-08-31T06:35:29Z</time>
      </trkpt>
      <trkpt lat="47.48539" lon="6.66743">
        <ele>400.8</ele>
        <time>2015-08-31T06:35:31Z</time>
      </trkpt>
      <trkpt lat="47.48533" lon="6.66744">
        <ele>401</ele>
        <time>2015-08-31T06:35:31Z</time>
      </trkpt>
      <trkpt lat="47.48527" lon="6.66743">
        <ele>401.2</ele>
        <time>2015-08-31T06:35:32Z</time>
      </trkpt>
      <trkpt lat="47.48521" lon="6.66742">
        <ele>401.4</ele>
        <time>2015-08-31T06:35:33Z</time>
      </trkpt>
      <trkpt lat="47.48516" lon="6.66739">
        <ele>401.7</ele>
        <time>2015-08-31T06:35:34Z</time>
      </trkpt>
      <trkpt lat="47.48511" lon="6.66736">
        <ele>401.9</ele>
        <time>2015-08-31T06:35:35Z</time>
      </trkpt>
      <trkpt lat="47.48506" lon="6.66734">
        <ele>402</ele>
        <time>2015-08-31T06:35:36Z</time>
      </trkpt>
      <trkpt lat="47.48501" lon="6.66731">
        <ele>402.1</ele>
        <time>2015-08-31T06:35:37Z</time>
      </trkpt>
      <trkpt lat="47.48497" lon="6.66728">
        <ele>402.3</ele>
        <time>2015-08-31T06:35:38Z</time>
      </trkpt>
      <trkpt lat="47.48492" lon="6.66725">
        <ele>402.3</ele>
        <time>2015-08-31T06:35:39Z</time>
      </trkpt>
      <trkpt lat="47.48488" lon="6.66722">
        <ele>402.4</ele>
        <time>2015-08-31T06:35:40Z</time>
      </trkpt>
      <trkpt lat="47.48483" lon="6.66719">
        <ele>402.5</ele>
        <time>2015-08-31T06:35:41Z</time>
      </trkpt>
      <trkpt lat="47.48479" lon="6.66716">
        <ele>402.6</ele>
        <time>2015-08-31T06:35:42Z</time>
      </trkpt>
      <trkpt lat="47.48474" lon="6.66713">
        <ele>402.7</ele>
        <time>2015-08-31T06:35:43Z</time>
      </trkpt>
      <trkpt lat="47.4847" lon="6.66711">
        <ele>402.7</ele>
        <time>2015-08-31T06:35:44Z</time>
      </trkpt>
      <trkpt lat="47.48466" lon="6.66708">
        <ele>402.8</ele>
        <time>2015-08-31T06:35:45Z</time>
      </trkpt>
      <trkpt lat="47.48461" lon="6.66706">
        <ele>402.9</ele>
        <time>2015-08-31T06:35:46Z</time>
      </trkpt>
      <trkpt lat="47.48457" lon="6.66705">
        <ele>403.1</ele>
        <time>2015-08-31T06:35:47Z</time>
      </trkpt>
      <trkpt lat="47.48453" lon="6.66703">
        <ele>403.2</ele>
        <time>2015-08-31T06:35:48Z</time>
      </trkpt>
      <trkpt lat="47.48448" lon="6.66702">
        <ele>403.1</ele>
        <time>2015-08-31T06:35:49Z</time>
      </trkpt>
      <trkpt lat="47.48444" lon="6.66701">
        <ele>403.1</ele>
        <time>2015-08-31T06:35:50Z</time>
      </trkpt>
      <trkpt lat="47.4844" lon="6.66701">
        <ele>403.1</ele>
        <time>2015-08-31T06:35:51Z</time>
      </trkpt>
      <trkpt lat="47.48436" lon="6.667">
        <ele>403.2</ele>
        <time>2015-08-31T06:35:52Z</time>
      </trkpt>
      <trkpt lat="47.48432" lon="6.667">
        <ele>403.2</ele>
        <time>2015-08-31T06:35:53Z</time>
      </trkpt>
      <trkpt lat="47.48429" lon="6.66701">
        <ele>403.1</ele>
        <time>2015-08-31T06:35:54Z</time>
      </trkpt>
      <trkpt lat="47.48426" lon="6.66701">
        <ele>402.9</ele>
        <time>2015-08-31T06:35:55Z</time>
      </trkpt>
      <trkpt lat="47.48422" lon="6.66702">
        <ele>402.8</ele>
        <time>2015-08-31T06:35:56Z</time>
      </trkpt>
      <trkpt lat="47.48419" lon="6.66703">
        <ele>402.7</ele>
        <time>2015-08-31T06:35:57Z</time>
      </trkpt>
      <trkpt lat="47.48416" lon="6.66704">
        <ele>402.6</ele>
        <time>2015-08-31T06:35:58Z</time>
      </trkpt>
      <trkpt lat="47.48414" lon="6.66705">
        <ele>402.5</ele>
        <time>2015-08-31T06:35:59Z</time>
      </trkpt>
      <trkpt lat="47.48411" lon="6.66706">
        <ele>402.3</ele>
        <time>2015-08-31T06:36:01Z</time>
      </trkpt>
      <trkpt lat="47.48409" lon="6.66707">
        <ele>402.1</ele>
        <time>2015-08-31T06:36:02Z</time>
      </trkpt>
      <trkpt lat="47.48409" lon="6.66708">
        <ele>401.6</ele>
        <time>2015-08-31T06:36:06Z</time>
      </trkpt>
      <trkpt lat="47.4841" lon="6.66708">
        <ele>400.9</ele>
        <time>2015-08-31T06:36:13Z</time>
      </trkpt>
      <trkpt lat="47.48411" lon="6.66709">
        <ele>400.3</ele>
        <time>2015-08-31T06:36:24Z</time>
      </trkpt>
      <trkpt lat="47.4841" lon="6.66708">
        <ele>399.3</ele>
        <time>2015-08-31T06:36:35Z</time>
      </trkpt>
      <trkpt lat="47.48408" lon="6.66709">
        <ele>399.2</ele>
        <time>2015-08-31T06:36:36Z</time>
      </trkpt>
      <trkpt lat="47.48406" lon="6.66711">
        <ele>399.2</ele>
        <time>2015-08-31T06:36:37Z</time>
      </trkpt>
      <trkpt lat="47.48404" lon="6.66713">
        <ele>399.2</ele>
        <time>2015-08-31T06:36:38Z</time>
      </trkpt>
      <trkpt lat="47.484" lon="6.66715">
        <ele>399.2</ele>
        <time>2015-08-31T06:36:39Z</time>
      </trkpt>
      <trkpt lat="47.48396" lon="6.66717">
        <ele>399.1</ele>
        <time>2015-08-31T06:36:40Z</time>
      </trkpt>
      <trkpt lat="47.48392" lon="6.6672">
        <ele>399.2</ele>
        <time>2015-08-31T06:36:41Z</time>
      </trkpt>
      <trkpt lat="47.48387" lon="6.66722">
        <ele>399.3</ele>
        <time>2015-08-31T06:36:42Z</time>
      </trkpt>
      <trkpt lat="47.48383" lon="6.66726">
        <ele>399.5</ele>
        <time>2015-08-31T06:36:43Z</time>
      </trkpt>
      <trkpt lat="47.48378" lon="6.6673">
        <ele>399.5</ele>
        <time>2015-08-31T06:36:44Z</time>
      </trkpt>
      <trkpt lat="47.48374" lon="6.66734">
        <ele>399.5</ele>
        <time>2015-08-31T06:36:45Z</time>
      </trkpt>
      <trkpt lat="47.4837" lon="6.66738">
        <ele>399.6</ele>
        <time>2015-08-31T06:36:46Z</time>
      </trkpt>
      <trkpt lat="47.48367" lon="6.66743">
        <ele>399.7</ele>
        <time>2015-08-31T06:36:47Z</time>
      </trkpt>
      <trkpt lat="47.48363" lon="6.66748">
        <ele>399.7</ele>
        <time>2015-08-31T06:36:48Z</time>
      </trkpt>
      <trkpt lat="47.48359" lon="6.66754">
        <ele>399.7</ele>
        <time>2015-08-31T06:36:49Z</time>
      </trkpt>
      <trkpt lat="47.48356" lon="6.6676">
        <ele>399.7</ele>
        <time>2015-08-31T06:36:50Z</time>
      </trkpt>
      <trkpt lat="47.48353" lon="6.66766">
        <ele>399.5</ele>
        <time>2015-08-31T06:36:51Z</time>
      </trkpt>
      <trkpt lat="47.4835" lon="6.66772">
        <ele>399.5</ele>
        <time>2015-08-31T06:36:52Z</time>
      </trkpt>
      <trkpt lat="47.48347" lon="6.66778">
        <ele>399.5</ele>
        <time>2015-08-31T06:36:53Z</time>
      </trkpt>
      <trkpt lat="47.48344" lon="6.66785">
        <ele>399.6</ele>
        <time>2015-08-31T06:36:54Z</time>
      </trkpt>
      <trkpt lat="47.48342" lon="6.66791">
        <ele>399.6</ele>
        <time>2015-08-31T06:36:55Z</time>
      </trkpt>
      <trkpt lat="47.48339" lon="6.66797">
        <ele>399.6</ele>
        <time>2015-08-31T06:36:56Z</time>
      </trkpt>
      <trkpt lat="47.48337" lon="6.66804">
        <ele>399.6</ele>
        <time>2015-08-31T06:36:57Z</time>
      </trkpt>
      <trkpt lat="47.48334" lon="6.6681">
        <ele>399.6</ele>
        <time>2015-08-31T06:36:58Z</time>
      </trkpt>
      <trkpt lat="47.48332" lon="6.66817">
        <ele>399.5</ele>
        <time>2015-08-31T06:36:59Z</time>
      </trkpt>
      <trkpt lat="47.4833" lon="6.66824">
        <ele>399.4</ele>
        <time>2015-08-31T06:37:00Z</time>
      </trkpt>
      <trkpt lat="47.48328" lon="6.66831">
        <ele>399.4</ele>
        <time>2015-08-31T06:37:01Z</time>
      </trkpt>
      <trkpt lat="47.48326" lon="6.66838">
        <ele>399.3</ele>
        <time>2015-08-31T06:37:02Z</time>
      </trkpt>
      <trkpt lat="47.48324" lon="6.66844">
        <ele>399.3</ele>
        <time>2015-08-31T06:37:03Z</time>
      </trkpt>
      <trkpt lat="47.48322" lon="6.66851">
        <ele>399.3</ele>
        <time>2015-08-31T06:37:04Z</time>
      </trkpt>
      <trkpt lat="47.4832" lon="6.66858">
        <ele>399.3</ele>
        <time>2015-08-31T06:37:05Z</time>
      </trkpt>
      <trkpt lat="47.48317" lon="6.66865">
        <ele>399.2</ele>
        <time>2015-08-31T06:37:06Z</time>
      </trkpt>
      <trkpt lat="47.48315" lon="6.66871">
        <ele>399.2</ele>
        <time>2015-08-31T06:37:07Z</time>
      </trkpt>
      <trkpt lat="47.48313" lon="6.66878">
        <ele>399.3</ele>
        <time>2015-08-31T06:37:08Z</time>
      </trkpt>
      <trkpt lat="47.48311" lon="6.66884">
        <ele>399.4</ele>
        <time>2015-08-31T06:37:09Z</time>
      </trkpt>
      <trkpt lat="47.48309" lon="6.66891">
        <ele>399.4</ele>
        <time>2015-08-31T06:37:10Z</time>
      </trkpt>
      <trkpt lat="47.48307" lon="6.66898">
        <ele>399.4</ele>
        <time>2015-08-31T06:37:11Z</time>
      </trkpt>
      <trkpt lat="47.48305" lon="6.66904">
        <ele>399.3</ele>
        <time>2015-08-31T06:37:12Z</time>
      </trkpt>
      <trkpt lat="47.48303" lon="6.6691">
        <ele>399.4</ele>
        <time>2015-08-31T06:37:13Z</time>
      </trkpt>
      <trkpt lat="47.48301" lon="6.66916">
        <ele>399.4</ele>
        <time>2015-08-31T06:37:14Z</time>
      </trkpt>
      <trkpt lat="47.48299" lon="6.66922">
        <ele>399.6</ele>
        <time>2015-08-31T06:37:15Z</time>
      </trkpt>
      <trkpt lat="47.48297" lon="6.66929">
        <ele>399.6</ele>
        <time>2015-08-31T06:37:16Z</time>
      </trkpt>
      <trkpt lat="47.48295" lon="6.66935">
        <ele>399.6</ele>
        <time>2015-08-31T06:37:17Z</time>
      </trkpt>
      <trkpt lat="47.48293" lon="6.66942">
        <ele>399.5</ele>
        <time>2015-08-31T06:37:18Z</time>
      </trkpt>
      <trkpt lat="47.48291" lon="6.66948">
        <ele>399.5</ele>
        <time>2015-08-31T06:37:19Z</time>
      </trkpt>
      <trkpt lat="47.48289" lon="6.66954">
        <ele>399.1</ele>
        <time>2015-08-31T06:37:20Z</time>
      </trkpt>
      <trkpt lat="47.48288" lon="6.66961">
        <ele>399</ele>
        <time>2015-08-31T06:37:21Z</time>
      </trkpt>
      <trkpt lat="47.48286" lon="6.66967">
        <ele>398.9</ele>
        <time>2015-08-31T06:37:22Z</time>
      </trkpt>
      <trkpt lat="47.48283" lon="6.66973">
        <ele>398.9</ele>
        <time>2015-08-31T06:37:23Z</time>
      </trkpt>
      <trkpt lat="47.48281" lon="6.6698">
        <ele>398.6</ele>
        <time>2015-08-31T06:37:24Z</time>
      </trkpt>
      <trkpt lat="47.4828" lon="6.66986">
        <ele>398.4</ele>
        <time>2015-08-31T06:37:25Z</time>
      </trkpt>
      <trkpt lat="47.48278" lon="6.66992">
        <ele>398.2</ele>
        <time>2015-08-31T06:37:26Z</time>
      </trkpt>
      <trkpt lat="47.48276" lon="6.66999">
        <ele>398.1</ele>
        <time>2015-08-31T06:37:27Z</time>
      </trkpt>
      <trkpt lat="47.48275" lon="6.67005">
        <ele>397.9</ele>
        <time>2015-08-31T06:37:28Z</time>
      </trkpt>
      <trkpt lat="47.48273" lon="6.67012">
        <ele>397.7</ele>
        <time>2015-08-31T06:37:29Z</time>
      </trkpt>
      <trkpt lat="47.48272" lon="6.67019">
        <ele>397.6</ele>
        <time>2015-08-31T06:37:30Z</time>
      </trkpt>
      <trkpt lat="47.48271" lon="6.67025">
        <ele>397.5</ele>
        <time>2015-08-31T06:37:31Z</time>
      </trkpt>
      <trkpt lat="47.4827" lon="6.67032">
        <ele>397.7</ele>
        <time>2015-08-31T06:37:32Z</time>
      </trkpt>
      <trkpt lat="47.48268" lon="6.67039">
        <ele>398</ele>
        <time>2015-08-31T06:37:33Z</time>
      </trkpt>
      <trkpt lat="47.48267" lon="6.67046">
        <ele>398.1</ele>
        <time>2015-08-31T06:37:34Z</time>
      </trkpt>
      <trkpt lat="47.48266" lon="6.67053">
        <ele>398.3</ele>
        <time>2015-08-31T06:37:35Z</time>
      </trkpt>
      <trkpt lat="47.48265" lon="6.6706">
        <ele>398.4</ele>
        <time>2015-08-31T06:37:36Z</time>
      </trkpt>
      <trkpt lat="47.48263" lon="6.67067">
        <ele>398.5</ele>
        <time>2015-08-31T06:37:37Z</time>
      </trkpt>
      <trkpt lat="47.48262" lon="6.67074">
        <ele>398.7</ele>
        <time>2015-08-31T06:37:38Z</time>
      </trkpt>
      <trkpt lat="47.48261" lon="6.67081">
        <ele>398.7</ele>
        <time>2015-08-31T06:37:39Z</time>
      </trkpt>
      <trkpt lat="47.4826" lon="6.67088">
        <ele>398.8</ele>
        <time>2015-08-31T06:37:40Z</time>
      </trkpt>
      <trkpt lat="47.48258" lon="6.67095">
        <ele>398.9</ele>
        <time>2015-08-31T06:37:41Z</time>
      </trkpt>
      <trkpt lat="47.48257" lon="6.67101">
        <ele>399.2</ele>
        <time>2015-08-31T06:37:42Z</time>
      </trkpt>
      <trkpt lat="47.48256" lon="6.67108">
        <ele>399.2</ele>
        <time>2015-08-31T06:37:43Z</time>
      </trkpt>
      <trkpt lat="47.48255" lon="6.67115">
        <ele>399.2</ele>
        <time>2015-08-31T06:37:44Z</time>
      </trkpt>
      <trkpt lat="47.48254" lon="6.67122">
        <ele>399.3</ele>
        <time>2015-08-31T06:37:45Z</time>
      </trkpt>
      <trkpt lat="47.48253" lon="6.67129">
        <ele>399.3</ele>
        <time>2015-08-31T06:37:46Z</time>
      </trkpt>
      <trkpt lat="47.48251" lon="6.67136">
        <ele>399.4</ele>
        <time>2015-08-31T06:37:47Z</time>
      </trkpt>
      <trkpt lat="47.4825" lon="6.67143">
        <ele>399.5</ele>
        <time>2015-08-31T06:37:48Z</time>
      </trkpt>
      <trkpt lat="47.48249" lon="6.6715">
        <ele>399.6</ele>
        <time>2015-08-31T06:37:49Z</time>
      </trkpt>
      <trkpt lat="47.48248" lon="6.67157">
        <ele>399.6</ele>
        <time>2015-08-31T06:37:50Z</time>
      </trkpt>
      <trkpt lat="47.48247" lon="6.67164">
        <ele>399.8</ele>
        <time>2015-08-31T06:37:51Z</time>
      </trkpt>
      <trkpt lat="47.48246" lon="6.67171">
        <ele>400</ele>
        <time>2015-08-31T06:37:52Z</time>
      </trkpt>
      <trkpt lat="47.48245" lon="6.67178">
        <ele>400.1</ele>
        <time>2015-08-31T06:37:53Z</time>
      </trkpt>
      <trkpt lat="47.48244" lon="6.67184">
        <ele>400.1</ele>
        <time>2015-08-31T06:37:54Z</time>
      </trkpt>
      <trkpt lat="47.48243" lon="6.67191">
        <ele>400.2</ele>
        <time>2015-08-31T06:37:55Z</time>
      </trkpt>
      <trkpt lat="47.48241" lon="6.67198">
        <ele>400.1</ele>
        <time>2015-08-31T06:37:56Z</time>
      </trkpt>
      <trkpt lat="47.4824" lon="6.67205">
        <ele>400.2</ele>
        <time>2015-08-31T06:37:57Z</time>
      </trkpt>
      <trkpt lat="47.48239" lon="6.67212">
        <ele>400.1</ele>
        <time>2015-08-31T06:37:58Z</time>
      </trkpt>
      <trkpt lat="47.48238" lon="6.67219">
        <ele>400</ele>
        <time>2015-08-31T06:37:59Z</time>
      </trkpt>
      <trkpt lat="47.48236" lon="6.67226">
        <ele>400</ele>
        <time>2015-08-31T06:38:00Z</time>
      </trkpt>
      <trkpt lat="47.48235" lon="6.67234">
        <ele>399.9</ele>
        <time>2015-08-31T06:38:01Z</time>
      </trkpt>
      <trkpt lat="47.48234" lon="6.6724">
        <ele>399.9</ele>
        <time>2015-08-31T06:38:02Z</time>
      </trkpt>
      <trkpt lat="47.48233" lon="6.67247">
        <ele>399.9</ele>
        <time>2015-08-31T06:38:03Z</time>
      </trkpt>
      <trkpt lat="47.48231" lon="6.67254">
        <ele>399.9</ele>
        <time>2015-08-31T06:38:04Z</time>
      </trkpt>
      <trkpt lat="47.4823" lon="6.67261">
        <ele>400</ele>
        <time>2015-08-31T06:38:05Z</time>
      </trkpt>
      <trkpt lat="47.48228" lon="6.67268">
        <ele>400</ele>
        <time>2015-08-31T06:38:06Z</time>
      </trkpt>
      <trkpt lat="47.48226" lon="6.67274">
        <ele>400</ele>
        <time>2015-08-31T06:38:07Z</time>
      </trkpt>
      <trkpt lat="47.48224" lon="6.6728">
        <ele>400</ele>
        <time>2015-08-31T06:38:08Z</time>
      </trkpt>
      <trkpt lat="47.48222" lon="6.67286">
        <ele>400</ele>
        <time>2015-08-31T06:38:09Z</time>
      </trkpt>
      <trkpt lat="47.4822" lon="6.67292">
        <ele>399.9</ele>
        <time>2015-08-31T06:38:10Z</time>
      </trkpt>
      <trkpt lat="47.48217" lon="6.67298">
        <ele>399.8</ele>
        <time>2015-08-31T06:38:11Z</time>
      </trkpt>
      <trkpt lat="47.48215" lon="6.67305">
        <ele>399.7</ele>
        <time>2015-08-31T06:38:12Z</time>
      </trkpt>
      <trkpt lat="47.48213" lon="6.67311">
        <ele>399.5</ele>
        <time>2015-08-31T06:38:13Z</time>
      </trkpt>
      <trkpt lat="47.48211" lon="6.67318">
        <ele>399.4</ele>
        <time>2015-08-31T06:38:14Z</time>
      </trkpt>
      <trkpt lat="47.48208" lon="6.67326">
        <ele>399.3</ele>
        <time>2015-08-31T06:38:15Z</time>
      </trkpt>
      <trkpt lat="47.48206" lon="6.67333">
        <ele>399.1</ele>
        <time>2015-08-31T06:38:16Z</time>
      </trkpt>
      <trkpt lat="47.48204" lon="6.6734">
        <ele>399</ele>
        <time>2015-08-31T06:38:17Z</time>
      </trkpt>
      <trkpt lat="47.48202" lon="6.67348">
        <ele>398.7</ele>
        <time>2015-08-31T06:38:18Z</time>
      </trkpt>
      <trkpt lat="47.48199" lon="6.67356">
        <ele>398.5</ele>
        <time>2015-08-31T06:38:19Z</time>
      </trkpt>
      <trkpt lat="47.48196" lon="6.67364">
        <ele>398.2</ele>
        <time>2015-08-31T06:38:20Z</time>
      </trkpt>
      <trkpt lat="47.48194" lon="6.67372">
        <ele>398.1</ele>
        <time>2015-08-31T06:38:21Z</time>
      </trkpt>
      <trkpt lat="47.48191" lon="6.6738">
        <ele>397.9</ele>
        <time>2015-08-31T06:38:22Z</time>
      </trkpt>
      <trkpt lat="47.48189" lon="6.67388">
        <ele>397.7</ele>
        <time>2015-08-31T06:38:23Z</time>
      </trkpt>
      <trkpt lat="47.48186" lon="6.67396">
        <ele>397.5</ele>
        <time>2015-08-31T06:38:24Z</time>
      </trkpt>
      <trkpt lat="47.48182" lon="6.67403">
        <ele>397.4</ele>
        <time>2015-08-31T06:38:25Z</time>
      </trkpt>
      <trkpt lat="47.48179" lon="6.6741">
        <ele>397.1</ele>
        <time>2015-08-31T06:38:26Z</time>
      </trkpt>
      <trkpt lat="47.48175" lon="6.67418">
        <ele>396.8</ele>
        <time>2015-08-31T06:38:27Z</time>
      </trkpt>
      <trkpt lat="47.4817" lon="6.67425">
        <ele>396.6</ele>
        <time>2015-08-31T06:38:28Z</time>
      </trkpt>
      <trkpt lat="47.48166" lon="6.67432">
        <ele>396.4</ele>
        <time>2015-08-31T06:38:29Z</time>
      </trkpt>
      <trkpt lat="47.48162" lon="6.67439">
        <ele>396.1</ele>
        <time>2015-08-31T06:38:30Z</time>
      </trkpt>
      <trkpt lat="47.48157" lon="6.67446">
        <ele>395.9</ele>
        <time>2015-08-31T06:38:31Z</time>
      </trkpt>
      <trkpt lat="47.48153" lon="6.67453">
        <ele>395.7</ele>
        <time>2015-08-31T06:38:32Z</time>
      </trkpt>
      <trkpt lat="47.48148" lon="6.67462">
        <ele>395.2</ele>
        <time>2015-08-31T06:38:33Z</time>
      </trkpt>
      <trkpt lat="47.48144" lon="6.6747">
        <ele>394.8</ele>
        <time>2015-08-31T06:38:34Z</time>
      </trkpt>
      <trkpt lat="47.48139" lon="6.6748">
        <ele>394.3</ele>
        <time>2015-08-31T06:38:35Z</time>
      </trkpt>
      <trkpt lat="47.48136" lon="6.6749">
        <ele>393.8</ele>
        <time>2015-08-31T06:38:36Z</time>
      </trkpt>
      <trkpt lat="47.48132" lon="6.67501">
        <ele>393.3</ele>
        <time>2015-08-31T06:38:37Z</time>
      </trkpt>
      <trkpt lat="47.48128" lon="6.67512">
        <ele>392.9</ele>
        <time>2015-08-31T06:38:38Z</time>
      </trkpt>
      <trkpt lat="47.48125" lon="6.67523">
        <ele>392.4</ele>
        <time>2015-08-31T06:38:39Z</time>
      </trkpt>
      <trkpt lat="47.48122" lon="6.67535">
        <ele>392.3</ele>
        <time>2015-08-31T06:38:40Z</time>
      </trkpt>
      <trkpt lat="47.48118" lon="6.67547">
        <ele>392.1</ele>
        <time>2015-08-31T06:38:41Z</time>
      </trkpt>
      <trkpt lat="47.48116" lon="6.67559">
        <ele>391.7</ele>
        <time>2015-08-31T06:38:42Z</time>
      </trkpt>
      <trkpt lat="47.48113" lon="6.67571">
        <ele>391.3</ele>
        <time>2015-08-31T06:38:43Z</time>
      </trkpt>
      <trkpt lat="47.4811" lon="6.67584">
        <ele>391.1</ele>
        <time>2015-08-31T06:38:44Z</time>
      </trkpt>
      <trkpt lat="47.48107" lon="6.67597">
        <ele>390.6</ele>
        <time>2015-08-31T06:38:45Z</time>
      </trkpt>
      <trkpt lat="47.48104" lon="6.6761">
        <ele>390.2</ele>
        <time>2015-08-31T06:38:46Z</time>
      </trkpt>
      <trkpt lat="47.48101" lon="6.67623">
        <ele>389.8</ele>
        <time>2015-08-31T06:38:47Z</time>
      </trkpt>
      <trkpt lat="47.48098" lon="6.67635">
        <ele>389.6</ele>
        <time>2015-08-31T06:38:48Z</time>
      </trkpt>
      <trkpt lat="47.48096" lon="6.67649">
        <ele>389.2</ele>
        <time>2015-08-31T06:38:49Z</time>
      </trkpt>
      <trkpt lat="47.48093" lon="6.67662">
        <ele>388.7</ele>
        <time>2015-08-31T06:38:50Z</time>
      </trkpt>
      <trkpt lat="47.48091" lon="6.67676">
        <ele>388.1</ele>
        <time>2015-08-31T06:38:51Z</time>
      </trkpt>
      <trkpt lat="47.48088" lon="6.67691">
        <ele>387.4</ele>
        <time>2015-08-31T06:38:52Z</time>
      </trkpt>
      <trkpt lat="47.48086" lon="6.67705">
        <ele>386.9</ele>
        <time>2015-08-31T06:38:53Z</time>
      </trkpt>
      <trkpt lat="47.48085" lon="6.6772">
        <ele>386.3</ele>
        <time>2015-08-31T06:38:54Z</time>
      </trkpt>
      <trkpt lat="47.48083" lon="6.67735">
        <ele>385.7</ele>
        <time>2015-08-31T06:38:55Z</time>
      </trkpt>
      <trkpt lat="47.48082" lon="6.6775">
        <ele>385.4</ele>
        <time>2015-08-31T06:38:56Z</time>
      </trkpt>
      <trkpt lat="47.48079" lon="6.67764">
        <ele>384.9</ele>
        <time>2015-08-31T06:38:57Z</time>
      </trkpt>
      <trkpt lat="47.48076" lon="6.67778">
        <ele>384.6</ele>
        <time>2015-08-31T06:38:58Z</time>
      </trkpt>
      <trkpt lat="47.48072" lon="6.67792">
        <ele>384.3</ele>
        <time>2015-08-31T06:38:59Z</time>
      </trkpt>
      <trkpt lat="47.48067" lon="6.67805">
        <ele>383.6</ele>
        <time>2015-08-31T06:39:00Z</time>
      </trkpt>
      <trkpt lat="47.48062" lon="6.67817">
        <ele>383</ele>
        <time>2015-08-31T06:39:01Z</time>
      </trkpt>
      <trkpt lat="47.48056" lon="6.67829">
        <ele>382.5</ele>
        <time>2015-08-31T06:39:02Z</time>
      </trkpt>
      <trkpt lat="47.4805" lon="6.67839">
        <ele>382.2</ele>
        <time>2015-08-31T06:39:03Z</time>
      </trkpt>
      <trkpt lat="47.48043" lon="6.67849">
        <ele>381.9</ele>
        <time>2015-08-31T06:39:04Z</time>
      </trkpt>
      <trkpt lat="47.48037" lon="6.67859">
        <ele>381.6</ele>
        <time>2015-08-31T06:39:05Z</time>
      </trkpt>
      <trkpt lat="47.4803" lon="6.67868">
        <ele>381.1</ele>
        <time>2015-08-31T06:39:06Z</time>
      </trkpt>
      <trkpt lat="47.48024" lon="6.67878">
        <ele>380.7</ele>
        <time>2015-08-31T06:39:07Z</time>
      </trkpt>
      <trkpt lat="47.48018" lon="6.67887">
        <ele>380.3</ele>
        <time>2015-08-31T06:39:08Z</time>
      </trkpt>
      <trkpt lat="47.48012" lon="6.67897">
        <ele>379.8</ele>
        <time>2015-08-31T06:39:09Z</time>
      </trkpt>
      <trkpt lat="47.48006" lon="6.67906">
        <ele>379.5</ele>
        <time>2015-08-31T06:39:10Z</time>
      </trkpt>
      <trkpt lat="47.48" lon="6.67917">
        <ele>379</ele>
        <time>2015-08-31T06:39:11Z</time>
      </trkpt>
      <trkpt lat="47.47994" lon="6.67927">
        <ele>378.7</ele>
        <time>2015-08-31T06:39:12Z</time>
      </trkpt>
      <trkpt lat="47.47989" lon="6.67939">
        <ele>378.2</ele>
        <time>2015-08-31T06:39:13Z</time>
      </trkpt>
      <trkpt lat="47.47983" lon="6.67951">
        <ele>377.6</ele>
        <time>2015-08-31T06:39:14Z</time>
      </trkpt>
      <trkpt lat="47.47978" lon="6.67963">
        <ele>377.1</ele>
        <time>2015-08-31T06:39:15Z</time>
      </trkpt>
      <trkpt lat="47.47973" lon="6.67976">
        <ele>376.7</ele>
        <time>2015-08-31T06:39:16Z</time>
      </trkpt>
      <trkpt lat="47.4797" lon="6.6799">
        <ele>376.1</ele>
        <time>2015-08-31T06:39:17Z</time>
      </trkpt>
      <trkpt lat="47.47967" lon="6.68004">
        <ele>375.5</ele>
        <time>2015-08-31T06:39:18Z</time>
      </trkpt>
      <trkpt lat="47.47966" lon="6.68019">
        <ele>375.1</ele>
        <time>2015-08-31T06:39:19Z</time>
      </trkpt>
      <trkpt lat="47.47965" lon="6.68034">
        <ele>374.3</ele>
        <time>2015-08-31T06:39:20Z</time>
      </trkpt>
      <trkpt lat="47.47965" lon="6.68049">
        <ele>373.8</ele>
        <time>2015-08-31T06:39:21Z</time>
      </trkpt>
      <trkpt lat="47.47965" lon="6.68065">
        <ele>373.4</ele>
        <time>2015-08-31T06:39:22Z</time>
      </trkpt>
      <trkpt lat="47.47965" lon="6.6808">
        <ele>372.8</ele>
        <time>2015-08-31T06:39:23Z</time>
      </trkpt>
      <trkpt lat="47.47965" lon="6.68095">
        <ele>372.3</ele>
        <time>2015-08-31T06:39:24Z</time>
      </trkpt>
      <trkpt lat="47.47964" lon="6.68111">
        <ele>371.7</ele>
        <time>2015-08-31T06:39:25Z</time>
      </trkpt>
      <trkpt lat="47.47963" lon="6.68127">
        <ele>371.1</ele>
        <time>2015-08-31T06:39:26Z</time>
      </trkpt>
      <trkpt lat="47.47961" lon="6.68143">
        <ele>370.4</ele>
        <time>2015-08-31T06:39:27Z</time>
      </trkpt>
      <trkpt lat="47.47959" lon="6.68158">
        <ele>369.6</ele>
        <time>2015-08-31T06:39:28Z</time>
      </trkpt>
      <trkpt lat="47.47956" lon="6.68173">
        <ele>368.7</ele>
        <time>2015-08-31T06:39:29Z</time>
      </trkpt>
      <trkpt lat="47.47954" lon="6.68189">
        <ele>367.9</ele>
        <time>2015-08-31T06:39:30Z</time>
      </trkpt>
      <trkpt lat="47.47951" lon="6.68205">
        <ele>366.7</ele>
        <time>2015-08-31T06:39:31Z</time>
      </trkpt>
      <trkpt lat="47.47947" lon="6.68221">
        <ele>365.7</ele>
        <time>2015-08-31T06:39:32Z</time>
      </trkpt>
      <trkpt lat="47.47943" lon="6.68237">
        <ele>364.7</ele>
        <time>2015-08-31T06:39:33Z</time>
      </trkpt>
      <trkpt lat="47.47939" lon="6.68253">
        <ele>363.7</ele>
        <time>2015-08-31T06:39:34Z</time>
      </trkpt>
      <trkpt lat="47.47934" lon="6.68269">
        <ele>362.7</ele>
        <time>2015-08-31T06:39:35Z</time>
      </trkpt>
      <trkpt lat="47.47929" lon="6.68285">
        <ele>361.8</ele>
        <time>2015-08-31T06:39:36Z</time>
      </trkpt>
      <trkpt lat="47.47924" lon="6.68301">
        <ele>360.9</ele>
        <time>2015-08-31T06:39:37Z</time>
      </trkpt>
      <trkpt lat="47.4792" lon="6.68317">
        <ele>360</ele>
        <time>2015-08-31T06:39:38Z</time>
      </trkpt>
      <trkpt lat="47.47916" lon="6.68332">
        <ele>359.1</ele>
        <time>2015-08-31T06:39:39Z</time>
      </trkpt>
      <trkpt lat="47.47912" lon="6.68346">
        <ele>358.2</ele>
        <time>2015-08-31T06:39:40Z</time>
      </trkpt>
      <trkpt lat="47.47908" lon="6.6836">
        <ele>357.5</ele>
        <time>2015-08-31T06:39:41Z</time>
      </trkpt>
      <trkpt lat="47.47905" lon="6.68374">
        <ele>356.8</ele>
        <time>2015-08-31T06:39:42Z</time>
      </trkpt>
      <trkpt lat="47.47901" lon="6.68387">
        <ele>356</ele>
        <time>2015-08-31T06:39:43Z</time>
      </trkpt>
      <trkpt lat="47.47897" lon="6.68401">
        <ele>355.1</ele>
        <time>2015-08-31T06:39:44Z</time>
      </trkpt>
      <trkpt lat="47.47893" lon="6.68416">
        <ele>354.3</ele>
        <time>2015-08-31T06:39:45Z</time>
      </trkpt>
      <trkpt lat="47.47888" lon="6.6843">
        <ele>353.5</ele>
        <time>2015-08-31T06:39:46Z</time>
      </trkpt>
      <trkpt lat="47.47883" lon="6.68444">
        <ele>352.6</ele>
        <time>2015-08-31T06:39:47Z</time>
      </trkpt>
      <trkpt lat="47.47879" lon="6.68459">
        <ele>351.7</ele>
        <time>2015-08-31T06:39:48Z</time>
      </trkpt>
      <trkpt lat="47.47874" lon="6.68473">
        <ele>350.9</ele>
        <time>2015-08-31T06:39:49Z</time>
      </trkpt>
      <trkpt lat="47.47868" lon="6.68486">
        <ele>350.1</ele>
        <time>2015-08-31T06:39:50Z</time>
      </trkpt>
      <trkpt lat="47.47861" lon="6.685">
        <ele>349.2</ele>
        <time>2015-08-31T06:39:51Z</time>
      </trkpt>
      <trkpt lat="47.47854" lon="6.68512">
        <ele>348.2</ele>
        <time>2015-08-31T06:39:52Z</time>
      </trkpt>
      <trkpt lat="47.47847" lon="6.68524">
        <ele>347.2</ele>
        <time>2015-08-31T06:39:53Z</time>
      </trkpt>
      <trkpt lat="47.47839" lon="6.68534">
        <ele>347.3</ele>
        <time>2015-08-31T06:39:54Z</time>
      </trkpt>
      <trkpt lat="47.47829" lon="6.68544">
        <ele>346.7</ele>
        <time>2015-08-31T06:39:55Z</time>
      </trkpt>
      <trkpt lat="47.47818" lon="6.68553">
        <ele>345.5</ele>
        <time>2015-08-31T06:39:56Z</time>
      </trkpt>
      <trkpt lat="47.47808" lon="6.6856">
        <ele>344.1</ele>
        <time>2015-08-31T06:39:57Z</time>
      </trkpt>
      <trkpt lat="47.47797" lon="6.68565">
        <ele>342.8</ele>
        <time>2015-08-31T06:39:58Z</time>
      </trkpt>
      <trkpt lat="47.47786" lon="6.68568">
        <ele>341.6</ele>
        <time>2015-08-31T06:39:59Z</time>
      </trkpt>
      <trkpt lat="47.47774" lon="6.68572">
        <ele>340.9</ele>
        <time>2015-08-31T06:40:00Z</time>
      </trkpt>
      <trkpt lat="47.47763" lon="6.68575">
        <ele>339.7</ele>
        <time>2015-08-31T06:40:01Z</time>
      </trkpt>
      <trkpt lat="47.47752" lon="6.68581">
        <ele>338.5</ele>
        <time>2015-08-31T06:40:02Z</time>
      </trkpt>
      <trkpt lat="47.47741" lon="6.68587">
        <ele>337.6</ele>
        <time>2015-08-31T06:40:03Z</time>
      </trkpt>
      <trkpt lat="47.47731" lon="6.68596">
        <ele>337</ele>
        <time>2015-08-31T06:40:04Z</time>
      </trkpt>
      <trkpt lat="47.47722" lon="6.68605">
        <ele>336.6</ele>
        <time>2015-08-31T06:40:05Z</time>
      </trkpt>
      <trkpt lat="47.47713" lon="6.68616">
        <ele>336.1</ele>
        <time>2015-08-31T06:40:06Z</time>
      </trkpt>
      <trkpt lat="47.47704" lon="6.68628">
        <ele>335.6</ele>
        <time>2015-08-31T06:40:07Z</time>
      </trkpt>
      <trkpt lat="47.47696" lon="6.6864">
        <ele>335.3</ele>
        <time>2015-08-31T06:40:08Z</time>
      </trkpt>
      <trkpt lat="47.47688" lon="6.68651">
        <ele>335.4</ele>
        <time>2015-08-31T06:40:09Z</time>
      </trkpt>
      <trkpt lat="47.4768" lon="6.68662">
        <ele>335.6</ele>
        <time>2015-08-31T06:40:10Z</time>
      </trkpt>
      <trkpt lat="47.47672" lon="6.68672">
        <ele>335.7</ele>
        <time>2015-08-31T06:40:11Z</time>
      </trkpt>
      <trkpt lat="47.47664" lon="6.68682">
        <ele>335.5</ele>
        <time>2015-08-31T06:40:12Z</time>
      </trkpt>
      <trkpt lat="47.47656" lon="6.68691">
        <ele>335.4</ele>
        <time>2015-08-31T06:40:13Z</time>
      </trkpt>
      <trkpt lat="47.4765" lon="6.68703">
        <ele>335.3</ele>
        <time>2015-08-31T06:40:14Z</time>
      </trkpt>
      <trkpt lat="47.47645" lon="6.68715">
        <ele>335.2</ele>
        <time>2015-08-31T06:40:15Z</time>
      </trkpt>
      <trkpt lat="47.47642" lon="6.68729">
        <ele>335</ele>
        <time>2015-08-31T06:40:16Z</time>
      </trkpt>
      <trkpt lat="47.47639" lon="6.68741">
        <ele>334.7</ele>
        <time>2015-08-31T06:40:17Z</time>
      </trkpt>
      <trkpt lat="47.47638" lon="6.68753">
        <ele>334.3</ele>
        <time>2015-08-31T06:40:18Z</time>
      </trkpt>
      <trkpt lat="47.47636" lon="6.68763">
        <ele>334.3</ele>
        <time>2015-08-31T06:40:19Z</time>
      </trkpt>
      <trkpt lat="47.47635" lon="6.68771">
        <ele>333.9</ele>
        <time>2015-08-31T06:40:20Z</time>
      </trkpt>
      <trkpt lat="47.47634" lon="6.68779">
        <ele>333.5</ele>
        <time>2015-08-31T06:40:21Z</time>
      </trkpt>
      <trkpt lat="47.47632" lon="6.68785">
        <ele>333</ele>
        <time>2015-08-31T06:40:22Z</time>
      </trkpt>
      <trkpt lat="47.47631" lon="6.68791">
        <ele>332.7</ele>
        <time>2015-08-31T06:40:23Z</time>
      </trkpt>
      <trkpt lat="47.47629" lon="6.68797">
        <ele>332.6</ele>
        <time>2015-08-31T06:40:24Z</time>
      </trkpt>
      <trkpt lat="47.47628" lon="6.68803">
        <ele>331.8</ele>
        <time>2015-08-31T06:40:25Z</time>
      </trkpt>
      <trkpt lat="47.47626" lon="6.68808">
        <ele>331.4</ele>
        <time>2015-08-31T06:40:26Z</time>
      </trkpt>
      <trkpt lat="47.47623" lon="6.68813">
        <ele>331.2</ele>
        <time>2015-08-31T06:40:27Z</time>
      </trkpt>
      <trkpt lat="47.47618" lon="6.68817">
        <ele>330.7</ele>
        <time>2015-08-31T06:40:28Z</time>
      </trkpt>
      <trkpt lat="47.47613" lon="6.68821">
        <ele>330.4</ele>
        <time>2015-08-31T06:40:29Z</time>
      </trkpt>
      <trkpt lat="47.47607" lon="6.68824">
        <ele>330.1</ele>
        <time>2015-08-31T06:40:30Z</time>
      </trkpt>
      <trkpt lat="47.47602" lon="6.68828">
        <ele>329.8</ele>
        <time>2015-08-31T06:40:31Z</time>
      </trkpt>
      <trkpt lat="47.47596" lon="6.68831">
        <ele>329.3</ele>
        <time>2015-08-31T06:40:32Z</time>
      </trkpt>
      <trkpt lat="47.4759" lon="6.68835">
        <ele>329</ele>
        <time>2015-08-31T06:40:33Z</time>
      </trkpt>
      <trkpt lat="47.47584" lon="6.68839">
        <ele>327.6</ele>
        <time>2015-08-31T06:40:34Z</time>
      </trkpt>
      <trkpt lat="47.47578" lon="6.68843">
        <ele>327.3</ele>
        <time>2015-08-31T06:40:35Z</time>
      </trkpt>
      <trkpt lat="47.4757" lon="6.68846">
        <ele>326.9</ele>
        <time>2015-08-31T06:40:36Z</time>
      </trkpt>
      <trkpt lat="47.47563" lon="6.68848">
        <ele>326.3</ele>
        <time>2015-08-31T06:40:37Z</time>
      </trkpt>
      <trkpt lat="47.47555" lon="6.68851">
        <ele>325.9</ele>
        <time>2015-08-31T06:40:38Z</time>
      </trkpt>
      <trkpt lat="47.47547" lon="6.68853">
        <ele>325.3</ele>
        <time>2015-08-31T06:40:39Z</time>
      </trkpt>
      <trkpt lat="47.47539" lon="6.68856">
        <ele>324.8</ele>
        <time>2015-08-31T06:40:40Z</time>
      </trkpt>
      <trkpt lat="47.4753" lon="6.68859">
        <ele>324.2</ele>
        <time>2015-08-31T06:40:41Z</time>
      </trkpt>
      <trkpt lat="47.47521" lon="6.68861">
        <ele>323.6</ele>
        <time>2015-08-31T06:40:42Z</time>
      </trkpt>
      <trkpt lat="47.47512" lon="6.68864">
        <ele>323</ele>
        <time>2015-08-31T06:40:43Z</time>
      </trkpt>
      <trkpt lat="47.47502" lon="6.68865">
        <ele>322.3</ele>
        <time>2015-08-31T06:40:44Z</time>
      </trkpt>
      <trkpt lat="47.47493" lon="6.68866">
        <ele>321.8</ele>
        <time>2015-08-31T06:40:45Z</time>
      </trkpt>
      <trkpt lat="47.47483" lon="6.68865">
        <ele>321.5</ele>
        <time>2015-08-31T06:40:46Z</time>
      </trkpt>
      <trkpt lat="47.47475" lon="6.68862">
        <ele>321.1</ele>
        <time>2015-08-31T06:40:47Z</time>
      </trkpt>
      <trkpt lat="47.47466" lon="6.68858">
        <ele>321.1</ele>
        <time>2015-08-31T06:40:48Z</time>
      </trkpt>
      <trkpt lat="47.47459" lon="6.68854">
        <ele>320.2</ele>
        <time>2015-08-31T06:40:49Z</time>
      </trkpt>
      <trkpt lat="47.47449" lon="6.68851">
        <ele>320.8</ele>
        <time>2015-08-31T06:40:50Z</time>
      </trkpt>
      <trkpt lat="47.47441" lon="6.68853">
        <ele>320.9</ele>
        <time>2015-08-31T06:40:51Z</time>
      </trkpt>
      <trkpt lat="47.47435" lon="6.68859">
        <ele>320.9</ele>
        <time>2015-08-31T06:40:52Z</time>
      </trkpt>
      <trkpt lat="47.47429" lon="6.68868">
        <ele>321.1</ele>
        <time>2015-08-31T06:40:53Z</time>
      </trkpt>
      <trkpt lat="47.47423" lon="6.68876">
        <ele>321.1</ele>
        <time>2015-08-31T06:40:54Z</time>
      </trkpt>
      <trkpt lat="47.47416" lon="6.68885">
        <ele>320.9</ele>
        <time>2015-08-31T06:40:55Z</time>
      </trkpt>
      <trkpt lat="47.47409" lon="6.68894">
        <ele>320.6</ele>
        <time>2015-08-31T06:40:56Z</time>
      </trkpt>
      <trkpt lat="47.47402" lon="6.68903">
        <ele>320.2</ele>
        <time>2015-08-31T06:40:57Z</time>
      </trkpt>
      <trkpt lat="47.47395" lon="6.68911">
        <ele>318.6</ele>
        <time>2015-08-31T06:40:58Z</time>
      </trkpt>
      <trkpt lat="47.47388" lon="6.68921">
        <ele>318</ele>
        <time>2015-08-31T06:40:59Z</time>
      </trkpt>
      <trkpt lat="47.47381" lon="6.6893">
        <ele>317.6</ele>
        <time>2015-08-31T06:41:00Z</time>
      </trkpt>
      <trkpt lat="47.47374" lon="6.68939">
        <ele>317.2</ele>
        <time>2015-08-31T06:41:01Z</time>
      </trkpt>
      <trkpt lat="47.47366" lon="6.68948">
        <ele>316.8</ele>
        <time>2015-08-31T06:41:02Z</time>
      </trkpt>
      <trkpt lat="47.47359" lon="6.68957">
        <ele>316.4</ele>
        <time>2015-08-31T06:41:03Z</time>
      </trkpt>
      <trkpt lat="47.47352" lon="6.68966">
        <ele>316</ele>
        <time>2015-08-31T06:41:04Z</time>
      </trkpt>
      <trkpt lat="47.47346" lon="6.68976">
        <ele>315.7</ele>
        <time>2015-08-31T06:41:05Z</time>
      </trkpt>
      <trkpt lat="47.4734" lon="6.68986">
        <ele>315.5</ele>
        <time>2015-08-31T06:41:06Z</time>
      </trkpt>
      <trkpt lat="47.47335" lon="6.68997">
        <ele>315.6</ele>
        <time>2015-08-31T06:41:07Z</time>
      </trkpt>
      <trkpt lat="47.47331" lon="6.69009">
        <ele>315.6</ele>
        <time>2015-08-31T06:41:08Z</time>
      </trkpt>
      <trkpt lat="47.47327" lon="6.69021">
        <ele>315.5</ele>
        <time>2015-08-31T06:41:09Z</time>
      </trkpt>
      <trkpt lat="47.47324" lon="6.69033">
        <ele>315.5</ele>
        <time>2015-08-31T06:41:10Z</time>
      </trkpt>
      <trkpt lat="47.47321" lon="6.69045">
        <ele>315.1</ele>
        <time>2015-08-31T06:41:11Z</time>
      </trkpt>
      <trkpt lat="47.47318" lon="6.69056">
        <ele>315</ele>
        <time>2015-08-31T06:41:12Z</time>
      </trkpt>
      <trkpt lat="47.47315" lon="6.69067">
        <ele>314.8</ele>
        <time>2015-08-31T06:41:13Z</time>
      </trkpt>
      <trkpt lat="47.47312" lon="6.69076">
        <ele>314.6</ele>
        <time>2015-08-31T06:41:14Z</time>
      </trkpt>
      <trkpt lat="47.47309" lon="6.69085">
        <ele>314.4</ele>
        <time>2015-08-31T06:41:15Z</time>
      </trkpt>
      <trkpt lat="47.47306" lon="6.69093">
        <ele>314.3</ele>
        <time>2015-08-31T06:41:16Z</time>
      </trkpt>
      <trkpt lat="47.47302" lon="6.69099">
        <ele>314</ele>
        <time>2015-08-31T06:41:17Z</time>
      </trkpt>
      <trkpt lat="47.47298" lon="6.69104">
        <ele>313.9</ele>
        <time>2015-08-31T06:41:18Z</time>
      </trkpt>
      <trkpt lat="47.47294" lon="6.69107">
        <ele>313.8</ele>
        <time>2015-08-31T06:41:19Z</time>
      </trkpt>
      <trkpt lat="47.47291" lon="6.69108">
        <ele>313.3</ele>
        <time>2015-08-31T06:41:20Z</time>
      </trkpt>
      <trkpt lat="47.47288" lon="6.69107">
        <ele>313.1</ele>
        <time>2015-08-31T06:41:21Z</time>
      </trkpt>
      <trkpt lat="47.47285" lon="6.69104">
        <ele>313.3</ele>
        <time>2015-08-31T06:41:22Z</time>
      </trkpt>
      <trkpt lat="47.47283" lon="6.691">
        <ele>313.4</ele>
        <time>2015-08-31T06:41:23Z</time>
      </trkpt>
      <trkpt lat="47.47281" lon="6.69094">
        <ele>313.6</ele>
        <time>2015-08-31T06:41:24Z</time>
      </trkpt>
      <trkpt lat="47.47278" lon="6.69089">
        <ele>313.8</ele>
        <time>2015-08-31T06:41:25Z</time>
      </trkpt>
      <trkpt lat="47.47275" lon="6.69082">
        <ele>313.8</ele>
        <time>2015-08-31T06:41:26Z</time>
      </trkpt>
      <trkpt lat="47.47272" lon="6.69076">
        <ele>313.9</ele>
        <time>2015-08-31T06:41:27Z</time>
      </trkpt>
      <trkpt lat="47.47268" lon="6.69069">
        <ele>313.9</ele>
        <time>2015-08-31T06:41:28Z</time>
      </trkpt>
      <trkpt lat="47.47265" lon="6.69063">
        <ele>313.8</ele>
        <time>2015-08-31T06:41:29Z</time>
      </trkpt>
      <trkpt lat="47.47261" lon="6.69057">
        <ele>313.7</ele>
        <time>2015-08-31T06:41:30Z</time>
      </trkpt>
      <trkpt lat="47.47258" lon="6.69051">
        <ele>313.9</ele>
        <time>2015-08-31T06:41:31Z</time>
      </trkpt>
      <trkpt lat="47.47255" lon="6.69046">
        <ele>313.7</ele>
        <time>2015-08-31T06:41:32Z</time>
      </trkpt>
      <trkpt lat="47.47252" lon="6.69039">
        <ele>313.6</ele>
        <time>2015-08-31T06:41:33Z</time>
      </trkpt>
      <trkpt lat="47.47249" lon="6.69033">
        <ele>313.8</ele>
        <time>2015-08-31T06:41:34Z</time>
      </trkpt>
      <trkpt lat="47.47246" lon="6.69027">
        <ele>313.8</ele>
        <time>2015-08-31T06:41:35Z</time>
      </trkpt>
      <trkpt lat="47.47242" lon="6.69022">
        <ele>313.7</ele>
        <time>2015-08-31T06:41:36Z</time>
      </trkpt>
      <trkpt lat="47.47239" lon="6.69016">
        <ele>313.6</ele>
        <time>2015-08-31T06:41:37Z</time>
      </trkpt>
      <trkpt lat="47.47236" lon="6.6901">
        <ele>313.6</ele>
        <time>2015-08-31T06:41:38Z</time>
      </trkpt>
      <trkpt lat="47.47233" lon="6.69004">
        <ele>313.6</ele>
        <time>2015-08-31T06:41:39Z</time>
      </trkpt>
      <trkpt lat="47.47229" lon="6.68999">
        <ele>313.7</ele>
        <time>2015-08-31T06:41:40Z</time>
      </trkpt>
      <trkpt lat="47.47227" lon="6.68993">
        <ele>313.8</ele>
        <time>2015-08-31T06:41:41Z</time>
      </trkpt>
      <trkpt lat="47.47224" lon="6.68987">
        <ele>313.9</ele>
        <time>2015-08-31T06:41:42Z</time>
      </trkpt>
      <trkpt lat="47.47221" lon="6.68982">
        <ele>314.1</ele>
        <time>2015-08-31T06:41:43Z</time>
      </trkpt>
      <trkpt lat="47.47219" lon="6.68977">
        <ele>314.2</ele>
        <time>2015-08-31T06:41:44Z</time>
      </trkpt>
      <trkpt lat="47.47216" lon="6.68971">
        <ele>314.2</ele>
        <time>2015-08-31T06:41:45Z</time>
      </trkpt>
      <trkpt lat="47.47212" lon="6.68966">
        <ele>314.1</ele>
        <time>2015-08-31T06:41:46Z</time>
      </trkpt>
      <trkpt lat="47.47209" lon="6.6896">
        <ele>314</ele>
        <time>2015-08-31T06:41:47Z</time>
      </trkpt>
      <trkpt lat="47.47206" lon="6.68955">
        <ele>313.9</ele>
        <time>2015-08-31T06:41:48Z</time>
      </trkpt>
      <trkpt lat="47.47203" lon="6.68949">
        <ele>313.9</ele>
        <time>2015-08-31T06:41:49Z</time>
      </trkpt>
      <trkpt lat="47.472" lon="6.68944">
        <ele>314.1</ele>
        <time>2015-08-31T06:41:50Z</time>
      </trkpt>
      <trkpt lat="47.47197" lon="6.68938">
        <ele>314.2</ele>
        <time>2015-08-31T06:41:51Z</time>
      </trkpt>
      <trkpt lat="47.47194" lon="6.68933">
        <ele>314.3</ele>
        <time>2015-08-31T06:41:52Z</time>
      </trkpt>
      <trkpt lat="47.47191" lon="6.68927">
        <ele>314.5</ele>
        <time>2015-08-31T06:41:53Z</time>
      </trkpt>
      <trkpt lat="47.47187" lon="6.68922">
        <ele>314.4</ele>
        <time>2015-08-31T06:41:54Z</time>
      </trkpt>
      <trkpt lat="47.47183" lon="6.68916">
        <ele>314.4</ele>
        <time>2015-08-31T06:41:55Z</time>
      </trkpt>
      <trkpt lat="47.47179" lon="6.68911">
        <ele>314.4</ele>
        <time>2015-08-31T06:41:56Z</time>
      </trkpt>
      <trkpt lat="47.47175" lon="6.68906">
        <ele>314.4</ele>
        <time>2015-08-31T06:41:57Z</time>
      </trkpt>
      <trkpt lat="47.47172" lon="6.68901">
        <ele>314.3</ele>
        <time>2015-08-31T06:41:58Z</time>
      </trkpt>
      <trkpt lat="47.47169" lon="6.68895">
        <ele>314.1</ele>
        <time>2015-08-31T06:41:59Z</time>
      </trkpt>
      <trkpt lat="47.47165" lon="6.6889">
        <ele>314.1</ele>
        <time>2015-08-31T06:42:00Z</time>
      </trkpt>
      <trkpt lat="47.47161" lon="6.68886">
        <ele>314.2</ele>
        <time>2015-08-31T06:42:01Z</time>
      </trkpt>
      <trkpt lat="47.47158" lon="6.68882">
        <ele>314.1</ele>
        <time>2015-08-31T06:42:02Z</time>
      </trkpt>
      <trkpt lat="47.47154" lon="6.68877">
        <ele>314.2</ele>
        <time>2015-08-31T06:42:03Z</time>
      </trkpt>
      <trkpt lat="47.4715" lon="6.68873">
        <ele>314.3</ele>
        <time>2015-08-31T06:42:04Z</time>
      </trkpt>
      <trkpt lat="47.47146" lon="6.68868">
        <ele>314.1</ele>
        <time>2015-08-31T06:42:05Z</time>
      </trkpt>
      <trkpt lat="47.47142" lon="6.68863">
        <ele>313.8</ele>
        <time>2015-08-31T06:42:06Z</time>
      </trkpt>
      <trkpt lat="47.47137" lon="6.68859">
        <ele>313.9</ele>
        <time>2015-08-31T06:42:07Z</time>
      </trkpt>
      <trkpt lat="47.47133" lon="6.68855">
        <ele>313.8</ele>
        <time>2015-08-31T06:42:08Z</time>
      </trkpt>
      <trkpt lat="47.47129" lon="6.68851">
        <ele>313.6</ele>
        <time>2015-08-31T06:42:09Z</time>
      </trkpt>
      <trkpt lat="47.47125" lon="6.68846">
        <ele>313.6</ele>
        <time>2015-08-31T06:42:10Z</time>
      </trkpt>
      <trkpt lat="47.47121" lon="6.68842">
        <ele>313.6</ele>
        <time>2015-08-31T06:42:11Z</time>
      </trkpt>
      <trkpt lat="47.47118" lon="6.68837">
        <ele>313.7</ele>
        <time>2015-08-31T06:42:12Z</time>
      </trkpt>
      <trkpt lat="47.47115" lon="6.68833">
        <ele>313.9</ele>
        <time>2015-08-31T06:42:13Z</time>
      </trkpt>
      <trkpt lat="47.47112" lon="6.68828">
        <ele>314</ele>
        <time>2015-08-31T06:42:14Z</time>
      </trkpt>
      <trkpt lat="47.47108" lon="6.68824">
        <ele>314.1</ele>
        <time>2015-08-31T06:42:15Z</time>
      </trkpt>
      <trkpt lat="47.47104" lon="6.68819">
        <ele>314.1</ele>
        <time>2015-08-31T06:42:16Z</time>
      </trkpt>
      <trkpt lat="47.471" lon="6.68815">
        <ele>313.9</ele>
        <time>2015-08-31T06:42:17Z</time>
      </trkpt>
      <trkpt lat="47.47097" lon="6.68811">
        <ele>313.8</ele>
        <time>2015-08-31T06:42:18Z</time>
      </trkpt>
      <trkpt lat="47.47094" lon="6.68805">
        <ele>313.7</ele>
        <time>2015-08-31T06:42:19Z</time>
      </trkpt>
      <trkpt lat="47.4709" lon="6.688">
        <ele>313.5</ele>
        <time>2015-08-31T06:42:20Z</time>
      </trkpt>
      <trkpt lat="47.47087" lon="6.68795">
        <ele>313.5</ele>
        <time>2015-08-31T06:42:21Z</time>
      </trkpt>
      <trkpt lat="47.47084" lon="6.6879">
        <ele>313.6</ele>
        <time>2015-08-31T06:42:22Z</time>
      </trkpt>
      <trkpt lat="47.47082" lon="6.68785">
        <ele>313.7</ele>
        <time>2015-08-31T06:42:23Z</time>
      </trkpt>
      <trkpt lat="47.4708" lon="6.6878">
        <ele>313.9</ele>
        <time>2015-08-31T06:42:24Z</time>
      </trkpt>
      <trkpt lat="47.47077" lon="6.68775">
        <ele>314.2</ele>
        <time>2015-08-31T06:42:25Z</time>
      </trkpt>
      <trkpt lat="47.47075" lon="6.68771">
        <ele>314.6</ele>
        <time>2015-08-31T06:42:26Z</time>
      </trkpt>
      <trkpt lat="47.47073" lon="6.68766">
        <ele>314.9</ele>
        <time>2015-08-31T06:42:27Z</time>
      </trkpt>
      <trkpt lat="47.4707" lon="6.6876">
        <ele>315.1</ele>
        <time>2015-08-31T06:42:28Z</time>
      </trkpt>
      <trkpt lat="47.47067" lon="6.68755">
        <ele>315</ele>
        <time>2015-08-31T06:42:29Z</time>
      </trkpt>
      <trkpt lat="47.47063" lon="6.6875">
        <ele>314.9</ele>
        <time>2015-08-31T06:42:30Z</time>
      </trkpt>
      <trkpt lat="47.47059" lon="6.68744">
        <ele>314.7</ele>
        <time>2015-08-31T06:42:31Z</time>
      </trkpt>
      <trkpt lat="47.47056" lon="6.68739">
        <ele>314.7</ele>
        <time>2015-08-31T06:42:32Z</time>
      </trkpt>
      <trkpt lat="47.47054" lon="6.68734">
        <ele>314.6</ele>
        <time>2015-08-31T06:42:33Z</time>
      </trkpt>
      <trkpt lat="47.4705" lon="6.68729">
        <ele>314.5</ele>
        <time>2015-08-31T06:42:34Z</time>
      </trkpt>
      <trkpt lat="47.47047" lon="6.68724">
        <ele>314.5</ele>
        <time>2015-08-31T06:42:35Z</time>
      </trkpt>
      <trkpt lat="47.47043" lon="6.68719">
        <ele>314.3</ele>
        <time>2015-08-31T06:42:36Z</time>
      </trkpt>
      <trkpt lat="47.47039" lon="6.68714">
        <ele>314.1</ele>
        <time>2015-08-31T06:42:37Z</time>
      </trkpt>
      <trkpt lat="47.47035" lon="6.68709">
        <ele>314</ele>
        <time>2015-08-31T06:42:38Z</time>
      </trkpt>
      <trkpt lat="47.47031" lon="6.68704">
        <ele>313.9</ele>
        <time>2015-08-31T06:42:39Z</time>
      </trkpt>
      <trkpt lat="47.47027" lon="6.687">
        <ele>313.7</ele>
        <time>2015-08-31T06:42:40Z</time>
      </trkpt>
      <trkpt lat="47.47022" lon="6.68696">
        <ele>313.6</ele>
        <time>2015-08-31T06:42:41Z</time>
      </trkpt>
      <trkpt lat="47.47017" lon="6.68691">
        <ele>313.6</ele>
        <time>2015-08-31T06:42:42Z</time>
      </trkpt>
      <trkpt lat="47.47013" lon="6.68686">
        <ele>313.5</ele>
        <time>2015-08-31T06:42:43Z</time>
      </trkpt>
      <trkpt lat="47.47009" lon="6.6868">
        <ele>313.5</ele>
        <time>2015-08-31T06:42:44Z</time>
      </trkpt>
      <trkpt lat="47.47006" lon="6.68674">
        <ele>313.5</ele>
        <time>2015-08-31T06:42:45Z</time>
      </trkpt>
      <trkpt lat="47.47002" lon="6.68669">
        <ele>313.7</ele>
        <time>2015-08-31T06:42:46Z</time>
      </trkpt>
      <trkpt lat="47.46998" lon="6.68664">
        <ele>314.2</ele>
        <time>2015-08-31T06:42:47Z</time>
      </trkpt>
      <trkpt lat="47.46995" lon="6.68658">
        <ele>314.2</ele>
        <time>2015-08-31T06:42:48Z</time>
      </trkpt>
      <trkpt lat="47.46992" lon="6.68653">
        <ele>314.2</ele>
        <time>2015-08-31T06:42:49Z</time>
      </trkpt>
      <trkpt lat="47.46989" lon="6.68647">
        <ele>314.1</ele>
        <time>2015-08-31T06:42:50Z</time>
      </trkpt>
      <trkpt lat="47.46986" lon="6.68642">
        <ele>314.1</ele>
        <time>2015-08-31T06:42:51Z</time>
      </trkpt>
      <trkpt lat="47.46983" lon="6.68637">
        <ele>314.2</ele>
        <time>2015-08-31T06:42:52Z</time>
      </trkpt>
      <trkpt lat="47.46979" lon="6.68632">
        <ele>314.1</ele>
        <time>2015-08-31T06:42:53Z</time>
      </trkpt>
      <trkpt lat="47.46976" lon="6.68627">
        <ele>314.1</ele>
        <time>2015-08-31T06:42:54Z</time>
      </trkpt>
      <trkpt lat="47.46973" lon="6.68621">
        <ele>313.9</ele>
        <time>2015-08-31T06:42:55Z</time>
      </trkpt>
      <trkpt lat="47.4697" lon="6.68616">
        <ele>313.7</ele>
        <time>2015-08-31T06:42:56Z</time>
      </trkpt>
      <trkpt lat="47.46968" lon="6.68611">
        <ele>313.6</ele>
        <time>2015-08-31T06:42:57Z</time>
      </trkpt>
      <trkpt lat="47.46965" lon="6.68606">
        <ele>313.6</ele>
        <time>2015-08-31T06:42:58Z</time>
      </trkpt>
      <trkpt lat="47.46962" lon="6.68601">
        <ele>313.6</ele>
        <time>2015-08-31T06:42:59Z</time>
      </trkpt>
      <trkpt lat="47.4696" lon="6.68597">
        <ele>313.7</ele>
        <time>2015-08-31T06:43:00Z</time>
      </trkpt>
      <trkpt lat="47.46957" lon="6.68592">
        <ele>313.7</ele>
        <time>2015-08-31T06:43:01Z</time>
      </trkpt>
      <trkpt lat="47.46954" lon="6.68588">
        <ele>313.7</ele>
        <time>2015-08-31T06:43:02Z</time>
      </trkpt>
      <trkpt lat="47.46951" lon="6.68583">
        <ele>313.8</ele>
        <time>2015-08-31T06:43:03Z</time>
      </trkpt>
      <trkpt lat="47.46947" lon="6.68579">
        <ele>314</ele>
        <time>2015-08-31T06:43:04Z</time>
      </trkpt>
      <trkpt lat="47.46944" lon="6.68575">
        <ele>314.1</ele>
        <time>2015-08-31T06:43:05Z</time>
      </trkpt>
      <trkpt lat="47.46941" lon="6.6857">
        <ele>314.1</ele>
        <time>2015-08-31T06:43:06Z</time>
      </trkpt>
      <trkpt lat="47.46937" lon="6.68566">
        <ele>314</ele>
        <time>2015-08-31T06:43:07Z</time>
      </trkpt>
      <trkpt lat="47.46934" lon="6.68562">
        <ele>314.1</ele>
        <time>2015-08-31T06:43:08Z</time>
      </trkpt>
      <trkpt lat="47.4693" lon="6.68559">
        <ele>314.3</ele>
        <time>2015-08-31T06:43:09Z</time>
      </trkpt>
      <trkpt lat="47.46926" lon="6.68555">
        <ele>314.5</ele>
        <time>2015-08-31T06:43:10Z</time>
      </trkpt>
      <trkpt lat="47.46923" lon="6.68551">
        <ele>314.7</ele>
        <time>2015-08-31T06:43:11Z</time>
      </trkpt>
      <trkpt lat="47.46919" lon="6.68547">
        <ele>314.9</ele>
        <time>2015-08-31T06:43:12Z</time>
      </trkpt>
      <trkpt lat="47.46915" lon="6.68543">
        <ele>315</ele>
        <time>2015-08-31T06:43:13Z</time>
      </trkpt>
      <trkpt lat="47.46912" lon="6.68538">
        <ele>315.2</ele>
        <time>2015-08-31T06:43:14Z</time>
      </trkpt>
      <trkpt lat="47.46908" lon="6.68535">
        <ele>315.6</ele>
        <time>2015-08-31T06:43:15Z</time>
      </trkpt>
      <trkpt lat="47.46903" lon="6.68531">
        <ele>315.6</ele>
        <time>2015-08-31T06:43:16Z</time>
      </trkpt>
      <trkpt lat="47.46899" lon="6.68526">
        <ele>315.5</ele>
        <time>2015-08-31T06:43:17Z</time>
      </trkpt>
      <trkpt lat="47.46894" lon="6.68522">
        <ele>315.7</ele>
        <time>2015-08-31T06:43:18Z</time>
      </trkpt>
      <trkpt lat="47.4689" lon="6.68518">
        <ele>315.7</ele>
        <time>2015-08-31T06:43:19Z</time>
      </trkpt>
      <trkpt lat="47.46886" lon="6.68514">
        <ele>315.7</ele>
        <time>2015-08-31T06:43:20Z</time>
      </trkpt>
      <trkpt lat="47.46881" lon="6.6851">
        <ele>315.9</ele>
        <time>2015-08-31T06:43:21Z</time>
      </trkpt>
      <trkpt lat="47.46877" lon="6.68506">
        <ele>316.1</ele>
        <time>2015-08-31T06:43:22Z</time>
      </trkpt>
      <trkpt lat="47.46873" lon="6.68501">
        <ele>316.1</ele>
        <time>2015-08-31T06:43:23Z</time>
      </trkpt>
      <trkpt lat="47.46868" lon="6.68497">
        <ele>316.1</ele>
        <time>2015-08-31T06:43:24Z</time>
      </trkpt>
      <trkpt lat="47.46863" lon="6.68492">
        <ele>316.3</ele>
        <time>2015-08-31T06:43:25Z</time>
      </trkpt>
      <trkpt lat="47.46859" lon="6.68488">
        <ele>316.5</ele>
        <time>2015-08-31T06:43:26Z</time>
      </trkpt>
      <trkpt lat="47.46854" lon="6.68483">
        <ele>316.6</ele>
        <time>2015-08-31T06:43:27Z</time>
      </trkpt>
      <trkpt lat="47.46849" lon="6.68479">
        <ele>317</ele>
        <time>2015-08-31T06:43:28Z</time>
      </trkpt>
      <trkpt lat="47.46844" lon="6.68475">
        <ele>317.4</ele>
        <time>2015-08-31T06:43:29Z</time>
      </trkpt>
      <trkpt lat="47.46841" lon="6.68471">
        <ele>317.8</ele>
        <time>2015-08-31T06:43:30Z</time>
      </trkpt>
      <trkpt lat="47.46838" lon="6.68467">
        <ele>318.2</ele>
        <time>2015-08-31T06:43:31Z</time>
      </trkpt>
      <trkpt lat="47.46834" lon="6.68462">
        <ele>318.5</ele>
        <time>2015-08-31T06:43:32Z</time>
      </trkpt>
      <trkpt lat="47.4683" lon="6.68458">
        <ele>318.7</ele>
        <time>2015-08-31T06:43:33Z</time>
      </trkpt>
      <trkpt lat="47.46826" lon="6.68454">
        <ele>319.2</ele>
        <time>2015-08-31T06:43:34Z</time>
      </trkpt>
      <trkpt lat="47.46822" lon="6.6845">
        <ele>319.4</ele>
        <time>2015-08-31T06:43:35Z</time>
      </trkpt>
      <trkpt lat="47.46818" lon="6.68446">
        <ele>319.8</ele>
        <time>2015-08-31T06:43:36Z</time>
      </trkpt>
      <trkpt lat="47.46814" lon="6.68441">
        <ele>319.8</ele>
        <time>2015-08-31T06:43:37Z</time>
      </trkpt>
      <trkpt lat="47.4681" lon="6.68437">
        <ele>319.8</ele>
        <time>2015-08-31T06:43:38Z</time>
      </trkpt>
      <trkpt lat="47.46807" lon="6.68433">
        <ele>319.9</ele>
        <time>2015-08-31T06:43:39Z</time>
      </trkpt>
      <trkpt lat="47.46803" lon="6.68428">
        <ele>320.3</ele>
        <time>2015-08-31T06:43:40Z</time>
      </trkpt>
      <trkpt lat="47.468" lon="6.68424">
        <ele>320.5</ele>
        <time>2015-08-31T06:43:41Z</time>
      </trkpt>
      <trkpt lat="47.46796" lon="6.6842">
        <ele>320.1</ele>
        <time>2015-08-31T06:43:42Z</time>
      </trkpt>
      <trkpt lat="47.46793" lon="6.68415">
        <ele>320</ele>
        <time>2015-08-31T06:43:43Z</time>
      </trkpt>
      <trkpt lat="47.46789" lon="6.68411">
        <ele>320.2</ele>
        <time>2015-08-31T06:43:44Z</time>
      </trkpt>
      <trkpt lat="47.46785" lon="6.68408">
        <ele>320.6</ele>
        <time>2015-08-31T06:43:45Z</time>
      </trkpt>
      <trkpt lat="47.46781" lon="6.68404">
        <ele>320.7</ele>
        <time>2015-08-31T06:43:46Z</time>
      </trkpt>
      <trkpt lat="47.46778" lon="6.68399">
        <ele>320.2</ele>
        <time>2015-08-31T06:43:47Z</time>
      </trkpt>
      <trkpt lat="47.46774" lon="6.68395">
        <ele>320.2</ele>
        <time>2015-08-31T06:43:48Z</time>
      </trkpt>
      <trkpt lat="47.4677" lon="6.68391">
        <ele>320.3</ele>
        <time>2015-08-31T06:43:49Z</time>
      </trkpt>
      <trkpt lat="47.46766" lon="6.68387">
        <ele>320.3</ele>
        <time>2015-08-31T06:43:50Z</time>
      </trkpt>
      <trkpt lat="47.46763" lon="6.68383">
        <ele>320.4</ele>
        <time>2015-08-31T06:43:51Z</time>
      </trkpt>
      <trkpt lat="47.46759" lon="6.68379">
        <ele>320.6</ele>
        <time>2015-08-31T06:43:52Z</time>
      </trkpt>
      <trkpt lat="47.46756" lon="6.68376">
        <ele>320.7</ele>
        <time>2015-08-31T06:43:53Z</time>
      </trkpt>
      <trkpt lat="47.46753" lon="6.68372">
        <ele>320.9</ele>
        <time>2015-08-31T06:43:54Z</time>
      </trkpt>
      <trkpt lat="47.4675" lon="6.68369">
        <ele>321.1</ele>
        <time>2015-08-31T06:43:55Z</time>
      </trkpt>
      <trkpt lat="47.46747" lon="6.68366">
        <ele>321.2</ele>
        <time>2015-08-31T06:43:56Z</time>
      </trkpt>
      <trkpt lat="47.46744" lon="6.68362">
        <ele>321.4</ele>
        <time>2015-08-31T06:43:57Z</time>
      </trkpt>
      <trkpt lat="47.46741" lon="6.68359">
        <ele>321.5</ele>
        <time>2015-08-31T06:43:58Z</time>
      </trkpt>
      <trkpt lat="47.46738" lon="6.68356">
        <ele>321.5</ele>
        <time>2015-08-31T06:43:59Z</time>
      </trkpt>
      <trkpt lat="47.46734" lon="6.68352">
        <ele>321.6</ele>
        <time>2015-08-31T06:44:00Z</time>
      </trkpt>
      <trkpt lat="47.4673" lon="6.68349">
        <ele>321.7</ele>
        <time>2015-08-31T06:44:01Z</time>
      </trkpt>
      <trkpt lat="47.46726" lon="6.68345">
        <ele>321.8</ele>
        <time>2015-08-31T06:44:02Z</time>
      </trkpt>
      <trkpt lat="47.46722" lon="6.68342">
        <ele>321.9</ele>
        <time>2015-08-31T06:44:03Z</time>
      </trkpt>
      <trkpt lat="47.46719" lon="6.68339">
        <ele>321.9</ele>
        <time>2015-08-31T06:44:04Z</time>
      </trkpt>
      <trkpt lat="47.46716" lon="6.68335">
        <ele>321.9</ele>
        <time>2015-08-31T06:44:05Z</time>
      </trkpt>
      <trkpt lat="47.46713" lon="6.68332">
        <ele>321.9</ele>
        <time>2015-08-31T06:44:06Z</time>
      </trkpt>
      <trkpt lat="47.46709" lon="6.68328">
        <ele>321.9</ele>
        <time>2015-08-31T06:44:07Z</time>
      </trkpt>
      <trkpt lat="47.46706" lon="6.68325">
        <ele>321.9</ele>
        <time>2015-08-31T06:44:08Z</time>
      </trkpt>
      <trkpt lat="47.46703" lon="6.68321">
        <ele>321.8</ele>
        <time>2015-08-31T06:44:09Z</time>
      </trkpt>
      <trkpt lat="47.467" lon="6.68318">
        <ele>321.8</ele>
        <time>2015-08-31T06:44:10Z</time>
      </trkpt>
      <trkpt lat="47.46697" lon="6.68314">
        <ele>322.2</ele>
        <time>2015-08-31T06:44:11Z</time>
      </trkpt>
      <trkpt lat="47.46694" lon="6.68311">
        <ele>322.4</ele>
        <time>2015-08-31T06:44:12Z</time>
      </trkpt>
      <trkpt lat="47.46691" lon="6.68307">
        <ele>322.9</ele>
        <time>2015-08-31T06:44:13Z</time>
      </trkpt>
      <trkpt lat="47.46688" lon="6.68304">
        <ele>323.2</ele>
        <time>2015-08-31T06:44:14Z</time>
      </trkpt>
      <trkpt lat="47.46684" lon="6.68301">
        <ele>323.5</ele>
        <time>2015-08-31T06:44:15Z</time>
      </trkpt>
      <trkpt lat="47.46681" lon="6.68297">
        <ele>323.8</ele>
        <time>2015-08-31T06:44:16Z</time>
      </trkpt>
      <trkpt lat="47.46677" lon="6.68293">
        <ele>324</ele>
        <time>2015-08-31T06:44:17Z</time>
      </trkpt>
      <trkpt lat="47.46674" lon="6.6829">
        <ele>324.1</ele>
        <time>2015-08-31T06:44:18Z</time>
      </trkpt>
      <trkpt lat="47.4667" lon="6.68287">
        <ele>324.4</ele>
        <time>2015-08-31T06:44:19Z</time>
      </trkpt>
      <trkpt lat="47.46666" lon="6.68284">
        <ele>324.7</ele>
        <time>2015-08-31T06:44:20Z</time>
      </trkpt>
      <trkpt lat="47.46662" lon="6.68281">
        <ele>324.9</ele>
        <time>2015-08-31T06:44:21Z</time>
      </trkpt>
      <trkpt lat="47.46658" lon="6.68279">
        <ele>325.3</ele>
        <time>2015-08-31T06:44:22Z</time>
      </trkpt>
      <trkpt lat="47.46654" lon="6.68276">
        <ele>325.5</ele>
        <time>2015-08-31T06:44:23Z</time>
      </trkpt>
      <trkpt lat="47.4665" lon="6.68273">
        <ele>325.6</ele>
        <time>2015-08-31T06:44:24Z</time>
      </trkpt>
      <trkpt lat="47.46646" lon="6.6827">
        <ele>325.7</ele>
        <time>2015-08-31T06:44:25Z</time>
      </trkpt>
      <trkpt lat="47.46642" lon="6.68268">
        <ele>325.7</ele>
        <time>2015-08-31T06:44:26Z</time>
      </trkpt>
      <trkpt lat="47.46638" lon="6.68265">
        <ele>325.6</ele>
        <time>2015-08-31T06:44:27Z</time>
      </trkpt>
      <trkpt lat="47.46634" lon="6.68262">
        <ele>325.4</ele>
        <time>2015-08-31T06:44:28Z</time>
      </trkpt>
      <trkpt lat="47.4663" lon="6.6826">
        <ele>325.5</ele>
        <time>2015-08-31T06:44:29Z</time>
      </trkpt>
      <trkpt lat="47.46625" lon="6.68257">
        <ele>325.5</ele>
        <time>2015-08-31T06:44:30Z</time>
      </trkpt>
      <trkpt lat="47.4662" lon="6.68254">
        <ele>325.6</ele>
        <time>2015-08-31T06:44:31Z</time>
      </trkpt>
      <trkpt lat="47.46616" lon="6.68252">
        <ele>325.9</ele>
        <time>2015-08-31T06:44:32Z</time>
      </trkpt>
      <trkpt lat="47.46613" lon="6.68249">
        <ele>326.3</ele>
        <time>2015-08-31T06:44:33Z</time>
      </trkpt>
      <trkpt lat="47.46609" lon="6.68246">
        <ele>326.5</ele>
        <time>2015-08-31T06:44:34Z</time>
      </trkpt>
      <trkpt lat="47.46605" lon="6.68244">
        <ele>326.9</ele>
        <time>2015-08-31T06:44:35Z</time>
      </trkpt>
      <trkpt lat="47.46601" lon="6.68242">
        <ele>327.2</ele>
        <time>2015-08-31T06:44:36Z</time>
      </trkpt>
      <trkpt lat="47.46597" lon="6.68239">
        <ele>327.6</ele>
        <time>2015-08-31T06:44:37Z</time>
      </trkpt>
      <trkpt lat="47.46593" lon="6.68236">
        <ele>327.8</ele>
        <time>2015-08-31T06:44:38Z</time>
      </trkpt>
      <trkpt lat="47.4659" lon="6.68233">
        <ele>327.9</ele>
        <time>2015-08-31T06:44:39Z</time>
      </trkpt>
      <trkpt lat="47.46586" lon="6.68231">
        <ele>327.8</ele>
        <time>2015-08-31T06:44:40Z</time>
      </trkpt>
      <trkpt lat="47.46582" lon="6.68228">
        <ele>327.6</ele>
        <time>2015-08-31T06:44:41Z</time>
      </trkpt>
      <trkpt lat="47.46578" lon="6.68225">
        <ele>327.5</ele>
        <time>2015-08-31T06:44:42Z</time>
      </trkpt>
      <trkpt lat="47.46574" lon="6.68222">
        <ele>327.5</ele>
        <time>2015-08-31T06:44:43Z</time>
      </trkpt>
      <trkpt lat="47.4657" lon="6.6822">
        <ele>327.6</ele>
        <time>2015-08-31T06:44:44Z</time>
      </trkpt>
      <trkpt lat="47.46566" lon="6.68217">
        <ele>327.5</ele>
        <time>2015-08-31T06:44:45Z</time>
      </trkpt>
      <trkpt lat="47.46562" lon="6.68216">
        <ele>327.4</ele>
        <time>2015-08-31T06:44:46Z</time>
      </trkpt>
      <trkpt lat="47.46558" lon="6.68213">
        <ele>327.3</ele>
        <time>2015-08-31T06:44:47Z</time>
      </trkpt>
      <trkpt lat="47.46554" lon="6.68211">
        <ele>327.3</ele>
        <time>2015-08-31T06:44:48Z</time>
      </trkpt>
      <trkpt lat="47.46551" lon="6.68208">
        <ele>327.3</ele>
        <time>2015-08-31T06:44:49Z</time>
      </trkpt>
      <trkpt lat="47.46548" lon="6.68205">
        <ele>327.4</ele>
        <time>2015-08-31T06:44:50Z</time>
      </trkpt>
      <trkpt lat="47.46544" lon="6.68202">
        <ele>327.5</ele>
        <time>2015-08-31T06:44:51Z</time>
      </trkpt>
      <trkpt lat="47.4654" lon="6.68201">
        <ele>327.7</ele>
        <time>2015-08-31T06:44:52Z</time>
      </trkpt>
      <trkpt lat="47.46536" lon="6.68199">
        <ele>327.8</ele>
        <time>2015-08-31T06:44:53Z</time>
      </trkpt>
      <trkpt lat="47.46533" lon="6.68197">
        <ele>327.9</ele>
        <time>2015-08-31T06:44:54Z</time>
      </trkpt>
      <trkpt lat="47.46529" lon="6.68195">
        <ele>328.1</ele>
        <time>2015-08-31T06:44:55Z</time>
      </trkpt>
      <trkpt lat="47.46525" lon="6.68194">
        <ele>328.3</ele>
        <time>2015-08-31T06:44:56Z</time>
      </trkpt>
      <trkpt lat="47.46522" lon="6.68193">
        <ele>328.5</ele>
        <time>2015-08-31T06:44:57Z</time>
      </trkpt>
      <trkpt lat="47.46518" lon="6.68191">
        <ele>328.6</ele>
        <time>2015-08-31T06:44:58Z</time>
      </trkpt>
      <trkpt lat="47.46514" lon="6.68189">
        <ele>328.4</ele>
        <time>2015-08-31T06:44:59Z</time>
      </trkpt>
      <trkpt lat="47.4651" lon="6.68188">
        <ele>328.3</ele>
        <time>2015-08-31T06:45:00Z</time>
      </trkpt>
      <trkpt lat="47.46506" lon="6.68186">
        <ele>328.2</ele>
        <time>2015-08-31T06:45:01Z</time>
      </trkpt>
      <trkpt lat="47.46504" lon="6.68184">
        <ele>327.9</ele>
        <time>2015-08-31T06:45:02Z</time>
      </trkpt>
      <trkpt lat="47.465" lon="6.68183">
        <ele>327.8</ele>
        <time>2015-08-31T06:45:03Z</time>
      </trkpt>
      <trkpt lat="47.46496" lon="6.68183">
        <ele>327.7</ele>
        <time>2015-08-31T06:45:04Z</time>
      </trkpt>
      <trkpt lat="47.46491" lon="6.68181">
        <ele>327.4</ele>
        <time>2015-08-31T06:45:05Z</time>
      </trkpt>
      <trkpt lat="47.46486" lon="6.68179">
        <ele>327.1</ele>
        <time>2015-08-31T06:45:06Z</time>
      </trkpt>
      <trkpt lat="47.46479" lon="6.68177">
        <ele>326.6</ele>
        <time>2015-08-31T06:45:07Z</time>
      </trkpt>
      <trkpt lat="47.46473" lon="6.68175">
        <ele>326</ele>
        <time>2015-08-31T06:45:08Z</time>
      </trkpt>
      <trkpt lat="47.46466" lon="6.68172">
        <ele>325.1</ele>
        <time>2015-08-31T06:45:09Z</time>
      </trkpt>
      <trkpt lat="47.46459" lon="6.6817">
        <ele>324.6</ele>
        <time>2015-08-31T06:45:10Z</time>
      </trkpt>
      <trkpt lat="47.46452" lon="6.68168">
        <ele>324.1</ele>
        <time>2015-08-31T06:45:11Z</time>
      </trkpt>
      <trkpt lat="47.46445" lon="6.68166">
        <ele>323.8</ele>
        <time>2015-08-31T06:45:12Z</time>
      </trkpt>
      <trkpt lat="47.46438" lon="6.68164">
        <ele>323.4</ele>
        <time>2015-08-31T06:45:13Z</time>
      </trkpt>
      <trkpt lat="47.46431" lon="6.68162">
        <ele>322.8</ele>
        <time>2015-08-31T06:45:14Z</time>
      </trkpt>
      <trkpt lat="47.46423" lon="6.6816">
        <ele>322.1</ele>
        <time>2015-08-31T06:45:15Z</time>
      </trkpt>
      <trkpt lat="47.46416" lon="6.68158">
        <ele>321.4</ele>
        <time>2015-08-31T06:45:16Z</time>
      </trkpt>
      <trkpt lat="47.46409" lon="6.68155">
        <ele>320.5</ele>
        <time>2015-08-31T06:45:17Z</time>
      </trkpt>
      <trkpt lat="47.46402" lon="6.68153">
        <ele>319.7</ele>
        <time>2015-08-31T06:45:18Z</time>
      </trkpt>
      <trkpt lat="47.46395" lon="6.68151">
        <ele>319.2</ele>
        <time>2015-08-31T06:45:19Z</time>
      </trkpt>
      <trkpt lat="47.46387" lon="6.6815">
        <ele>318.6</ele>
        <time>2015-08-31T06:45:20Z</time>
      </trkpt>
      <trkpt lat="47.46379" lon="6.6815">
        <ele>318.2</ele>
        <time>2015-08-31T06:45:21Z</time>
      </trkpt>
      <trkpt lat="47.46369" lon="6.6815">
        <ele>317.6</ele>
        <time>2015-08-31T06:45:22Z</time>
      </trkpt>
      <trkpt lat="47.4636" lon="6.68152">
        <ele>316.9</ele>
        <time>2015-08-31T06:45:23Z</time>
      </trkpt>
      <trkpt lat="47.46351" lon="6.68155">
        <ele>316.2</ele>
        <time>2015-08-31T06:45:24Z</time>
      </trkpt>
      <trkpt lat="47.46342" lon="6.68159">
        <ele>315.5</ele>
        <time>2015-08-31T06:45:25Z</time>
      </trkpt>
      <trkpt lat="47.46333" lon="6.68164">
        <ele>314.7</ele>
        <time>2015-08-31T06:45:26Z</time>
      </trkpt>
      <trkpt lat="47.46324" lon="6.6817">
        <ele>314.2</ele>
        <time>2015-08-31T06:45:27Z</time>
      </trkpt>
      <trkpt lat="47.46315" lon="6.68175">
        <ele>313.5</ele>
        <time>2015-08-31T06:45:28Z</time>
      </trkpt>
      <trkpt lat="47.46306" lon="6.6818">
        <ele>313.1</ele>
        <time>2015-08-31T06:45:29Z</time>
      </trkpt>
      <trkpt lat="47.46297" lon="6.68184">
        <ele>312.7</ele>
        <time>2015-08-31T06:45:30Z</time>
      </trkpt>
      <trkpt lat="47.46287" lon="6.68186">
        <ele>312.3</ele>
        <time>2015-08-31T06:45:31Z</time>
      </trkpt>
      <trkpt lat="47.46278" lon="6.68188">
        <ele>311.8</ele>
        <time>2015-08-31T06:45:32Z</time>
      </trkpt>
      <trkpt lat="47.46269" lon="6.68188">
        <ele>311.4</ele>
        <time>2015-08-31T06:45:33Z</time>
      </trkpt>
      <trkpt lat="47.46261" lon="6.68187">
        <ele>311</ele>
        <time>2015-08-31T06:45:34Z</time>
      </trkpt>
      <trkpt lat="47.46252" lon="6.68186">
        <ele>310.3</ele>
        <time>2015-08-31T06:45:35Z</time>
      </trkpt>
      <trkpt lat="47.46244" lon="6.68184">
        <ele>309.6</ele>
        <time>2015-08-31T06:45:36Z</time>
      </trkpt>
      <trkpt lat="47.46236" lon="6.68183">
        <ele>309.1</ele>
        <time>2015-08-31T06:45:37Z</time>
      </trkpt>
      <trkpt lat="47.46228" lon="6.68181">
        <ele>308.5</ele>
        <time>2015-08-31T06:45:38Z</time>
      </trkpt>
      <trkpt lat="47.4622" lon="6.6818">
        <ele>308</ele>
        <time>2015-08-31T06:45:39Z</time>
      </trkpt>
      <trkpt lat="47.46212" lon="6.68179">
        <ele>307.4</ele>
        <time>2015-08-31T06:45:40Z</time>
      </trkpt>
      <trkpt lat="47.46204" lon="6.68178">
        <ele>306.9</ele>
        <time>2015-08-31T06:45:41Z</time>
      </trkpt>
      <trkpt lat="47.46197" lon="6.68178">
        <ele>307.1</ele>
        <time>2015-08-31T06:45:42Z</time>
      </trkpt>
      <trkpt lat="47.46189" lon="6.68178">
        <ele>307.5</ele>
        <time>2015-08-31T06:45:43Z</time>
      </trkpt>
      <trkpt lat="47.46182" lon="6.68178">
        <ele>307.7</ele>
        <time>2015-08-31T06:45:44Z</time>
      </trkpt>
      <trkpt lat="47.46174" lon="6.68178">
        <ele>308.2</ele>
        <time>2015-08-31T06:45:45Z</time>
      </trkpt>
      <trkpt lat="47.46167" lon="6.68178">
        <ele>308.3</ele>
        <time>2015-08-31T06:45:46Z</time>
      </trkpt>
      <trkpt lat="47.4616" lon="6.68179">
        <ele>308.2</ele>
        <time>2015-08-31T06:45:47Z</time>
      </trkpt>
      <trkpt lat="47.46153" lon="6.68179">
        <ele>308.3</ele>
        <time>2015-08-31T06:45:48Z</time>
      </trkpt>
      <trkpt lat="47.46146" lon="6.68179">
        <ele>308.4</ele>
        <time>2015-08-31T06:45:49Z</time>
      </trkpt>
      <trkpt lat="47.46139" lon="6.6818">
        <ele>308.6</ele>
        <time>2015-08-31T06:45:50Z</time>
      </trkpt>
      <trkpt lat="47.46132" lon="6.6818">
        <ele>308.7</ele>
        <time>2015-08-31T06:45:51Z</time>
      </trkpt>
      <trkpt lat="47.46126" lon="6.68181">
        <ele>308.5</ele>
        <time>2015-08-31T06:45:52Z</time>
      </trkpt>
      <trkpt lat="47.46119" lon="6.68181">
        <ele>308.4</ele>
        <time>2015-08-31T06:45:53Z</time>
      </trkpt>
      <trkpt lat="47.46112" lon="6.68181">
        <ele>308.3</ele>
        <time>2015-08-31T06:45:54Z</time>
      </trkpt>
      <trkpt lat="47.46106" lon="6.68182">
        <ele>308.3</ele>
        <time>2015-08-31T06:45:55Z</time>
      </trkpt>
      <trkpt lat="47.46099" lon="6.68183">
        <ele>308.5</ele>
        <time>2015-08-31T06:45:56Z</time>
      </trkpt>
      <trkpt lat="47.46093" lon="6.68184">
        <ele>308.6</ele>
        <time>2015-08-31T06:45:57Z</time>
      </trkpt>
      <trkpt lat="47.46087" lon="6.68185">
        <ele>308.7</ele>
        <time>2015-08-31T06:45:58Z</time>
      </trkpt>
      <trkpt lat="47.46082" lon="6.68186">
        <ele>308.9</ele>
        <time>2015-08-31T06:45:59Z</time>
      </trkpt>
      <trkpt lat="47.46077" lon="6.68186">
        <ele>309.1</ele>
        <time>2015-08-31T06:46:00Z</time>
      </trkpt>
      <trkpt lat="47.46073" lon="6.68186">
        <ele>309</ele>
        <time>2015-08-31T06:46:01Z</time>
      </trkpt>
      <trkpt lat="47.46068" lon="6.68187">
        <ele>309.1</ele>
        <time>2015-08-31T06:46:02Z</time>
      </trkpt>
      <trkpt lat="47.46062" lon="6.68188">
        <ele>309.1</ele>
        <time>2015-08-31T06:46:03Z</time>
      </trkpt>
      <trkpt lat="47.46056" lon="6.68188">
        <ele>309.2</ele>
        <time>2015-08-31T06:46:04Z</time>
      </trkpt>
      <trkpt lat="47.4605" lon="6.68189">
        <ele>309.2</ele>
        <time>2015-08-31T06:46:05Z</time>
      </trkpt>
      <trkpt lat="47.46044" lon="6.6819">
        <ele>309</ele>
        <time>2015-08-31T06:46:06Z</time>
      </trkpt>
      <trkpt lat="47.46037" lon="6.6819">
        <ele>308.8</ele>
        <time>2015-08-31T06:46:07Z</time>
      </trkpt>
      <trkpt lat="47.46031" lon="6.6819">
        <ele>308.6</ele>
        <time>2015-08-31T06:46:08Z</time>
      </trkpt>
      <trkpt lat="47.46025" lon="6.6819">
        <ele>308.8</ele>
        <time>2015-08-31T06:46:09Z</time>
      </trkpt>
      <trkpt lat="47.46019" lon="6.68192">
        <ele>308.9</ele>
        <time>2015-08-31T06:46:10Z</time>
      </trkpt>
      <trkpt lat="47.46013" lon="6.68194">
        <ele>308.8</ele>
        <time>2015-08-31T06:46:11Z</time>
      </trkpt>
      <trkpt lat="47.46008" lon="6.68195">
        <ele>308.7</ele>
        <time>2015-08-31T06:46:12Z</time>
      </trkpt>
      <trkpt lat="47.46001" lon="6.68195">
        <ele>308.7</ele>
        <time>2015-08-31T06:46:13Z</time>
      </trkpt>
      <trkpt lat="47.45996" lon="6.68195">
        <ele>308.3</ele>
        <time>2015-08-31T06:46:14Z</time>
      </trkpt>
      <trkpt lat="47.45989" lon="6.68196">
        <ele>308.2</ele>
        <time>2015-08-31T06:46:15Z</time>
      </trkpt>
      <trkpt lat="47.45983" lon="6.68197">
        <ele>308.4</ele>
        <time>2015-08-31T06:46:16Z</time>
      </trkpt>
      <trkpt lat="47.45977" lon="6.68198">
        <ele>308.2</ele>
        <time>2015-08-31T06:46:17Z</time>
      </trkpt>
      <trkpt lat="47.4597" lon="6.68198">
        <ele>308.2</ele>
        <time>2015-08-31T06:46:18Z</time>
      </trkpt>
      <trkpt lat="47.45964" lon="6.68199">
        <ele>308.1</ele>
        <time>2015-08-31T06:46:19Z</time>
      </trkpt>
      <trkpt lat="47.45958" lon="6.682">
        <ele>307.9</ele>
        <time>2015-08-31T06:46:20Z</time>
      </trkpt>
      <trkpt lat="47.45951" lon="6.68202">
        <ele>307.8</ele>
        <time>2015-08-31T06:46:21Z</time>
      </trkpt>
      <trkpt lat="47.45944" lon="6.68204">
        <ele>308</ele>
        <time>2015-08-31T06:46:22Z</time>
      </trkpt>
      <trkpt lat="47.45937" lon="6.68207">
        <ele>308.3</ele>
        <time>2015-08-31T06:46:23Z</time>
      </trkpt>
      <trkpt lat="47.45929" lon="6.68209">
        <ele>308.5</ele>
        <time>2015-08-31T06:46:24Z</time>
      </trkpt>
      <trkpt lat="47.45922" lon="6.68211">
        <ele>308.5</ele>
        <time>2015-08-31T06:46:25Z</time>
      </trkpt>
      <trkpt lat="47.45915" lon="6.68213">
        <ele>308.5</ele>
        <time>2015-08-31T06:46:26Z</time>
      </trkpt>
      <trkpt lat="47.45908" lon="6.68215">
        <ele>308.6</ele>
        <time>2015-08-31T06:46:27Z</time>
      </trkpt>
      <trkpt lat="47.45902" lon="6.68218">
        <ele>308.7</ele>
        <time>2015-08-31T06:46:28Z</time>
      </trkpt>
      <trkpt lat="47.45896" lon="6.68221">
        <ele>308.9</ele>
        <time>2015-08-31T06:46:29Z</time>
      </trkpt>
      <trkpt lat="47.4589" lon="6.68223">
        <ele>308.9</ele>
        <time>2015-08-31T06:46:30Z</time>
      </trkpt>
      <trkpt lat="47.45884" lon="6.68226">
        <ele>308.8</ele>
        <time>2015-08-31T06:46:31Z</time>
      </trkpt>
      <trkpt lat="47.45877" lon="6.68227">
        <ele>308.8</ele>
        <time>2015-08-31T06:46:32Z</time>
      </trkpt>
      <trkpt lat="47.45872" lon="6.68229">
        <ele>308.7</ele>
        <time>2015-08-31T06:46:33Z</time>
      </trkpt>
      <trkpt lat="47.45867" lon="6.6823">
        <ele>308.8</ele>
        <time>2015-08-31T06:46:34Z</time>
      </trkpt>
      <trkpt lat="47.45862" lon="6.68232">
        <ele>309</ele>
        <time>2015-08-31T06:46:35Z</time>
      </trkpt>
      <trkpt lat="47.45857" lon="6.68233">
        <ele>309</ele>
        <time>2015-08-31T06:46:36Z</time>
      </trkpt>
      <trkpt lat="47.45852" lon="6.68235">
        <ele>308.9</ele>
        <time>2015-08-31T06:46:37Z</time>
      </trkpt>
      <trkpt lat="47.45847" lon="6.68237">
        <ele>308.9</ele>
        <time>2015-08-31T06:46:38Z</time>
      </trkpt>
      <trkpt lat="47.45841" lon="6.68238">
        <ele>308.8</ele>
        <time>2015-08-31T06:46:39Z</time>
      </trkpt>
      <trkpt lat="47.45836" lon="6.6824">
        <ele>308.7</ele>
        <time>2015-08-31T06:46:40Z</time>
      </trkpt>
      <trkpt lat="47.45831" lon="6.68242">
        <ele>308.6</ele>
        <time>2015-08-31T06:46:41Z</time>
      </trkpt>
      <trkpt lat="47.45824" lon="6.68243">
        <ele>308.5</ele>
        <time>2015-08-31T06:46:42Z</time>
      </trkpt>
      <trkpt lat="47.45816" lon="6.68244">
        <ele>308.3</ele>
        <time>2015-08-31T06:46:43Z</time>
      </trkpt>
      <trkpt lat="47.4581" lon="6.68244">
        <ele>308.4</ele>
        <time>2015-08-31T06:46:44Z</time>
      </trkpt>
      <trkpt lat="47.45806" lon="6.68244">
        <ele>308.8</ele>
        <time>2015-08-31T06:46:45Z</time>
      </trkpt>
      <trkpt lat="47.45802" lon="6.68243">
        <ele>309</ele>
        <time>2015-08-31T06:46:46Z</time>
      </trkpt>
      <trkpt lat="47.45798" lon="6.68243">
        <ele>309.5</ele>
        <time>2015-08-31T06:46:47Z</time>
      </trkpt>
      <trkpt lat="47.45794" lon="6.68242">
        <ele>309.7</ele>
        <time>2015-08-31T06:46:48Z</time>
      </trkpt>
      <trkpt lat="47.45791" lon="6.68241">
        <ele>309.8</ele>
        <time>2015-08-31T06:46:49Z</time>
      </trkpt>
      <trkpt lat="47.45787" lon="6.68241">
        <ele>310</ele>
        <time>2015-08-31T06:46:50Z</time>
      </trkpt>
      <trkpt lat="47.45782" lon="6.68241">
        <ele>310.2</ele>
        <time>2015-08-31T06:46:51Z</time>
      </trkpt>
      <trkpt lat="47.45776" lon="6.68241">
        <ele>310.6</ele>
        <time>2015-08-31T06:46:52Z</time>
      </trkpt>
      <trkpt lat="47.45769" lon="6.6824">
        <ele>310.7</ele>
        <time>2015-08-31T06:46:53Z</time>
      </trkpt>
      <trkpt lat="47.45763" lon="6.68239">
        <ele>310.6</ele>
        <time>2015-08-31T06:46:54Z</time>
      </trkpt>
      <trkpt lat="47.45757" lon="6.68238">
        <ele>310.6</ele>
        <time>2015-08-31T06:46:55Z</time>
      </trkpt>
      <trkpt lat="47.45751" lon="6.68236">
        <ele>310.7</ele>
        <time>2015-08-31T06:46:56Z</time>
      </trkpt>
      <trkpt lat="47.45745" lon="6.68234">
        <ele>310.6</ele>
        <time>2015-08-31T06:46:57Z</time>
      </trkpt>
      <trkpt lat="47.45739" lon="6.68231">
        <ele>310.3</ele>
        <time>2015-08-31T06:46:58Z</time>
      </trkpt>
      <trkpt lat="47.45734" lon="6.68229">
        <ele>310.1</ele>
        <time>2015-08-31T06:46:59Z</time>
      </trkpt>
      <trkpt lat="47.45728" lon="6.68226">
        <ele>310.2</ele>
        <time>2015-08-31T06:47:00Z</time>
      </trkpt>
      <trkpt lat="47.45723" lon="6.68223">
        <ele>310.6</ele>
        <time>2015-08-31T06:47:01Z</time>
      </trkpt>
      <trkpt lat="47.45717" lon="6.68221">
        <ele>310.8</ele>
        <time>2015-08-31T06:47:02Z</time>
      </trkpt>
      <trkpt lat="47.45712" lon="6.68218">
        <ele>310.8</ele>
        <time>2015-08-31T06:47:03Z</time>
      </trkpt>
      <trkpt lat="47.45706" lon="6.68215">
        <ele>310.7</ele>
        <time>2015-08-31T06:47:04Z</time>
      </trkpt>
      <trkpt lat="47.45701" lon="6.68211">
        <ele>310.6</ele>
        <time>2015-08-31T06:47:05Z</time>
      </trkpt>
      <trkpt lat="47.45696" lon="6.68208">
        <ele>310.7</ele>
        <time>2015-08-31T06:47:06Z</time>
      </trkpt>
      <trkpt lat="47.45691" lon="6.68204">
        <ele>310.7</ele>
        <time>2015-08-31T06:47:07Z</time>
      </trkpt>
      <trkpt lat="47.45686" lon="6.682">
        <ele>310.3</ele>
        <time>2015-08-31T06:47:08Z</time>
      </trkpt>
      <trkpt lat="47.45681" lon="6.68196">
        <ele>310.3</ele>
        <time>2015-08-31T06:47:09Z</time>
      </trkpt>
      <trkpt lat="47.45676" lon="6.68192">
        <ele>310.9</ele>
        <time>2015-08-31T06:47:10Z</time>
      </trkpt>
      <trkpt lat="47.45671" lon="6.68188">
        <ele>310</ele>
        <time>2015-08-31T06:47:11Z</time>
      </trkpt>
      <trkpt lat="47.45665" lon="6.68185">
        <ele>309.7</ele>
        <time>2015-08-31T06:47:12Z</time>
      </trkpt>
      <trkpt lat="47.4566" lon="6.68181">
        <ele>309.7</ele>
        <time>2015-08-31T06:47:13Z</time>
      </trkpt>
      <trkpt lat="47.45656" lon="6.68177">
        <ele>309.8</ele>
        <time>2015-08-31T06:47:14Z</time>
      </trkpt>
      <trkpt lat="47.45651" lon="6.68173">
        <ele>310.1</ele>
        <time>2015-08-31T06:47:15Z</time>
      </trkpt>
      <trkpt lat="47.45646" lon="6.6817">
        <ele>310.3</ele>
        <time>2015-08-31T06:47:16Z</time>
      </trkpt>
      <trkpt lat="47.45641" lon="6.68166">
        <ele>310.5</ele>
        <time>2015-08-31T06:47:17Z</time>
      </trkpt>
      <trkpt lat="47.45636" lon="6.68162">
        <ele>310.6</ele>
        <time>2015-08-31T06:47:18Z</time>
      </trkpt>
      <trkpt lat="47.45631" lon="6.68159">
        <ele>310.8</ele>
        <time>2015-08-31T06:47:19Z</time>
      </trkpt>
      <trkpt lat="47.45626" lon="6.68155">
        <ele>310.9</ele>
        <time>2015-08-31T06:47:20Z</time>
      </trkpt>
      <trkpt lat="47.45621" lon="6.68151">
        <ele>311</ele>
        <time>2015-08-31T06:47:21Z</time>
      </trkpt>
      <trkpt lat="47.45616" lon="6.68148">
        <ele>310.9</ele>
        <time>2015-08-31T06:47:22Z</time>
      </trkpt>
      <trkpt lat="47.45611" lon="6.68144">
        <ele>310.6</ele>
        <time>2015-08-31T06:47:23Z</time>
      </trkpt>
      <trkpt lat="47.45606" lon="6.68141">
        <ele>310.4</ele>
        <time>2015-08-31T06:47:24Z</time>
      </trkpt>
      <trkpt lat="47.456" lon="6.68139">
        <ele>310</ele>
        <time>2015-08-31T06:47:25Z</time>
      </trkpt>
      <trkpt lat="47.45595" lon="6.68135">
        <ele>309.5</ele>
        <time>2015-08-31T06:47:26Z</time>
      </trkpt>
      <trkpt lat="47.4559" lon="6.68131">
        <ele>309.4</ele>
        <time>2015-08-31T06:47:27Z</time>
      </trkpt>
      <trkpt lat="47.45585" lon="6.68126">
        <ele>309.1</ele>
        <time>2015-08-31T06:47:28Z</time>
      </trkpt>
      <trkpt lat="47.4558" lon="6.68121">
        <ele>309.1</ele>
        <time>2015-08-31T06:47:29Z</time>
      </trkpt>
      <trkpt lat="47.45575" lon="6.68116">
        <ele>309</ele>
        <time>2015-08-31T06:47:30Z</time>
      </trkpt>
      <trkpt lat="47.45571" lon="6.6811">
        <ele>309.2</ele>
        <time>2015-08-31T06:47:31Z</time>
      </trkpt>
      <trkpt lat="47.45566" lon="6.68104">
        <ele>309.4</ele>
        <time>2015-08-31T06:47:32Z</time>
      </trkpt>
      <trkpt lat="47.45563" lon="6.68097">
        <ele>309.6</ele>
        <time>2015-08-31T06:47:33Z</time>
      </trkpt>
      <trkpt lat="47.45559" lon="6.6809">
        <ele>309.8</ele>
        <time>2015-08-31T06:47:34Z</time>
      </trkpt>
      <trkpt lat="47.45555" lon="6.68083">
        <ele>309.3</ele>
        <time>2015-08-31T06:47:35Z</time>
      </trkpt>
      <trkpt lat="47.45552" lon="6.68076">
        <ele>309.4</ele>
        <time>2015-08-31T06:47:36Z</time>
      </trkpt>
      <trkpt lat="47.4555" lon="6.68068">
        <ele>309.6</ele>
        <time>2015-08-31T06:47:37Z</time>
      </trkpt>
      <trkpt lat="47.45547" lon="6.68062">
        <ele>309.7</ele>
        <time>2015-08-31T06:47:38Z</time>
      </trkpt>
      <trkpt lat="47.45544" lon="6.68056">
        <ele>309.8</ele>
        <time>2015-08-31T06:47:39Z</time>
      </trkpt>
      <trkpt lat="47.4554" lon="6.68052">
        <ele>310.2</ele>
        <time>2015-08-31T06:47:40Z</time>
      </trkpt>
      <trkpt lat="47.45536" lon="6.68051">
        <ele>311</ele>
        <time>2015-08-31T06:47:41Z</time>
      </trkpt>
      <trkpt lat="47.45532" lon="6.68053">
        <ele>311.4</ele>
        <time>2015-08-31T06:47:42Z</time>
      </trkpt>
      <trkpt lat="47.45528" lon="6.68058">
        <ele>311.5</ele>
        <time>2015-08-31T06:47:43Z</time>
      </trkpt>
      <trkpt lat="47.45526" lon="6.68065">
        <ele>311.6</ele>
        <time>2015-08-31T06:47:44Z</time>
      </trkpt>
      <trkpt lat="47.45524" lon="6.68073">
        <ele>312.2</ele>
        <time>2015-08-31T06:47:45Z</time>
      </trkpt>
      <trkpt lat="47.45523" lon="6.68081">
        <ele>312.7</ele>
        <time>2015-08-31T06:47:46Z</time>
      </trkpt>
      <trkpt lat="47.45521" lon="6.68089">
        <ele>310.9</ele>
        <time>2015-08-31T06:47:47Z</time>
      </trkpt>
      <trkpt lat="47.4552" lon="6.68097">
        <ele>311</ele>
        <time>2015-08-31T06:47:48Z</time>
      </trkpt>
      <trkpt lat="47.45519" lon="6.68105">
        <ele>310.9</ele>
        <time>2015-08-31T06:47:49Z</time>
      </trkpt>
      <trkpt lat="47.45517" lon="6.68113">
        <ele>311</ele>
        <time>2015-08-31T06:47:50Z</time>
      </trkpt>
      <trkpt lat="47.45515" lon="6.6812">
        <ele>311.2</ele>
        <time>2015-08-31T06:47:51Z</time>
      </trkpt>
      <trkpt lat="47.45513" lon="6.68127">
        <ele>311.3</ele>
        <time>2015-08-31T06:47:52Z</time>
      </trkpt>
      <trkpt lat="47.4551" lon="6.68134">
        <ele>311.4</ele>
        <time>2015-08-31T06:47:53Z</time>
      </trkpt>
      <trkpt lat="47.45507" lon="6.68141">
        <ele>311.4</ele>
        <time>2015-08-31T06:47:54Z</time>
      </trkpt>
      <trkpt lat="47.45503" lon="6.68147">
        <ele>311.5</ele>
        <time>2015-08-31T06:47:55Z</time>
      </trkpt>
      <trkpt lat="47.455" lon="6.68153">
        <ele>311.7</ele>
        <time>2015-08-31T06:47:56Z</time>
      </trkpt>
      <trkpt lat="47.45496" lon="6.68159">
        <ele>311.8</ele>
        <time>2015-08-31T06:47:57Z</time>
      </trkpt>
      <trkpt lat="47.45492" lon="6.68164">
        <ele>311.7</ele>
        <time>2015-08-31T06:47:58Z</time>
      </trkpt>
      <trkpt lat="47.45488" lon="6.68169">
        <ele>311.7</ele>
        <time>2015-08-31T06:47:59Z</time>
      </trkpt>
      <trkpt lat="47.45484" lon="6.68173">
        <ele>311.7</ele>
        <time>2015-08-31T06:48:00Z</time>
      </trkpt>
      <trkpt lat="47.4548" lon="6.68178">
        <ele>311.8</ele>
        <time>2015-08-31T06:48:01Z</time>
      </trkpt>
      <trkpt lat="47.45475" lon="6.68181">
        <ele>311.7</ele>
        <time>2015-08-31T06:48:02Z</time>
      </trkpt>
      <trkpt lat="47.45471" lon="6.68185">
        <ele>311.6</ele>
        <time>2015-08-31T06:48:03Z</time>
      </trkpt>
      <trkpt lat="47.45467" lon="6.68189">
        <ele>311.6</ele>
        <time>2015-08-31T06:48:04Z</time>
      </trkpt>
      <trkpt lat="47.45463" lon="6.68193">
        <ele>311.8</ele>
        <time>2015-08-31T06:48:05Z</time>
      </trkpt>
      <trkpt lat="47.4546" lon="6.68196">
        <ele>311.8</ele>
        <time>2015-08-31T06:48:06Z</time>
      </trkpt>
      <trkpt lat="47.45456" lon="6.682">
        <ele>312</ele>
        <time>2015-08-31T06:48:07Z</time>
      </trkpt>
      <trkpt lat="47.45452" lon="6.68204">
        <ele>312</ele>
        <time>2015-08-31T06:48:08Z</time>
      </trkpt>
      <trkpt lat="47.45448" lon="6.68207">
        <ele>311.8</ele>
        <time>2015-08-31T06:48:09Z</time>
      </trkpt>
      <trkpt lat="47.45444" lon="6.68211">
        <ele>311.5</ele>
        <time>2015-08-31T06:48:10Z</time>
      </trkpt>
      <trkpt lat="47.45441" lon="6.68214">
        <ele>311.3</ele>
        <time>2015-08-31T06:48:11Z</time>
      </trkpt>
      <trkpt lat="47.45437" lon="6.68217">
        <ele>310.9</ele>
        <time>2015-08-31T06:48:12Z</time>
      </trkpt>
      <trkpt lat="47.45433" lon="6.68221">
        <ele>310.7</ele>
        <time>2015-08-31T06:48:13Z</time>
      </trkpt>
      <trkpt lat="47.4543" lon="6.68224">
        <ele>310.4</ele>
        <time>2015-08-31T06:48:14Z</time>
      </trkpt>
      <trkpt lat="47.45426" lon="6.68227">
        <ele>310</ele>
        <time>2015-08-31T06:48:15Z</time>
      </trkpt>
      <trkpt lat="47.45423" lon="6.68231">
        <ele>309.8</ele>
        <time>2015-08-31T06:48:16Z</time>
      </trkpt>
      <trkpt lat="47.45419" lon="6.68235">
        <ele>309.6</ele>
        <time>2015-08-31T06:48:17Z</time>
      </trkpt>
      <trkpt lat="47.45415" lon="6.68238">
        <ele>309.2</ele>
        <time>2015-08-31T06:48:18Z</time>
      </trkpt>
      <trkpt lat="47.45411" lon="6.68242">
        <ele>309</ele>
        <time>2015-08-31T06:48:19Z</time>
      </trkpt>
      <trkpt lat="47.45407" lon="6.68246">
        <ele>309</ele>
        <time>2015-08-31T06:48:20Z</time>
      </trkpt>
      <trkpt lat="47.45404" lon="6.6825">
        <ele>309.1</ele>
        <time>2015-08-31T06:48:21Z</time>
      </trkpt>
      <trkpt lat="47.454" lon="6.68253">
        <ele>309.2</ele>
        <time>2015-08-31T06:48:22Z</time>
      </trkpt>
      <trkpt lat="47.45396" lon="6.68257">
        <ele>309.4</ele>
        <time>2015-08-31T06:48:23Z</time>
      </trkpt>
      <trkpt lat="47.45392" lon="6.68261">
        <ele>308.6</ele>
        <time>2015-08-31T06:48:24Z</time>
      </trkpt>
      <trkpt lat="47.45387" lon="6.68265">
        <ele>308.6</ele>
        <time>2015-08-31T06:48:25Z</time>
      </trkpt>
      <trkpt lat="47.45383" lon="6.68269">
        <ele>308.2</ele>
        <time>2015-08-31T06:48:26Z</time>
      </trkpt>
      <trkpt lat="47.45379" lon="6.68273">
        <ele>308.3</ele>
        <time>2015-08-31T06:48:27Z</time>
      </trkpt>
      <trkpt lat="47.45374" lon="6.68277">
        <ele>308.2</ele>
        <time>2015-08-31T06:48:28Z</time>
      </trkpt>
      <trkpt lat="47.4537" lon="6.68281">
        <ele>308.3</ele>
        <time>2015-08-31T06:48:29Z</time>
      </trkpt>
      <trkpt lat="47.45366" lon="6.68286">
        <ele>308.1</ele>
        <time>2015-08-31T06:48:30Z</time>
      </trkpt>
      <trkpt lat="47.45363" lon="6.68291">
        <ele>307.7</ele>
        <time>2015-08-31T06:48:31Z</time>
      </trkpt>
      <trkpt lat="47.4536" lon="6.68298">
        <ele>307.5</ele>
        <time>2015-08-31T06:48:32Z</time>
      </trkpt>
      <trkpt lat="47.45359" lon="6.68305">
        <ele>307.3</ele>
        <time>2015-08-31T06:48:33Z</time>
      </trkpt>
      <trkpt lat="47.45358" lon="6.68312">
        <ele>307</ele>
        <time>2015-08-31T06:48:34Z</time>
      </trkpt>
      <trkpt lat="47.45358" lon="6.6832">
        <ele>306.8</ele>
        <time>2015-08-31T06:48:35Z</time>
      </trkpt>
      <trkpt lat="47.45359" lon="6.68328">
        <ele>306.5</ele>
        <time>2015-08-31T06:48:36Z</time>
      </trkpt>
      <trkpt lat="47.45361" lon="6.68336">
        <ele>306.5</ele>
        <time>2015-08-31T06:48:37Z</time>
      </trkpt>
      <trkpt lat="47.45363" lon="6.68343">
        <ele>306.4</ele>
        <time>2015-08-31T06:48:38Z</time>
      </trkpt>
      <trkpt lat="47.45365" lon="6.6835">
        <ele>306.1</ele>
        <time>2015-08-31T06:48:39Z</time>
      </trkpt>
      <trkpt lat="47.45368" lon="6.68356">
        <ele>306</ele>
        <time>2015-08-31T06:48:40Z</time>
      </trkpt>
      <trkpt lat="47.45371" lon="6.68363">
        <ele>305.9</ele>
        <time>2015-08-31T06:48:41Z</time>
      </trkpt>
      <trkpt lat="47.45375" lon="6.68368">
        <ele>305.8</ele>
        <time>2015-08-31T06:48:42Z</time>
      </trkpt>
      <trkpt lat="47.45379" lon="6.68374">
        <ele>305.6</ele>
        <time>2015-08-31T06:48:43Z</time>
      </trkpt>
      <trkpt lat="47.45382" lon="6.68379">
        <ele>305.3</ele>
        <time>2015-08-31T06:48:44Z</time>
      </trkpt>
      <trkpt lat="47.45386" lon="6.68385">
        <ele>305</ele>
        <time>2015-08-31T06:48:45Z</time>
      </trkpt>
      <trkpt lat="47.4539" lon="6.68392">
        <ele>304.5</ele>
        <time>2015-08-31T06:48:46Z</time>
      </trkpt>
      <trkpt lat="47.45394" lon="6.68397">
        <ele>304.3</ele>
        <time>2015-08-31T06:48:47Z</time>
      </trkpt>
      <trkpt lat="47.45399" lon="6.68403">
        <ele>304.2</ele>
        <time>2015-08-31T06:48:48Z</time>
      </trkpt>
      <trkpt lat="47.45404" lon="6.68408">
        <ele>304</ele>
        <time>2015-08-31T06:48:49Z</time>
      </trkpt>
      <trkpt lat="47.45408" lon="6.68414">
        <ele>303.6</ele>
        <time>2015-08-31T06:48:50Z</time>
      </trkpt>
      <trkpt lat="47.45412" lon="6.6842">
        <ele>303.3</ele>
        <time>2015-08-31T06:48:51Z</time>
      </trkpt>
      <trkpt lat="47.45416" lon="6.68425">
        <ele>303</ele>
        <time>2015-08-31T06:48:52Z</time>
      </trkpt>
      <trkpt lat="47.4542" lon="6.68431">
        <ele>302.8</ele>
        <time>2015-08-31T06:48:53Z</time>
      </trkpt>
      <trkpt lat="47.45424" lon="6.68436">
        <ele>302.4</ele>
        <time>2015-08-31T06:48:54Z</time>
      </trkpt>
      <trkpt lat="47.45428" lon="6.68442">
        <ele>302.1</ele>
        <time>2015-08-31T06:48:55Z</time>
      </trkpt>
      <trkpt lat="47.45432" lon="6.68448">
        <ele>302.1</ele>
        <time>2015-08-31T06:48:56Z</time>
      </trkpt>
      <trkpt lat="47.45436" lon="6.68454">
        <ele>301.3</ele>
        <time>2015-08-31T06:48:57Z</time>
      </trkpt>
      <trkpt lat="47.45439" lon="6.6846">
        <ele>301.3</ele>
        <time>2015-08-31T06:48:58Z</time>
      </trkpt>
      <trkpt lat="47.45443" lon="6.68466">
        <ele>301.4</ele>
        <time>2015-08-31T06:48:59Z</time>
      </trkpt>
      <trkpt lat="47.45446" lon="6.68472">
        <ele>301.2</ele>
        <time>2015-08-31T06:49:00Z</time>
      </trkpt>
      <trkpt lat="47.4545" lon="6.68478">
        <ele>302.3</ele>
        <time>2015-08-31T06:49:01Z</time>
      </trkpt>
      <trkpt lat="47.45453" lon="6.68484">
        <ele>302.4</ele>
        <time>2015-08-31T06:49:02Z</time>
      </trkpt>
      <trkpt lat="47.45456" lon="6.6849">
        <ele>302.3</ele>
        <time>2015-08-31T06:49:03Z</time>
      </trkpt>
      <trkpt lat="47.4546" lon="6.68496">
        <ele>302.3</ele>
        <time>2015-08-31T06:49:04Z</time>
      </trkpt>
      <trkpt lat="47.45463" lon="6.68501">
        <ele>302.1</ele>
        <time>2015-08-31T06:49:05Z</time>
      </trkpt>
      <trkpt lat="47.45466" lon="6.68507">
        <ele>302</ele>
        <time>2015-08-31T06:49:06Z</time>
      </trkpt>
      <trkpt lat="47.45469" lon="6.68512">
        <ele>301.8</ele>
        <time>2015-08-31T06:49:07Z</time>
      </trkpt>
      <trkpt lat="47.45473" lon="6.68518">
        <ele>301.8</ele>
        <time>2015-08-31T06:49:08Z</time>
      </trkpt>
      <trkpt lat="47.45476" lon="6.68524">
        <ele>301.7</ele>
        <time>2015-08-31T06:49:09Z</time>
      </trkpt>
      <trkpt lat="47.45479" lon="6.68529">
        <ele>301.4</ele>
        <time>2015-08-31T06:49:10Z</time>
      </trkpt>
      <trkpt lat="47.45482" lon="6.68535">
        <ele>301.3</ele>
        <time>2015-08-31T06:49:11Z</time>
      </trkpt>
      <trkpt lat="47.45485" lon="6.68541">
        <ele>301.2</ele>
        <time>2015-08-31T06:49:12Z</time>
      </trkpt>
      <trkpt lat="47.45489" lon="6.68546">
        <ele>301</ele>
        <time>2015-08-31T06:49:13Z</time>
      </trkpt>
      <trkpt lat="47.45492" lon="6.68552">
        <ele>301</ele>
        <time>2015-08-31T06:49:14Z</time>
      </trkpt>
      <trkpt lat="47.45495" lon="6.68557">
        <ele>300.7</ele>
        <time>2015-08-31T06:49:15Z</time>
      </trkpt>
      <trkpt lat="47.45498" lon="6.68563">
        <ele>300.4</ele>
        <time>2015-08-31T06:49:16Z</time>
      </trkpt>
      <trkpt lat="47.45502" lon="6.68569">
        <ele>300</ele>
        <time>2015-08-31T06:49:17Z</time>
      </trkpt>
      <trkpt lat="47.45505" lon="6.68575">
        <ele>300</ele>
        <time>2015-08-31T06:49:18Z</time>
      </trkpt>
      <trkpt lat="47.45509" lon="6.68581">
        <ele>299.8</ele>
        <time>2015-08-31T06:49:19Z</time>
      </trkpt>
      <trkpt lat="47.45512" lon="6.68587">
        <ele>299.6</ele>
        <time>2015-08-31T06:49:20Z</time>
      </trkpt>
      <trkpt lat="47.45516" lon="6.68593">
        <ele>299.3</ele>
        <time>2015-08-31T06:49:21Z</time>
      </trkpt>
      <trkpt lat="47.45519" lon="6.68599">
        <ele>299.2</ele>
        <time>2015-08-31T06:49:22Z</time>
      </trkpt>
      <trkpt lat="47.45522" lon="6.68605">
        <ele>299.1</ele>
        <time>2015-08-31T06:49:23Z</time>
      </trkpt>
      <trkpt lat="47.45525" lon="6.6861">
        <ele>299.2</ele>
        <time>2015-08-31T06:49:24Z</time>
      </trkpt>
      <trkpt lat="47.45528" lon="6.68616">
        <ele>299</ele>
        <time>2015-08-31T06:49:25Z</time>
      </trkpt>
      <trkpt lat="47.45531" lon="6.68621">
        <ele>298.9</ele>
        <time>2015-08-31T06:49:26Z</time>
      </trkpt>
      <trkpt lat="47.45534" lon="6.68626">
        <ele>298.9</ele>
        <time>2015-08-31T06:49:27Z</time>
      </trkpt>
      <trkpt lat="47.45538" lon="6.68631">
        <ele>299.1</ele>
        <time>2015-08-31T06:49:28Z</time>
      </trkpt>
      <trkpt lat="47.45541" lon="6.68636">
        <ele>298.9</ele>
        <time>2015-08-31T06:49:29Z</time>
      </trkpt>
      <trkpt lat="47.45544" lon="6.68641">
        <ele>298.5</ele>
        <time>2015-08-31T06:49:30Z</time>
      </trkpt>
      <trkpt lat="47.45547" lon="6.68647">
        <ele>298.5</ele>
        <time>2015-08-31T06:49:31Z</time>
      </trkpt>
      <trkpt lat="47.45551" lon="6.68652">
        <ele>298.4</ele>
        <time>2015-08-31T06:49:32Z</time>
      </trkpt>
      <trkpt lat="47.45554" lon="6.68657">
        <ele>298.4</ele>
        <time>2015-08-31T06:49:33Z</time>
      </trkpt>
      <trkpt lat="47.45557" lon="6.68663">
        <ele>298.4</ele>
        <time>2015-08-31T06:49:34Z</time>
      </trkpt>
      <trkpt lat="47.45561" lon="6.68668">
        <ele>298.5</ele>
        <time>2015-08-31T06:49:35Z</time>
      </trkpt>
      <trkpt lat="47.45565" lon="6.68674">
        <ele>298.8</ele>
        <time>2015-08-31T06:49:36Z</time>
      </trkpt>
      <trkpt lat="47.45569" lon="6.68679">
        <ele>299</ele>
        <time>2015-08-31T06:49:37Z</time>
      </trkpt>
      <trkpt lat="47.45573" lon="6.68684">
        <ele>299.5</ele>
        <time>2015-08-31T06:49:38Z</time>
      </trkpt>
      <trkpt lat="47.45576" lon="6.68689">
        <ele>299.7</ele>
        <time>2015-08-31T06:49:39Z</time>
      </trkpt>
      <trkpt lat="47.4558" lon="6.68695">
        <ele>300.1</ele>
        <time>2015-08-31T06:49:40Z</time>
      </trkpt>
      <trkpt lat="47.45583" lon="6.687">
        <ele>300.3</ele>
        <time>2015-08-31T06:49:41Z</time>
      </trkpt>
      <trkpt lat="47.45587" lon="6.68706">
        <ele>300.3</ele>
        <time>2015-08-31T06:49:42Z</time>
      </trkpt>
      <trkpt lat="47.45591" lon="6.68711">
        <ele>300.4</ele>
        <time>2015-08-31T06:49:43Z</time>
      </trkpt>
      <trkpt lat="47.45594" lon="6.68716">
        <ele>300.7</ele>
        <time>2015-08-31T06:49:44Z</time>
      </trkpt>
      <trkpt lat="47.45598" lon="6.68721">
        <ele>300.4</ele>
        <time>2015-08-31T06:49:45Z</time>
      </trkpt>
      <trkpt lat="47.45601" lon="6.68726">
        <ele>299.4</ele>
        <time>2015-08-31T06:49:46Z</time>
      </trkpt>
      <trkpt lat="47.45605" lon="6.68731">
        <ele>299.4</ele>
        <time>2015-08-31T06:49:47Z</time>
      </trkpt>
      <trkpt lat="47.45608" lon="6.68736">
        <ele>299.7</ele>
        <time>2015-08-31T06:49:48Z</time>
      </trkpt>
      <trkpt lat="47.4561" lon="6.68743">
        <ele>299.6</ele>
        <time>2015-08-31T06:49:49Z</time>
      </trkpt>
      <trkpt lat="47.45611" lon="6.68749">
        <ele>300</ele>
        <time>2015-08-31T06:49:50Z</time>
      </trkpt>
      <trkpt lat="47.45609" lon="6.68755">
        <ele>300.7</ele>
        <time>2015-08-31T06:49:51Z</time>
      </trkpt>
      <trkpt lat="47.45606" lon="6.68761">
        <ele>301.5</ele>
        <time>2015-08-31T06:49:52Z</time>
      </trkpt>
      <trkpt lat="47.45603" lon="6.68766">
        <ele>302.1</ele>
        <time>2015-08-31T06:49:53Z</time>
      </trkpt>
      <trkpt lat="47.456" lon="6.6877">
        <ele>302.4</ele>
        <time>2015-08-31T06:49:54Z</time>
      </trkpt>
      <trkpt lat="47.45596" lon="6.68774">
        <ele>302.9</ele>
        <time>2015-08-31T06:49:55Z</time>
      </trkpt>
      <trkpt lat="47.45593" lon="6.68778">
        <ele>303.3</ele>
        <time>2015-08-31T06:49:56Z</time>
      </trkpt>
      <trkpt lat="47.45589" lon="6.68782">
        <ele>303.7</ele>
        <time>2015-08-31T06:49:57Z</time>
      </trkpt>
      <trkpt lat="47.45586" lon="6.68786">
        <ele>304.3</ele>
        <time>2015-08-31T06:49:58Z</time>
      </trkpt>
      <trkpt lat="47.45582" lon="6.68789">
        <ele>304.9</ele>
        <time>2015-08-31T06:49:59Z</time>
      </trkpt>
      <trkpt lat="47.4558" lon="6.68792">
        <ele>305.2</ele>
        <time>2015-08-31T06:50:00Z</time>
      </trkpt>
      <trkpt lat="47.45577" lon="6.68796">
        <ele>305.6</ele>
        <time>2015-08-31T06:50:01Z</time>
      </trkpt>
      <trkpt lat="47.45572" lon="6.688">
        <ele>306.2</ele>
        <time>2015-08-31T06:50:02Z</time>
      </trkpt>
      <trkpt lat="47.45569" lon="6.68804">
        <ele>306.7</ele>
        <time>2015-08-31T06:50:03Z</time>
      </trkpt>
      <trkpt lat="47.45565" lon="6.68807">
        <ele>307.1</ele>
        <time>2015-08-31T06:50:04Z</time>
      </trkpt>
      <trkpt lat="47.45561" lon="6.68811">
        <ele>307.4</ele>
        <time>2015-08-31T06:50:05Z</time>
      </trkpt>
      <trkpt lat="47.45558" lon="6.68814">
        <ele>307.7</ele>
        <time>2015-08-31T06:50:06Z</time>
      </trkpt>
      <trkpt lat="47.45555" lon="6.68817">
        <ele>308.3</ele>
        <time>2015-08-31T06:50:07Z</time>
      </trkpt>
      <trkpt lat="47.45551" lon="6.6882">
        <ele>308.7</ele>
        <time>2015-08-31T06:50:08Z</time>
      </trkpt>
      <trkpt lat="47.45548" lon="6.68822">
        <ele>309.1</ele>
        <time>2015-08-31T06:50:09Z</time>
      </trkpt>
      <trkpt lat="47.45544" lon="6.68825">
        <ele>309.4</ele>
        <time>2015-08-31T06:50:10Z</time>
      </trkpt>
      <trkpt lat="47.4554" lon="6.68827">
        <ele>309.7</ele>
        <time>2015-08-31T06:50:11Z</time>
      </trkpt>
      <trkpt lat="47.45537" lon="6.68831">
        <ele>310</ele>
        <time>2015-08-31T06:50:12Z</time>
      </trkpt>
      <trkpt lat="47.45535" lon="6.68834">
        <ele>310</ele>
        <time>2015-08-31T06:50:13Z</time>
      </trkpt>
      <trkpt lat="47.45533" lon="6.68837">
        <ele>310.1</ele>
        <time>2015-08-31T06:50:14Z</time>
      </trkpt>
      <trkpt lat="47.45531" lon="6.68841">
        <ele>310.2</ele>
        <time>2015-08-31T06:50:15Z</time>
      </trkpt>
      <trkpt lat="47.4553" lon="6.68844">
        <ele>309.9</ele>
        <time>2015-08-31T06:50:16Z</time>
      </trkpt>
      <trkpt lat="47.45528" lon="6.68847">
        <ele>309.8</ele>
        <time>2015-08-31T06:50:17Z</time>
      </trkpt>
      <trkpt lat="47.45527" lon="6.68851">
        <ele>309.6</ele>
        <time>2015-08-31T06:50:18Z</time>
      </trkpt>
      <trkpt lat="47.45523" lon="6.68854">
        <ele>309.5</ele>
        <time>2015-08-31T06:50:19Z</time>
      </trkpt>
      <trkpt lat="47.4552" lon="6.68855">
        <ele>309</ele>
        <time>2015-08-31T06:50:20Z</time>
      </trkpt>
      <trkpt lat="47.45517" lon="6.68854">
        <ele>308.9</ele>
        <time>2015-08-31T06:50:21Z</time>
      </trkpt>
      <trkpt lat="47.45514" lon="6.68851">
        <ele>308.7</ele>
        <time>2015-08-31T06:50:22Z</time>
      </trkpt>
      <trkpt lat="47.45511" lon="6.68847">
        <ele>308.5</ele>
        <time>2015-08-31T06:50:23Z</time>
      </trkpt>
      <trkpt lat="47.45508" lon="6.68843">
        <ele>308.4</ele>
        <time>2015-08-31T06:50:24Z</time>
      </trkpt>
      <trkpt lat="47.45505" lon="6.68839">
        <ele>308.5</ele>
        <time>2015-08-31T06:50:25Z</time>
      </trkpt>
      <trkpt lat="47.45501" lon="6.68836">
        <ele>308.7</ele>
        <time>2015-08-31T06:50:26Z</time>
      </trkpt>
      <trkpt lat="47.45498" lon="6.68833">
        <ele>308.6</ele>
        <time>2015-08-31T06:50:27Z</time>
      </trkpt>
      <trkpt lat="47.45495" lon="6.68829">
        <ele>308.7</ele>
        <time>2015-08-31T06:50:28Z</time>
      </trkpt>
      <trkpt lat="47.45492" lon="6.68826">
        <ele>308.8</ele>
        <time>2015-08-31T06:50:29Z</time>
      </trkpt>
      <trkpt lat="47.45489" lon="6.68822">
        <ele>308.9</ele>
        <time>2015-08-31T06:50:30Z</time>
      </trkpt>
      <trkpt lat="47.45485" lon="6.68819">
        <ele>309.2</ele>
        <time>2015-08-31T06:50:31Z</time>
      </trkpt>
      <trkpt lat="47.45482" lon="6.68816">
        <ele>309.4</ele>
        <time>2015-08-31T06:50:32Z</time>
      </trkpt>
      <trkpt lat="47.45479" lon="6.68812">
        <ele>308.1</ele>
        <time>2015-08-31T06:50:33Z</time>
      </trkpt>
      <trkpt lat="47.45475" lon="6.68806">
        <ele>305.6</ele>
        <time>2015-08-31T06:50:34Z</time>
      </trkpt>
      <trkpt lat="47.45471" lon="6.68802">
        <ele>305.7</ele>
        <time>2015-08-31T06:50:35Z</time>
      </trkpt>
      <trkpt lat="47.45468" lon="6.68798">
        <ele>305.9</ele>
        <time>2015-08-31T06:50:36Z</time>
      </trkpt>
      <trkpt lat="47.45464" lon="6.68794">
        <ele>306</ele>
        <time>2015-08-31T06:50:37Z</time>
      </trkpt>
      <trkpt lat="47.4546" lon="6.6879">
        <ele>306.1</ele>
        <time>2015-08-31T06:50:38Z</time>
      </trkpt>
      <trkpt lat="47.45457" lon="6.68786">
        <ele>306.4</ele>
        <time>2015-08-31T06:50:39Z</time>
      </trkpt>
      <trkpt lat="47.45453" lon="6.68782">
        <ele>306.5</ele>
        <time>2015-08-31T06:50:40Z</time>
      </trkpt>
      <trkpt lat="47.45449" lon="6.68777">
        <ele>306.7</ele>
        <time>2015-08-31T06:50:41Z</time>
      </trkpt>
      <trkpt lat="47.45445" lon="6.68773">
        <ele>306.8</ele>
        <time>2015-08-31T06:50:42Z</time>
      </trkpt>
      <trkpt lat="47.45441" lon="6.68769">
        <ele>306.8</ele>
        <time>2015-08-31T06:50:43Z</time>
      </trkpt>
      <trkpt lat="47.45437" lon="6.68765">
        <ele>307</ele>
        <time>2015-08-31T06:50:44Z</time>
      </trkpt>
      <trkpt lat="47.45433" lon="6.6876">
        <ele>307</ele>
        <time>2015-08-31T06:50:45Z</time>
      </trkpt>
      <trkpt lat="47.45429" lon="6.68756">
        <ele>307.1</ele>
        <time>2015-08-31T06:50:46Z</time>
      </trkpt>
      <trkpt lat="47.45426" lon="6.68752">
        <ele>307.2</ele>
        <time>2015-08-31T06:50:47Z</time>
      </trkpt>
      <trkpt lat="47.45422" lon="6.68747">
        <ele>307.2</ele>
        <time>2015-08-31T06:50:48Z</time>
      </trkpt>
      <trkpt lat="47.45418" lon="6.68743">
        <ele>307.2</ele>
        <time>2015-08-31T06:50:49Z</time>
      </trkpt>
      <trkpt lat="47.45415" lon="6.68738">
        <ele>307.1</ele>
        <time>2015-08-31T06:50:50Z</time>
      </trkpt>
      <trkpt lat="47.45411" lon="6.68734">
        <ele>307.2</ele>
        <time>2015-08-31T06:50:51Z</time>
      </trkpt>
      <trkpt lat="47.45406" lon="6.6873">
        <ele>307.3</ele>
        <time>2015-08-31T06:50:52Z</time>
      </trkpt>
      <trkpt lat="47.45402" lon="6.68726">
        <ele>307.6</ele>
        <time>2015-08-31T06:50:53Z</time>
      </trkpt>
      <trkpt lat="47.45398" lon="6.68722">
        <ele>307.8</ele>
        <time>2015-08-31T06:50:54Z</time>
      </trkpt>
      <trkpt lat="47.45394" lon="6.68718">
        <ele>307.7</ele>
        <time>2015-08-31T06:50:55Z</time>
      </trkpt>
      <trkpt lat="47.4539" lon="6.68714">
        <ele>307.6</ele>
        <time>2015-08-31T06:50:56Z</time>
      </trkpt>
      <trkpt lat="47.45386" lon="6.68709">
        <ele>307.7</ele>
        <time>2015-08-31T06:50:57Z</time>
      </trkpt>
      <trkpt lat="47.45383" lon="6.68705">
        <ele>307.7</ele>
        <time>2015-08-31T06:50:58Z</time>
      </trkpt>
      <trkpt lat="47.45379" lon="6.68701">
        <ele>307.6</ele>
        <time>2015-08-31T06:50:59Z</time>
      </trkpt>
      <trkpt lat="47.45375" lon="6.68696">
        <ele>307.5</ele>
        <time>2015-08-31T06:51:00Z</time>
      </trkpt>
      <trkpt lat="47.45371" lon="6.68692">
        <ele>307.4</ele>
        <time>2015-08-31T06:51:01Z</time>
      </trkpt>
      <trkpt lat="47.45367" lon="6.68688">
        <ele>307.2</ele>
        <time>2015-08-31T06:51:02Z</time>
      </trkpt>
      <trkpt lat="47.45363" lon="6.68684">
        <ele>307</ele>
        <time>2015-08-31T06:51:03Z</time>
      </trkpt>
      <trkpt lat="47.45359" lon="6.68679">
        <ele>306.7</ele>
        <time>2015-08-31T06:51:04Z</time>
      </trkpt>
      <trkpt lat="47.45355" lon="6.68675">
        <ele>306.6</ele>
        <time>2015-08-31T06:51:05Z</time>
      </trkpt>
      <trkpt lat="47.45351" lon="6.68671">
        <ele>306.5</ele>
        <time>2015-08-31T06:51:06Z</time>
      </trkpt>
      <trkpt lat="47.45347" lon="6.68666">
        <ele>306.4</ele>
        <time>2015-08-31T06:51:07Z</time>
      </trkpt>
      <trkpt lat="47.45343" lon="6.68662">
        <ele>306.3</ele>
        <time>2015-08-31T06:51:08Z</time>
      </trkpt>
      <trkpt lat="47.45339" lon="6.68657">
        <ele>306.3</ele>
        <time>2015-08-31T06:51:09Z</time>
      </trkpt>
      <trkpt lat="47.45335" lon="6.68653">
        <ele>306.3</ele>
        <time>2015-08-31T06:51:10Z</time>
      </trkpt>
      <trkpt lat="47.45331" lon="6.68648">
        <ele>306.2</ele>
        <time>2015-08-31T06:51:11Z</time>
      </trkpt>
      <trkpt lat="47.45328" lon="6.68644">
        <ele>306.2</ele>
        <time>2015-08-31T06:51:12Z</time>
      </trkpt>
      <trkpt lat="47.45324" lon="6.68639">
        <ele>306.1</ele>
        <time>2015-08-31T06:51:13Z</time>
      </trkpt>
      <trkpt lat="47.4532" lon="6.68635">
        <ele>306</ele>
        <time>2015-08-31T06:51:14Z</time>
      </trkpt>
      <trkpt lat="47.45316" lon="6.6863">
        <ele>305.9</ele>
        <time>2015-08-31T06:51:15Z</time>
      </trkpt>
      <trkpt lat="47.45312" lon="6.68626">
        <ele>306</ele>
        <time>2015-08-31T06:51:16Z</time>
      </trkpt>
      <trkpt lat="47.45308" lon="6.68621">
        <ele>305.9</ele>
        <time>2015-08-31T06:51:17Z</time>
      </trkpt>
      <trkpt lat="47.45304" lon="6.68616">
        <ele>305.9</ele>
        <time>2015-08-31T06:51:18Z</time>
      </trkpt>
      <trkpt lat="47.45301" lon="6.68612">
        <ele>305.8</ele>
        <time>2015-08-31T06:51:19Z</time>
      </trkpt>
      <trkpt lat="47.45297" lon="6.68607">
        <ele>305.8</ele>
        <time>2015-08-31T06:51:20Z</time>
      </trkpt>
      <trkpt lat="47.45293" lon="6.68602">
        <ele>305.9</ele>
        <time>2015-08-31T06:51:21Z</time>
      </trkpt>
      <trkpt lat="47.45289" lon="6.68597">
        <ele>306</ele>
        <time>2015-08-31T06:51:22Z</time>
      </trkpt>
      <trkpt lat="47.45286" lon="6.68592">
        <ele>306.2</ele>
        <time>2015-08-31T06:51:23Z</time>
      </trkpt>
      <trkpt lat="47.45282" lon="6.68587">
        <ele>306.1</ele>
        <time>2015-08-31T06:51:24Z</time>
      </trkpt>
      <trkpt lat="47.45278" lon="6.68582">
        <ele>306.1</ele>
        <time>2015-08-31T06:51:25Z</time>
      </trkpt>
      <trkpt lat="47.45274" lon="6.68577">
        <ele>306.1</ele>
        <time>2015-08-31T06:51:26Z</time>
      </trkpt>
      <trkpt lat="47.4527" lon="6.68572">
        <ele>306.3</ele>
        <time>2015-08-31T06:51:27Z</time>
      </trkpt>
      <trkpt lat="47.45266" lon="6.68568">
        <ele>306.4</ele>
        <time>2015-08-31T06:51:28Z</time>
      </trkpt>
      <trkpt lat="47.45262" lon="6.68563">
        <ele>306.3</ele>
        <time>2015-08-31T06:51:29Z</time>
      </trkpt>
      <trkpt lat="47.45259" lon="6.68558">
        <ele>306.5</ele>
        <time>2015-08-31T06:51:30Z</time>
      </trkpt>
      <trkpt lat="47.45256" lon="6.68553">
        <ele>306.4</ele>
        <time>2015-08-31T06:51:31Z</time>
      </trkpt>
      <trkpt lat="47.45252" lon="6.68548">
        <ele>306.3</ele>
        <time>2015-08-31T06:51:32Z</time>
      </trkpt>
      <trkpt lat="47.45249" lon="6.68542">
        <ele>306</ele>
        <time>2015-08-31T06:51:33Z</time>
      </trkpt>
      <trkpt lat="47.45245" lon="6.68537">
        <ele>306</ele>
        <time>2015-08-31T06:51:34Z</time>
      </trkpt>
      <trkpt lat="47.45242" lon="6.68532">
        <ele>305.9</ele>
        <time>2015-08-31T06:51:35Z</time>
      </trkpt>
      <trkpt lat="47.45238" lon="6.68527">
        <ele>305.9</ele>
        <time>2015-08-31T06:51:36Z</time>
      </trkpt>
      <trkpt lat="47.45235" lon="6.68522">
        <ele>305.9</ele>
        <time>2015-08-31T06:51:37Z</time>
      </trkpt>
      <trkpt lat="47.45231" lon="6.68516">
        <ele>306</ele>
        <time>2015-08-31T06:51:38Z</time>
      </trkpt>
      <trkpt lat="47.45229" lon="6.68511">
        <ele>306</ele>
        <time>2015-08-31T06:51:39Z</time>
      </trkpt>
      <trkpt lat="47.45226" lon="6.68506">
        <ele>306.2</ele>
        <time>2015-08-31T06:51:40Z</time>
      </trkpt>
      <trkpt lat="47.45222" lon="6.68501">
        <ele>306.3</ele>
        <time>2015-08-31T06:51:41Z</time>
      </trkpt>
      <trkpt lat="47.45219" lon="6.68495">
        <ele>306.5</ele>
        <time>2015-08-31T06:51:42Z</time>
      </trkpt>
      <trkpt lat="47.45216" lon="6.6849">
        <ele>306.5</ele>
        <time>2015-08-31T06:51:43Z</time>
      </trkpt>
      <trkpt lat="47.45212" lon="6.68485">
        <ele>306.7</ele>
        <time>2015-08-31T06:51:44Z</time>
      </trkpt>
      <trkpt lat="47.45209" lon="6.68479">
        <ele>306.7</ele>
        <time>2015-08-31T06:51:45Z</time>
      </trkpt>
      <trkpt lat="47.45206" lon="6.68474">
        <ele>306.6</ele>
        <time>2015-08-31T06:51:46Z</time>
      </trkpt>
      <trkpt lat="47.45203" lon="6.68468">
        <ele>306.6</ele>
        <time>2015-08-31T06:51:47Z</time>
      </trkpt>
      <trkpt lat="47.45199" lon="6.68463">
        <ele>306.7</ele>
        <time>2015-08-31T06:51:48Z</time>
      </trkpt>
      <trkpt lat="47.45197" lon="6.68458">
        <ele>306.9</ele>
        <time>2015-08-31T06:51:49Z</time>
      </trkpt>
      <trkpt lat="47.45194" lon="6.68453">
        <ele>307.3</ele>
        <time>2015-08-31T06:51:50Z</time>
      </trkpt>
      <trkpt lat="47.45191" lon="6.68447">
        <ele>307.4</ele>
        <time>2015-08-31T06:51:51Z</time>
      </trkpt>
      <trkpt lat="47.45187" lon="6.68442">
        <ele>307.6</ele>
        <time>2015-08-31T06:51:52Z</time>
      </trkpt>
      <trkpt lat="47.45185" lon="6.68436">
        <ele>307.7</ele>
        <time>2015-08-31T06:51:53Z</time>
      </trkpt>
      <trkpt lat="47.45182" lon="6.6843">
        <ele>307.7</ele>
        <time>2015-08-31T06:51:54Z</time>
      </trkpt>
      <trkpt lat="47.45179" lon="6.68425">
        <ele>307.9</ele>
        <time>2015-08-31T06:51:55Z</time>
      </trkpt>
      <trkpt lat="47.45175" lon="6.68419">
        <ele>308.1</ele>
        <time>2015-08-31T06:51:56Z</time>
      </trkpt>
      <trkpt lat="47.45172" lon="6.68413">
        <ele>308.2</ele>
        <time>2015-08-31T06:51:57Z</time>
      </trkpt>
      <trkpt lat="47.45169" lon="6.68408">
        <ele>308.6</ele>
        <time>2015-08-31T06:51:58Z</time>
      </trkpt>
      <trkpt lat="47.45166" lon="6.68402">
        <ele>309</ele>
        <time>2015-08-31T06:51:59Z</time>
      </trkpt>
      <trkpt lat="47.45163" lon="6.68396">
        <ele>309</ele>
        <time>2015-08-31T06:52:00Z</time>
      </trkpt>
      <trkpt lat="47.45161" lon="6.6839">
        <ele>308.9</ele>
        <time>2015-08-31T06:52:01Z</time>
      </trkpt>
      <trkpt lat="47.45158" lon="6.68384">
        <ele>309</ele>
        <time>2015-08-31T06:52:02Z</time>
      </trkpt>
      <trkpt lat="47.45155" lon="6.68378">
        <ele>309.1</ele>
        <time>2015-08-31T06:52:03Z</time>
      </trkpt>
      <trkpt lat="47.45152" lon="6.68372">
        <ele>309.3</ele>
        <time>2015-08-31T06:52:04Z</time>
      </trkpt>
      <trkpt lat="47.45149" lon="6.68366">
        <ele>309.5</ele>
        <time>2015-08-31T06:52:05Z</time>
      </trkpt>
      <trkpt lat="47.45147" lon="6.6836">
        <ele>309.4</ele>
        <time>2015-08-31T06:52:06Z</time>
      </trkpt>
      <trkpt lat="47.45144" lon="6.68354">
        <ele>309.6</ele>
        <time>2015-08-31T06:52:07Z</time>
      </trkpt>
      <trkpt lat="47.45141" lon="6.68348">
        <ele>309.8</ele>
        <time>2015-08-31T06:52:08Z</time>
      </trkpt>
      <trkpt lat="47.45138" lon="6.68342">
        <ele>310</ele>
        <time>2015-08-31T06:52:09Z</time>
      </trkpt>
      <trkpt lat="47.45135" lon="6.68336">
        <ele>310</ele>
        <time>2015-08-31T06:52:10Z</time>
      </trkpt>
      <trkpt lat="47.45133" lon="6.68329">
        <ele>309.8</ele>
        <time>2015-08-31T06:52:11Z</time>
      </trkpt>
      <trkpt lat="47.4513" lon="6.68323">
        <ele>309.7</ele>
        <time>2015-08-31T06:52:12Z</time>
      </trkpt>
      <trkpt lat="47.45128" lon="6.68317">
        <ele>309.8</ele>
        <time>2015-08-31T06:52:13Z</time>
      </trkpt>
      <trkpt lat="47.45125" lon="6.6831">
        <ele>309.7</ele>
        <time>2015-08-31T06:52:14Z</time>
      </trkpt>
      <trkpt lat="47.45122" lon="6.68304">
        <ele>309.5</ele>
        <time>2015-08-31T06:52:15Z</time>
      </trkpt>
      <trkpt lat="47.45119" lon="6.68297">
        <ele>309.4</ele>
        <time>2015-08-31T06:52:16Z</time>
      </trkpt>
      <trkpt lat="47.45117" lon="6.68291">
        <ele>309.3</ele>
        <time>2015-08-31T06:52:17Z</time>
      </trkpt>
      <trkpt lat="47.45114" lon="6.68285">
        <ele>309.5</ele>
        <time>2015-08-31T06:52:18Z</time>
      </trkpt>
      <trkpt lat="47.45112" lon="6.68278">
        <ele>309.3</ele>
        <time>2015-08-31T06:52:19Z</time>
      </trkpt>
      <trkpt lat="47.4511" lon="6.68272">
        <ele>309.2</ele>
        <time>2015-08-31T06:52:20Z</time>
      </trkpt>
      <trkpt lat="47.45107" lon="6.68266">
        <ele>309</ele>
        <time>2015-08-31T06:52:21Z</time>
      </trkpt>
      <trkpt lat="47.45105" lon="6.6826">
        <ele>308.8</ele>
        <time>2015-08-31T06:52:22Z</time>
      </trkpt>
      <trkpt lat="47.45103" lon="6.68253">
        <ele>308.9</ele>
        <time>2015-08-31T06:52:23Z</time>
      </trkpt>
      <trkpt lat="47.45101" lon="6.68247">
        <ele>309</ele>
        <time>2015-08-31T06:52:24Z</time>
      </trkpt>
      <trkpt lat="47.45098" lon="6.6824">
        <ele>309.1</ele>
        <time>2015-08-31T06:52:25Z</time>
      </trkpt>
      <trkpt lat="47.45096" lon="6.68234">
        <ele>309</ele>
        <time>2015-08-31T06:52:26Z</time>
      </trkpt>
      <trkpt lat="47.45094" lon="6.68227">
        <ele>309.1</ele>
        <time>2015-08-31T06:52:27Z</time>
      </trkpt>
      <trkpt lat="47.45092" lon="6.68221">
        <ele>308.9</ele>
        <time>2015-08-31T06:52:28Z</time>
      </trkpt>
      <trkpt lat="47.4509" lon="6.68214">
        <ele>308.4</ele>
        <time>2015-08-31T06:52:29Z</time>
      </trkpt>
      <trkpt lat="47.45087" lon="6.68207">
        <ele>308.3</ele>
        <time>2015-08-31T06:52:30Z</time>
      </trkpt>
      <trkpt lat="47.45085" lon="6.682">
        <ele>308.1</ele>
        <time>2015-08-31T06:52:31Z</time>
      </trkpt>
      <trkpt lat="47.45083" lon="6.68193">
        <ele>307.8</ele>
        <time>2015-08-31T06:52:32Z</time>
      </trkpt>
      <trkpt lat="47.45081" lon="6.68187">
        <ele>307.8</ele>
        <time>2015-08-31T06:52:33Z</time>
      </trkpt>
      <trkpt lat="47.45079" lon="6.6818">
        <ele>307.9</ele>
        <time>2015-08-31T06:52:34Z</time>
      </trkpt>
      <trkpt lat="47.45077" lon="6.68174">
        <ele>307.6</ele>
        <time>2015-08-31T06:52:35Z</time>
      </trkpt>
      <trkpt lat="47.45075" lon="6.68167">
        <ele>307.5</ele>
        <time>2015-08-31T06:52:36Z</time>
      </trkpt>
      <trkpt lat="47.45073" lon="6.6816">
        <ele>307.2</ele>
        <time>2015-08-31T06:52:37Z</time>
      </trkpt>
      <trkpt lat="47.45071" lon="6.68153">
        <ele>307.1</ele>
        <time>2015-08-31T06:52:38Z</time>
      </trkpt>
      <trkpt lat="47.45069" lon="6.68146">
        <ele>306.9</ele>
        <time>2015-08-31T06:52:39Z</time>
      </trkpt>
      <trkpt lat="47.45067" lon="6.68139">
        <ele>306.8</ele>
        <time>2015-08-31T06:52:40Z</time>
      </trkpt>
      <trkpt lat="47.45065" lon="6.68133">
        <ele>306.7</ele>
        <time>2015-08-31T06:52:41Z</time>
      </trkpt>
      <trkpt lat="47.45063" lon="6.68126">
        <ele>306.7</ele>
        <time>2015-08-31T06:52:42Z</time>
      </trkpt>
      <trkpt lat="47.45061" lon="6.68119">
        <ele>306.7</ele>
        <time>2015-08-31T06:52:43Z</time>
      </trkpt>
      <trkpt lat="47.4506" lon="6.68112">
        <ele>306.6</ele>
        <time>2015-08-31T06:52:44Z</time>
      </trkpt>
      <trkpt lat="47.45058" lon="6.68106">
        <ele>306.7</ele>
        <time>2015-08-31T06:52:45Z</time>
      </trkpt>
      <trkpt lat="47.45056" lon="6.68099">
        <ele>306.6</ele>
        <time>2015-08-31T06:52:46Z</time>
      </trkpt>
      <trkpt lat="47.45054" lon="6.68092">
        <ele>306.5</ele>
        <time>2015-08-31T06:52:47Z</time>
      </trkpt>
      <trkpt lat="47.45052" lon="6.68085">
        <ele>306.5</ele>
        <time>2015-08-31T06:52:48Z</time>
      </trkpt>
      <trkpt lat="47.4505" lon="6.68078">
        <ele>306.5</ele>
        <time>2015-08-31T06:52:49Z</time>
      </trkpt>
      <trkpt lat="47.45049" lon="6.68071">
        <ele>306.5</ele>
        <time>2015-08-31T06:52:50Z</time>
      </trkpt>
      <trkpt lat="47.45047" lon="6.68064">
        <ele>306.4</ele>
        <time>2015-08-31T06:52:51Z</time>
      </trkpt>
      <trkpt lat="47.45046" lon="6.68057">
        <ele>306.4</ele>
        <time>2015-08-31T06:52:52Z</time>
      </trkpt>
      <trkpt lat="47.45044" lon="6.6805">
        <ele>306.3</ele>
        <time>2015-08-31T06:52:53Z</time>
      </trkpt>
      <trkpt lat="47.45043" lon="6.68044">
        <ele>306.3</ele>
        <time>2015-08-31T06:52:54Z</time>
      </trkpt>
      <trkpt lat="47.45042" lon="6.68037">
        <ele>306.2</ele>
        <time>2015-08-31T06:52:55Z</time>
      </trkpt>
      <trkpt lat="47.4504" lon="6.6803">
        <ele>306.3</ele>
        <time>2015-08-31T06:52:56Z</time>
      </trkpt>
      <trkpt lat="47.45039" lon="6.68023">
        <ele>306.3</ele>
        <time>2015-08-31T06:52:57Z</time>
      </trkpt>
      <trkpt lat="47.45037" lon="6.68016">
        <ele>306.4</ele>
        <time>2015-08-31T06:52:58Z</time>
      </trkpt>
      <trkpt lat="47.45036" lon="6.68009">
        <ele>306.5</ele>
        <time>2015-08-31T06:52:59Z</time>
      </trkpt>
      <trkpt lat="47.45035" lon="6.68002">
        <ele>306.5</ele>
        <time>2015-08-31T06:53:00Z</time>
      </trkpt>
      <trkpt lat="47.45034" lon="6.67995">
        <ele>306.5</ele>
        <time>2015-08-31T06:53:01Z</time>
      </trkpt>
      <trkpt lat="47.45032" lon="6.67988">
        <ele>306.5</ele>
        <time>2015-08-31T06:53:02Z</time>
      </trkpt>
      <trkpt lat="47.45031" lon="6.67981">
        <ele>306.6</ele>
        <time>2015-08-31T06:53:03Z</time>
      </trkpt>
      <trkpt lat="47.4503" lon="6.67974">
        <ele>306.6</ele>
        <time>2015-08-31T06:53:04Z</time>
      </trkpt>
      <trkpt lat="47.45028" lon="6.67967">
        <ele>306.6</ele>
        <time>2015-08-31T06:53:05Z</time>
      </trkpt>
      <trkpt lat="47.45027" lon="6.6796">
        <ele>306.6</ele>
        <time>2015-08-31T06:53:06Z</time>
      </trkpt>
      <trkpt lat="47.45026" lon="6.67953">
        <ele>306.5</ele>
        <time>2015-08-31T06:53:07Z</time>
      </trkpt>
      <trkpt lat="47.45025" lon="6.67946">
        <ele>306.6</ele>
        <time>2015-08-31T06:53:08Z</time>
      </trkpt>
      <trkpt lat="47.45024" lon="6.67938">
        <ele>306.5</ele>
        <time>2015-08-31T06:53:09Z</time>
      </trkpt>
      <trkpt lat="47.45023" lon="6.67931">
        <ele>306.5</ele>
        <time>2015-08-31T06:53:10Z</time>
      </trkpt>
      <trkpt lat="47.45022" lon="6.67924">
        <ele>306.6</ele>
        <time>2015-08-31T06:53:11Z</time>
      </trkpt>
      <trkpt lat="47.45021" lon="6.67917">
        <ele>306.4</ele>
        <time>2015-08-31T06:53:12Z</time>
      </trkpt>
      <trkpt lat="47.4502" lon="6.6791">
        <ele>306.4</ele>
        <time>2015-08-31T06:53:13Z</time>
      </trkpt>
      <trkpt lat="47.45019" lon="6.67902">
        <ele>306.4</ele>
        <time>2015-08-31T06:53:14Z</time>
      </trkpt>
      <trkpt lat="47.45018" lon="6.67895">
        <ele>306.4</ele>
        <time>2015-08-31T06:53:15Z</time>
      </trkpt>
      <trkpt lat="47.45017" lon="6.67888">
        <ele>306.4</ele>
        <time>2015-08-31T06:53:16Z</time>
      </trkpt>
      <trkpt lat="47.45016" lon="6.67881">
        <ele>306.4</ele>
        <time>2015-08-31T06:53:17Z</time>
      </trkpt>
      <trkpt lat="47.45015" lon="6.67874">
        <ele>306.4</ele>
        <time>2015-08-31T06:53:18Z</time>
      </trkpt>
      <trkpt lat="47.45014" lon="6.67867">
        <ele>306.3</ele>
        <time>2015-08-31T06:53:19Z</time>
      </trkpt>
      <trkpt lat="47.45013" lon="6.6786">
        <ele>306.3</ele>
        <time>2015-08-31T06:53:20Z</time>
      </trkpt>
      <trkpt lat="47.45012" lon="6.67853">
        <ele>306.3</ele>
        <time>2015-08-31T06:53:21Z</time>
      </trkpt>
      <trkpt lat="47.45011" lon="6.67846">
        <ele>306.3</ele>
        <time>2015-08-31T06:53:22Z</time>
      </trkpt>
      <trkpt lat="47.45011" lon="6.67839">
        <ele>306.3</ele>
        <time>2015-08-31T06:53:23Z</time>
      </trkpt>
      <trkpt lat="47.4501" lon="6.67832">
        <ele>306.5</ele>
        <time>2015-08-31T06:53:24Z</time>
      </trkpt>
      <trkpt lat="47.45009" lon="6.67825">
        <ele>306.8</ele>
        <time>2015-08-31T06:53:25Z</time>
      </trkpt>
      <trkpt lat="47.45009" lon="6.67818">
        <ele>306.9</ele>
        <time>2015-08-31T06:53:26Z</time>
      </trkpt>
      <trkpt lat="47.45008" lon="6.67811">
        <ele>307</ele>
        <time>2015-08-31T06:53:27Z</time>
      </trkpt>
      <trkpt lat="47.45007" lon="6.67803">
        <ele>307</ele>
        <time>2015-08-31T06:53:28Z</time>
      </trkpt>
      <trkpt lat="47.45007" lon="6.67796">
        <ele>307</ele>
        <time>2015-08-31T06:53:29Z</time>
      </trkpt>
      <trkpt lat="47.45006" lon="6.67789">
        <ele>306.9</ele>
        <time>2015-08-31T06:53:30Z</time>
      </trkpt>
      <trkpt lat="47.45006" lon="6.67781">
        <ele>306.9</ele>
        <time>2015-08-31T06:53:31Z</time>
      </trkpt>
      <trkpt lat="47.45005" lon="6.67774">
        <ele>306.8</ele>
        <time>2015-08-31T06:53:32Z</time>
      </trkpt>
      <trkpt lat="47.45005" lon="6.67766">
        <ele>306.9</ele>
        <time>2015-08-31T06:53:33Z</time>
      </trkpt>
      <trkpt lat="47.45004" lon="6.67759">
        <ele>306.9</ele>
        <time>2015-08-31T06:53:34Z</time>
      </trkpt>
      <trkpt lat="47.45004" lon="6.67752">
        <ele>307</ele>
        <time>2015-08-31T06:53:35Z</time>
      </trkpt>
      <trkpt lat="47.45003" lon="6.67745">
        <ele>307.1</ele>
        <time>2015-08-31T06:53:36Z</time>
      </trkpt>
      <trkpt lat="47.45002" lon="6.67738">
        <ele>307.2</ele>
        <time>2015-08-31T06:53:37Z</time>
      </trkpt>
      <trkpt lat="47.45002" lon="6.67731">
        <ele>307.2</ele>
        <time>2015-08-31T06:53:38Z</time>
      </trkpt>
      <trkpt lat="47.45001" lon="6.67723">
        <ele>307.4</ele>
        <time>2015-08-31T06:53:39Z</time>
      </trkpt>
      <trkpt lat="47.45001" lon="6.67716">
        <ele>307.5</ele>
        <time>2015-08-31T06:53:40Z</time>
      </trkpt>
      <trkpt lat="47.45" lon="6.67709">
        <ele>307.6</ele>
        <time>2015-08-31T06:53:41Z</time>
      </trkpt>
      <trkpt lat="47.45" lon="6.67702">
        <ele>307.6</ele>
        <time>2015-08-31T06:53:42Z</time>
      </trkpt>
      <trkpt lat="47.44999" lon="6.67695">
        <ele>307.6</ele>
        <time>2015-08-31T06:53:43Z</time>
      </trkpt>
      <trkpt lat="47.44998" lon="6.67688">
        <ele>307.7</ele>
        <time>2015-08-31T06:53:44Z</time>
      </trkpt>
      <trkpt lat="47.44998" lon="6.67681">
        <ele>307.6</ele>
        <time>2015-08-31T06:53:45Z</time>
      </trkpt>
      <trkpt lat="47.44998" lon="6.67674">
        <ele>307.6</ele>
        <time>2015-08-31T06:53:46Z</time>
      </trkpt>
      <trkpt lat="47.44997" lon="6.67667">
        <ele>307.4</ele>
        <time>2015-08-31T06:53:47Z</time>
      </trkpt>
      <trkpt lat="47.44997" lon="6.6766">
        <ele>307.7</ele>
        <time>2015-08-31T06:53:48Z</time>
      </trkpt>
      <trkpt lat="47.44996" lon="6.67653">
        <ele>307.9</ele>
        <time>2015-08-31T06:53:49Z</time>
      </trkpt>
      <trkpt lat="47.44996" lon="6.67646">
        <ele>307.8</ele>
        <time>2015-08-31T06:53:50Z</time>
      </trkpt>
      <trkpt lat="47.44995" lon="6.67638">
        <ele>307.6</ele>
        <time>2015-08-31T06:53:51Z</time>
      </trkpt>
      <trkpt lat="47.44995" lon="6.67631">
        <ele>307.6</ele>
        <time>2015-08-31T06:53:52Z</time>
      </trkpt>
      <trkpt lat="47.44994" lon="6.67624">
        <ele>307.6</ele>
        <time>2015-08-31T06:53:53Z</time>
      </trkpt>
      <trkpt lat="47.44994" lon="6.67617">
        <ele>307.6</ele>
        <time>2015-08-31T06:53:54Z</time>
      </trkpt>
      <trkpt lat="47.44993" lon="6.6761">
        <ele>307.6</ele>
        <time>2015-08-31T06:53:55Z</time>
      </trkpt>
      <trkpt lat="47.44993" lon="6.67602">
        <ele>307.5</ele>
        <time>2015-08-31T06:53:56Z</time>
      </trkpt>
      <trkpt lat="47.44993" lon="6.67595">
        <ele>307.4</ele>
        <time>2015-08-31T06:53:57Z</time>
      </trkpt>
      <trkpt lat="47.44992" lon="6.67588">
        <ele>307.4</ele>
        <time>2015-08-31T06:53:58Z</time>
      </trkpt>
      <trkpt lat="47.44992" lon="6.6758">
        <ele>307.3</ele>
        <time>2015-08-31T06:53:59Z</time>
      </trkpt>
      <trkpt lat="47.44992" lon="6.67573">
        <ele>307.4</ele>
        <time>2015-08-31T06:54:00Z</time>
      </trkpt>
      <trkpt lat="47.44992" lon="6.67566">
        <ele>307.6</ele>
        <time>2015-08-31T06:54:01Z</time>
      </trkpt>
      <trkpt lat="47.44992" lon="6.67558">
        <ele>307.7</ele>
        <time>2015-08-31T06:54:02Z</time>
      </trkpt>
      <trkpt lat="47.44992" lon="6.67551">
        <ele>307.8</ele>
        <time>2015-08-31T06:54:03Z</time>
      </trkpt>
      <trkpt lat="47.44991" lon="6.67544">
        <ele>308.1</ele>
        <time>2015-08-31T06:54:04Z</time>
      </trkpt>
      <trkpt lat="47.4499" lon="6.67537">
        <ele>308.3</ele>
        <time>2015-08-31T06:54:05Z</time>
      </trkpt>
      <trkpt lat="47.44989" lon="6.6753">
        <ele>307.4</ele>
        <time>2015-08-31T06:54:06Z</time>
      </trkpt>
      <trkpt lat="47.44987" lon="6.67523">
        <ele>307.2</ele>
        <time>2015-08-31T06:54:07Z</time>
      </trkpt>
      <trkpt lat="47.44986" lon="6.67516">
        <ele>307.2</ele>
        <time>2015-08-31T06:54:08Z</time>
      </trkpt>
      <trkpt lat="47.44986" lon="6.67508">
        <ele>306.6</ele>
        <time>2015-08-31T06:54:09Z</time>
      </trkpt>
      <trkpt lat="47.44985" lon="6.67499">
        <ele>306</ele>
        <time>2015-08-31T06:54:10Z</time>
      </trkpt>
      <trkpt lat="47.44985" lon="6.6749">
        <ele>305.4</ele>
        <time>2015-08-31T06:54:11Z</time>
      </trkpt>
      <trkpt lat="47.44984" lon="6.6748">
        <ele>304.9</ele>
        <time>2015-08-31T06:54:12Z</time>
      </trkpt>
      <trkpt lat="47.44983" lon="6.6747">
        <ele>304.4</ele>
        <time>2015-08-31T06:54:13Z</time>
      </trkpt>
      <trkpt lat="47.44982" lon="6.6746">
        <ele>304</ele>
        <time>2015-08-31T06:54:14Z</time>
      </trkpt>
      <trkpt lat="47.44981" lon="6.6745">
        <ele>303.8</ele>
        <time>2015-08-31T06:54:15Z</time>
      </trkpt>
      <trkpt lat="47.4498" lon="6.67441">
        <ele>303.7</ele>
        <time>2015-08-31T06:54:16Z</time>
      </trkpt>
      <trkpt lat="47.44978" lon="6.67431">
        <ele>303.5</ele>
        <time>2015-08-31T06:54:17Z</time>
      </trkpt>
      <trkpt lat="47.44977" lon="6.67422">
        <ele>303.4</ele>
        <time>2015-08-31T06:54:18Z</time>
      </trkpt>
      <trkpt lat="47.44977" lon="6.67413">
        <ele>303.3</ele>
        <time>2015-08-31T06:54:19Z</time>
      </trkpt>
      <trkpt lat="47.44976" lon="6.67404">
        <ele>303.1</ele>
        <time>2015-08-31T06:54:20Z</time>
      </trkpt>
      <trkpt lat="47.44975" lon="6.67395">
        <ele>302.9</ele>
        <time>2015-08-31T06:54:21Z</time>
      </trkpt>
      <trkpt lat="47.44975" lon="6.67387">
        <ele>302.9</ele>
        <time>2015-08-31T06:54:22Z</time>
      </trkpt>
      <trkpt lat="47.44974" lon="6.67378">
        <ele>302.6</ele>
        <time>2015-08-31T06:54:23Z</time>
      </trkpt>
      <trkpt lat="47.44974" lon="6.67369">
        <ele>302.3</ele>
        <time>2015-08-31T06:54:24Z</time>
      </trkpt>
      <trkpt lat="47.44973" lon="6.67361">
        <ele>302.2</ele>
        <time>2015-08-31T06:54:25Z</time>
      </trkpt>
      <trkpt lat="47.44972" lon="6.67353">
        <ele>302.1</ele>
        <time>2015-08-31T06:54:26Z</time>
      </trkpt>
      <trkpt lat="47.44971" lon="6.67346">
        <ele>301.9</ele>
        <time>2015-08-31T06:54:27Z</time>
      </trkpt>
      <trkpt lat="47.4497" lon="6.67338">
        <ele>301.9</ele>
        <time>2015-08-31T06:54:28Z</time>
      </trkpt>
      <trkpt lat="47.4497" lon="6.6733">
        <ele>301.8</ele>
        <time>2015-08-31T06:54:29Z</time>
      </trkpt>
      <trkpt lat="47.44969" lon="6.67323">
        <ele>301.9</ele>
        <time>2015-08-31T06:54:30Z</time>
      </trkpt>
      <trkpt lat="47.44969" lon="6.67315">
        <ele>301.9</ele>
        <time>2015-08-31T06:54:31Z</time>
      </trkpt>
      <trkpt lat="47.44969" lon="6.67307">
        <ele>301.7</ele>
        <time>2015-08-31T06:54:32Z</time>
      </trkpt>
      <trkpt lat="47.44968" lon="6.673">
        <ele>301.9</ele>
        <time>2015-08-31T06:54:33Z</time>
      </trkpt>
      <trkpt lat="47.44968" lon="6.67293">
        <ele>302.1</ele>
        <time>2015-08-31T06:54:34Z</time>
      </trkpt>
      <trkpt lat="47.44967" lon="6.67285">
        <ele>302</ele>
        <time>2015-08-31T06:54:35Z</time>
      </trkpt>
      <trkpt lat="47.44967" lon="6.67278">
        <ele>302</ele>
        <time>2015-08-31T06:54:36Z</time>
      </trkpt>
      <trkpt lat="47.44966" lon="6.67271">
        <ele>302.2</ele>
        <time>2015-08-31T06:54:37Z</time>
      </trkpt>
      <trkpt lat="47.44965" lon="6.67264">
        <ele>302.6</ele>
        <time>2015-08-31T06:54:38Z</time>
      </trkpt>
      <trkpt lat="47.44965" lon="6.67257">
        <ele>303</ele>
        <time>2015-08-31T06:54:39Z</time>
      </trkpt>
      <trkpt lat="47.44964" lon="6.6725">
        <ele>303.5</ele>
        <time>2015-08-31T06:54:40Z</time>
      </trkpt>
      <trkpt lat="47.44964" lon="6.67243">
        <ele>303.7</ele>
        <time>2015-08-31T06:54:41Z</time>
      </trkpt>
      <trkpt lat="47.44963" lon="6.67236">
        <ele>304</ele>
        <time>2015-08-31T06:54:42Z</time>
      </trkpt>
      <trkpt lat="47.44963" lon="6.67228">
        <ele>303.9</ele>
        <time>2015-08-31T06:54:43Z</time>
      </trkpt>
      <trkpt lat="47.44962" lon="6.67221">
        <ele>304</ele>
        <time>2015-08-31T06:54:44Z</time>
      </trkpt>
      <trkpt lat="47.44961" lon="6.67213">
        <ele>304.2</ele>
        <time>2015-08-31T06:54:45Z</time>
      </trkpt>
      <trkpt lat="47.44961" lon="6.67206">
        <ele>304</ele>
        <time>2015-08-31T06:54:46Z</time>
      </trkpt>
      <trkpt lat="47.4496" lon="6.67198">
        <ele>304</ele>
        <time>2015-08-31T06:54:47Z</time>
      </trkpt>
      <trkpt lat="47.4496" lon="6.67191">
        <ele>303.7</ele>
        <time>2015-08-31T06:54:48Z</time>
      </trkpt>
      <trkpt lat="47.4496" lon="6.67183">
        <ele>303.2</ele>
        <time>2015-08-31T06:54:49Z</time>
      </trkpt>
      <trkpt lat="47.44959" lon="6.67175">
        <ele>303.2</ele>
        <time>2015-08-31T06:54:50Z</time>
      </trkpt>
      <trkpt lat="47.44959" lon="6.67168">
        <ele>303</ele>
        <time>2015-08-31T06:54:51Z</time>
      </trkpt>
      <trkpt lat="47.44959" lon="6.6716">
        <ele>303</ele>
        <time>2015-08-31T06:54:52Z</time>
      </trkpt>
      <trkpt lat="47.44958" lon="6.67153">
        <ele>302.9</ele>
        <time>2015-08-31T06:54:53Z</time>
      </trkpt>
      <trkpt lat="47.44957" lon="6.67146">
        <ele>303.1</ele>
        <time>2015-08-31T06:54:54Z</time>
      </trkpt>
      <trkpt lat="47.44957" lon="6.67139">
        <ele>303</ele>
        <time>2015-08-31T06:54:55Z</time>
      </trkpt>
      <trkpt lat="47.44957" lon="6.67132">
        <ele>302.9</ele>
        <time>2015-08-31T06:54:56Z</time>
      </trkpt>
      <trkpt lat="47.44956" lon="6.67124">
        <ele>303</ele>
        <time>2015-08-31T06:54:57Z</time>
      </trkpt>
      <trkpt lat="47.44956" lon="6.67117">
        <ele>302.9</ele>
        <time>2015-08-31T06:54:58Z</time>
      </trkpt>
      <trkpt lat="47.44955" lon="6.6711">
        <ele>303.2</ele>
        <time>2015-08-31T06:54:59Z</time>
      </trkpt>
      <trkpt lat="47.44955" lon="6.67103">
        <ele>303.4</ele>
        <time>2015-08-31T06:55:00Z</time>
      </trkpt>
      <trkpt lat="47.44954" lon="6.67096">
        <ele>303.5</ele>
        <time>2015-08-31T06:55:01Z</time>
      </trkpt>
      <trkpt lat="47.44953" lon="6.67089">
        <ele>303.5</ele>
        <time>2015-08-31T06:55:02Z</time>
      </trkpt>
      <trkpt lat="47.44952" lon="6.67082">
        <ele>303.4</ele>
        <time>2015-08-31T06:55:03Z</time>
      </trkpt>
      <trkpt lat="47.44952" lon="6.67074">
        <ele>303.6</ele>
        <time>2015-08-31T06:55:04Z</time>
      </trkpt>
      <trkpt lat="47.44951" lon="6.67067">
        <ele>303.6</ele>
        <time>2015-08-31T06:55:05Z</time>
      </trkpt>
      <trkpt lat="47.44951" lon="6.6706">
        <ele>303.5</ele>
        <time>2015-08-31T06:55:06Z</time>
      </trkpt>
      <trkpt lat="47.4495" lon="6.67053">
        <ele>303.6</ele>
        <time>2015-08-31T06:55:07Z</time>
      </trkpt>
      <trkpt lat="47.4495" lon="6.67046">
        <ele>303.5</ele>
        <time>2015-08-31T06:55:08Z</time>
      </trkpt>
      <trkpt lat="47.44949" lon="6.67039">
        <ele>303.8</ele>
        <time>2015-08-31T06:55:09Z</time>
      </trkpt>
      <trkpt lat="47.44949" lon="6.67032">
        <ele>304</ele>
        <time>2015-08-31T06:55:10Z</time>
      </trkpt>
      <trkpt lat="47.44948" lon="6.67025">
        <ele>303.9</ele>
        <time>2015-08-31T06:55:11Z</time>
      </trkpt>
      <trkpt lat="47.44948" lon="6.67018">
        <ele>303.8</ele>
        <time>2015-08-31T06:55:12Z</time>
      </trkpt>
      <trkpt lat="47.44947" lon="6.67011">
        <ele>303.8</ele>
        <time>2015-08-31T06:55:13Z</time>
      </trkpt>
      <trkpt lat="47.44947" lon="6.67004">
        <ele>303.6</ele>
        <time>2015-08-31T06:55:14Z</time>
      </trkpt>
      <trkpt lat="47.44946" lon="6.66996">
        <ele>303.5</ele>
        <time>2015-08-31T06:55:15Z</time>
      </trkpt>
      <trkpt lat="47.44946" lon="6.66989">
        <ele>303.6</ele>
        <time>2015-08-31T06:55:16Z</time>
      </trkpt>
      <trkpt lat="47.44945" lon="6.66982">
        <ele>303.6</ele>
        <time>2015-08-31T06:55:17Z</time>
      </trkpt>
      <trkpt lat="47.44945" lon="6.66975">
        <ele>303.7</ele>
        <time>2015-08-31T06:55:18Z</time>
      </trkpt>
      <trkpt lat="47.44944" lon="6.66967">
        <ele>303.6</ele>
        <time>2015-08-31T06:55:19Z</time>
      </trkpt>
      <trkpt lat="47.44944" lon="6.6696">
        <ele>303.6</ele>
        <time>2015-08-31T06:55:20Z</time>
      </trkpt>
      <trkpt lat="47.44943" lon="6.66953">
        <ele>303.6</ele>
        <time>2015-08-31T06:55:21Z</time>
      </trkpt>
      <trkpt lat="47.44943" lon="6.66946">
        <ele>303.7</ele>
        <time>2015-08-31T06:55:22Z</time>
      </trkpt>
      <trkpt lat="47.44942" lon="6.66938">
        <ele>303.6</ele>
        <time>2015-08-31T06:55:23Z</time>
      </trkpt>
      <trkpt lat="47.44942" lon="6.66931">
        <ele>303.5</ele>
        <time>2015-08-31T06:55:24Z</time>
      </trkpt>
      <trkpt lat="47.44941" lon="6.66924">
        <ele>303.5</ele>
        <time>2015-08-31T06:55:25Z</time>
      </trkpt>
      <trkpt lat="47.44941" lon="6.66917">
        <ele>303.4</ele>
        <time>2015-08-31T06:55:26Z</time>
      </trkpt>
      <trkpt lat="47.4494" lon="6.6691">
        <ele>303.4</ele>
        <time>2015-08-31T06:55:27Z</time>
      </trkpt>
      <trkpt lat="47.4494" lon="6.66903">
        <ele>303.5</ele>
        <time>2015-08-31T06:55:28Z</time>
      </trkpt>
      <trkpt lat="47.44939" lon="6.66896">
        <ele>303.6</ele>
        <time>2015-08-31T06:55:29Z</time>
      </trkpt>
      <trkpt lat="47.44939" lon="6.66889">
        <ele>303.6</ele>
        <time>2015-08-31T06:55:30Z</time>
      </trkpt>
      <trkpt lat="47.44938" lon="6.66882">
        <ele>303.6</ele>
        <time>2015-08-31T06:55:31Z</time>
      </trkpt>
      <trkpt lat="47.44937" lon="6.66875">
        <ele>303.7</ele>
        <time>2015-08-31T06:55:32Z</time>
      </trkpt>
      <trkpt lat="47.44937" lon="6.66868">
        <ele>303.9</ele>
        <time>2015-08-31T06:55:33Z</time>
      </trkpt>
      <trkpt lat="47.44936" lon="6.66861">
        <ele>303.9</ele>
        <time>2015-08-31T06:55:34Z</time>
      </trkpt>
      <trkpt lat="47.44936" lon="6.66853">
        <ele>303.9</ele>
        <time>2015-08-31T06:55:35Z</time>
      </trkpt>
      <trkpt lat="47.44935" lon="6.66846">
        <ele>303.8</ele>
        <time>2015-08-31T06:55:36Z</time>
      </trkpt>
      <trkpt lat="47.44934" lon="6.66839">
        <ele>303.7</ele>
        <time>2015-08-31T06:55:37Z</time>
      </trkpt>
      <trkpt lat="47.44934" lon="6.66832">
        <ele>303.9</ele>
        <time>2015-08-31T06:55:38Z</time>
      </trkpt>
      <trkpt lat="47.44934" lon="6.66825">
        <ele>304</ele>
        <time>2015-08-31T06:55:39Z</time>
      </trkpt>
      <trkpt lat="47.44933" lon="6.66818">
        <ele>304</ele>
        <time>2015-08-31T06:55:40Z</time>
      </trkpt>
      <trkpt lat="47.44933" lon="6.66811">
        <ele>303.9</ele>
        <time>2015-08-31T06:55:41Z</time>
      </trkpt>
      <trkpt lat="47.44932" lon="6.66803">
        <ele>303.8</ele>
        <time>2015-08-31T06:55:42Z</time>
      </trkpt>
      <trkpt lat="47.44931" lon="6.66796">
        <ele>303.6</ele>
        <time>2015-08-31T06:55:43Z</time>
      </trkpt>
      <trkpt lat="47.44931" lon="6.66789">
        <ele>303.7</ele>
        <time>2015-08-31T06:55:44Z</time>
      </trkpt>
      <trkpt lat="47.4493" lon="6.66782">
        <ele>303.8</ele>
        <time>2015-08-31T06:55:45Z</time>
      </trkpt>
      <trkpt lat="47.4493" lon="6.66775">
        <ele>303.9</ele>
        <time>2015-08-31T06:55:46Z</time>
      </trkpt>
      <trkpt lat="47.44929" lon="6.66768">
        <ele>303.9</ele>
        <time>2015-08-31T06:55:47Z</time>
      </trkpt>
      <trkpt lat="47.44929" lon="6.66761">
        <ele>303.9</ele>
        <time>2015-08-31T06:55:48Z</time>
      </trkpt>
      <trkpt lat="47.44928" lon="6.66753">
        <ele>303.8</ele>
        <time>2015-08-31T06:55:49Z</time>
      </trkpt>
      <trkpt lat="47.44927" lon="6.66746">
        <ele>303.8</ele>
        <time>2015-08-31T06:55:50Z</time>
      </trkpt>
      <trkpt lat="47.44927" lon="6.66738">
        <ele>303.7</ele>
        <time>2015-08-31T06:55:51Z</time>
      </trkpt>
      <trkpt lat="47.44926" lon="6.66731">
        <ele>303.7</ele>
        <time>2015-08-31T06:55:52Z</time>
      </trkpt>
      <trkpt lat="47.44926" lon="6.66724">
        <ele>303.7</ele>
        <time>2015-08-31T06:55:53Z</time>
      </trkpt>
      <trkpt lat="47.44925" lon="6.66716">
        <ele>303.7</ele>
        <time>2015-08-31T06:55:54Z</time>
      </trkpt>
      <trkpt lat="47.44924" lon="6.66709">
        <ele>303.7</ele>
        <time>2015-08-31T06:55:55Z</time>
      </trkpt>
      <trkpt lat="47.44924" lon="6.66702">
        <ele>303.7</ele>
        <time>2015-08-31T06:55:56Z</time>
      </trkpt>
      <trkpt lat="47.44923" lon="6.66694">
        <ele>303.7</ele>
        <time>2015-08-31T06:55:57Z</time>
      </trkpt>
      <trkpt lat="47.44923" lon="6.66687">
        <ele>303.7</ele>
        <time>2015-08-31T06:55:58Z</time>
      </trkpt>
      <trkpt lat="47.44922" lon="6.6668">
        <ele>303.7</ele>
        <time>2015-08-31T06:55:59Z</time>
      </trkpt>
      <trkpt lat="47.44921" lon="6.66673">
        <ele>303.8</ele>
        <time>2015-08-31T06:56:00Z</time>
      </trkpt>
      <trkpt lat="47.44921" lon="6.66665">
        <ele>303.5</ele>
        <time>2015-08-31T06:56:01Z</time>
      </trkpt>
      <trkpt lat="47.4492" lon="6.66658">
        <ele>303.6</ele>
        <time>2015-08-31T06:56:02Z</time>
      </trkpt>
      <trkpt lat="47.4492" lon="6.66651">
        <ele>303.6</ele>
        <time>2015-08-31T06:56:03Z</time>
      </trkpt>
      <trkpt lat="47.44919" lon="6.66644">
        <ele>303.6</ele>
        <time>2015-08-31T06:56:04Z</time>
      </trkpt>
      <trkpt lat="47.44918" lon="6.66637">
        <ele>303.6</ele>
        <time>2015-08-31T06:56:05Z</time>
      </trkpt>
      <trkpt lat="47.44918" lon="6.6663">
        <ele>303.6</ele>
        <time>2015-08-31T06:56:06Z</time>
      </trkpt>
      <trkpt lat="47.44917" lon="6.66622">
        <ele>303.6</ele>
        <time>2015-08-31T06:56:07Z</time>
      </trkpt>
      <trkpt lat="47.44917" lon="6.66615">
        <ele>303.6</ele>
        <time>2015-08-31T06:56:08Z</time>
      </trkpt>
      <trkpt lat="47.44916" lon="6.66608">
        <ele>303.7</ele>
        <time>2015-08-31T06:56:09Z</time>
      </trkpt>
      <trkpt lat="47.44916" lon="6.66601">
        <ele>303.7</ele>
        <time>2015-08-31T06:56:10Z</time>
      </trkpt>
      <trkpt lat="47.44916" lon="6.66594">
        <ele>303.7</ele>
        <time>2015-08-31T06:56:11Z</time>
      </trkpt>
      <trkpt lat="47.44915" lon="6.66586">
        <ele>303.7</ele>
        <time>2015-08-31T06:56:12Z</time>
      </trkpt>
      <trkpt lat="47.44915" lon="6.66579">
        <ele>303.6</ele>
        <time>2015-08-31T06:56:13Z</time>
      </trkpt>
      <trkpt lat="47.44914" lon="6.66572">
        <ele>303.6</ele>
        <time>2015-08-31T06:56:14Z</time>
      </trkpt>
      <trkpt lat="47.44913" lon="6.66565">
        <ele>303.5</ele>
        <time>2015-08-31T06:56:15Z</time>
      </trkpt>
      <trkpt lat="47.44913" lon="6.66558">
        <ele>303.7</ele>
        <time>2015-08-31T06:56:16Z</time>
      </trkpt>
      <trkpt lat="47.44912" lon="6.66551">
        <ele>303.9</ele>
        <time>2015-08-31T06:56:17Z</time>
      </trkpt>
      <trkpt lat="47.44912" lon="6.66544">
        <ele>304.1</ele>
        <time>2015-08-31T06:56:18Z</time>
      </trkpt>
      <trkpt lat="47.44911" lon="6.66537">
        <ele>304.3</ele>
        <time>2015-08-31T06:56:19Z</time>
      </trkpt>
      <trkpt lat="47.44911" lon="6.66529">
        <ele>304.3</ele>
        <time>2015-08-31T06:56:20Z</time>
      </trkpt>
      <trkpt lat="47.4491" lon="6.66522">
        <ele>304.5</ele>
        <time>2015-08-31T06:56:21Z</time>
      </trkpt>
      <trkpt lat="47.44909" lon="6.66515">
        <ele>304.6</ele>
        <time>2015-08-31T06:56:22Z</time>
      </trkpt>
      <trkpt lat="47.44909" lon="6.66508">
        <ele>304.5</ele>
        <time>2015-08-31T06:56:23Z</time>
      </trkpt>
      <trkpt lat="47.44908" lon="6.66501">
        <ele>304.5</ele>
        <time>2015-08-31T06:56:24Z</time>
      </trkpt>
      <trkpt lat="47.44908" lon="6.66494">
        <ele>304.9</ele>
        <time>2015-08-31T06:56:25Z</time>
      </trkpt>
      <trkpt lat="47.44907" lon="6.66487">
        <ele>305.1</ele>
        <time>2015-08-31T06:56:26Z</time>
      </trkpt>
      <trkpt lat="47.44907" lon="6.6648">
        <ele>305</ele>
        <time>2015-08-31T06:56:27Z</time>
      </trkpt>
      <trkpt lat="47.44906" lon="6.66473">
        <ele>305</ele>
        <time>2015-08-31T06:56:28Z</time>
      </trkpt>
      <trkpt lat="47.44906" lon="6.66465">
        <ele>304.8</ele>
        <time>2015-08-31T06:56:29Z</time>
      </trkpt>
      <trkpt lat="47.44905" lon="6.66458">
        <ele>304.7</ele>
        <time>2015-08-31T06:56:30Z</time>
      </trkpt>
      <trkpt lat="47.44904" lon="6.66451">
        <ele>304.6</ele>
        <time>2015-08-31T06:56:31Z</time>
      </trkpt>
      <trkpt lat="47.44903" lon="6.66443">
        <ele>304.4</ele>
        <time>2015-08-31T06:56:32Z</time>
      </trkpt>
      <trkpt lat="47.44902" lon="6.66436">
        <ele>304.5</ele>
        <time>2015-08-31T06:56:33Z</time>
      </trkpt>
      <trkpt lat="47.44901" lon="6.66429">
        <ele>304.5</ele>
        <time>2015-08-31T06:56:34Z</time>
      </trkpt>
      <trkpt lat="47.44901" lon="6.66422">
        <ele>304.5</ele>
        <time>2015-08-31T06:56:35Z</time>
      </trkpt>
      <trkpt lat="47.449" lon="6.66414">
        <ele>304.4</ele>
        <time>2015-08-31T06:56:36Z</time>
      </trkpt>
      <trkpt lat="47.449" lon="6.66407">
        <ele>304.4</ele>
        <time>2015-08-31T06:56:37Z</time>
      </trkpt>
      <trkpt lat="47.449" lon="6.664">
        <ele>304.3</ele>
        <time>2015-08-31T06:56:38Z</time>
      </trkpt>
      <trkpt lat="47.44899" lon="6.66393">
        <ele>304.3</ele>
        <time>2015-08-31T06:56:39Z</time>
      </trkpt>
      <trkpt lat="47.44899" lon="6.66386">
        <ele>304.2</ele>
        <time>2015-08-31T06:56:40Z</time>
      </trkpt>
      <trkpt lat="47.44899" lon="6.66379">
        <ele>304.1</ele>
        <time>2015-08-31T06:56:41Z</time>
      </trkpt>
      <trkpt lat="47.44898" lon="6.66372">
        <ele>304.9</ele>
        <time>2015-08-31T06:56:42Z</time>
      </trkpt>
      <trkpt lat="47.44898" lon="6.66365">
        <ele>304.8</ele>
        <time>2015-08-31T06:56:43Z</time>
      </trkpt>
      <trkpt lat="47.44897" lon="6.66358">
        <ele>304.8</ele>
        <time>2015-08-31T06:56:44Z</time>
      </trkpt>
      <trkpt lat="47.44897" lon="6.6635">
        <ele>305</ele>
        <time>2015-08-31T06:56:45Z</time>
      </trkpt>
      <trkpt lat="47.44896" lon="6.66343">
        <ele>305.1</ele>
        <time>2015-08-31T06:56:46Z</time>
      </trkpt>
      <trkpt lat="47.44896" lon="6.66336">
        <ele>305</ele>
        <time>2015-08-31T06:56:47Z</time>
      </trkpt>
      <trkpt lat="47.44895" lon="6.66329">
        <ele>304.9</ele>
        <time>2015-08-31T06:56:48Z</time>
      </trkpt>
      <trkpt lat="47.44895" lon="6.66321">
        <ele>304.9</ele>
        <time>2015-08-31T06:56:49Z</time>
      </trkpt>
      <trkpt lat="47.44894" lon="6.66314">
        <ele>304.9</ele>
        <time>2015-08-31T06:56:50Z</time>
      </trkpt>
      <trkpt lat="47.44894" lon="6.66307">
        <ele>304.8</ele>
        <time>2015-08-31T06:56:51Z</time>
      </trkpt>
      <trkpt lat="47.44893" lon="6.663">
        <ele>304.8</ele>
        <time>2015-08-31T06:56:52Z</time>
      </trkpt>
      <trkpt lat="47.44892" lon="6.66293">
        <ele>304.8</ele>
        <time>2015-08-31T06:56:53Z</time>
      </trkpt>
      <trkpt lat="47.44892" lon="6.66286">
        <ele>304.8</ele>
        <time>2015-08-31T06:56:54Z</time>
      </trkpt>
      <trkpt lat="47.44891" lon="6.66279">
        <ele>304.7</ele>
        <time>2015-08-31T06:56:55Z</time>
      </trkpt>
      <trkpt lat="47.44891" lon="6.66272">
        <ele>304.8</ele>
        <time>2015-08-31T06:56:56Z</time>
      </trkpt>
      <trkpt lat="47.4489" lon="6.66265">
        <ele>304.8</ele>
        <time>2015-08-31T06:56:57Z</time>
      </trkpt>
      <trkpt lat="47.4489" lon="6.66258">
        <ele>304.8</ele>
        <time>2015-08-31T06:56:58Z</time>
      </trkpt>
      <trkpt lat="47.44889" lon="6.66251">
        <ele>304.7</ele>
        <time>2015-08-31T06:56:59Z</time>
      </trkpt>
      <trkpt lat="47.44889" lon="6.66244">
        <ele>304.7</ele>
        <time>2015-08-31T06:57:00Z</time>
      </trkpt>
      <trkpt lat="47.44888" lon="6.66236">
        <ele>304.6</ele>
        <time>2015-08-31T06:57:01Z</time>
      </trkpt>
      <trkpt lat="47.44888" lon="6.66229">
        <ele>304.6</ele>
        <time>2015-08-31T06:57:02Z</time>
      </trkpt>
      <trkpt lat="47.44887" lon="6.66222">
        <ele>304.6</ele>
        <time>2015-08-31T06:57:03Z</time>
      </trkpt>
      <trkpt lat="47.44886" lon="6.66215">
        <ele>304.6</ele>
        <time>2015-08-31T06:57:04Z</time>
      </trkpt>
      <trkpt lat="47.44885" lon="6.66208">
        <ele>304.5</ele>
        <time>2015-08-31T06:57:05Z</time>
      </trkpt>
      <trkpt lat="47.44884" lon="6.66201">
        <ele>304.5</ele>
        <time>2015-08-31T06:57:06Z</time>
      </trkpt>
      <trkpt lat="47.44884" lon="6.66194">
        <ele>304.5</ele>
        <time>2015-08-31T06:57:07Z</time>
      </trkpt>
      <trkpt lat="47.44883" lon="6.66187">
        <ele>304.5</ele>
        <time>2015-08-31T06:57:08Z</time>
      </trkpt>
      <trkpt lat="47.44883" lon="6.6618">
        <ele>304.5</ele>
        <time>2015-08-31T06:57:09Z</time>
      </trkpt>
      <trkpt lat="47.44882" lon="6.66172">
        <ele>304.5</ele>
        <time>2015-08-31T06:57:10Z</time>
      </trkpt>
      <trkpt lat="47.44882" lon="6.66165">
        <ele>304.4</ele>
        <time>2015-08-31T06:57:11Z</time>
      </trkpt>
      <trkpt lat="47.44881" lon="6.66158">
        <ele>304.4</ele>
        <time>2015-08-31T06:57:12Z</time>
      </trkpt>
      <trkpt lat="47.44881" lon="6.6615">
        <ele>304.4</ele>
        <time>2015-08-31T06:57:13Z</time>
      </trkpt>
      <trkpt lat="47.44881" lon="6.66143">
        <ele>304.4</ele>
        <time>2015-08-31T06:57:14Z</time>
      </trkpt>
      <trkpt lat="47.4488" lon="6.66136">
        <ele>304.4</ele>
        <time>2015-08-31T06:57:15Z</time>
      </trkpt>
      <trkpt lat="47.4488" lon="6.66129">
        <ele>304.4</ele>
        <time>2015-08-31T06:57:16Z</time>
      </trkpt>
      <trkpt lat="47.44879" lon="6.66122">
        <ele>304.5</ele>
        <time>2015-08-31T06:57:17Z</time>
      </trkpt>
      <trkpt lat="47.44879" lon="6.66115">
        <ele>304.5</ele>
        <time>2015-08-31T06:57:18Z</time>
      </trkpt>
      <trkpt lat="47.44878" lon="6.66108">
        <ele>304.5</ele>
        <time>2015-08-31T06:57:19Z</time>
      </trkpt>
      <trkpt lat="47.44878" lon="6.66101">
        <ele>304.5</ele>
        <time>2015-08-31T06:57:20Z</time>
      </trkpt>
      <trkpt lat="47.44877" lon="6.66094">
        <ele>304.6</ele>
        <time>2015-08-31T06:57:21Z</time>
      </trkpt>
      <trkpt lat="47.44876" lon="6.66087">
        <ele>304.8</ele>
        <time>2015-08-31T06:57:22Z</time>
      </trkpt>
      <trkpt lat="47.44876" lon="6.6608">
        <ele>304.9</ele>
        <time>2015-08-31T06:57:23Z</time>
      </trkpt>
      <trkpt lat="47.44875" lon="6.66073">
        <ele>305</ele>
        <time>2015-08-31T06:57:24Z</time>
      </trkpt>
      <trkpt lat="47.44875" lon="6.66066">
        <ele>305</ele>
        <time>2015-08-31T06:57:25Z</time>
      </trkpt>
      <trkpt lat="47.44874" lon="6.66059">
        <ele>304.9</ele>
        <time>2015-08-31T06:57:26Z</time>
      </trkpt>
      <trkpt lat="47.44873" lon="6.66052">
        <ele>304.7</ele>
        <time>2015-08-31T06:57:27Z</time>
      </trkpt>
      <trkpt lat="47.44873" lon="6.66045">
        <ele>304.5</ele>
        <time>2015-08-31T06:57:28Z</time>
      </trkpt>
      <trkpt lat="47.44872" lon="6.66038">
        <ele>304.4</ele>
        <time>2015-08-31T06:57:29Z</time>
      </trkpt>
      <trkpt lat="47.44872" lon="6.66031">
        <ele>304.3</ele>
        <time>2015-08-31T06:57:30Z</time>
      </trkpt>
      <trkpt lat="47.44872" lon="6.66024">
        <ele>304.2</ele>
        <time>2015-08-31T06:57:31Z</time>
      </trkpt>
      <trkpt lat="47.44871" lon="6.66017">
        <ele>304.2</ele>
        <time>2015-08-31T06:57:32Z</time>
      </trkpt>
      <trkpt lat="47.44871" lon="6.6601">
        <ele>304.1</ele>
        <time>2015-08-31T06:57:33Z</time>
      </trkpt>
      <trkpt lat="47.4487" lon="6.66003">
        <ele>304</ele>
        <time>2015-08-31T06:57:34Z</time>
      </trkpt>
      <trkpt lat="47.4487" lon="6.65996">
        <ele>304</ele>
        <time>2015-08-31T06:57:35Z</time>
      </trkpt>
      <trkpt lat="47.44869" lon="6.65989">
        <ele>304</ele>
        <time>2015-08-31T06:57:36Z</time>
      </trkpt>
      <trkpt lat="47.44868" lon="6.65982">
        <ele>304.1</ele>
        <time>2015-08-31T06:57:37Z</time>
      </trkpt>
      <trkpt lat="47.44868" lon="6.65975">
        <ele>304.1</ele>
        <time>2015-08-31T06:57:38Z</time>
      </trkpt>
      <trkpt lat="47.44867" lon="6.65968">
        <ele>304.1</ele>
        <time>2015-08-31T06:57:39Z</time>
      </trkpt>
      <trkpt lat="47.44866" lon="6.65961">
        <ele>304.1</ele>
        <time>2015-08-31T06:57:40Z</time>
      </trkpt>
      <trkpt lat="47.44866" lon="6.65954">
        <ele>304.1</ele>
        <time>2015-08-31T06:57:41Z</time>
      </trkpt>
      <trkpt lat="47.44865" lon="6.65946">
        <ele>304</ele>
        <time>2015-08-31T06:57:42Z</time>
      </trkpt>
      <trkpt lat="47.44865" lon="6.65939">
        <ele>303.9</ele>
        <time>2015-08-31T06:57:43Z</time>
      </trkpt>
      <trkpt lat="47.44864" lon="6.65932">
        <ele>303.9</ele>
        <time>2015-08-31T06:57:44Z</time>
      </trkpt>
      <trkpt lat="47.44863" lon="6.65925">
        <ele>303.9</ele>
        <time>2015-08-31T06:57:45Z</time>
      </trkpt>
      <trkpt lat="47.44863" lon="6.65918">
        <ele>303.9</ele>
        <time>2015-08-31T06:57:46Z</time>
      </trkpt>
      <trkpt lat="47.44862" lon="6.65911">
        <ele>303.9</ele>
        <time>2015-08-31T06:57:47Z</time>
      </trkpt>
      <trkpt lat="47.44862" lon="6.65904">
        <ele>303.7</ele>
        <time>2015-08-31T06:57:48Z</time>
      </trkpt>
      <trkpt lat="47.44861" lon="6.65897">
        <ele>303.7</ele>
        <time>2015-08-31T06:57:49Z</time>
      </trkpt>
      <trkpt lat="47.44861" lon="6.6589">
        <ele>303.9</ele>
        <time>2015-08-31T06:57:50Z</time>
      </trkpt>
      <trkpt lat="47.44861" lon="6.65883">
        <ele>303.9</ele>
        <time>2015-08-31T06:57:51Z</time>
      </trkpt>
      <trkpt lat="47.4486" lon="6.65876">
        <ele>303.9</ele>
        <time>2015-08-31T06:57:52Z</time>
      </trkpt>
      <trkpt lat="47.44859" lon="6.65868">
        <ele>303.7</ele>
        <time>2015-08-31T06:57:53Z</time>
      </trkpt>
      <trkpt lat="47.44858" lon="6.65861">
        <ele>303.7</ele>
        <time>2015-08-31T06:57:54Z</time>
      </trkpt>
      <trkpt lat="47.44858" lon="6.65854">
        <ele>303.6</ele>
        <time>2015-08-31T06:57:55Z</time>
      </trkpt>
      <trkpt lat="47.44857" lon="6.65847">
        <ele>303.7</ele>
        <time>2015-08-31T06:57:56Z</time>
      </trkpt>
      <trkpt lat="47.44857" lon="6.6584">
        <ele>303.8</ele>
        <time>2015-08-31T06:57:57Z</time>
      </trkpt>
      <trkpt lat="47.44856" lon="6.65833">
        <ele>303.6</ele>
        <time>2015-08-31T06:57:58Z</time>
      </trkpt>
      <trkpt lat="47.44856" lon="6.65826">
        <ele>303.4</ele>
        <time>2015-08-31T06:57:59Z</time>
      </trkpt>
      <trkpt lat="47.44855" lon="6.65819">
        <ele>303.5</ele>
        <time>2015-08-31T06:58:00Z</time>
      </trkpt>
      <trkpt lat="47.44855" lon="6.65812">
        <ele>303.6</ele>
        <time>2015-08-31T06:58:01Z</time>
      </trkpt>
      <trkpt lat="47.44854" lon="6.65805">
        <ele>303.8</ele>
        <time>2015-08-31T06:58:02Z</time>
      </trkpt>
      <trkpt lat="47.44854" lon="6.65798">
        <ele>304</ele>
        <time>2015-08-31T06:58:03Z</time>
      </trkpt>
      <trkpt lat="47.44854" lon="6.65792">
        <ele>304.4</ele>
        <time>2015-08-31T06:58:04Z</time>
      </trkpt>
      <trkpt lat="47.44853" lon="6.65785">
        <ele>304.9</ele>
        <time>2015-08-31T06:58:05Z</time>
      </trkpt>
      <trkpt lat="47.44853" lon="6.65779">
        <ele>305.5</ele>
        <time>2015-08-31T06:58:06Z</time>
      </trkpt>
      <trkpt lat="47.44852" lon="6.65772">
        <ele>305.8</ele>
        <time>2015-08-31T06:58:07Z</time>
      </trkpt>
      <trkpt lat="47.44852" lon="6.65765">
        <ele>305.9</ele>
        <time>2015-08-31T06:58:08Z</time>
      </trkpt>
      <trkpt lat="47.44852" lon="6.65758">
        <ele>306</ele>
        <time>2015-08-31T06:58:09Z</time>
      </trkpt>
      <trkpt lat="47.44851" lon="6.6575">
        <ele>305.9</ele>
        <time>2015-08-31T06:58:10Z</time>
      </trkpt>
      <trkpt lat="47.44851" lon="6.65742">
        <ele>305.9</ele>
        <time>2015-08-31T06:58:11Z</time>
      </trkpt>
      <trkpt lat="47.44851" lon="6.65735">
        <ele>305.9</ele>
        <time>2015-08-31T06:58:12Z</time>
      </trkpt>
      <trkpt lat="47.44851" lon="6.65728">
        <ele>305.8</ele>
        <time>2015-08-31T06:58:13Z</time>
      </trkpt>
      <trkpt lat="47.4485" lon="6.6572">
        <ele>305.9</ele>
        <time>2015-08-31T06:58:14Z</time>
      </trkpt>
      <trkpt lat="47.44849" lon="6.65713">
        <ele>305.8</ele>
        <time>2015-08-31T06:58:15Z</time>
      </trkpt>
      <trkpt lat="47.44848" lon="6.65705">
        <ele>305.7</ele>
        <time>2015-08-31T06:58:16Z</time>
      </trkpt>
      <trkpt lat="47.44848" lon="6.65698">
        <ele>305.5</ele>
        <time>2015-08-31T06:58:17Z</time>
      </trkpt>
      <trkpt lat="47.44847" lon="6.65691">
        <ele>305.3</ele>
        <time>2015-08-31T06:58:18Z</time>
      </trkpt>
      <trkpt lat="47.44846" lon="6.65684">
        <ele>305</ele>
        <time>2015-08-31T06:58:19Z</time>
      </trkpt>
      <trkpt lat="47.44846" lon="6.65676">
        <ele>304.8</ele>
        <time>2015-08-31T06:58:20Z</time>
      </trkpt>
      <trkpt lat="47.44845" lon="6.65669">
        <ele>304.7</ele>
        <time>2015-08-31T06:58:21Z</time>
      </trkpt>
      <trkpt lat="47.44845" lon="6.65662">
        <ele>304.6</ele>
        <time>2015-08-31T06:58:22Z</time>
      </trkpt>
      <trkpt lat="47.44844" lon="6.65655">
        <ele>304.4</ele>
        <time>2015-08-31T06:58:23Z</time>
      </trkpt>
      <trkpt lat="47.44843" lon="6.65647">
        <ele>304.1</ele>
        <time>2015-08-31T06:58:24Z</time>
      </trkpt>
      <trkpt lat="47.44843" lon="6.6564">
        <ele>304.1</ele>
        <time>2015-08-31T06:58:25Z</time>
      </trkpt>
      <trkpt lat="47.44842" lon="6.65633">
        <ele>304</ele>
        <time>2015-08-31T06:58:26Z</time>
      </trkpt>
      <trkpt lat="47.44842" lon="6.65626">
        <ele>304.1</ele>
        <time>2015-08-31T06:58:27Z</time>
      </trkpt>
      <trkpt lat="47.44841" lon="6.6562">
        <ele>305.9</ele>
        <time>2015-08-31T06:58:28Z</time>
      </trkpt>
      <trkpt lat="47.44841" lon="6.65612">
        <ele>305.7</ele>
        <time>2015-08-31T06:58:29Z</time>
      </trkpt>
      <trkpt lat="47.4484" lon="6.65605">
        <ele>305.5</ele>
        <time>2015-08-31T06:58:30Z</time>
      </trkpt>
      <trkpt lat="47.44839" lon="6.65598">
        <ele>305.4</ele>
        <time>2015-08-31T06:58:31Z</time>
      </trkpt>
      <trkpt lat="47.44839" lon="6.65591">
        <ele>305.3</ele>
        <time>2015-08-31T06:58:32Z</time>
      </trkpt>
      <trkpt lat="47.44838" lon="6.65583">
        <ele>305</ele>
        <time>2015-08-31T06:58:33Z</time>
      </trkpt>
      <trkpt lat="47.44837" lon="6.65576">
        <ele>304.8</ele>
        <time>2015-08-31T06:58:34Z</time>
      </trkpt>
      <trkpt lat="47.44837" lon="6.6557">
        <ele>304.8</ele>
        <time>2015-08-31T06:58:35Z</time>
      </trkpt>
      <trkpt lat="47.44836" lon="6.65563">
        <ele>304.6</ele>
        <time>2015-08-31T06:58:36Z</time>
      </trkpt>
      <trkpt lat="47.44835" lon="6.65556">
        <ele>304.5</ele>
        <time>2015-08-31T06:58:37Z</time>
      </trkpt>
      <trkpt lat="47.44835" lon="6.65549">
        <ele>304.4</ele>
        <time>2015-08-31T06:58:38Z</time>
      </trkpt>
      <trkpt lat="47.44834" lon="6.65541">
        <ele>304.4</ele>
        <time>2015-08-31T06:58:39Z</time>
      </trkpt>
      <trkpt lat="47.44834" lon="6.65534">
        <ele>304.5</ele>
        <time>2015-08-31T06:58:40Z</time>
      </trkpt>
      <trkpt lat="47.44833" lon="6.65526">
        <ele>304.4</ele>
        <time>2015-08-31T06:58:41Z</time>
      </trkpt>
      <trkpt lat="47.44833" lon="6.65519">
        <ele>304.4</ele>
        <time>2015-08-31T06:58:42Z</time>
      </trkpt>
      <trkpt lat="47.44832" lon="6.65512">
        <ele>304.4</ele>
        <time>2015-08-31T06:58:43Z</time>
      </trkpt>
      <trkpt lat="47.44832" lon="6.65504">
        <ele>304.5</ele>
        <time>2015-08-31T06:58:44Z</time>
      </trkpt>
      <trkpt lat="47.44831" lon="6.65497">
        <ele>304.3</ele>
        <time>2015-08-31T06:58:45Z</time>
      </trkpt>
      <trkpt lat="47.44831" lon="6.65489">
        <ele>304.3</ele>
        <time>2015-08-31T06:58:46Z</time>
      </trkpt>
      <trkpt lat="47.4483" lon="6.65482">
        <ele>304.2</ele>
        <time>2015-08-31T06:58:47Z</time>
      </trkpt>
      <trkpt lat="47.4483" lon="6.65474">
        <ele>304.2</ele>
        <time>2015-08-31T06:58:48Z</time>
      </trkpt>
      <trkpt lat="47.44829" lon="6.65467">
        <ele>304.3</ele>
        <time>2015-08-31T06:58:49Z</time>
      </trkpt>
      <trkpt lat="47.44829" lon="6.65459">
        <ele>304.2</ele>
        <time>2015-08-31T06:58:50Z</time>
      </trkpt>
      <trkpt lat="47.44828" lon="6.65452">
        <ele>304.3</ele>
        <time>2015-08-31T06:58:51Z</time>
      </trkpt>
      <trkpt lat="47.44827" lon="6.65444">
        <ele>304.4</ele>
        <time>2015-08-31T06:58:52Z</time>
      </trkpt>
      <trkpt lat="47.44827" lon="6.65437">
        <ele>304.5</ele>
        <time>2015-08-31T06:58:53Z</time>
      </trkpt>
      <trkpt lat="47.44826" lon="6.65429">
        <ele>304.4</ele>
        <time>2015-08-31T06:58:54Z</time>
      </trkpt>
      <trkpt lat="47.44825" lon="6.65421">
        <ele>304.6</ele>
        <time>2015-08-31T06:58:55Z</time>
      </trkpt>
      <trkpt lat="47.44825" lon="6.65413">
        <ele>304.6</ele>
        <time>2015-08-31T06:58:56Z</time>
      </trkpt>
      <trkpt lat="47.44824" lon="6.65406">
        <ele>304.7</ele>
        <time>2015-08-31T06:58:57Z</time>
      </trkpt>
      <trkpt lat="47.44824" lon="6.65398">
        <ele>304.9</ele>
        <time>2015-08-31T06:58:58Z</time>
      </trkpt>
      <trkpt lat="47.44823" lon="6.65391">
        <ele>304.9</ele>
        <time>2015-08-31T06:58:59Z</time>
      </trkpt>
      <trkpt lat="47.44822" lon="6.65384">
        <ele>304.8</ele>
        <time>2015-08-31T06:59:00Z</time>
      </trkpt>
      <trkpt lat="47.44822" lon="6.65376">
        <ele>304.7</ele>
        <time>2015-08-31T06:59:01Z</time>
      </trkpt>
      <trkpt lat="47.44821" lon="6.65369">
        <ele>304.8</ele>
        <time>2015-08-31T06:59:02Z</time>
      </trkpt>
      <trkpt lat="47.44821" lon="6.65362">
        <ele>304.9</ele>
        <time>2015-08-31T06:59:03Z</time>
      </trkpt>
      <trkpt lat="47.4482" lon="6.65355">
        <ele>305.1</ele>
        <time>2015-08-31T06:59:04Z</time>
      </trkpt>
      <trkpt lat="47.4482" lon="6.65347">
        <ele>304.8</ele>
        <time>2015-08-31T06:59:05Z</time>
      </trkpt>
      <trkpt lat="47.4482" lon="6.6534">
        <ele>304.7</ele>
        <time>2015-08-31T06:59:06Z</time>
      </trkpt>
      <trkpt lat="47.44819" lon="6.65333">
        <ele>304.7</ele>
        <time>2015-08-31T06:59:07Z</time>
      </trkpt>
      <trkpt lat="47.44818" lon="6.65326">
        <ele>304.3</ele>
        <time>2015-08-31T06:59:08Z</time>
      </trkpt>
      <trkpt lat="47.44818" lon="6.65319">
        <ele>304</ele>
        <time>2015-08-31T06:59:09Z</time>
      </trkpt>
      <trkpt lat="47.44817" lon="6.65311">
        <ele>304</ele>
        <time>2015-08-31T06:59:10Z</time>
      </trkpt>
      <trkpt lat="47.44817" lon="6.65304">
        <ele>304</ele>
        <time>2015-08-31T06:59:11Z</time>
      </trkpt>
      <trkpt lat="47.44816" lon="6.65297">
        <ele>303.9</ele>
        <time>2015-08-31T06:59:12Z</time>
      </trkpt>
      <trkpt lat="47.44815" lon="6.65289">
        <ele>303.8</ele>
        <time>2015-08-31T06:59:13Z</time>
      </trkpt>
      <trkpt lat="47.44815" lon="6.65282">
        <ele>303.9</ele>
        <time>2015-08-31T06:59:14Z</time>
      </trkpt>
      <trkpt lat="47.44814" lon="6.65274">
        <ele>303.8</ele>
        <time>2015-08-31T06:59:15Z</time>
      </trkpt>
      <trkpt lat="47.44814" lon="6.65267">
        <ele>303.8</ele>
        <time>2015-08-31T06:59:16Z</time>
      </trkpt>
      <trkpt lat="47.44813" lon="6.65259">
        <ele>303.9</ele>
        <time>2015-08-31T06:59:17Z</time>
      </trkpt>
      <trkpt lat="47.44812" lon="6.65252">
        <ele>304</ele>
        <time>2015-08-31T06:59:18Z</time>
      </trkpt>
      <trkpt lat="47.44812" lon="6.65244">
        <ele>304.1</ele>
        <time>2015-08-31T06:59:19Z</time>
      </trkpt>
      <trkpt lat="47.44811" lon="6.65237">
        <ele>304.1</ele>
        <time>2015-08-31T06:59:20Z</time>
      </trkpt>
      <trkpt lat="47.4481" lon="6.65229">
        <ele>304</ele>
        <time>2015-08-31T06:59:21Z</time>
      </trkpt>
      <trkpt lat="47.4481" lon="6.65222">
        <ele>304</ele>
        <time>2015-08-31T06:59:22Z</time>
      </trkpt>
      <trkpt lat="47.44809" lon="6.65214">
        <ele>303.9</ele>
        <time>2015-08-31T06:59:23Z</time>
      </trkpt>
      <trkpt lat="47.44809" lon="6.65207">
        <ele>303.9</ele>
        <time>2015-08-31T06:59:24Z</time>
      </trkpt>
      <trkpt lat="47.44808" lon="6.65199">
        <ele>303.8</ele>
        <time>2015-08-31T06:59:25Z</time>
      </trkpt>
      <trkpt lat="47.44808" lon="6.65192">
        <ele>303.7</ele>
        <time>2015-08-31T06:59:26Z</time>
      </trkpt>
      <trkpt lat="47.44807" lon="6.65184">
        <ele>303.6</ele>
        <time>2015-08-31T06:59:27Z</time>
      </trkpt>
      <trkpt lat="47.44807" lon="6.65177">
        <ele>303.6</ele>
        <time>2015-08-31T06:59:28Z</time>
      </trkpt>
      <trkpt lat="47.44806" lon="6.6517">
        <ele>303.7</ele>
        <time>2015-08-31T06:59:29Z</time>
      </trkpt>
      <trkpt lat="47.44806" lon="6.65163">
        <ele>303.7</ele>
        <time>2015-08-31T06:59:30Z</time>
      </trkpt>
      <trkpt lat="47.44805" lon="6.65155">
        <ele>303.6</ele>
        <time>2015-08-31T06:59:31Z</time>
      </trkpt>
      <trkpt lat="47.44804" lon="6.65148">
        <ele>303.7</ele>
        <time>2015-08-31T06:59:32Z</time>
      </trkpt>
      <trkpt lat="47.44804" lon="6.65141">
        <ele>303.6</ele>
        <time>2015-08-31T06:59:33Z</time>
      </trkpt>
      <trkpt lat="47.44803" lon="6.65134">
        <ele>303.4</ele>
        <time>2015-08-31T06:59:34Z</time>
      </trkpt>
      <trkpt lat="47.44803" lon="6.65127">
        <ele>303.4</ele>
        <time>2015-08-31T06:59:35Z</time>
      </trkpt>
      <trkpt lat="47.44802" lon="6.65119">
        <ele>303.3</ele>
        <time>2015-08-31T06:59:36Z</time>
      </trkpt>
      <trkpt lat="47.44802" lon="6.65112">
        <ele>303.2</ele>
        <time>2015-08-31T06:59:37Z</time>
      </trkpt>
      <trkpt lat="47.44801" lon="6.65105">
        <ele>303.1</ele>
        <time>2015-08-31T06:59:38Z</time>
      </trkpt>
      <trkpt lat="47.44801" lon="6.65098">
        <ele>303</ele>
        <time>2015-08-31T06:59:39Z</time>
      </trkpt>
      <trkpt lat="47.448" lon="6.65091">
        <ele>303.1</ele>
        <time>2015-08-31T06:59:40Z</time>
      </trkpt>
      <trkpt lat="47.448" lon="6.65084">
        <ele>303.1</ele>
        <time>2015-08-31T06:59:41Z</time>
      </trkpt>
      <trkpt lat="47.448" lon="6.65076">
        <ele>303.2</ele>
        <time>2015-08-31T06:59:42Z</time>
      </trkpt>
      <trkpt lat="47.44799" lon="6.65069">
        <ele>303.4</ele>
        <time>2015-08-31T06:59:43Z</time>
      </trkpt>
      <trkpt lat="47.44798" lon="6.65061">
        <ele>303.6</ele>
        <time>2015-08-31T06:59:44Z</time>
      </trkpt>
      <trkpt lat="47.44798" lon="6.65054">
        <ele>303.2</ele>
        <time>2015-08-31T06:59:45Z</time>
      </trkpt>
      <trkpt lat="47.44797" lon="6.65046">
        <ele>303.2</ele>
        <time>2015-08-31T06:59:46Z</time>
      </trkpt>
      <trkpt lat="47.44796" lon="6.65039">
        <ele>303.1</ele>
        <time>2015-08-31T06:59:47Z</time>
      </trkpt>
      <trkpt lat="47.44796" lon="6.65031">
        <ele>302.9</ele>
        <time>2015-08-31T06:59:48Z</time>
      </trkpt>
      <trkpt lat="47.44796" lon="6.65024">
        <ele>302.8</ele>
        <time>2015-08-31T06:59:49Z</time>
      </trkpt>
      <trkpt lat="47.44796" lon="6.65017">
        <ele>303</ele>
        <time>2015-08-31T06:59:50Z</time>
      </trkpt>
      <trkpt lat="47.44796" lon="6.6501">
        <ele>303.2</ele>
        <time>2015-08-31T06:59:51Z</time>
      </trkpt>
      <trkpt lat="47.44795" lon="6.65004">
        <ele>303.4</ele>
        <time>2015-08-31T06:59:52Z</time>
      </trkpt>
      <trkpt lat="47.44794" lon="6.64998">
        <ele>303.5</ele>
        <time>2015-08-31T06:59:53Z</time>
      </trkpt>
      <trkpt lat="47.44794" lon="6.64992">
        <ele>303.4</ele>
        <time>2015-08-31T06:59:54Z</time>
      </trkpt>
      <trkpt lat="47.44793" lon="6.64987">
        <ele>303.3</ele>
        <time>2015-08-31T06:59:55Z</time>
      </trkpt>
      <trkpt lat="47.44792" lon="6.64981">
        <ele>303.4</ele>
        <time>2015-08-31T06:59:56Z</time>
      </trkpt>
      <trkpt lat="47.44791" lon="6.64976">
        <ele>303.4</ele>
        <time>2015-08-31T06:59:57Z</time>
      </trkpt>
      <trkpt lat="47.44791" lon="6.64971">
        <ele>303.4</ele>
        <time>2015-08-31T06:59:58Z</time>
      </trkpt>
      <trkpt lat="47.4479" lon="6.64967">
        <ele>303.5</ele>
        <time>2015-08-31T06:59:59Z</time>
      </trkpt>
      <trkpt lat="47.44789" lon="6.64962">
        <ele>303.6</ele>
        <time>2015-08-31T07:00:00Z</time>
      </trkpt>
      <trkpt lat="47.44788" lon="6.64958">
        <ele>303.5</ele>
        <time>2015-08-31T07:00:01Z</time>
      </trkpt>
      <trkpt lat="47.44788" lon="6.64952">
        <ele>303.4</ele>
        <time>2015-08-31T07:00:02Z</time>
      </trkpt>
      <trkpt lat="47.44787" lon="6.64945">
        <ele>302.9</ele>
        <time>2015-08-31T07:00:03Z</time>
      </trkpt>
      <trkpt lat="47.44787" lon="6.64938">
        <ele>302.7</ele>
        <time>2015-08-31T07:00:04Z</time>
      </trkpt>
      <trkpt lat="47.44787" lon="6.64931">
        <ele>301.9</ele>
        <time>2015-08-31T07:00:05Z</time>
      </trkpt>
      <trkpt lat="47.44787" lon="6.64922">
        <ele>301.4</ele>
        <time>2015-08-31T07:00:06Z</time>
      </trkpt>
      <trkpt lat="47.44787" lon="6.64914">
        <ele>300.8</ele>
        <time>2015-08-31T07:00:07Z</time>
      </trkpt>
      <trkpt lat="47.44787" lon="6.64905">
        <ele>300.5</ele>
        <time>2015-08-31T07:00:08Z</time>
      </trkpt>
      <trkpt lat="47.44786" lon="6.64895">
        <ele>300.3</ele>
        <time>2015-08-31T07:00:09Z</time>
      </trkpt>
      <trkpt lat="47.44785" lon="6.64886">
        <ele>300.2</ele>
        <time>2015-08-31T07:00:10Z</time>
      </trkpt>
      <trkpt lat="47.44784" lon="6.64877">
        <ele>300.2</ele>
        <time>2015-08-31T07:00:11Z</time>
      </trkpt>
      <trkpt lat="47.44783" lon="6.64867">
        <ele>300.1</ele>
        <time>2015-08-31T07:00:12Z</time>
      </trkpt>
      <trkpt lat="47.44782" lon="6.64858">
        <ele>299.9</ele>
        <time>2015-08-31T07:00:13Z</time>
      </trkpt>
      <trkpt lat="47.44782" lon="6.64849">
        <ele>300</ele>
        <time>2015-08-31T07:00:14Z</time>
      </trkpt>
      <trkpt lat="47.44781" lon="6.6484">
        <ele>300</ele>
        <time>2015-08-31T07:00:15Z</time>
      </trkpt>
      <trkpt lat="47.4478" lon="6.64831">
        <ele>300</ele>
        <time>2015-08-31T07:00:16Z</time>
      </trkpt>
      <trkpt lat="47.4478" lon="6.64822">
        <ele>300</ele>
        <time>2015-08-31T07:00:17Z</time>
      </trkpt>
      <trkpt lat="47.44779" lon="6.64813">
        <ele>300</ele>
        <time>2015-08-31T07:00:18Z</time>
      </trkpt>
      <trkpt lat="47.44778" lon="6.64805">
        <ele>300</ele>
        <time>2015-08-31T07:00:19Z</time>
      </trkpt>
      <trkpt lat="47.44778" lon="6.64797">
        <ele>300</ele>
        <time>2015-08-31T07:00:20Z</time>
      </trkpt>
      <trkpt lat="47.44777" lon="6.64788">
        <ele>299.9</ele>
        <time>2015-08-31T07:00:21Z</time>
      </trkpt>
      <trkpt lat="47.44777" lon="6.6478">
        <ele>299.9</ele>
        <time>2015-08-31T07:00:22Z</time>
      </trkpt>
      <trkpt lat="47.44776" lon="6.64772">
        <ele>299.8</ele>
        <time>2015-08-31T07:00:23Z</time>
      </trkpt>
      <trkpt lat="47.44775" lon="6.64764">
        <ele>299.8</ele>
        <time>2015-08-31T07:00:24Z</time>
      </trkpt>
      <trkpt lat="47.44775" lon="6.64756">
        <ele>299.8</ele>
        <time>2015-08-31T07:00:25Z</time>
      </trkpt>
      <trkpt lat="47.44774" lon="6.64748">
        <ele>299.7</ele>
        <time>2015-08-31T07:00:26Z</time>
      </trkpt>
      <trkpt lat="47.44773" lon="6.6474">
        <ele>299.7</ele>
        <time>2015-08-31T07:00:27Z</time>
      </trkpt>
      <trkpt lat="47.44773" lon="6.64732">
        <ele>299.6</ele>
        <time>2015-08-31T07:00:28Z</time>
      </trkpt>
      <trkpt lat="47.44772" lon="6.64724">
        <ele>299.6</ele>
        <time>2015-08-31T07:00:29Z</time>
      </trkpt>
      <trkpt lat="47.44771" lon="6.64716">
        <ele>299.7</ele>
        <time>2015-08-31T07:00:30Z</time>
      </trkpt>
      <trkpt lat="47.4477" lon="6.64708">
        <ele>299.6</ele>
        <time>2015-08-31T07:00:31Z</time>
      </trkpt>
      <trkpt lat="47.44769" lon="6.647">
        <ele>299.8</ele>
        <time>2015-08-31T07:00:32Z</time>
      </trkpt>
      <trkpt lat="47.44769" lon="6.64692">
        <ele>299.8</ele>
        <time>2015-08-31T07:00:33Z</time>
      </trkpt>
      <trkpt lat="47.44768" lon="6.64684">
        <ele>299.7</ele>
        <time>2015-08-31T07:00:34Z</time>
      </trkpt>
      <trkpt lat="47.44768" lon="6.64676">
        <ele>299.5</ele>
        <time>2015-08-31T07:00:35Z</time>
      </trkpt>
      <trkpt lat="47.44767" lon="6.64668">
        <ele>299.4</ele>
        <time>2015-08-31T07:00:36Z</time>
      </trkpt>
      <trkpt lat="47.44766" lon="6.64661">
        <ele>299.3</ele>
        <time>2015-08-31T07:00:37Z</time>
      </trkpt>
      <trkpt lat="47.44766" lon="6.64653">
        <ele>299</ele>
        <time>2015-08-31T07:00:38Z</time>
      </trkpt>
      <trkpt lat="47.44765" lon="6.64645">
        <ele>298.9</ele>
        <time>2015-08-31T07:00:39Z</time>
      </trkpt>
      <trkpt lat="47.44764" lon="6.64637">
        <ele>299</ele>
        <time>2015-08-31T07:00:40Z</time>
      </trkpt>
      <trkpt lat="47.44764" lon="6.6463">
        <ele>298.9</ele>
        <time>2015-08-31T07:00:41Z</time>
      </trkpt>
      <trkpt lat="47.44763" lon="6.64622">
        <ele>298.9</ele>
        <time>2015-08-31T07:00:42Z</time>
      </trkpt>
      <trkpt lat="47.44763" lon="6.64615">
        <ele>298.9</ele>
        <time>2015-08-31T07:00:43Z</time>
      </trkpt>
      <trkpt lat="47.44762" lon="6.64607">
        <ele>298.9</ele>
        <time>2015-08-31T07:00:44Z</time>
      </trkpt>
      <trkpt lat="47.44762" lon="6.646">
        <ele>298.9</ele>
        <time>2015-08-31T07:00:45Z</time>
      </trkpt>
      <trkpt lat="47.44761" lon="6.64593">
        <ele>298.7</ele>
        <time>2015-08-31T07:00:46Z</time>
      </trkpt>
      <trkpt lat="47.44761" lon="6.64585">
        <ele>298.7</ele>
        <time>2015-08-31T07:00:47Z</time>
      </trkpt>
      <trkpt lat="47.44759" lon="6.64577">
        <ele>298.8</ele>
        <time>2015-08-31T07:00:48Z</time>
      </trkpt>
      <trkpt lat="47.44759" lon="6.6457">
        <ele>298.8</ele>
        <time>2015-08-31T07:00:49Z</time>
      </trkpt>
      <trkpt lat="47.44758" lon="6.64562">
        <ele>298.8</ele>
        <time>2015-08-31T07:00:50Z</time>
      </trkpt>
      <trkpt lat="47.44757" lon="6.64555">
        <ele>298.8</ele>
        <time>2015-08-31T07:00:51Z</time>
      </trkpt>
      <trkpt lat="47.44757" lon="6.64547">
        <ele>298.8</ele>
        <time>2015-08-31T07:00:52Z</time>
      </trkpt>
      <trkpt lat="47.44756" lon="6.6454">
        <ele>298.8</ele>
        <time>2015-08-31T07:00:53Z</time>
      </trkpt>
      <trkpt lat="47.44755" lon="6.64532">
        <ele>298.8</ele>
        <time>2015-08-31T07:00:54Z</time>
      </trkpt>
      <trkpt lat="47.44755" lon="6.64524">
        <ele>298.7</ele>
        <time>2015-08-31T07:00:55Z</time>
      </trkpt>
      <trkpt lat="47.44754" lon="6.64517">
        <ele>298.8</ele>
        <time>2015-08-31T07:00:56Z</time>
      </trkpt>
      <trkpt lat="47.44754" lon="6.6451">
        <ele>298.7</ele>
        <time>2015-08-31T07:00:57Z</time>
      </trkpt>
      <trkpt lat="47.44753" lon="6.64503">
        <ele>298.6</ele>
        <time>2015-08-31T07:00:58Z</time>
      </trkpt>
      <trkpt lat="47.44752" lon="6.64495">
        <ele>298.5</ele>
        <time>2015-08-31T07:00:59Z</time>
      </trkpt>
      <trkpt lat="47.44752" lon="6.64488">
        <ele>299</ele>
        <time>2015-08-31T07:01:00Z</time>
      </trkpt>
      <trkpt lat="47.44751" lon="6.64481">
        <ele>298.9</ele>
        <time>2015-08-31T07:01:01Z</time>
      </trkpt>
      <trkpt lat="47.44751" lon="6.64474">
        <ele>298.9</ele>
        <time>2015-08-31T07:01:02Z</time>
      </trkpt>
      <trkpt lat="47.4475" lon="6.64466">
        <ele>299</ele>
        <time>2015-08-31T07:01:03Z</time>
      </trkpt>
      <trkpt lat="47.4475" lon="6.64459">
        <ele>298.9</ele>
        <time>2015-08-31T07:01:04Z</time>
      </trkpt>
      <trkpt lat="47.4475" lon="6.64451">
        <ele>298.9</ele>
        <time>2015-08-31T07:01:05Z</time>
      </trkpt>
      <trkpt lat="47.44749" lon="6.64444">
        <ele>298.8</ele>
        <time>2015-08-31T07:01:06Z</time>
      </trkpt>
      <trkpt lat="47.44749" lon="6.64436">
        <ele>298.7</ele>
        <time>2015-08-31T07:01:07Z</time>
      </trkpt>
      <trkpt lat="47.44748" lon="6.64429">
        <ele>298.7</ele>
        <time>2015-08-31T07:01:08Z</time>
      </trkpt>
      <trkpt lat="47.44747" lon="6.64421">
        <ele>298.6</ele>
        <time>2015-08-31T07:01:09Z</time>
      </trkpt>
      <trkpt lat="47.44746" lon="6.64413">
        <ele>298.6</ele>
        <time>2015-08-31T07:01:10Z</time>
      </trkpt>
      <trkpt lat="47.44746" lon="6.64406">
        <ele>298.5</ele>
        <time>2015-08-31T07:01:11Z</time>
      </trkpt>
      <trkpt lat="47.44746" lon="6.64399">
        <ele>298.5</ele>
        <time>2015-08-31T07:01:12Z</time>
      </trkpt>
      <trkpt lat="47.44745" lon="6.64391">
        <ele>298.4</ele>
        <time>2015-08-31T07:01:13Z</time>
      </trkpt>
      <trkpt lat="47.44745" lon="6.64384">
        <ele>298.3</ele>
        <time>2015-08-31T07:01:14Z</time>
      </trkpt>
      <trkpt lat="47.44744" lon="6.64376">
        <ele>298.3</ele>
        <time>2015-08-31T07:01:15Z</time>
      </trkpt>
      <trkpt lat="47.44744" lon="6.64369">
        <ele>298.3</ele>
        <time>2015-08-31T07:01:16Z</time>
      </trkpt>
      <trkpt lat="47.44743" lon="6.64361">
        <ele>298.3</ele>
        <time>2015-08-31T07:01:17Z</time>
      </trkpt>
      <trkpt lat="47.44743" lon="6.64353">
        <ele>298.1</ele>
        <time>2015-08-31T07:01:18Z</time>
      </trkpt>
      <trkpt lat="47.44742" lon="6.64346">
        <ele>298.1</ele>
        <time>2015-08-31T07:01:19Z</time>
      </trkpt>
      <trkpt lat="47.44742" lon="6.64338">
        <ele>298.2</ele>
        <time>2015-08-31T07:01:20Z</time>
      </trkpt>
      <trkpt lat="47.44741" lon="6.6433">
        <ele>298.2</ele>
        <time>2015-08-31T07:01:21Z</time>
      </trkpt>
      <trkpt lat="47.4474" lon="6.64322">
        <ele>298.2</ele>
        <time>2015-08-31T07:01:22Z</time>
      </trkpt>
      <trkpt lat="47.4474" lon="6.64314">
        <ele>298.1</ele>
        <time>2015-08-31T07:01:23Z</time>
      </trkpt>
      <trkpt lat="47.44739" lon="6.64307">
        <ele>297.8</ele>
        <time>2015-08-31T07:01:24Z</time>
      </trkpt>
      <trkpt lat="47.44738" lon="6.64299">
        <ele>297.7</ele>
        <time>2015-08-31T07:01:25Z</time>
      </trkpt>
      <trkpt lat="47.44738" lon="6.64291">
        <ele>297.6</ele>
        <time>2015-08-31T07:01:26Z</time>
      </trkpt>
      <trkpt lat="47.44737" lon="6.64284">
        <ele>297.5</ele>
        <time>2015-08-31T07:01:27Z</time>
      </trkpt>
      <trkpt lat="47.44736" lon="6.64276">
        <ele>297.4</ele>
        <time>2015-08-31T07:01:28Z</time>
      </trkpt>
      <trkpt lat="47.44736" lon="6.64268">
        <ele>297.5</ele>
        <time>2015-08-31T07:01:29Z</time>
      </trkpt>
      <trkpt lat="47.44735" lon="6.6426">
        <ele>297.5</ele>
        <time>2015-08-31T07:01:30Z</time>
      </trkpt>
      <trkpt lat="47.44734" lon="6.64253">
        <ele>297.5</ele>
        <time>2015-08-31T07:01:31Z</time>
      </trkpt>
      <trkpt lat="47.44733" lon="6.64245">
        <ele>297.4</ele>
        <time>2015-08-31T07:01:32Z</time>
      </trkpt>
      <trkpt lat="47.44733" lon="6.64237">
        <ele>297.4</ele>
        <time>2015-08-31T07:01:33Z</time>
      </trkpt>
      <trkpt lat="47.44732" lon="6.64229">
        <ele>297.3</ele>
        <time>2015-08-31T07:01:34Z</time>
      </trkpt>
      <trkpt lat="47.44732" lon="6.64222">
        <ele>297.3</ele>
        <time>2015-08-31T07:01:35Z</time>
      </trkpt>
      <trkpt lat="47.44731" lon="6.64214">
        <ele>297.4</ele>
        <time>2015-08-31T07:01:36Z</time>
      </trkpt>
      <trkpt lat="47.4473" lon="6.64207">
        <ele>297.4</ele>
        <time>2015-08-31T07:01:37Z</time>
      </trkpt>
      <trkpt lat="47.4473" lon="6.64199">
        <ele>297.3</ele>
        <time>2015-08-31T07:01:38Z</time>
      </trkpt>
      <trkpt lat="47.44729" lon="6.64192">
        <ele>297.3</ele>
        <time>2015-08-31T07:01:39Z</time>
      </trkpt>
      <trkpt lat="47.44728" lon="6.64185">
        <ele>297.3</ele>
        <time>2015-08-31T07:01:40Z</time>
      </trkpt>
      <trkpt lat="47.44728" lon="6.64177">
        <ele>297.3</ele>
        <time>2015-08-31T07:01:41Z</time>
      </trkpt>
      <trkpt lat="47.44727" lon="6.6417">
        <ele>297.4</ele>
        <time>2015-08-31T07:01:42Z</time>
      </trkpt>
      <trkpt lat="47.44727" lon="6.64163">
        <ele>297.4</ele>
        <time>2015-08-31T07:01:43Z</time>
      </trkpt>
      <trkpt lat="47.44726" lon="6.64156">
        <ele>297.3</ele>
        <time>2015-08-31T07:01:44Z</time>
      </trkpt>
      <trkpt lat="47.44725" lon="6.64149">
        <ele>297.3</ele>
        <time>2015-08-31T07:01:45Z</time>
      </trkpt>
      <trkpt lat="47.44724" lon="6.64141">
        <ele>297.4</ele>
        <time>2015-08-31T07:01:46Z</time>
      </trkpt>
      <trkpt lat="47.44724" lon="6.64134">
        <ele>297.4</ele>
        <time>2015-08-31T07:01:47Z</time>
      </trkpt>
      <trkpt lat="47.44723" lon="6.64127">
        <ele>297.6</ele>
        <time>2015-08-31T07:01:48Z</time>
      </trkpt>
      <trkpt lat="47.44722" lon="6.64119">
        <ele>297.4</ele>
        <time>2015-08-31T07:01:49Z</time>
      </trkpt>
      <trkpt lat="47.44722" lon="6.64111">
        <ele>297.5</ele>
        <time>2015-08-31T07:01:50Z</time>
      </trkpt>
      <trkpt lat="47.44721" lon="6.64104">
        <ele>297.3</ele>
        <time>2015-08-31T07:01:51Z</time>
      </trkpt>
      <trkpt lat="47.44721" lon="6.64096">
        <ele>297.4</ele>
        <time>2015-08-31T07:01:52Z</time>
      </trkpt>
      <trkpt lat="47.4472" lon="6.64088">
        <ele>297.4</ele>
        <time>2015-08-31T07:01:53Z</time>
      </trkpt>
      <trkpt lat="47.44719" lon="6.64081">
        <ele>297.4</ele>
        <time>2015-08-31T07:01:54Z</time>
      </trkpt>
      <trkpt lat="47.44719" lon="6.64073">
        <ele>297.3</ele>
        <time>2015-08-31T07:01:55Z</time>
      </trkpt>
      <trkpt lat="47.44718" lon="6.64065">
        <ele>297.4</ele>
        <time>2015-08-31T07:01:56Z</time>
      </trkpt>
      <trkpt lat="47.44718" lon="6.64058">
        <ele>297.3</ele>
        <time>2015-08-31T07:01:57Z</time>
      </trkpt>
      <trkpt lat="47.44717" lon="6.6405">
        <ele>297.2</ele>
        <time>2015-08-31T07:01:58Z</time>
      </trkpt>
      <trkpt lat="47.44717" lon="6.64042">
        <ele>297.2</ele>
        <time>2015-08-31T07:01:59Z</time>
      </trkpt>
      <trkpt lat="47.44716" lon="6.64035">
        <ele>297.2</ele>
        <time>2015-08-31T07:02:00Z</time>
      </trkpt>
      <trkpt lat="47.44715" lon="6.64028">
        <ele>297.2</ele>
        <time>2015-08-31T07:02:01Z</time>
      </trkpt>
      <trkpt lat="47.44715" lon="6.6402">
        <ele>297.3</ele>
        <time>2015-08-31T07:02:02Z</time>
      </trkpt>
      <trkpt lat="47.44714" lon="6.64013">
        <ele>297.2</ele>
        <time>2015-08-31T07:02:03Z</time>
      </trkpt>
      <trkpt lat="47.44714" lon="6.64006">
        <ele>297.2</ele>
        <time>2015-08-31T07:02:04Z</time>
      </trkpt>
      <trkpt lat="47.44713" lon="6.63998">
        <ele>297.2</ele>
        <time>2015-08-31T07:02:05Z</time>
      </trkpt>
      <trkpt lat="47.44712" lon="6.63991">
        <ele>297.2</ele>
        <time>2015-08-31T07:02:06Z</time>
      </trkpt>
      <trkpt lat="47.44712" lon="6.63984">
        <ele>297.2</ele>
        <time>2015-08-31T07:02:07Z</time>
      </trkpt>
      <trkpt lat="47.44711" lon="6.63976">
        <ele>297.2</ele>
        <time>2015-08-31T07:02:08Z</time>
      </trkpt>
      <trkpt lat="47.44711" lon="6.63969">
        <ele>297.2</ele>
        <time>2015-08-31T07:02:09Z</time>
      </trkpt>
      <trkpt lat="47.4471" lon="6.63962">
        <ele>297.2</ele>
        <time>2015-08-31T07:02:10Z</time>
      </trkpt>
      <trkpt lat="47.44709" lon="6.63955">
        <ele>297.2</ele>
        <time>2015-08-31T07:02:11Z</time>
      </trkpt>
      <trkpt lat="47.44708" lon="6.63947">
        <ele>297.2</ele>
        <time>2015-08-31T07:02:12Z</time>
      </trkpt>
      <trkpt lat="47.44708" lon="6.6394">
        <ele>297.3</ele>
        <time>2015-08-31T07:02:13Z</time>
      </trkpt>
      <trkpt lat="47.44707" lon="6.63932">
        <ele>297.4</ele>
        <time>2015-08-31T07:02:14Z</time>
      </trkpt>
      <trkpt lat="47.44706" lon="6.63925">
        <ele>297.4</ele>
        <time>2015-08-31T07:02:15Z</time>
      </trkpt>
      <trkpt lat="47.44706" lon="6.63917">
        <ele>297.5</ele>
        <time>2015-08-31T07:02:16Z</time>
      </trkpt>
      <trkpt lat="47.44705" lon="6.6391">
        <ele>297.5</ele>
        <time>2015-08-31T07:02:17Z</time>
      </trkpt>
      <trkpt lat="47.44705" lon="6.63902">
        <ele>297.4</ele>
        <time>2015-08-31T07:02:18Z</time>
      </trkpt>
      <trkpt lat="47.44705" lon="6.63894">
        <ele>297.3</ele>
        <time>2015-08-31T07:02:19Z</time>
      </trkpt>
      <trkpt lat="47.44704" lon="6.63887">
        <ele>297.2</ele>
        <time>2015-08-31T07:02:20Z</time>
      </trkpt>
      <trkpt lat="47.44704" lon="6.6388">
        <ele>297.2</ele>
        <time>2015-08-31T07:02:21Z</time>
      </trkpt>
      <trkpt lat="47.44703" lon="6.63873">
        <ele>297.1</ele>
        <time>2015-08-31T07:02:22Z</time>
      </trkpt>
      <trkpt lat="47.44702" lon="6.63866">
        <ele>297.1</ele>
        <time>2015-08-31T07:02:23Z</time>
      </trkpt>
      <trkpt lat="47.44702" lon="6.63859">
        <ele>297.2</ele>
        <time>2015-08-31T07:02:24Z</time>
      </trkpt>
      <trkpt lat="47.44701" lon="6.63852">
        <ele>297.4</ele>
        <time>2015-08-31T07:02:25Z</time>
      </trkpt>
      <trkpt lat="47.44701" lon="6.63846">
        <ele>297.7</ele>
        <time>2015-08-31T07:02:26Z</time>
      </trkpt>
      <trkpt lat="47.44701" lon="6.63839">
        <ele>298.1</ele>
        <time>2015-08-31T07:02:27Z</time>
      </trkpt>
      <trkpt lat="47.44701" lon="6.63832">
        <ele>298.4</ele>
        <time>2015-08-31T07:02:28Z</time>
      </trkpt>
      <trkpt lat="47.447" lon="6.63825">
        <ele>298.7</ele>
        <time>2015-08-31T07:02:29Z</time>
      </trkpt>
      <trkpt lat="47.447" lon="6.63818">
        <ele>299</ele>
        <time>2015-08-31T07:02:30Z</time>
      </trkpt>
      <trkpt lat="47.44699" lon="6.63811">
        <ele>299</ele>
        <time>2015-08-31T07:02:31Z</time>
      </trkpt>
      <trkpt lat="47.44699" lon="6.63804">
        <ele>299.1</ele>
        <time>2015-08-31T07:02:32Z</time>
      </trkpt>
      <trkpt lat="47.44698" lon="6.63797">
        <ele>298.8</ele>
        <time>2015-08-31T07:02:33Z</time>
      </trkpt>
      <trkpt lat="47.44698" lon="6.6379">
        <ele>298.8</ele>
        <time>2015-08-31T07:02:34Z</time>
      </trkpt>
      <trkpt lat="47.44698" lon="6.63783">
        <ele>298.8</ele>
        <time>2015-08-31T07:02:35Z</time>
      </trkpt>
      <trkpt lat="47.44697" lon="6.63776">
        <ele>298.8</ele>
        <time>2015-08-31T07:02:36Z</time>
      </trkpt>
      <trkpt lat="47.44697" lon="6.63768">
        <ele>298.5</ele>
        <time>2015-08-31T07:02:37Z</time>
      </trkpt>
      <trkpt lat="47.44696" lon="6.63761">
        <ele>298.5</ele>
        <time>2015-08-31T07:02:38Z</time>
      </trkpt>
      <trkpt lat="47.44696" lon="6.63754">
        <ele>298.5</ele>
        <time>2015-08-31T07:02:39Z</time>
      </trkpt>
      <trkpt lat="47.44695" lon="6.63747">
        <ele>298.6</ele>
        <time>2015-08-31T07:02:40Z</time>
      </trkpt>
      <trkpt lat="47.44694" lon="6.6374">
        <ele>298.8</ele>
        <time>2015-08-31T07:02:41Z</time>
      </trkpt>
      <trkpt lat="47.44693" lon="6.63733">
        <ele>298.9</ele>
        <time>2015-08-31T07:02:42Z</time>
      </trkpt>
      <trkpt lat="47.44692" lon="6.63726">
        <ele>298.9</ele>
        <time>2015-08-31T07:02:43Z</time>
      </trkpt>
      <trkpt lat="47.44692" lon="6.63719">
        <ele>299</ele>
        <time>2015-08-31T07:02:44Z</time>
      </trkpt>
      <trkpt lat="47.44691" lon="6.63711">
        <ele>299</ele>
        <time>2015-08-31T07:02:45Z</time>
      </trkpt>
      <trkpt lat="47.44691" lon="6.63704">
        <ele>299.1</ele>
        <time>2015-08-31T07:02:46Z</time>
      </trkpt>
      <trkpt lat="47.4469" lon="6.63697">
        <ele>299.1</ele>
        <time>2015-08-31T07:02:47Z</time>
      </trkpt>
      <trkpt lat="47.4469" lon="6.6369">
        <ele>299.2</ele>
        <time>2015-08-31T07:02:48Z</time>
      </trkpt>
      <trkpt lat="47.44689" lon="6.63683">
        <ele>299.3</ele>
        <time>2015-08-31T07:02:49Z</time>
      </trkpt>
      <trkpt lat="47.44688" lon="6.63676">
        <ele>299.3</ele>
        <time>2015-08-31T07:02:50Z</time>
      </trkpt>
      <trkpt lat="47.44688" lon="6.63669">
        <ele>299.3</ele>
        <time>2015-08-31T07:02:51Z</time>
      </trkpt>
      <trkpt lat="47.44687" lon="6.63662">
        <ele>299.2</ele>
        <time>2015-08-31T07:02:52Z</time>
      </trkpt>
      <trkpt lat="47.44686" lon="6.63655">
        <ele>299.1</ele>
        <time>2015-08-31T07:02:53Z</time>
      </trkpt>
      <trkpt lat="47.44686" lon="6.63648">
        <ele>299.1</ele>
        <time>2015-08-31T07:02:54Z</time>
      </trkpt>
      <trkpt lat="47.44685" lon="6.63641">
        <ele>299.1</ele>
        <time>2015-08-31T07:02:55Z</time>
      </trkpt>
      <trkpt lat="47.44685" lon="6.63634">
        <ele>299.1</ele>
        <time>2015-08-31T07:02:56Z</time>
      </trkpt>
      <trkpt lat="47.44684" lon="6.63626">
        <ele>299</ele>
        <time>2015-08-31T07:02:57Z</time>
      </trkpt>
      <trkpt lat="47.44683" lon="6.63619">
        <ele>299</ele>
        <time>2015-08-31T07:02:58Z</time>
      </trkpt>
      <trkpt lat="47.44683" lon="6.63612">
        <ele>299.2</ele>
        <time>2015-08-31T07:02:59Z</time>
      </trkpt>
      <trkpt lat="47.44682" lon="6.63605">
        <ele>299.5</ele>
        <time>2015-08-31T07:03:00Z</time>
      </trkpt>
      <trkpt lat="47.44682" lon="6.63598">
        <ele>299.8</ele>
        <time>2015-08-31T07:03:01Z</time>
      </trkpt>
      <trkpt lat="47.44682" lon="6.63591">
        <ele>300.1</ele>
        <time>2015-08-31T07:03:02Z</time>
      </trkpt>
      <trkpt lat="47.44681" lon="6.63583">
        <ele>300.4</ele>
        <time>2015-08-31T07:03:03Z</time>
      </trkpt>
      <trkpt lat="47.44681" lon="6.63576">
        <ele>300.5</ele>
        <time>2015-08-31T07:03:04Z</time>
      </trkpt>
      <trkpt lat="47.4468" lon="6.63569">
        <ele>300.4</ele>
        <time>2015-08-31T07:03:05Z</time>
      </trkpt>
      <trkpt lat="47.4468" lon="6.63561">
        <ele>300.5</ele>
        <time>2015-08-31T07:03:06Z</time>
      </trkpt>
      <trkpt lat="47.44679" lon="6.63554">
        <ele>300.5</ele>
        <time>2015-08-31T07:03:07Z</time>
      </trkpt>
      <trkpt lat="47.44679" lon="6.63547">
        <ele>300.6</ele>
        <time>2015-08-31T07:03:08Z</time>
      </trkpt>
      <trkpt lat="47.44678" lon="6.63539">
        <ele>300.5</ele>
        <time>2015-08-31T07:03:09Z</time>
      </trkpt>
      <trkpt lat="47.44678" lon="6.63532">
        <ele>300.4</ele>
        <time>2015-08-31T07:03:10Z</time>
      </trkpt>
      <trkpt lat="47.44677" lon="6.63525">
        <ele>300.3</ele>
        <time>2015-08-31T07:03:11Z</time>
      </trkpt>
      <trkpt lat="47.44676" lon="6.63518">
        <ele>300.2</ele>
        <time>2015-08-31T07:03:12Z</time>
      </trkpt>
      <trkpt lat="47.44676" lon="6.6351">
        <ele>300.2</ele>
        <time>2015-08-31T07:03:13Z</time>
      </trkpt>
      <trkpt lat="47.44675" lon="6.63503">
        <ele>299.9</ele>
        <time>2015-08-31T07:03:14Z</time>
      </trkpt>
      <trkpt lat="47.44674" lon="6.63495">
        <ele>300</ele>
        <time>2015-08-31T07:03:15Z</time>
      </trkpt>
      <trkpt lat="47.44674" lon="6.63488">
        <ele>300.4</ele>
        <time>2015-08-31T07:03:16Z</time>
      </trkpt>
      <trkpt lat="47.44673" lon="6.63481">
        <ele>300.6</ele>
        <time>2015-08-31T07:03:17Z</time>
      </trkpt>
      <trkpt lat="47.44673" lon="6.63474">
        <ele>300.9</ele>
        <time>2015-08-31T07:03:18Z</time>
      </trkpt>
      <trkpt lat="47.44672" lon="6.63466">
        <ele>301</ele>
        <time>2015-08-31T07:03:19Z</time>
      </trkpt>
      <trkpt lat="47.44672" lon="6.63459">
        <ele>301.2</ele>
        <time>2015-08-31T07:03:20Z</time>
      </trkpt>
      <trkpt lat="47.44671" lon="6.63452">
        <ele>301.2</ele>
        <time>2015-08-31T07:03:21Z</time>
      </trkpt>
      <trkpt lat="47.44671" lon="6.63445">
        <ele>301.1</ele>
        <time>2015-08-31T07:03:22Z</time>
      </trkpt>
      <trkpt lat="47.44671" lon="6.63438">
        <ele>301</ele>
        <time>2015-08-31T07:03:23Z</time>
      </trkpt>
      <trkpt lat="47.4467" lon="6.63431">
        <ele>301</ele>
        <time>2015-08-31T07:03:24Z</time>
      </trkpt>
      <trkpt lat="47.4467" lon="6.63424">
        <ele>300.9</ele>
        <time>2015-08-31T07:03:25Z</time>
      </trkpt>
      <trkpt lat="47.44669" lon="6.63417">
        <ele>300.8</ele>
        <time>2015-08-31T07:03:26Z</time>
      </trkpt>
      <trkpt lat="47.44669" lon="6.6341">
        <ele>300.7</ele>
        <time>2015-08-31T07:03:27Z</time>
      </trkpt>
      <trkpt lat="47.44668" lon="6.63403">
        <ele>300.5</ele>
        <time>2015-08-31T07:03:28Z</time>
      </trkpt>
      <trkpt lat="47.44668" lon="6.63396">
        <ele>300.5</ele>
        <time>2015-08-31T07:03:29Z</time>
      </trkpt>
      <trkpt lat="47.44667" lon="6.63389">
        <ele>300.4</ele>
        <time>2015-08-31T07:03:30Z</time>
      </trkpt>
      <trkpt lat="47.44667" lon="6.63382">
        <ele>300.2</ele>
        <time>2015-08-31T07:03:31Z</time>
      </trkpt>
      <trkpt lat="47.44666" lon="6.63375">
        <ele>300.1</ele>
        <time>2015-08-31T07:03:32Z</time>
      </trkpt>
      <trkpt lat="47.44666" lon="6.63368">
        <ele>300</ele>
        <time>2015-08-31T07:03:33Z</time>
      </trkpt>
      <trkpt lat="47.44665" lon="6.63361">
        <ele>299.9</ele>
        <time>2015-08-31T07:03:34Z</time>
      </trkpt>
      <trkpt lat="47.44665" lon="6.63354">
        <ele>299.8</ele>
        <time>2015-08-31T07:03:35Z</time>
      </trkpt>
      <trkpt lat="47.44665" lon="6.63347">
        <ele>299.6</ele>
        <time>2015-08-31T07:03:36Z</time>
      </trkpt>
      <trkpt lat="47.44664" lon="6.63341">
        <ele>299.5</ele>
        <time>2015-08-31T07:03:37Z</time>
      </trkpt>
      <trkpt lat="47.44664" lon="6.63334">
        <ele>299.5</ele>
        <time>2015-08-31T07:03:38Z</time>
      </trkpt>
      <trkpt lat="47.44663" lon="6.63326">
        <ele>299.5</ele>
        <time>2015-08-31T07:03:39Z</time>
      </trkpt>
      <trkpt lat="47.44662" lon="6.63319">
        <ele>299.4</ele>
        <time>2015-08-31T07:03:40Z</time>
      </trkpt>
      <trkpt lat="47.44662" lon="6.63312">
        <ele>299.6</ele>
        <time>2015-08-31T07:03:41Z</time>
      </trkpt>
      <trkpt lat="47.44661" lon="6.63305">
        <ele>300</ele>
        <time>2015-08-31T07:03:42Z</time>
      </trkpt>
      <trkpt lat="47.44661" lon="6.63298">
        <ele>300</ele>
        <time>2015-08-31T07:03:43Z</time>
      </trkpt>
      <trkpt lat="47.44661" lon="6.63291">
        <ele>299.9</ele>
        <time>2015-08-31T07:03:44Z</time>
      </trkpt>
      <trkpt lat="47.4466" lon="6.63283">
        <ele>299.8</ele>
        <time>2015-08-31T07:03:45Z</time>
      </trkpt>
      <trkpt lat="47.4466" lon="6.63276">
        <ele>299.9</ele>
        <time>2015-08-31T07:03:46Z</time>
      </trkpt>
      <trkpt lat="47.4466" lon="6.6327">
        <ele>299.8</ele>
        <time>2015-08-31T07:03:47Z</time>
      </trkpt>
      <trkpt lat="47.4466" lon="6.63263">
        <ele>299.7</ele>
        <time>2015-08-31T07:03:48Z</time>
      </trkpt>
      <trkpt lat="47.44659" lon="6.63256">
        <ele>299.6</ele>
        <time>2015-08-31T07:03:49Z</time>
      </trkpt>
      <trkpt lat="47.44659" lon="6.63249">
        <ele>299.5</ele>
        <time>2015-08-31T07:03:50Z</time>
      </trkpt>
      <trkpt lat="47.44658" lon="6.63242">
        <ele>299.4</ele>
        <time>2015-08-31T07:03:51Z</time>
      </trkpt>
      <trkpt lat="47.44658" lon="6.63234">
        <ele>299.4</ele>
        <time>2015-08-31T07:03:52Z</time>
      </trkpt>
      <trkpt lat="47.44657" lon="6.63227">
        <ele>299.3</ele>
        <time>2015-08-31T07:03:53Z</time>
      </trkpt>
      <trkpt lat="47.44656" lon="6.6322">
        <ele>299.2</ele>
        <time>2015-08-31T07:03:54Z</time>
      </trkpt>
      <trkpt lat="47.44656" lon="6.63213">
        <ele>299.1</ele>
        <time>2015-08-31T07:03:55Z</time>
      </trkpt>
      <trkpt lat="47.44655" lon="6.63206">
        <ele>299</ele>
        <time>2015-08-31T07:03:56Z</time>
      </trkpt>
      <trkpt lat="47.44654" lon="6.63198">
        <ele>299</ele>
        <time>2015-08-31T07:03:57Z</time>
      </trkpt>
      <trkpt lat="47.44654" lon="6.63191">
        <ele>298.9</ele>
        <time>2015-08-31T07:03:58Z</time>
      </trkpt>
      <trkpt lat="47.44653" lon="6.63184">
        <ele>299.1</ele>
        <time>2015-08-31T07:03:59Z</time>
      </trkpt>
      <trkpt lat="47.44652" lon="6.63177">
        <ele>299.1</ele>
        <time>2015-08-31T07:04:00Z</time>
      </trkpt>
      <trkpt lat="47.44652" lon="6.63169">
        <ele>299.2</ele>
        <time>2015-08-31T07:04:01Z</time>
      </trkpt>
      <trkpt lat="47.44651" lon="6.63162">
        <ele>299.2</ele>
        <time>2015-08-31T07:04:02Z</time>
      </trkpt>
      <trkpt lat="47.4465" lon="6.63155">
        <ele>299.1</ele>
        <time>2015-08-31T07:04:03Z</time>
      </trkpt>
      <trkpt lat="47.44648" lon="6.63148">
        <ele>299.3</ele>
        <time>2015-08-31T07:04:04Z</time>
      </trkpt>
      <trkpt lat="47.44646" lon="6.63141">
        <ele>299.3</ele>
        <time>2015-08-31T07:04:05Z</time>
      </trkpt>
      <trkpt lat="47.44643" lon="6.63135">
        <ele>299.3</ele>
        <time>2015-08-31T07:04:06Z</time>
      </trkpt>
      <trkpt lat="47.4464" lon="6.63129">
        <ele>299.5</ele>
        <time>2015-08-31T07:04:07Z</time>
      </trkpt>
      <trkpt lat="47.44637" lon="6.63123">
        <ele>299.5</ele>
        <time>2015-08-31T07:04:08Z</time>
      </trkpt>
      <trkpt lat="47.44634" lon="6.63117">
        <ele>299.6</ele>
        <time>2015-08-31T07:04:09Z</time>
      </trkpt>
      <trkpt lat="47.44631" lon="6.63111">
        <ele>299.4</ele>
        <time>2015-08-31T07:04:10Z</time>
      </trkpt>
      <trkpt lat="47.44627" lon="6.63106">
        <ele>299.4</ele>
        <time>2015-08-31T07:04:11Z</time>
      </trkpt>
      <trkpt lat="47.44624" lon="6.631">
        <ele>299.4</ele>
        <time>2015-08-31T07:04:12Z</time>
      </trkpt>
      <trkpt lat="47.4462" lon="6.63095">
        <ele>299.4</ele>
        <time>2015-08-31T07:04:13Z</time>
      </trkpt>
      <trkpt lat="47.44616" lon="6.6309">
        <ele>299.3</ele>
        <time>2015-08-31T07:04:14Z</time>
      </trkpt>
      <trkpt lat="47.44613" lon="6.63086">
        <ele>299.1</ele>
        <time>2015-08-31T07:04:15Z</time>
      </trkpt>
      <trkpt lat="47.44609" lon="6.63082">
        <ele>299</ele>
        <time>2015-08-31T07:04:16Z</time>
      </trkpt>
      <trkpt lat="47.44605" lon="6.63079">
        <ele>298.7</ele>
        <time>2015-08-31T07:04:17Z</time>
      </trkpt>
      <trkpt lat="47.44601" lon="6.63075">
        <ele>298.3</ele>
        <time>2015-08-31T07:04:18Z</time>
      </trkpt>
      <trkpt lat="47.44597" lon="6.63071">
        <ele>298.1</ele>
        <time>2015-08-31T07:04:19Z</time>
      </trkpt>
      <trkpt lat="47.44593" lon="6.63067">
        <ele>297.9</ele>
        <time>2015-08-31T07:04:20Z</time>
      </trkpt>
      <trkpt lat="47.44589" lon="6.63063">
        <ele>297.8</ele>
        <time>2015-08-31T07:04:21Z</time>
      </trkpt>
      <trkpt lat="47.44586" lon="6.63061">
        <ele>297.8</ele>
        <time>2015-08-31T07:04:22Z</time>
      </trkpt>
      <trkpt lat="47.44583" lon="6.6306">
        <ele>297.7</ele>
        <time>2015-08-31T07:04:23Z</time>
      </trkpt>
      <trkpt lat="47.44579" lon="6.63059">
        <ele>297.3</ele>
        <time>2015-08-31T07:04:24Z</time>
      </trkpt>
      <trkpt lat="47.44575" lon="6.63059">
        <ele>297.3</ele>
        <time>2015-08-31T07:04:25Z</time>
      </trkpt>
      <trkpt lat="47.4457" lon="6.63059">
        <ele>297.3</ele>
        <time>2015-08-31T07:04:26Z</time>
      </trkpt>
      <trkpt lat="47.44565" lon="6.63059">
        <ele>297.3</ele>
        <time>2015-08-31T07:04:27Z</time>
      </trkpt>
      <trkpt lat="47.44561" lon="6.63057">
        <ele>297.2</ele>
        <time>2015-08-31T07:04:28Z</time>
      </trkpt>
      <trkpt lat="47.44556" lon="6.63054">
        <ele>297.2</ele>
        <time>2015-08-31T07:04:29Z</time>
      </trkpt>
      <trkpt lat="47.44552" lon="6.63052">
        <ele>297.3</ele>
        <time>2015-08-31T07:04:30Z</time>
      </trkpt>
      <trkpt lat="47.44547" lon="6.63049">
        <ele>297.4</ele>
        <time>2015-08-31T07:04:31Z</time>
      </trkpt>
      <trkpt lat="47.44543" lon="6.63047">
        <ele>297.4</ele>
        <time>2015-08-31T07:04:32Z</time>
      </trkpt>
      <trkpt lat="47.44539" lon="6.63045">
        <ele>297.3</ele>
        <time>2015-08-31T07:04:33Z</time>
      </trkpt>
      <trkpt lat="47.44535" lon="6.63043">
        <ele>297.3</ele>
        <time>2015-08-31T07:04:34Z</time>
      </trkpt>
      <trkpt lat="47.44531" lon="6.6304">
        <ele>297.2</ele>
        <time>2015-08-31T07:04:35Z</time>
      </trkpt>
      <trkpt lat="47.44527" lon="6.63039">
        <ele>297.2</ele>
        <time>2015-08-31T07:04:36Z</time>
      </trkpt>
      <trkpt lat="47.44522" lon="6.63037">
        <ele>297.3</ele>
        <time>2015-08-31T07:04:37Z</time>
      </trkpt>
      <trkpt lat="47.44518" lon="6.63035">
        <ele>297.3</ele>
        <time>2015-08-31T07:04:38Z</time>
      </trkpt>
      <trkpt lat="47.44513" lon="6.63033">
        <ele>297.2</ele>
        <time>2015-08-31T07:04:39Z</time>
      </trkpt>
      <trkpt lat="47.44509" lon="6.63031">
        <ele>297.1</ele>
        <time>2015-08-31T07:04:40Z</time>
      </trkpt>
      <trkpt lat="47.44504" lon="6.63029">
        <ele>296.8</ele>
        <time>2015-08-31T07:04:41Z</time>
      </trkpt>
      <trkpt lat="47.44499" lon="6.63026">
        <ele>296.3</ele>
        <time>2015-08-31T07:04:42Z</time>
      </trkpt>
      <trkpt lat="47.44494" lon="6.63024">
        <ele>295.9</ele>
        <time>2015-08-31T07:04:43Z</time>
      </trkpt>
      <trkpt lat="47.44489" lon="6.63022">
        <ele>295.7</ele>
        <time>2015-08-31T07:04:44Z</time>
      </trkpt>
      <trkpt lat="47.44484" lon="6.63019">
        <ele>295.5</ele>
        <time>2015-08-31T07:04:45Z</time>
      </trkpt>
      <trkpt lat="47.4448" lon="6.63017">
        <ele>295</ele>
        <time>2015-08-31T07:04:46Z</time>
      </trkpt>
      <trkpt lat="47.44473" lon="6.63016">
        <ele>295.1</ele>
        <time>2015-08-31T07:04:47Z</time>
      </trkpt>
      <trkpt lat="47.44467" lon="6.63014">
        <ele>295.1</ele>
        <time>2015-08-31T07:04:48Z</time>
      </trkpt>
      <trkpt lat="47.44463" lon="6.63011">
        <ele>295.1</ele>
        <time>2015-08-31T07:04:49Z</time>
      </trkpt>
      <trkpt lat="47.44458" lon="6.63009">
        <ele>295</ele>
        <time>2015-08-31T07:04:50Z</time>
      </trkpt>
      <trkpt lat="47.44453" lon="6.63007">
        <ele>295.3</ele>
        <time>2015-08-31T07:04:51Z</time>
      </trkpt>
      <trkpt lat="47.44449" lon="6.63004">
        <ele>295.3</ele>
        <time>2015-08-31T07:04:52Z</time>
      </trkpt>
      <trkpt lat="47.44444" lon="6.63002">
        <ele>295.1</ele>
        <time>2015-08-31T07:04:53Z</time>
      </trkpt>
      <trkpt lat="47.4444" lon="6.63">
        <ele>295.3</ele>
        <time>2015-08-31T07:04:54Z</time>
      </trkpt>
      <trkpt lat="47.44435" lon="6.62997">
        <ele>295.4</ele>
        <time>2015-08-31T07:04:55Z</time>
      </trkpt>
      <trkpt lat="47.44431" lon="6.62995">
        <ele>295.4</ele>
        <time>2015-08-31T07:04:56Z</time>
      </trkpt>
      <trkpt lat="47.44426" lon="6.62993">
        <ele>295.6</ele>
        <time>2015-08-31T07:04:57Z</time>
      </trkpt>
      <trkpt lat="47.44421" lon="6.6299">
        <ele>295.7</ele>
        <time>2015-08-31T07:04:58Z</time>
      </trkpt>
      <trkpt lat="47.44417" lon="6.62988">
        <ele>296</ele>
        <time>2015-08-31T07:04:59Z</time>
      </trkpt>
      <trkpt lat="47.44413" lon="6.62986">
        <ele>296.1</ele>
        <time>2015-08-31T07:05:00Z</time>
      </trkpt>
      <trkpt lat="47.44408" lon="6.62984">
        <ele>296.3</ele>
        <time>2015-08-31T07:05:01Z</time>
      </trkpt>
      <trkpt lat="47.44404" lon="6.62981">
        <ele>296.5</ele>
        <time>2015-08-31T07:05:02Z</time>
      </trkpt>
      <trkpt lat="47.44399" lon="6.62979">
        <ele>296.7</ele>
        <time>2015-08-31T07:05:03Z</time>
      </trkpt>
      <trkpt lat="47.44395" lon="6.62976">
        <ele>296.8</ele>
        <time>2015-08-31T07:05:04Z</time>
      </trkpt>
      <trkpt lat="47.4439" lon="6.62974">
        <ele>297</ele>
        <time>2015-08-31T07:05:05Z</time>
      </trkpt>
      <trkpt lat="47.44386" lon="6.62971">
        <ele>297.1</ele>
        <time>2015-08-31T07:05:06Z</time>
      </trkpt>
      <trkpt lat="47.44381" lon="6.62969">
        <ele>297.4</ele>
        <time>2015-08-31T07:05:07Z</time>
      </trkpt>
      <trkpt lat="47.44377" lon="6.62967">
        <ele>297.7</ele>
        <time>2015-08-31T07:05:08Z</time>
      </trkpt>
      <trkpt lat="47.44372" lon="6.62965">
        <ele>297.9</ele>
        <time>2015-08-31T07:05:09Z</time>
      </trkpt>
      <trkpt lat="47.44368" lon="6.62962">
        <ele>298</ele>
        <time>2015-08-31T07:05:10Z</time>
      </trkpt>
      <trkpt lat="47.44363" lon="6.6296">
        <ele>298.2</ele>
        <time>2015-08-31T07:05:11Z</time>
      </trkpt>
      <trkpt lat="47.44359" lon="6.62958">
        <ele>298.3</ele>
        <time>2015-08-31T07:05:12Z</time>
      </trkpt>
      <trkpt lat="47.44354" lon="6.62955">
        <ele>298.5</ele>
        <time>2015-08-31T07:05:13Z</time>
      </trkpt>
      <trkpt lat="47.4435" lon="6.62953">
        <ele>298.8</ele>
        <time>2015-08-31T07:05:14Z</time>
      </trkpt>
      <trkpt lat="47.44345" lon="6.62951">
        <ele>299</ele>
        <time>2015-08-31T07:05:15Z</time>
      </trkpt>
      <trkpt lat="47.44341" lon="6.62948">
        <ele>299.1</ele>
        <time>2015-08-31T07:05:16Z</time>
      </trkpt>
      <trkpt lat="47.44336" lon="6.62945">
        <ele>299.3</ele>
        <time>2015-08-31T07:05:17Z</time>
      </trkpt>
      <trkpt lat="47.44332" lon="6.62941">
        <ele>299.5</ele>
        <time>2015-08-31T07:05:18Z</time>
      </trkpt>
      <trkpt lat="47.44327" lon="6.62939">
        <ele>299.7</ele>
        <time>2015-08-31T07:05:19Z</time>
      </trkpt>
      <trkpt lat="47.44323" lon="6.62936">
        <ele>300</ele>
        <time>2015-08-31T07:05:20Z</time>
      </trkpt>
      <trkpt lat="47.4432" lon="6.62934">
        <ele>300.4</ele>
        <time>2015-08-31T07:05:21Z</time>
      </trkpt>
      <trkpt lat="47.44315" lon="6.62931">
        <ele>300.8</ele>
        <time>2015-08-31T07:05:22Z</time>
      </trkpt>
      <trkpt lat="47.44311" lon="6.6293">
        <ele>301.1</ele>
        <time>2015-08-31T07:05:23Z</time>
      </trkpt>
      <trkpt lat="47.44307" lon="6.62928">
        <ele>301.3</ele>
        <time>2015-08-31T07:05:24Z</time>
      </trkpt>
      <trkpt lat="47.44302" lon="6.62926">
        <ele>301.5</ele>
        <time>2015-08-31T07:05:25Z</time>
      </trkpt>
      <trkpt lat="47.44297" lon="6.62924">
        <ele>301.5</ele>
        <time>2015-08-31T07:05:26Z</time>
      </trkpt>
      <trkpt lat="47.44292" lon="6.62922">
        <ele>301.6</ele>
        <time>2015-08-31T07:05:27Z</time>
      </trkpt>
      <trkpt lat="47.44287" lon="6.62921">
        <ele>301.7</ele>
        <time>2015-08-31T07:05:28Z</time>
      </trkpt>
      <trkpt lat="47.44283" lon="6.62919">
        <ele>301.7</ele>
        <time>2015-08-31T07:05:29Z</time>
      </trkpt>
      <trkpt lat="47.44277" lon="6.62918">
        <ele>301.5</ele>
        <time>2015-08-31T07:05:30Z</time>
      </trkpt>
      <trkpt lat="47.44272" lon="6.62917">
        <ele>301.3</ele>
        <time>2015-08-31T07:05:31Z</time>
      </trkpt>
      <trkpt lat="47.44267" lon="6.62915">
        <ele>301.1</ele>
        <time>2015-08-31T07:05:32Z</time>
      </trkpt>
      <trkpt lat="47.44262" lon="6.62914">
        <ele>300.8</ele>
        <time>2015-08-31T07:05:33Z</time>
      </trkpt>
      <trkpt lat="47.44257" lon="6.62912">
        <ele>300.5</ele>
        <time>2015-08-31T07:05:34Z</time>
      </trkpt>
      <trkpt lat="47.44252" lon="6.6291">
        <ele>300</ele>
        <time>2015-08-31T07:05:35Z</time>
      </trkpt>
      <trkpt lat="47.44247" lon="6.62909">
        <ele>299.8</ele>
        <time>2015-08-31T07:05:36Z</time>
      </trkpt>
      <trkpt lat="47.44242" lon="6.62908">
        <ele>299.8</ele>
        <time>2015-08-31T07:05:37Z</time>
      </trkpt>
      <trkpt lat="47.44237" lon="6.62906">
        <ele>299.8</ele>
        <time>2015-08-31T07:05:38Z</time>
      </trkpt>
      <trkpt lat="47.44233" lon="6.62905">
        <ele>299.7</ele>
        <time>2015-08-31T07:05:39Z</time>
      </trkpt>
      <trkpt lat="47.44228" lon="6.62903">
        <ele>299.4</ele>
        <time>2015-08-31T07:05:40Z</time>
      </trkpt>
      <trkpt lat="47.44223" lon="6.62902">
        <ele>299.2</ele>
        <time>2015-08-31T07:05:41Z</time>
      </trkpt>
      <trkpt lat="47.44219" lon="6.629">
        <ele>299</ele>
        <time>2015-08-31T07:05:42Z</time>
      </trkpt>
      <trkpt lat="47.44214" lon="6.62899">
        <ele>298.8</ele>
        <time>2015-08-31T07:05:43Z</time>
      </trkpt>
      <trkpt lat="47.44209" lon="6.62897">
        <ele>298.6</ele>
        <time>2015-08-31T07:05:44Z</time>
      </trkpt>
      <trkpt lat="47.44204" lon="6.62896">
        <ele>298.5</ele>
        <time>2015-08-31T07:05:45Z</time>
      </trkpt>
      <trkpt lat="47.44199" lon="6.62896">
        <ele>298.3</ele>
        <time>2015-08-31T07:05:46Z</time>
      </trkpt>
      <trkpt lat="47.44194" lon="6.62895">
        <ele>297.9</ele>
        <time>2015-08-31T07:05:47Z</time>
      </trkpt>
      <trkpt lat="47.44189" lon="6.62895">
        <ele>297.4</ele>
        <time>2015-08-31T07:05:48Z</time>
      </trkpt>
      <trkpt lat="47.44184" lon="6.62895">
        <ele>297</ele>
        <time>2015-08-31T07:05:49Z</time>
      </trkpt>
      <trkpt lat="47.44179" lon="6.62897">
        <ele>296.5</ele>
        <time>2015-08-31T07:05:50Z</time>
      </trkpt>
      <trkpt lat="47.44174" lon="6.62897">
        <ele>296.1</ele>
        <time>2015-08-31T07:05:51Z</time>
      </trkpt>
      <trkpt lat="47.4417" lon="6.62897">
        <ele>295.9</ele>
        <time>2015-08-31T07:05:52Z</time>
      </trkpt>
      <trkpt lat="47.44165" lon="6.62896">
        <ele>295.7</ele>
        <time>2015-08-31T07:05:53Z</time>
      </trkpt>
      <trkpt lat="47.4416" lon="6.62895">
        <ele>295.5</ele>
        <time>2015-08-31T07:05:54Z</time>
      </trkpt>
      <trkpt lat="47.44156" lon="6.62893">
        <ele>295.5</ele>
        <time>2015-08-31T07:05:55Z</time>
      </trkpt>
      <trkpt lat="47.44151" lon="6.62891">
        <ele>295.3</ele>
        <time>2015-08-31T07:05:56Z</time>
      </trkpt>
      <trkpt lat="47.44147" lon="6.62889">
        <ele>295.3</ele>
        <time>2015-08-31T07:05:57Z</time>
      </trkpt>
      <trkpt lat="47.44142" lon="6.62887">
        <ele>295.8</ele>
        <time>2015-08-31T07:05:58Z</time>
      </trkpt>
      <trkpt lat="47.44138" lon="6.62885">
        <ele>295.9</ele>
        <time>2015-08-31T07:05:59Z</time>
      </trkpt>
      <trkpt lat="47.44133" lon="6.62884">
        <ele>295.8</ele>
        <time>2015-08-31T07:06:00Z</time>
      </trkpt>
      <trkpt lat="47.44128" lon="6.62883">
        <ele>295.7</ele>
        <time>2015-08-31T07:06:01Z</time>
      </trkpt>
      <trkpt lat="47.44124" lon="6.62882">
        <ele>295.8</ele>
        <time>2015-08-31T07:06:02Z</time>
      </trkpt>
      <trkpt lat="47.44119" lon="6.6288">
        <ele>295.7</ele>
        <time>2015-08-31T07:06:03Z</time>
      </trkpt>
      <trkpt lat="47.44114" lon="6.62879">
        <ele>295.8</ele>
        <time>2015-08-31T07:06:04Z</time>
      </trkpt>
      <trkpt lat="47.4411" lon="6.62877">
        <ele>296.1</ele>
        <time>2015-08-31T07:06:05Z</time>
      </trkpt>
      <trkpt lat="47.44105" lon="6.62876">
        <ele>296.1</ele>
        <time>2015-08-31T07:06:06Z</time>
      </trkpt>
      <trkpt lat="47.441" lon="6.62874">
        <ele>295.9</ele>
        <time>2015-08-31T07:06:07Z</time>
      </trkpt>
      <trkpt lat="47.44096" lon="6.62872">
        <ele>295.9</ele>
        <time>2015-08-31T07:06:08Z</time>
      </trkpt>
      <trkpt lat="47.44092" lon="6.62869">
        <ele>295.9</ele>
        <time>2015-08-31T07:06:09Z</time>
      </trkpt>
      <trkpt lat="47.44088" lon="6.62866">
        <ele>296.1</ele>
        <time>2015-08-31T07:06:10Z</time>
      </trkpt>
      <trkpt lat="47.44083" lon="6.62862">
        <ele>296</ele>
        <time>2015-08-31T07:06:11Z</time>
      </trkpt>
      <trkpt lat="47.44079" lon="6.62858">
        <ele>296.2</ele>
        <time>2015-08-31T07:06:12Z</time>
      </trkpt>
      <trkpt lat="47.44075" lon="6.62854">
        <ele>296.7</ele>
        <time>2015-08-31T07:06:13Z</time>
      </trkpt>
      <trkpt lat="47.4407" lon="6.6285">
        <ele>297.2</ele>
        <time>2015-08-31T07:06:14Z</time>
      </trkpt>
      <trkpt lat="47.44066" lon="6.62848">
        <ele>297.2</ele>
        <time>2015-08-31T07:06:15Z</time>
      </trkpt>
      <trkpt lat="47.44061" lon="6.62847">
        <ele>297.4</ele>
        <time>2015-08-31T07:06:16Z</time>
      </trkpt>
      <trkpt lat="47.44056" lon="6.62845">
        <ele>297.6</ele>
        <time>2015-08-31T07:06:17Z</time>
      </trkpt>
      <trkpt lat="47.44052" lon="6.62843">
        <ele>297.8</ele>
        <time>2015-08-31T07:06:18Z</time>
      </trkpt>
      <trkpt lat="47.44046" lon="6.62842">
        <ele>297.8</ele>
        <time>2015-08-31T07:06:19Z</time>
      </trkpt>
      <trkpt lat="47.4404" lon="6.62841">
        <ele>297.8</ele>
        <time>2015-08-31T07:06:20Z</time>
      </trkpt>
      <trkpt lat="47.44035" lon="6.62839">
        <ele>297.6</ele>
        <time>2015-08-31T07:06:21Z</time>
      </trkpt>
      <trkpt lat="47.44029" lon="6.62837">
        <ele>297.6</ele>
        <time>2015-08-31T07:06:22Z</time>
      </trkpt>
      <trkpt lat="47.44024" lon="6.62836">
        <ele>297.5</ele>
        <time>2015-08-31T07:06:23Z</time>
      </trkpt>
      <trkpt lat="47.44019" lon="6.62834">
        <ele>297.4</ele>
        <time>2015-08-31T07:06:24Z</time>
      </trkpt>
      <trkpt lat="47.44015" lon="6.62832">
        <ele>297.2</ele>
        <time>2015-08-31T07:06:25Z</time>
      </trkpt>
      <trkpt lat="47.4401" lon="6.62831">
        <ele>296.8</ele>
        <time>2015-08-31T07:06:26Z</time>
      </trkpt>
      <trkpt lat="47.44005" lon="6.62829">
        <ele>296.5</ele>
        <time>2015-08-31T07:06:27Z</time>
      </trkpt>
      <trkpt lat="47.44" lon="6.62828">
        <ele>296.3</ele>
        <time>2015-08-31T07:06:28Z</time>
      </trkpt>
      <trkpt lat="47.43995" lon="6.62827">
        <ele>295.9</ele>
        <time>2015-08-31T07:06:29Z</time>
      </trkpt>
      <trkpt lat="47.4399" lon="6.62825">
        <ele>295.9</ele>
        <time>2015-08-31T07:06:30Z</time>
      </trkpt>
      <trkpt lat="47.43986" lon="6.62824">
        <ele>295.7</ele>
        <time>2015-08-31T07:06:31Z</time>
      </trkpt>
      <trkpt lat="47.43981" lon="6.62822">
        <ele>295.5</ele>
        <time>2015-08-31T07:06:32Z</time>
      </trkpt>
      <trkpt lat="47.43977" lon="6.62821">
        <ele>295</ele>
        <time>2015-08-31T07:06:33Z</time>
      </trkpt>
      <trkpt lat="47.43972" lon="6.62819">
        <ele>294.8</ele>
        <time>2015-08-31T07:06:34Z</time>
      </trkpt>
      <trkpt lat="47.43967" lon="6.62818">
        <ele>294.7</ele>
        <time>2015-08-31T07:06:35Z</time>
      </trkpt>
      <trkpt lat="47.43962" lon="6.62816">
        <ele>294.8</ele>
        <time>2015-08-31T07:06:36Z</time>
      </trkpt>
      <trkpt lat="47.43957" lon="6.62815">
        <ele>295.2</ele>
        <time>2015-08-31T07:06:37Z</time>
      </trkpt>
      <trkpt lat="47.43953" lon="6.62814">
        <ele>295.2</ele>
        <time>2015-08-31T07:06:38Z</time>
      </trkpt>
      <trkpt lat="47.43947" lon="6.62813">
        <ele>294.6</ele>
        <time>2015-08-31T07:06:39Z</time>
      </trkpt>
      <trkpt lat="47.43942" lon="6.62812">
        <ele>294.4</ele>
        <time>2015-08-31T07:06:40Z</time>
      </trkpt>
      <trkpt lat="47.43937" lon="6.62812">
        <ele>294.2</ele>
        <time>2015-08-31T07:06:41Z</time>
      </trkpt>
      <trkpt lat="47.43932" lon="6.62813">
        <ele>294.4</ele>
        <time>2015-08-31T07:06:42Z</time>
      </trkpt>
      <trkpt lat="47.43927" lon="6.62815">
        <ele>294.2</ele>
        <time>2015-08-31T07:06:43Z</time>
      </trkpt>
      <trkpt lat="47.43923" lon="6.62816">
        <ele>294.1</ele>
        <time>2015-08-31T07:06:44Z</time>
      </trkpt>
      <trkpt lat="47.43918" lon="6.62818">
        <ele>293.8</ele>
        <time>2015-08-31T07:06:45Z</time>
      </trkpt>
      <trkpt lat="47.43913" lon="6.6282">
        <ele>293.9</ele>
        <time>2015-08-31T07:06:46Z</time>
      </trkpt>
      <trkpt lat="47.43908" lon="6.62822">
        <ele>293.5</ele>
        <time>2015-08-31T07:06:47Z</time>
      </trkpt>
      <trkpt lat="47.43904" lon="6.62825">
        <ele>293.4</ele>
        <time>2015-08-31T07:06:48Z</time>
      </trkpt>
      <trkpt lat="47.43899" lon="6.62827">
        <ele>293.4</ele>
        <time>2015-08-31T07:06:49Z</time>
      </trkpt>
      <trkpt lat="47.43895" lon="6.6283">
        <ele>293.4</ele>
        <time>2015-08-31T07:06:50Z</time>
      </trkpt>
      <trkpt lat="47.4389" lon="6.62832">
        <ele>293.4</ele>
        <time>2015-08-31T07:06:51Z</time>
      </trkpt>
      <trkpt lat="47.43885" lon="6.62835">
        <ele>293.4</ele>
        <time>2015-08-31T07:06:52Z</time>
      </trkpt>
      <trkpt lat="47.43881" lon="6.62837">
        <ele>293.7</ele>
        <time>2015-08-31T07:06:53Z</time>
      </trkpt>
      <trkpt lat="47.43876" lon="6.6284">
        <ele>293.8</ele>
        <time>2015-08-31T07:06:54Z</time>
      </trkpt>
      <trkpt lat="47.43872" lon="6.62842">
        <ele>294</ele>
        <time>2015-08-31T07:06:55Z</time>
      </trkpt>
      <trkpt lat="47.43867" lon="6.62844">
        <ele>294.2</ele>
        <time>2015-08-31T07:06:56Z</time>
      </trkpt>
      <trkpt lat="47.43863" lon="6.62846">
        <ele>294.4</ele>
        <time>2015-08-31T07:06:57Z</time>
      </trkpt>
      <trkpt lat="47.43858" lon="6.62848">
        <ele>294.5</ele>
        <time>2015-08-31T07:06:58Z</time>
      </trkpt>
      <trkpt lat="47.43854" lon="6.62851">
        <ele>294.6</ele>
        <time>2015-08-31T07:06:59Z</time>
      </trkpt>
      <trkpt lat="47.43849" lon="6.62854">
        <ele>294.5</ele>
        <time>2015-08-31T07:07:00Z</time>
      </trkpt>
      <trkpt lat="47.43844" lon="6.62856">
        <ele>294.5</ele>
        <time>2015-08-31T07:07:01Z</time>
      </trkpt>
      <trkpt lat="47.4384" lon="6.6286">
        <ele>294.4</ele>
        <time>2015-08-31T07:07:02Z</time>
      </trkpt>
      <trkpt lat="47.43835" lon="6.62863">
        <ele>294.6</ele>
        <time>2015-08-31T07:07:03Z</time>
      </trkpt>
      <trkpt lat="47.43831" lon="6.62868">
        <ele>294.9</ele>
        <time>2015-08-31T07:07:04Z</time>
      </trkpt>
      <trkpt lat="47.43827" lon="6.62872">
        <ele>295.1</ele>
        <time>2015-08-31T07:07:05Z</time>
      </trkpt>
      <trkpt lat="47.43824" lon="6.62876">
        <ele>295.4</ele>
        <time>2015-08-31T07:07:06Z</time>
      </trkpt>
      <trkpt lat="47.4382" lon="6.6288">
        <ele>295.6</ele>
        <time>2015-08-31T07:07:07Z</time>
      </trkpt>
      <trkpt lat="47.43817" lon="6.62884">
        <ele>295.3</ele>
        <time>2015-08-31T07:07:08Z</time>
      </trkpt>
      <trkpt lat="47.43813" lon="6.62887">
        <ele>294.3</ele>
        <time>2015-08-31T07:07:09Z</time>
      </trkpt>
      <trkpt lat="47.43809" lon="6.6289">
        <ele>293.6</ele>
        <time>2015-08-31T07:07:10Z</time>
      </trkpt>
      <trkpt lat="47.43803" lon="6.62894">
        <ele>292.9</ele>
        <time>2015-08-31T07:07:11Z</time>
      </trkpt>
      <trkpt lat="47.43796" lon="6.62897">
        <ele>292.4</ele>
        <time>2015-08-31T07:07:12Z</time>
      </trkpt>
      <trkpt lat="47.43789" lon="6.62901">
        <ele>292.3</ele>
        <time>2015-08-31T07:07:13Z</time>
      </trkpt>
      <trkpt lat="47.43783" lon="6.62905">
        <ele>292.7</ele>
        <time>2015-08-31T07:07:14Z</time>
      </trkpt>
      <trkpt lat="47.43777" lon="6.62908">
        <ele>292.7</ele>
        <time>2015-08-31T07:07:15Z</time>
      </trkpt>
      <trkpt lat="47.43771" lon="6.62912">
        <ele>292.8</ele>
        <time>2015-08-31T07:07:16Z</time>
      </trkpt>
      <trkpt lat="47.43765" lon="6.62916">
        <ele>292.8</ele>
        <time>2015-08-31T07:07:17Z</time>
      </trkpt>
      <trkpt lat="47.4376" lon="6.6292">
        <ele>292.7</ele>
        <time>2015-08-31T07:07:18Z</time>
      </trkpt>
      <trkpt lat="47.43754" lon="6.62923">
        <ele>292.8</ele>
        <time>2015-08-31T07:07:19Z</time>
      </trkpt>
      <trkpt lat="47.43749" lon="6.62926">
        <ele>292.6</ele>
        <time>2015-08-31T07:07:20Z</time>
      </trkpt>
      <trkpt lat="47.43744" lon="6.6293">
        <ele>292.4</ele>
        <time>2015-08-31T07:07:21Z</time>
      </trkpt>
      <trkpt lat="47.43739" lon="6.62933">
        <ele>292.4</ele>
        <time>2015-08-31T07:07:22Z</time>
      </trkpt>
      <trkpt lat="47.43734" lon="6.62936">
        <ele>292.3</ele>
        <time>2015-08-31T07:07:23Z</time>
      </trkpt>
      <trkpt lat="47.43729" lon="6.6294">
        <ele>292.3</ele>
        <time>2015-08-31T07:07:24Z</time>
      </trkpt>
      <trkpt lat="47.43724" lon="6.62943">
        <ele>292.3</ele>
        <time>2015-08-31T07:07:25Z</time>
      </trkpt>
      <trkpt lat="47.43719" lon="6.62946">
        <ele>292.1</ele>
        <time>2015-08-31T07:07:26Z</time>
      </trkpt>
      <trkpt lat="47.43714" lon="6.62949">
        <ele>292.4</ele>
        <time>2015-08-31T07:07:27Z</time>
      </trkpt>
      <trkpt lat="47.43709" lon="6.62951">
        <ele>292.4</ele>
        <time>2015-08-31T07:07:28Z</time>
      </trkpt>
      <trkpt lat="47.43704" lon="6.62954">
        <ele>292.3</ele>
        <time>2015-08-31T07:07:29Z</time>
      </trkpt>
      <trkpt lat="47.43699" lon="6.62957">
        <ele>292.3</ele>
        <time>2015-08-31T07:07:30Z</time>
      </trkpt>
      <trkpt lat="47.43694" lon="6.6296">
        <ele>292.3</ele>
        <time>2015-08-31T07:07:31Z</time>
      </trkpt>
      <trkpt lat="47.43689" lon="6.62964">
        <ele>292.3</ele>
        <time>2015-08-31T07:07:32Z</time>
      </trkpt>
      <trkpt lat="47.43684" lon="6.62967">
        <ele>292.2</ele>
        <time>2015-08-31T07:07:33Z</time>
      </trkpt>
      <trkpt lat="47.43679" lon="6.6297">
        <ele>292.2</ele>
        <time>2015-08-31T07:07:34Z</time>
      </trkpt>
      <trkpt lat="47.43674" lon="6.62973">
        <ele>292.1</ele>
        <time>2015-08-31T07:07:35Z</time>
      </trkpt>
      <trkpt lat="47.4367" lon="6.62976">
        <ele>292</ele>
        <time>2015-08-31T07:07:36Z</time>
      </trkpt>
      <trkpt lat="47.43665" lon="6.62979">
        <ele>292</ele>
        <time>2015-08-31T07:07:37Z</time>
      </trkpt>
      <trkpt lat="47.4366" lon="6.62982">
        <ele>292.1</ele>
        <time>2015-08-31T07:07:38Z</time>
      </trkpt>
      <trkpt lat="47.43656" lon="6.62985">
        <ele>292.1</ele>
        <time>2015-08-31T07:07:39Z</time>
      </trkpt>
      <trkpt lat="47.43651" lon="6.62987">
        <ele>292.4</ele>
        <time>2015-08-31T07:07:40Z</time>
      </trkpt>
      <trkpt lat="47.43647" lon="6.6299">
        <ele>292.4</ele>
        <time>2015-08-31T07:07:41Z</time>
      </trkpt>
      <trkpt lat="47.43642" lon="6.62992">
        <ele>292.4</ele>
        <time>2015-08-31T07:07:42Z</time>
      </trkpt>
      <trkpt lat="47.43638" lon="6.62995">
        <ele>292.4</ele>
        <time>2015-08-31T07:07:43Z</time>
      </trkpt>
      <trkpt lat="47.43633" lon="6.62998">
        <ele>292.2</ele>
        <time>2015-08-31T07:07:44Z</time>
      </trkpt>
      <trkpt lat="47.43629" lon="6.63001">
        <ele>292</ele>
        <time>2015-08-31T07:07:45Z</time>
      </trkpt>
      <trkpt lat="47.43624" lon="6.63004">
        <ele>291.9</ele>
        <time>2015-08-31T07:07:46Z</time>
      </trkpt>
      <trkpt lat="47.4362" lon="6.63008">
        <ele>291.7</ele>
        <time>2015-08-31T07:07:47Z</time>
      </trkpt>
      <trkpt lat="47.43615" lon="6.63011">
        <ele>291.5</ele>
        <time>2015-08-31T07:07:48Z</time>
      </trkpt>
      <trkpt lat="47.4361" lon="6.63014">
        <ele>291.5</ele>
        <time>2015-08-31T07:07:49Z</time>
      </trkpt>
      <trkpt lat="47.43606" lon="6.63017">
        <ele>291.5</ele>
        <time>2015-08-31T07:07:50Z</time>
      </trkpt>
      <trkpt lat="47.43601" lon="6.6302">
        <ele>291.3</ele>
        <time>2015-08-31T07:07:51Z</time>
      </trkpt>
      <trkpt lat="47.43597" lon="6.63023">
        <ele>291.3</ele>
        <time>2015-08-31T07:07:52Z</time>
      </trkpt>
      <trkpt lat="47.43592" lon="6.63027">
        <ele>291.4</ele>
        <time>2015-08-31T07:07:53Z</time>
      </trkpt>
      <trkpt lat="47.43588" lon="6.6303">
        <ele>291.2</ele>
        <time>2015-08-31T07:07:54Z</time>
      </trkpt>
      <trkpt lat="47.43583" lon="6.63033">
        <ele>291.5</ele>
        <time>2015-08-31T07:07:55Z</time>
      </trkpt>
      <trkpt lat="47.43578" lon="6.63036">
        <ele>291.6</ele>
        <time>2015-08-31T07:07:56Z</time>
      </trkpt>
      <trkpt lat="47.43574" lon="6.63038">
        <ele>291.4</ele>
        <time>2015-08-31T07:07:57Z</time>
      </trkpt>
      <trkpt lat="47.43569" lon="6.63041">
        <ele>291.6</ele>
        <time>2015-08-31T07:07:58Z</time>
      </trkpt>
      <trkpt lat="47.43565" lon="6.63044">
        <ele>291.3</ele>
        <time>2015-08-31T07:07:59Z</time>
      </trkpt>
      <trkpt lat="47.4356" lon="6.63047">
        <ele>291.4</ele>
        <time>2015-08-31T07:08:00Z</time>
      </trkpt>
      <trkpt lat="47.43556" lon="6.6305">
        <ele>291.2</ele>
        <time>2015-08-31T07:08:01Z</time>
      </trkpt>
      <trkpt lat="47.43551" lon="6.63053">
        <ele>291.2</ele>
        <time>2015-08-31T07:08:02Z</time>
      </trkpt>
      <trkpt lat="47.43546" lon="6.63056">
        <ele>291.3</ele>
        <time>2015-08-31T07:08:03Z</time>
      </trkpt>
      <trkpt lat="47.43542" lon="6.63059">
        <ele>291.3</ele>
        <time>2015-08-31T07:08:04Z</time>
      </trkpt>
      <trkpt lat="47.43537" lon="6.63062">
        <ele>291.5</ele>
        <time>2015-08-31T07:08:05Z</time>
      </trkpt>
      <trkpt lat="47.43533" lon="6.63065">
        <ele>291.4</ele>
        <time>2015-08-31T07:08:06Z</time>
      </trkpt>
      <trkpt lat="47.43528" lon="6.63067">
        <ele>291.2</ele>
        <time>2015-08-31T07:08:07Z</time>
      </trkpt>
      <trkpt lat="47.43523" lon="6.6307">
        <ele>291.2</ele>
        <time>2015-08-31T07:08:08Z</time>
      </trkpt>
      <trkpt lat="47.43519" lon="6.63073">
        <ele>291.2</ele>
        <time>2015-08-31T07:08:09Z</time>
      </trkpt>
      <trkpt lat="47.43514" lon="6.63076">
        <ele>291.2</ele>
        <time>2015-08-31T07:08:10Z</time>
      </trkpt>
      <trkpt lat="47.4351" lon="6.63079">
        <ele>291.2</ele>
        <time>2015-08-31T07:08:11Z</time>
      </trkpt>
      <trkpt lat="47.43505" lon="6.63082">
        <ele>291.2</ele>
        <time>2015-08-31T07:08:12Z</time>
      </trkpt>
      <trkpt lat="47.43501" lon="6.63084">
        <ele>291.3</ele>
        <time>2015-08-31T07:08:13Z</time>
      </trkpt>
      <trkpt lat="47.43496" lon="6.63087">
        <ele>291.3</ele>
        <time>2015-08-31T07:08:14Z</time>
      </trkpt>
      <trkpt lat="47.43491" lon="6.6309">
        <ele>291.3</ele>
        <time>2015-08-31T07:08:15Z</time>
      </trkpt>
      <trkpt lat="47.43487" lon="6.63093">
        <ele>291.3</ele>
        <time>2015-08-31T07:08:16Z</time>
      </trkpt>
      <trkpt lat="47.43482" lon="6.63095">
        <ele>291.4</ele>
        <time>2015-08-31T07:08:17Z</time>
      </trkpt>
      <trkpt lat="47.43477" lon="6.63098">
        <ele>291.4</ele>
        <time>2015-08-31T07:08:18Z</time>
      </trkpt>
      <trkpt lat="47.43472" lon="6.631">
        <ele>291.5</ele>
        <time>2015-08-31T07:08:19Z</time>
      </trkpt>
      <trkpt lat="47.43468" lon="6.63103">
        <ele>291.6</ele>
        <time>2015-08-31T07:08:20Z</time>
      </trkpt>
      <trkpt lat="47.43463" lon="6.63105">
        <ele>291.2</ele>
        <time>2015-08-31T07:08:21Z</time>
      </trkpt>
      <trkpt lat="47.43458" lon="6.63107">
        <ele>291.2</ele>
        <time>2015-08-31T07:08:22Z</time>
      </trkpt>
      <trkpt lat="47.43453" lon="6.6311">
        <ele>291.2</ele>
        <time>2015-08-31T07:08:23Z</time>
      </trkpt>
      <trkpt lat="47.43449" lon="6.63112">
        <ele>291.2</ele>
        <time>2015-08-31T07:08:24Z</time>
      </trkpt>
      <trkpt lat="47.43444" lon="6.63114">
        <ele>291.2</ele>
        <time>2015-08-31T07:08:25Z</time>
      </trkpt>
      <trkpt lat="47.4344" lon="6.63116">
        <ele>291.2</ele>
        <time>2015-08-31T07:08:26Z</time>
      </trkpt>
      <trkpt lat="47.43435" lon="6.63118">
        <ele>291.4</ele>
        <time>2015-08-31T07:08:27Z</time>
      </trkpt>
      <trkpt lat="47.43431" lon="6.6312">
        <ele>291.3</ele>
        <time>2015-08-31T07:08:28Z</time>
      </trkpt>
      <trkpt lat="47.43427" lon="6.63123">
        <ele>291.4</ele>
        <time>2015-08-31T07:08:29Z</time>
      </trkpt>
      <trkpt lat="47.43422" lon="6.63125">
        <ele>291.2</ele>
        <time>2015-08-31T07:08:30Z</time>
      </trkpt>
      <trkpt lat="47.43417" lon="6.63127">
        <ele>291.2</ele>
        <time>2015-08-31T07:08:31Z</time>
      </trkpt>
      <trkpt lat="47.43412" lon="6.63129">
        <ele>291.2</ele>
        <time>2015-08-31T07:08:32Z</time>
      </trkpt>
      <trkpt lat="47.43407" lon="6.63131">
        <ele>291.1</ele>
        <time>2015-08-31T07:08:33Z</time>
      </trkpt>
      <trkpt lat="47.43402" lon="6.63133">
        <ele>291.2</ele>
        <time>2015-08-31T07:08:34Z</time>
      </trkpt>
      <trkpt lat="47.43398" lon="6.63135">
        <ele>291.3</ele>
        <time>2015-08-31T07:08:35Z</time>
      </trkpt>
      <trkpt lat="47.43393" lon="6.63137">
        <ele>291.3</ele>
        <time>2015-08-31T07:08:36Z</time>
      </trkpt>
      <trkpt lat="47.43388" lon="6.63138">
        <ele>291.1</ele>
        <time>2015-08-31T07:08:37Z</time>
      </trkpt>
      <trkpt lat="47.43383" lon="6.6314">
        <ele>291</ele>
        <time>2015-08-31T07:08:38Z</time>
      </trkpt>
      <trkpt lat="47.43378" lon="6.63142">
        <ele>290.9</ele>
        <time>2015-08-31T07:08:39Z</time>
      </trkpt>
      <trkpt lat="47.43373" lon="6.63143">
        <ele>291.1</ele>
        <time>2015-08-31T07:08:40Z</time>
      </trkpt>
      <trkpt lat="47.43369" lon="6.63145">
        <ele>291.3</ele>
        <time>2015-08-31T07:08:41Z</time>
      </trkpt>
      <trkpt lat="47.43364" lon="6.63147">
        <ele>291.3</ele>
        <time>2015-08-31T07:08:42Z</time>
      </trkpt>
      <trkpt lat="47.43359" lon="6.63148">
        <ele>291.5</ele>
        <time>2015-08-31T07:08:43Z</time>
      </trkpt>
      <trkpt lat="47.43354" lon="6.6315">
        <ele>291.5</ele>
        <time>2015-08-31T07:08:44Z</time>
      </trkpt>
      <trkpt lat="47.4335" lon="6.63151">
        <ele>291.5</ele>
        <time>2015-08-31T07:08:45Z</time>
      </trkpt>
      <trkpt lat="47.43345" lon="6.63152">
        <ele>291.5</ele>
        <time>2015-08-31T07:08:46Z</time>
      </trkpt>
      <trkpt lat="47.4334" lon="6.63154">
        <ele>291.5</ele>
        <time>2015-08-31T07:08:47Z</time>
      </trkpt>
      <trkpt lat="47.43335" lon="6.63155">
        <ele>291.6</ele>
        <time>2015-08-31T07:08:48Z</time>
      </trkpt>
      <trkpt lat="47.43331" lon="6.63157">
        <ele>291.6</ele>
        <time>2015-08-31T07:08:49Z</time>
      </trkpt>
      <trkpt lat="47.43326" lon="6.63158">
        <ele>291.7</ele>
        <time>2015-08-31T07:08:50Z</time>
      </trkpt>
      <trkpt lat="47.43321" lon="6.63159">
        <ele>291.7</ele>
        <time>2015-08-31T07:08:51Z</time>
      </trkpt>
      <trkpt lat="47.43316" lon="6.6316">
        <ele>291.7</ele>
        <time>2015-08-31T07:08:52Z</time>
      </trkpt>
      <trkpt lat="47.43312" lon="6.63161">
        <ele>291.7</ele>
        <time>2015-08-31T07:08:53Z</time>
      </trkpt>
      <trkpt lat="47.43307" lon="6.63162">
        <ele>291.7</ele>
        <time>2015-08-31T07:08:54Z</time>
      </trkpt>
      <trkpt lat="47.43302" lon="6.63163">
        <ele>291.6</ele>
        <time>2015-08-31T07:08:55Z</time>
      </trkpt>
      <trkpt lat="47.43297" lon="6.63164">
        <ele>291.7</ele>
        <time>2015-08-31T07:08:56Z</time>
      </trkpt>
      <trkpt lat="47.43292" lon="6.63165">
        <ele>292</ele>
        <time>2015-08-31T07:08:57Z</time>
      </trkpt>
      <trkpt lat="47.43287" lon="6.63166">
        <ele>292</ele>
        <time>2015-08-31T07:08:58Z</time>
      </trkpt>
      <trkpt lat="47.43282" lon="6.63167">
        <ele>292.2</ele>
        <time>2015-08-31T07:08:59Z</time>
      </trkpt>
      <trkpt lat="47.43277" lon="6.63167">
        <ele>292.6</ele>
        <time>2015-08-31T07:09:00Z</time>
      </trkpt>
      <trkpt lat="47.43272" lon="6.63168">
        <ele>292.8</ele>
        <time>2015-08-31T07:09:01Z</time>
      </trkpt>
      <trkpt lat="47.43267" lon="6.63168">
        <ele>292.9</ele>
        <time>2015-08-31T07:09:02Z</time>
      </trkpt>
      <trkpt lat="47.43262" lon="6.63169">
        <ele>292.8</ele>
        <time>2015-08-31T07:09:03Z</time>
      </trkpt>
      <trkpt lat="47.43257" lon="6.63169">
        <ele>292.8</ele>
        <time>2015-08-31T07:09:04Z</time>
      </trkpt>
      <trkpt lat="47.43253" lon="6.6317">
        <ele>292.8</ele>
        <time>2015-08-31T07:09:05Z</time>
      </trkpt>
      <trkpt lat="47.43248" lon="6.6317">
        <ele>292.9</ele>
        <time>2015-08-31T07:09:06Z</time>
      </trkpt>
      <trkpt lat="47.43243" lon="6.63171">
        <ele>292.8</ele>
        <time>2015-08-31T07:09:07Z</time>
      </trkpt>
      <trkpt lat="47.43238" lon="6.63171">
        <ele>292.8</ele>
        <time>2015-08-31T07:09:08Z</time>
      </trkpt>
      <trkpt lat="47.43233" lon="6.63171">
        <ele>292.8</ele>
        <time>2015-08-31T07:09:09Z</time>
      </trkpt>
      <trkpt lat="47.43228" lon="6.63171">
        <ele>292.7</ele>
        <time>2015-08-31T07:09:10Z</time>
      </trkpt>
      <trkpt lat="47.43224" lon="6.63172">
        <ele>292.6</ele>
        <time>2015-08-31T07:09:11Z</time>
      </trkpt>
      <trkpt lat="47.43219" lon="6.63171">
        <ele>292.5</ele>
        <time>2015-08-31T07:09:12Z</time>
      </trkpt>
      <trkpt lat="47.43214" lon="6.63171">
        <ele>292.3</ele>
        <time>2015-08-31T07:09:13Z</time>
      </trkpt>
      <trkpt lat="47.43209" lon="6.63171">
        <ele>292.2</ele>
        <time>2015-08-31T07:09:14Z</time>
      </trkpt>
      <trkpt lat="47.43204" lon="6.63171">
        <ele>292.2</ele>
        <time>2015-08-31T07:09:15Z</time>
      </trkpt>
      <trkpt lat="47.43199" lon="6.63171">
        <ele>292.2</ele>
        <time>2015-08-31T07:09:16Z</time>
      </trkpt>
      <trkpt lat="47.43195" lon="6.63171">
        <ele>292.3</ele>
        <time>2015-08-31T07:09:17Z</time>
      </trkpt>
      <trkpt lat="47.4319" lon="6.63171">
        <ele>292.4</ele>
        <time>2015-08-31T07:09:18Z</time>
      </trkpt>
      <trkpt lat="47.43185" lon="6.63171">
        <ele>292.4</ele>
        <time>2015-08-31T07:09:19Z</time>
      </trkpt>
      <trkpt lat="47.4318" lon="6.6317">
        <ele>292.5</ele>
        <time>2015-08-31T07:09:20Z</time>
      </trkpt>
      <trkpt lat="47.43176" lon="6.6317">
        <ele>292.5</ele>
        <time>2015-08-31T07:09:21Z</time>
      </trkpt>
      <trkpt lat="47.43171" lon="6.6317">
        <ele>292.6</ele>
        <time>2015-08-31T07:09:22Z</time>
      </trkpt>
      <trkpt lat="47.43166" lon="6.63169">
        <ele>292.4</ele>
        <time>2015-08-31T07:09:23Z</time>
      </trkpt>
      <trkpt lat="47.43162" lon="6.63168">
        <ele>292.6</ele>
        <time>2015-08-31T07:09:24Z</time>
      </trkpt>
      <trkpt lat="47.43157" lon="6.63167">
        <ele>292.6</ele>
        <time>2015-08-31T07:09:25Z</time>
      </trkpt>
      <trkpt lat="47.43152" lon="6.63166">
        <ele>292.6</ele>
        <time>2015-08-31T07:09:26Z</time>
      </trkpt>
      <trkpt lat="47.43147" lon="6.63166">
        <ele>292.5</ele>
        <time>2015-08-31T07:09:27Z</time>
      </trkpt>
      <trkpt lat="47.43142" lon="6.63165">
        <ele>292.4</ele>
        <time>2015-08-31T07:09:28Z</time>
      </trkpt>
      <trkpt lat="47.43137" lon="6.63163">
        <ele>292.5</ele>
        <time>2015-08-31T07:09:29Z</time>
      </trkpt>
      <trkpt lat="47.43133" lon="6.63162">
        <ele>292.4</ele>
        <time>2015-08-31T07:09:30Z</time>
      </trkpt>
      <trkpt lat="47.43128" lon="6.63161">
        <ele>292.3</ele>
        <time>2015-08-31T07:09:31Z</time>
      </trkpt>
      <trkpt lat="47.43124" lon="6.6316">
        <ele>292.1</ele>
        <time>2015-08-31T07:09:32Z</time>
      </trkpt>
      <trkpt lat="47.43119" lon="6.63158">
        <ele>292</ele>
        <time>2015-08-31T07:09:33Z</time>
      </trkpt>
      <trkpt lat="47.43114" lon="6.63156">
        <ele>291.8</ele>
        <time>2015-08-31T07:09:34Z</time>
      </trkpt>
      <trkpt lat="47.4311" lon="6.63155">
        <ele>291.6</ele>
        <time>2015-08-31T07:09:35Z</time>
      </trkpt>
      <trkpt lat="47.43105" lon="6.63153">
        <ele>291.6</ele>
        <time>2015-08-31T07:09:36Z</time>
      </trkpt>
      <trkpt lat="47.431" lon="6.63152">
        <ele>291.4</ele>
        <time>2015-08-31T07:09:37Z</time>
      </trkpt>
      <trkpt lat="47.43096" lon="6.6315">
        <ele>291.6</ele>
        <time>2015-08-31T07:09:38Z</time>
      </trkpt>
      <trkpt lat="47.43091" lon="6.63149">
        <ele>291.5</ele>
        <time>2015-08-31T07:09:39Z</time>
      </trkpt>
      <trkpt lat="47.43087" lon="6.63147">
        <ele>291.2</ele>
        <time>2015-08-31T07:09:40Z</time>
      </trkpt>
      <trkpt lat="47.43082" lon="6.63146">
        <ele>291.3</ele>
        <time>2015-08-31T07:09:41Z</time>
      </trkpt>
      <trkpt lat="47.43078" lon="6.63144">
        <ele>291.3</ele>
        <time>2015-08-31T07:09:42Z</time>
      </trkpt>
      <trkpt lat="47.43073" lon="6.63143">
        <ele>291.3</ele>
        <time>2015-08-31T07:09:43Z</time>
      </trkpt>
      <trkpt lat="47.43069" lon="6.63141">
        <ele>291.4</ele>
        <time>2015-08-31T07:09:44Z</time>
      </trkpt>
      <trkpt lat="47.43065" lon="6.63139">
        <ele>291.3</ele>
        <time>2015-08-31T07:09:45Z</time>
      </trkpt>
      <trkpt lat="47.4306" lon="6.63138">
        <ele>291.2</ele>
        <time>2015-08-31T07:09:46Z</time>
      </trkpt>
      <trkpt lat="47.43056" lon="6.63136">
        <ele>291.1</ele>
        <time>2015-08-31T07:09:47Z</time>
      </trkpt>
      <trkpt lat="47.43051" lon="6.63135">
        <ele>291.6</ele>
        <time>2015-08-31T07:09:48Z</time>
      </trkpt>
      <trkpt lat="47.43047" lon="6.63133">
        <ele>291.7</ele>
        <time>2015-08-31T07:09:49Z</time>
      </trkpt>
      <trkpt lat="47.43043" lon="6.63132">
        <ele>292.5</ele>
        <time>2015-08-31T07:09:50Z</time>
      </trkpt>
      <trkpt lat="47.43038" lon="6.6313">
        <ele>292.6</ele>
        <time>2015-08-31T07:09:51Z</time>
      </trkpt>
      <trkpt lat="47.43034" lon="6.63128">
        <ele>292.8</ele>
        <time>2015-08-31T07:09:52Z</time>
      </trkpt>
      <trkpt lat="47.4303" lon="6.63127">
        <ele>292.8</ele>
        <time>2015-08-31T07:09:53Z</time>
      </trkpt>
      <trkpt lat="47.43026" lon="6.63124">
        <ele>293</ele>
        <time>2015-08-31T07:09:54Z</time>
      </trkpt>
      <trkpt lat="47.43022" lon="6.63122">
        <ele>293</ele>
        <time>2015-08-31T07:09:55Z</time>
      </trkpt>
      <trkpt lat="47.43018" lon="6.6312">
        <ele>293</ele>
        <time>2015-08-31T07:09:56Z</time>
      </trkpt>
      <trkpt lat="47.43014" lon="6.63118">
        <ele>293.1</ele>
        <time>2015-08-31T07:09:57Z</time>
      </trkpt>
      <trkpt lat="47.4301" lon="6.63115">
        <ele>293.1</ele>
        <time>2015-08-31T07:09:58Z</time>
      </trkpt>
      <trkpt lat="47.43006" lon="6.63113">
        <ele>293.1</ele>
        <time>2015-08-31T07:09:59Z</time>
      </trkpt>
      <trkpt lat="47.43002" lon="6.6311">
        <ele>293</ele>
        <time>2015-08-31T07:10:00Z</time>
      </trkpt>
      <trkpt lat="47.42997" lon="6.63107">
        <ele>292.9</ele>
        <time>2015-08-31T07:10:01Z</time>
      </trkpt>
      <trkpt lat="47.42993" lon="6.63105">
        <ele>292.8</ele>
        <time>2015-08-31T07:10:02Z</time>
      </trkpt>
      <trkpt lat="47.42989" lon="6.63102">
        <ele>292.8</ele>
        <time>2015-08-31T07:10:03Z</time>
      </trkpt>
      <trkpt lat="47.42985" lon="6.63099">
        <ele>292.8</ele>
        <time>2015-08-31T07:10:04Z</time>
      </trkpt>
      <trkpt lat="47.42981" lon="6.63096">
        <ele>292.8</ele>
        <time>2015-08-31T07:10:05Z</time>
      </trkpt>
      <trkpt lat="47.42977" lon="6.63093">
        <ele>293</ele>
        <time>2015-08-31T07:10:06Z</time>
      </trkpt>
      <trkpt lat="47.42972" lon="6.6309">
        <ele>293.2</ele>
        <time>2015-08-31T07:10:07Z</time>
      </trkpt>
      <trkpt lat="47.42968" lon="6.63087">
        <ele>293.2</ele>
        <time>2015-08-31T07:10:08Z</time>
      </trkpt>
      <trkpt lat="47.42964" lon="6.63084">
        <ele>293.3</ele>
        <time>2015-08-31T07:10:09Z</time>
      </trkpt>
      <trkpt lat="47.42959" lon="6.6308">
        <ele>293.4</ele>
        <time>2015-08-31T07:10:10Z</time>
      </trkpt>
      <trkpt lat="47.42955" lon="6.63077">
        <ele>293.5</ele>
        <time>2015-08-31T07:10:11Z</time>
      </trkpt>
      <trkpt lat="47.42951" lon="6.63074">
        <ele>293.5</ele>
        <time>2015-08-31T07:10:12Z</time>
      </trkpt>
      <trkpt lat="47.42947" lon="6.63071">
        <ele>293.6</ele>
        <time>2015-08-31T07:10:13Z</time>
      </trkpt>
      <trkpt lat="47.42942" lon="6.63068">
        <ele>293.7</ele>
        <time>2015-08-31T07:10:14Z</time>
      </trkpt>
      <trkpt lat="47.42938" lon="6.63065">
        <ele>293.8</ele>
        <time>2015-08-31T07:10:15Z</time>
      </trkpt>
      <trkpt lat="47.42934" lon="6.63061">
        <ele>293.9</ele>
        <time>2015-08-31T07:10:16Z</time>
      </trkpt>
      <trkpt lat="47.4293" lon="6.63058">
        <ele>294</ele>
        <time>2015-08-31T07:10:17Z</time>
      </trkpt>
      <trkpt lat="47.42926" lon="6.63054">
        <ele>294.1</ele>
        <time>2015-08-31T07:10:18Z</time>
      </trkpt>
      <trkpt lat="47.42922" lon="6.63051">
        <ele>294.2</ele>
        <time>2015-08-31T07:10:19Z</time>
      </trkpt>
      <trkpt lat="47.42918" lon="6.63047">
        <ele>294.2</ele>
        <time>2015-08-31T07:10:20Z</time>
      </trkpt>
      <trkpt lat="47.42914" lon="6.63044">
        <ele>294.3</ele>
        <time>2015-08-31T07:10:21Z</time>
      </trkpt>
      <trkpt lat="47.4291" lon="6.6304">
        <ele>294.3</ele>
        <time>2015-08-31T07:10:22Z</time>
      </trkpt>
      <trkpt lat="47.42906" lon="6.63036">
        <ele>294.5</ele>
        <time>2015-08-31T07:10:23Z</time>
      </trkpt>
      <trkpt lat="47.42902" lon="6.63033">
        <ele>294.6</ele>
        <time>2015-08-31T07:10:24Z</time>
      </trkpt>
      <trkpt lat="47.42898" lon="6.63029">
        <ele>294.8</ele>
        <time>2015-08-31T07:10:25Z</time>
      </trkpt>
      <trkpt lat="47.42894" lon="6.63026">
        <ele>294.9</ele>
        <time>2015-08-31T07:10:26Z</time>
      </trkpt>
      <trkpt lat="47.4289" lon="6.63022">
        <ele>294.9</ele>
        <time>2015-08-31T07:10:27Z</time>
      </trkpt>
      <trkpt lat="47.42886" lon="6.63019">
        <ele>295</ele>
        <time>2015-08-31T07:10:28Z</time>
      </trkpt>
      <trkpt lat="47.42883" lon="6.63015">
        <ele>295</ele>
        <time>2015-08-31T07:10:29Z</time>
      </trkpt>
      <trkpt lat="47.42879" lon="6.63011">
        <ele>295.1</ele>
        <time>2015-08-31T07:10:30Z</time>
      </trkpt>
      <trkpt lat="47.42875" lon="6.63007">
        <ele>295.1</ele>
        <time>2015-08-31T07:10:31Z</time>
      </trkpt>
      <trkpt lat="47.42871" lon="6.63003">
        <ele>295.1</ele>
        <time>2015-08-31T07:10:32Z</time>
      </trkpt>
      <trkpt lat="47.42868" lon="6.62999">
        <ele>295.1</ele>
        <time>2015-08-31T07:10:33Z</time>
      </trkpt>
      <trkpt lat="47.42864" lon="6.62994">
        <ele>295.2</ele>
        <time>2015-08-31T07:10:34Z</time>
      </trkpt>
      <trkpt lat="47.4286" lon="6.6299">
        <ele>295.2</ele>
        <time>2015-08-31T07:10:35Z</time>
      </trkpt>
      <trkpt lat="47.42856" lon="6.62987">
        <ele>295.3</ele>
        <time>2015-08-31T07:10:36Z</time>
      </trkpt>
      <trkpt lat="47.42852" lon="6.62983">
        <ele>295.4</ele>
        <time>2015-08-31T07:10:37Z</time>
      </trkpt>
      <trkpt lat="47.42848" lon="6.62979">
        <ele>295.4</ele>
        <time>2015-08-31T07:10:38Z</time>
      </trkpt>
      <trkpt lat="47.42845" lon="6.62974">
        <ele>295.5</ele>
        <time>2015-08-31T07:10:39Z</time>
      </trkpt>
      <trkpt lat="47.42841" lon="6.6297">
        <ele>295.6</ele>
        <time>2015-08-31T07:10:40Z</time>
      </trkpt>
      <trkpt lat="47.42838" lon="6.62966">
        <ele>295.6</ele>
        <time>2015-08-31T07:10:41Z</time>
      </trkpt>
      <trkpt lat="47.42834" lon="6.62961">
        <ele>295.7</ele>
        <time>2015-08-31T07:10:42Z</time>
      </trkpt>
      <trkpt lat="47.42831" lon="6.62957">
        <ele>295.7</ele>
        <time>2015-08-31T07:10:43Z</time>
      </trkpt>
      <trkpt lat="47.42827" lon="6.62953">
        <ele>295.7</ele>
        <time>2015-08-31T07:10:44Z</time>
      </trkpt>
      <trkpt lat="47.42824" lon="6.62949">
        <ele>295.8</ele>
        <time>2015-08-31T07:10:45Z</time>
      </trkpt>
      <trkpt lat="47.4282" lon="6.62944">
        <ele>295.8</ele>
        <time>2015-08-31T07:10:46Z</time>
      </trkpt>
      <trkpt lat="47.42817" lon="6.6294">
        <ele>295.9</ele>
        <time>2015-08-31T07:10:47Z</time>
      </trkpt>
      <trkpt lat="47.42813" lon="6.62936">
        <ele>295.9</ele>
        <time>2015-08-31T07:10:48Z</time>
      </trkpt>
      <trkpt lat="47.4281" lon="6.62931">
        <ele>295.9</ele>
        <time>2015-08-31T07:10:49Z</time>
      </trkpt>
      <trkpt lat="47.42806" lon="6.62927">
        <ele>296</ele>
        <time>2015-08-31T07:10:50Z</time>
      </trkpt>
      <trkpt lat="47.42803" lon="6.62922">
        <ele>295.9</ele>
        <time>2015-08-31T07:10:51Z</time>
      </trkpt>
      <trkpt lat="47.428" lon="6.62917">
        <ele>296</ele>
        <time>2015-08-31T07:10:52Z</time>
      </trkpt>
      <trkpt lat="47.42797" lon="6.62912">
        <ele>296</ele>
        <time>2015-08-31T07:10:53Z</time>
      </trkpt>
      <trkpt lat="47.42793" lon="6.62906">
        <ele>296</ele>
        <time>2015-08-31T07:10:54Z</time>
      </trkpt>
      <trkpt lat="47.4279" lon="6.62901">
        <ele>296.1</ele>
        <time>2015-08-31T07:10:55Z</time>
      </trkpt>
      <trkpt lat="47.42787" lon="6.62896">
        <ele>296.3</ele>
        <time>2015-08-31T07:10:56Z</time>
      </trkpt>
      <trkpt lat="47.42785" lon="6.6289">
        <ele>296.4</ele>
        <time>2015-08-31T07:10:57Z</time>
      </trkpt>
      <trkpt lat="47.42782" lon="6.62885">
        <ele>296.6</ele>
        <time>2015-08-31T07:10:58Z</time>
      </trkpt>
      <trkpt lat="47.42779" lon="6.62879">
        <ele>296.8</ele>
        <time>2015-08-31T07:10:59Z</time>
      </trkpt>
      <trkpt lat="47.42776" lon="6.62874">
        <ele>297</ele>
        <time>2015-08-31T07:11:00Z</time>
      </trkpt>
      <trkpt lat="47.42774" lon="6.62868">
        <ele>297.1</ele>
        <time>2015-08-31T07:11:01Z</time>
      </trkpt>
      <trkpt lat="47.42771" lon="6.62863">
        <ele>297.2</ele>
        <time>2015-08-31T07:11:02Z</time>
      </trkpt>
      <trkpt lat="47.42767" lon="6.62858">
        <ele>296.7</ele>
        <time>2015-08-31T07:11:03Z</time>
      </trkpt>
      <trkpt lat="47.42764" lon="6.62852">
        <ele>296.7</ele>
        <time>2015-08-31T07:11:04Z</time>
      </trkpt>
      <trkpt lat="47.42761" lon="6.62847">
        <ele>296.7</ele>
        <time>2015-08-31T07:11:05Z</time>
      </trkpt>
      <trkpt lat="47.42758" lon="6.62841">
        <ele>296.7</ele>
        <time>2015-08-31T07:11:06Z</time>
      </trkpt>
      <trkpt lat="47.42756" lon="6.62835">
        <ele>296.7</ele>
        <time>2015-08-31T07:11:07Z</time>
      </trkpt>
      <trkpt lat="47.42753" lon="6.6283">
        <ele>296.7</ele>
        <time>2015-08-31T07:11:08Z</time>
      </trkpt>
      <trkpt lat="47.4275" lon="6.62824">
        <ele>296.7</ele>
        <time>2015-08-31T07:11:09Z</time>
      </trkpt>
      <trkpt lat="47.42747" lon="6.62818">
        <ele>296.7</ele>
        <time>2015-08-31T07:11:10Z</time>
      </trkpt>
      <trkpt lat="47.42745" lon="6.62813">
        <ele>296.8</ele>
        <time>2015-08-31T07:11:11Z</time>
      </trkpt>
      <trkpt lat="47.42742" lon="6.62807">
        <ele>296.9</ele>
        <time>2015-08-31T07:11:12Z</time>
      </trkpt>
      <trkpt lat="47.4274" lon="6.62801">
        <ele>296.9</ele>
        <time>2015-08-31T07:11:13Z</time>
      </trkpt>
      <trkpt lat="47.42737" lon="6.62796">
        <ele>297</ele>
        <time>2015-08-31T07:11:14Z</time>
      </trkpt>
      <trkpt lat="47.42735" lon="6.6279">
        <ele>297</ele>
        <time>2015-08-31T07:11:15Z</time>
      </trkpt>
      <trkpt lat="47.42733" lon="6.62784">
        <ele>297.1</ele>
        <time>2015-08-31T07:11:16Z</time>
      </trkpt>
      <trkpt lat="47.4273" lon="6.62778">
        <ele>297.1</ele>
        <time>2015-08-31T07:11:17Z</time>
      </trkpt>
      <trkpt lat="47.42728" lon="6.62771">
        <ele>297.1</ele>
        <time>2015-08-31T07:11:18Z</time>
      </trkpt>
      <trkpt lat="47.42726" lon="6.62765">
        <ele>297.1</ele>
        <time>2015-08-31T07:11:19Z</time>
      </trkpt>
      <trkpt lat="47.42723" lon="6.62759">
        <ele>297.2</ele>
        <time>2015-08-31T07:11:20Z</time>
      </trkpt>
      <trkpt lat="47.42721" lon="6.62753">
        <ele>297.2</ele>
        <time>2015-08-31T07:11:21Z</time>
      </trkpt>
      <trkpt lat="47.42719" lon="6.62747">
        <ele>297.2</ele>
        <time>2015-08-31T07:11:22Z</time>
      </trkpt>
      <trkpt lat="47.42717" lon="6.62741">
        <ele>297.2</ele>
        <time>2015-08-31T07:11:23Z</time>
      </trkpt>
      <trkpt lat="47.42715" lon="6.62734">
        <ele>297.2</ele>
        <time>2015-08-31T07:11:24Z</time>
      </trkpt>
      <trkpt lat="47.42713" lon="6.62728">
        <ele>297.3</ele>
        <time>2015-08-31T07:11:25Z</time>
      </trkpt>
      <trkpt lat="47.42711" lon="6.62722">
        <ele>297.3</ele>
        <time>2015-08-31T07:11:26Z</time>
      </trkpt>
      <trkpt lat="47.42709" lon="6.62715">
        <ele>297.4</ele>
        <time>2015-08-31T07:11:27Z</time>
      </trkpt>
      <trkpt lat="47.42707" lon="6.62709">
        <ele>297.5</ele>
        <time>2015-08-31T07:11:28Z</time>
      </trkpt>
      <trkpt lat="47.42705" lon="6.62703">
        <ele>297.5</ele>
        <time>2015-08-31T07:11:29Z</time>
      </trkpt>
      <trkpt lat="47.42703" lon="6.62696">
        <ele>297.5</ele>
        <time>2015-08-31T07:11:30Z</time>
      </trkpt>
      <trkpt lat="47.42701" lon="6.6269">
        <ele>297.6</ele>
        <time>2015-08-31T07:11:31Z</time>
      </trkpt>
      <trkpt lat="47.427" lon="6.62683">
        <ele>297.6</ele>
        <time>2015-08-31T07:11:32Z</time>
      </trkpt>
      <trkpt lat="47.42698" lon="6.62677">
        <ele>297.6</ele>
        <time>2015-08-31T07:11:33Z</time>
      </trkpt>
      <trkpt lat="47.42696" lon="6.6267">
        <ele>297.6</ele>
        <time>2015-08-31T07:11:34Z</time>
      </trkpt>
      <trkpt lat="47.42695" lon="6.62664">
        <ele>297.6</ele>
        <time>2015-08-31T07:11:35Z</time>
      </trkpt>
      <trkpt lat="47.42693" lon="6.62657">
        <ele>297.6</ele>
        <time>2015-08-31T07:11:36Z</time>
      </trkpt>
      <trkpt lat="47.42691" lon="6.6265">
        <ele>297.6</ele>
        <time>2015-08-31T07:11:37Z</time>
      </trkpt>
      <trkpt lat="47.4269" lon="6.62644">
        <ele>297.6</ele>
        <time>2015-08-31T07:11:38Z</time>
      </trkpt>
      <trkpt lat="47.42688" lon="6.62637">
        <ele>297.6</ele>
        <time>2015-08-31T07:11:39Z</time>
      </trkpt>
      <trkpt lat="47.42687" lon="6.6263">
        <ele>297.5</ele>
        <time>2015-08-31T07:11:40Z</time>
      </trkpt>
      <trkpt lat="47.42685" lon="6.62623">
        <ele>297.5</ele>
        <time>2015-08-31T07:11:41Z</time>
      </trkpt>
      <trkpt lat="47.42684" lon="6.62616">
        <ele>297.5</ele>
        <time>2015-08-31T07:11:42Z</time>
      </trkpt>
      <trkpt lat="47.42683" lon="6.62609">
        <ele>297.5</ele>
        <time>2015-08-31T07:11:43Z</time>
      </trkpt>
      <trkpt lat="47.42681" lon="6.62602">
        <ele>297.4</ele>
        <time>2015-08-31T07:11:44Z</time>
      </trkpt>
      <trkpt lat="47.4268" lon="6.62596">
        <ele>297.3</ele>
        <time>2015-08-31T07:11:45Z</time>
      </trkpt>
      <trkpt lat="47.42678" lon="6.62589">
        <ele>297.3</ele>
        <time>2015-08-31T07:11:46Z</time>
      </trkpt>
      <trkpt lat="47.42676" lon="6.62582">
        <ele>297.3</ele>
        <time>2015-08-31T07:11:47Z</time>
      </trkpt>
      <trkpt lat="47.42675" lon="6.62575">
        <ele>297.3</ele>
        <time>2015-08-31T07:11:48Z</time>
      </trkpt>
      <trkpt lat="47.42674" lon="6.62568">
        <ele>297.2</ele>
        <time>2015-08-31T07:11:49Z</time>
      </trkpt>
      <trkpt lat="47.42672" lon="6.62561">
        <ele>297.2</ele>
        <time>2015-08-31T07:11:50Z</time>
      </trkpt>
      <trkpt lat="47.42671" lon="6.62554">
        <ele>297.1</ele>
        <time>2015-08-31T07:11:51Z</time>
      </trkpt>
      <trkpt lat="47.4267" lon="6.62547">
        <ele>297.1</ele>
        <time>2015-08-31T07:11:52Z</time>
      </trkpt>
      <trkpt lat="47.42669" lon="6.6254">
        <ele>297.1</ele>
        <time>2015-08-31T07:11:53Z</time>
      </trkpt>
      <trkpt lat="47.42667" lon="6.62533">
        <ele>297</ele>
        <time>2015-08-31T07:11:54Z</time>
      </trkpt>
      <trkpt lat="47.42666" lon="6.62526">
        <ele>297</ele>
        <time>2015-08-31T07:11:55Z</time>
      </trkpt>
      <trkpt lat="47.42665" lon="6.62519">
        <ele>297</ele>
        <time>2015-08-31T07:11:56Z</time>
      </trkpt>
      <trkpt lat="47.42664" lon="6.62512">
        <ele>296.8</ele>
        <time>2015-08-31T07:11:57Z</time>
      </trkpt>
      <trkpt lat="47.42663" lon="6.62506">
        <ele>296.8</ele>
        <time>2015-08-31T07:11:58Z</time>
      </trkpt>
      <trkpt lat="47.42661" lon="6.62499">
        <ele>296.8</ele>
        <time>2015-08-31T07:11:59Z</time>
      </trkpt>
      <trkpt lat="47.4266" lon="6.62492">
        <ele>296.8</ele>
        <time>2015-08-31T07:12:00Z</time>
      </trkpt>
      <trkpt lat="47.42659" lon="6.62486">
        <ele>296.8</ele>
        <time>2015-08-31T07:12:01Z</time>
      </trkpt>
      <trkpt lat="47.42658" lon="6.62479">
        <ele>296.8</ele>
        <time>2015-08-31T07:12:02Z</time>
      </trkpt>
      <trkpt lat="47.42656" lon="6.62472">
        <ele>296.7</ele>
        <time>2015-08-31T07:12:03Z</time>
      </trkpt>
      <trkpt lat="47.42655" lon="6.62465">
        <ele>296.7</ele>
        <time>2015-08-31T07:12:04Z</time>
      </trkpt>
      <trkpt lat="47.42654" lon="6.62458">
        <ele>296.7</ele>
        <time>2015-08-31T07:12:05Z</time>
      </trkpt>
      <trkpt lat="47.42653" lon="6.62451">
        <ele>296.7</ele>
        <time>2015-08-31T07:12:06Z</time>
      </trkpt>
      <trkpt lat="47.42652" lon="6.62444">
        <ele>296.6</ele>
        <time>2015-08-31T07:12:07Z</time>
      </trkpt>
      <trkpt lat="47.42651" lon="6.62437">
        <ele>296.6</ele>
        <time>2015-08-31T07:12:08Z</time>
      </trkpt>
      <trkpt lat="47.4265" lon="6.6243">
        <ele>296.6</ele>
        <time>2015-08-31T07:12:09Z</time>
      </trkpt>
      <trkpt lat="47.42649" lon="6.62423">
        <ele>296.6</ele>
        <time>2015-08-31T07:12:10Z</time>
      </trkpt>
      <trkpt lat="47.42648" lon="6.62416">
        <ele>296.5</ele>
        <time>2015-08-31T07:12:11Z</time>
      </trkpt>
      <trkpt lat="47.42647" lon="6.62409">
        <ele>296.6</ele>
        <time>2015-08-31T07:12:12Z</time>
      </trkpt>
      <trkpt lat="47.42646" lon="6.62403">
        <ele>296.7</ele>
        <time>2015-08-31T07:12:13Z</time>
      </trkpt>
      <trkpt lat="47.42645" lon="6.62396">
        <ele>296.7</ele>
        <time>2015-08-31T07:12:14Z</time>
      </trkpt>
      <trkpt lat="47.42644" lon="6.62389">
        <ele>296.6</ele>
        <time>2015-08-31T07:12:15Z</time>
      </trkpt>
      <trkpt lat="47.42643" lon="6.62382">
        <ele>296.4</ele>
        <time>2015-08-31T07:12:16Z</time>
      </trkpt>
      <trkpt lat="47.42643" lon="6.62375">
        <ele>296.4</ele>
        <time>2015-08-31T07:12:17Z</time>
      </trkpt>
      <trkpt lat="47.42642" lon="6.62368">
        <ele>296.4</ele>
        <time>2015-08-31T07:12:18Z</time>
      </trkpt>
      <trkpt lat="47.42642" lon="6.62361">
        <ele>296.4</ele>
        <time>2015-08-31T07:12:19Z</time>
      </trkpt>
      <trkpt lat="47.42641" lon="6.62354">
        <ele>296.3</ele>
        <time>2015-08-31T07:12:20Z</time>
      </trkpt>
      <trkpt lat="47.4264" lon="6.62347">
        <ele>296.3</ele>
        <time>2015-08-31T07:12:21Z</time>
      </trkpt>
      <trkpt lat="47.42639" lon="6.6234">
        <ele>296.3</ele>
        <time>2015-08-31T07:12:22Z</time>
      </trkpt>
      <trkpt lat="47.42638" lon="6.62333">
        <ele>296.3</ele>
        <time>2015-08-31T07:12:23Z</time>
      </trkpt>
      <trkpt lat="47.42638" lon="6.62326">
        <ele>296.2</ele>
        <time>2015-08-31T07:12:24Z</time>
      </trkpt>
      <trkpt lat="47.42637" lon="6.62319">
        <ele>296.3</ele>
        <time>2015-08-31T07:12:25Z</time>
      </trkpt>
      <trkpt lat="47.42637" lon="6.62312">
        <ele>296.4</ele>
        <time>2015-08-31T07:12:26Z</time>
      </trkpt>
      <trkpt lat="47.42636" lon="6.62306">
        <ele>296.4</ele>
        <time>2015-08-31T07:12:27Z</time>
      </trkpt>
      <trkpt lat="47.42636" lon="6.62299">
        <ele>296.4</ele>
        <time>2015-08-31T07:12:28Z</time>
      </trkpt>
      <trkpt lat="47.42635" lon="6.62292">
        <ele>296.2</ele>
        <time>2015-08-31T07:12:29Z</time>
      </trkpt>
      <trkpt lat="47.42635" lon="6.62285">
        <ele>296.2</ele>
        <time>2015-08-31T07:12:30Z</time>
      </trkpt>
      <trkpt lat="47.42634" lon="6.62278">
        <ele>296.2</ele>
        <time>2015-08-31T07:12:31Z</time>
      </trkpt>
      <trkpt lat="47.42633" lon="6.62271">
        <ele>296.2</ele>
        <time>2015-08-31T07:12:32Z</time>
      </trkpt>
      <trkpt lat="47.42633" lon="6.62264">
        <ele>296.2</ele>
        <time>2015-08-31T07:12:33Z</time>
      </trkpt>
      <trkpt lat="47.42633" lon="6.62257">
        <ele>296.1</ele>
        <time>2015-08-31T07:12:34Z</time>
      </trkpt>
      <trkpt lat="47.42632" lon="6.6225">
        <ele>296</ele>
        <time>2015-08-31T07:12:35Z</time>
      </trkpt>
      <trkpt lat="47.42632" lon="6.62243">
        <ele>296</ele>
        <time>2015-08-31T07:12:36Z</time>
      </trkpt>
      <trkpt lat="47.42631" lon="6.62235">
        <ele>296</ele>
        <time>2015-08-31T07:12:37Z</time>
      </trkpt>
      <trkpt lat="47.42631" lon="6.62228">
        <ele>296</ele>
        <time>2015-08-31T07:12:38Z</time>
      </trkpt>
      <trkpt lat="47.4263" lon="6.62221">
        <ele>295.9</ele>
        <time>2015-08-31T07:12:39Z</time>
      </trkpt>
      <trkpt lat="47.4263" lon="6.62214">
        <ele>295.9</ele>
        <time>2015-08-31T07:12:40Z</time>
      </trkpt>
      <trkpt lat="47.4263" lon="6.62207">
        <ele>295.8</ele>
        <time>2015-08-31T07:12:41Z</time>
      </trkpt>
      <trkpt lat="47.42629" lon="6.622">
        <ele>295.8</ele>
        <time>2015-08-31T07:12:42Z</time>
      </trkpt>
      <trkpt lat="47.42629" lon="6.62193">
        <ele>295.8</ele>
        <time>2015-08-31T07:12:43Z</time>
      </trkpt>
      <trkpt lat="47.42628" lon="6.62186">
        <ele>295.8</ele>
        <time>2015-08-31T07:12:44Z</time>
      </trkpt>
      <trkpt lat="47.42628" lon="6.62179">
        <ele>295.7</ele>
        <time>2015-08-31T07:12:45Z</time>
      </trkpt>
      <trkpt lat="47.42628" lon="6.62173">
        <ele>295.7</ele>
        <time>2015-08-31T07:12:46Z</time>
      </trkpt>
      <trkpt lat="47.42627" lon="6.62166">
        <ele>295.6</ele>
        <time>2015-08-31T07:12:47Z</time>
      </trkpt>
      <trkpt lat="47.42627" lon="6.62159">
        <ele>295.6</ele>
        <time>2015-08-31T07:12:48Z</time>
      </trkpt>
      <trkpt lat="47.42626" lon="6.62152">
        <ele>295.7</ele>
        <time>2015-08-31T07:12:49Z</time>
      </trkpt>
      <trkpt lat="47.42626" lon="6.62145">
        <ele>295.6</ele>
        <time>2015-08-31T07:12:50Z</time>
      </trkpt>
      <trkpt lat="47.42626" lon="6.62137">
        <ele>295.6</ele>
        <time>2015-08-31T07:12:51Z</time>
      </trkpt>
      <trkpt lat="47.42626" lon="6.6213">
        <ele>295.6</ele>
        <time>2015-08-31T07:12:52Z</time>
      </trkpt>
      <trkpt lat="47.42625" lon="6.62123">
        <ele>295.6</ele>
        <time>2015-08-31T07:12:53Z</time>
      </trkpt>
      <trkpt lat="47.42625" lon="6.62116">
        <ele>295.6</ele>
        <time>2015-08-31T07:12:54Z</time>
      </trkpt>
      <trkpt lat="47.42625" lon="6.62109">
        <ele>295.6</ele>
        <time>2015-08-31T07:12:55Z</time>
      </trkpt>
      <trkpt lat="47.42625" lon="6.62102">
        <ele>295.5</ele>
        <time>2015-08-31T07:12:56Z</time>
      </trkpt>
      <trkpt lat="47.42625" lon="6.62095">
        <ele>295.5</ele>
        <time>2015-08-31T07:12:57Z</time>
      </trkpt>
      <trkpt lat="47.42625" lon="6.62087">
        <ele>295.5</ele>
        <time>2015-08-31T07:12:58Z</time>
      </trkpt>
      <trkpt lat="47.42625" lon="6.6208">
        <ele>295.5</ele>
        <time>2015-08-31T07:12:59Z</time>
      </trkpt>
      <trkpt lat="47.42625" lon="6.62073">
        <ele>295.5</ele>
        <time>2015-08-31T07:13:00Z</time>
      </trkpt>
      <trkpt lat="47.42625" lon="6.62066">
        <ele>295.4</ele>
        <time>2015-08-31T07:13:01Z</time>
      </trkpt>
      <trkpt lat="47.42625" lon="6.62059">
        <ele>295.4</ele>
        <time>2015-08-31T07:13:02Z</time>
      </trkpt>
      <trkpt lat="47.42625" lon="6.62051">
        <ele>295.4</ele>
        <time>2015-08-31T07:13:03Z</time>
      </trkpt>
      <trkpt lat="47.42625" lon="6.62044">
        <ele>295.4</ele>
        <time>2015-08-31T07:13:04Z</time>
      </trkpt>
      <trkpt lat="47.42625" lon="6.62036">
        <ele>295.3</ele>
        <time>2015-08-31T07:13:05Z</time>
      </trkpt>
      <trkpt lat="47.42625" lon="6.62029">
        <ele>295.3</ele>
        <time>2015-08-31T07:13:06Z</time>
      </trkpt>
      <trkpt lat="47.42625" lon="6.62022">
        <ele>295.4</ele>
        <time>2015-08-31T07:13:07Z</time>
      </trkpt>
      <trkpt lat="47.42626" lon="6.62015">
        <ele>295.4</ele>
        <time>2015-08-31T07:13:08Z</time>
      </trkpt>
      <trkpt lat="47.42626" lon="6.62008">
        <ele>295.3</ele>
        <time>2015-08-31T07:13:09Z</time>
      </trkpt>
      <trkpt lat="47.42626" lon="6.62001">
        <ele>295.3</ele>
        <time>2015-08-31T07:13:10Z</time>
      </trkpt>
      <trkpt lat="47.42626" lon="6.61994">
        <ele>295.4</ele>
        <time>2015-08-31T07:13:11Z</time>
      </trkpt>
      <trkpt lat="47.42627" lon="6.61986">
        <ele>295.4</ele>
        <time>2015-08-31T07:13:12Z</time>
      </trkpt>
      <trkpt lat="47.42627" lon="6.61979">
        <ele>295.4</ele>
        <time>2015-08-31T07:13:13Z</time>
      </trkpt>
      <trkpt lat="47.42627" lon="6.61972">
        <ele>295.4</ele>
        <time>2015-08-31T07:13:14Z</time>
      </trkpt>
      <trkpt lat="47.42628" lon="6.61965">
        <ele>295.4</ele>
        <time>2015-08-31T07:13:15Z</time>
      </trkpt>
      <trkpt lat="47.42629" lon="6.61958">
        <ele>295.4</ele>
        <time>2015-08-31T07:13:16Z</time>
      </trkpt>
      <trkpt lat="47.4263" lon="6.61951">
        <ele>295.5</ele>
        <time>2015-08-31T07:13:17Z</time>
      </trkpt>
      <trkpt lat="47.4263" lon="6.61944">
        <ele>295.3</ele>
        <time>2015-08-31T07:13:18Z</time>
      </trkpt>
      <trkpt lat="47.42631" lon="6.61936">
        <ele>295.2</ele>
        <time>2015-08-31T07:13:19Z</time>
      </trkpt>
      <trkpt lat="47.42632" lon="6.61929">
        <ele>295.3</ele>
        <time>2015-08-31T07:13:20Z</time>
      </trkpt>
      <trkpt lat="47.42633" lon="6.61923">
        <ele>295.3</ele>
        <time>2015-08-31T07:13:21Z</time>
      </trkpt>
      <trkpt lat="47.42634" lon="6.61916">
        <ele>295.4</ele>
        <time>2015-08-31T07:13:22Z</time>
      </trkpt>
      <trkpt lat="47.42634" lon="6.61909">
        <ele>295.4</ele>
        <time>2015-08-31T07:13:23Z</time>
      </trkpt>
      <trkpt lat="47.42635" lon="6.61902">
        <ele>295.5</ele>
        <time>2015-08-31T07:13:24Z</time>
      </trkpt>
      <trkpt lat="47.42636" lon="6.61895">
        <ele>295.6</ele>
        <time>2015-08-31T07:13:25Z</time>
      </trkpt>
      <trkpt lat="47.42636" lon="6.61888">
        <ele>295.7</ele>
        <time>2015-08-31T07:13:26Z</time>
      </trkpt>
      <trkpt lat="47.42637" lon="6.61881">
        <ele>295.6</ele>
        <time>2015-08-31T07:13:27Z</time>
      </trkpt>
      <trkpt lat="47.42638" lon="6.61874">
        <ele>295.7</ele>
        <time>2015-08-31T07:13:28Z</time>
      </trkpt>
      <trkpt lat="47.42638" lon="6.61867">
        <ele>295.6</ele>
        <time>2015-08-31T07:13:29Z</time>
      </trkpt>
      <trkpt lat="47.42639" lon="6.6186">
        <ele>295.6</ele>
        <time>2015-08-31T07:13:30Z</time>
      </trkpt>
      <trkpt lat="47.42641" lon="6.61853">
        <ele>295.6</ele>
        <time>2015-08-31T07:13:31Z</time>
      </trkpt>
      <trkpt lat="47.42642" lon="6.61847">
        <ele>295.6</ele>
        <time>2015-08-31T07:13:32Z</time>
      </trkpt>
      <trkpt lat="47.42643" lon="6.6184">
        <ele>295.6</ele>
        <time>2015-08-31T07:13:33Z</time>
      </trkpt>
      <trkpt lat="47.42644" lon="6.61833">
        <ele>295.6</ele>
        <time>2015-08-31T07:13:34Z</time>
      </trkpt>
      <trkpt lat="47.42645" lon="6.61826">
        <ele>295.7</ele>
        <time>2015-08-31T07:13:35Z</time>
      </trkpt>
      <trkpt lat="47.42646" lon="6.61819">
        <ele>295.8</ele>
        <time>2015-08-31T07:13:36Z</time>
      </trkpt>
      <trkpt lat="47.42647" lon="6.61811">
        <ele>296</ele>
        <time>2015-08-31T07:13:37Z</time>
      </trkpt>
      <trkpt lat="47.42648" lon="6.61804">
        <ele>296.1</ele>
        <time>2015-08-31T07:13:38Z</time>
      </trkpt>
      <trkpt lat="47.42649" lon="6.61797">
        <ele>296.2</ele>
        <time>2015-08-31T07:13:39Z</time>
      </trkpt>
      <trkpt lat="47.42651" lon="6.6179">
        <ele>296.5</ele>
        <time>2015-08-31T07:13:40Z</time>
      </trkpt>
      <trkpt lat="47.42652" lon="6.61783">
        <ele>296.6</ele>
        <time>2015-08-31T07:13:41Z</time>
      </trkpt>
      <trkpt lat="47.42653" lon="6.61776">
        <ele>296.8</ele>
        <time>2015-08-31T07:13:42Z</time>
      </trkpt>
      <trkpt lat="47.42655" lon="6.61769">
        <ele>296.9</ele>
        <time>2015-08-31T07:13:43Z</time>
      </trkpt>
      <trkpt lat="47.42656" lon="6.61763">
        <ele>297</ele>
        <time>2015-08-31T07:13:44Z</time>
      </trkpt>
      <trkpt lat="47.42658" lon="6.61756">
        <ele>296.9</ele>
        <time>2015-08-31T07:13:45Z</time>
      </trkpt>
      <trkpt lat="47.42659" lon="6.61749">
        <ele>297</ele>
        <time>2015-08-31T07:13:46Z</time>
      </trkpt>
      <trkpt lat="47.42661" lon="6.61742">
        <ele>296.9</ele>
        <time>2015-08-31T07:13:47Z</time>
      </trkpt>
      <trkpt lat="47.42662" lon="6.61736">
        <ele>297</ele>
        <time>2015-08-31T07:13:48Z</time>
      </trkpt>
      <trkpt lat="47.42664" lon="6.61729">
        <ele>297</ele>
        <time>2015-08-31T07:13:49Z</time>
      </trkpt>
      <trkpt lat="47.42665" lon="6.61722">
        <ele>297</ele>
        <time>2015-08-31T07:13:50Z</time>
      </trkpt>
      <trkpt lat="47.42667" lon="6.61715">
        <ele>297.1</ele>
        <time>2015-08-31T07:13:51Z</time>
      </trkpt>
      <trkpt lat="47.42668" lon="6.61708">
        <ele>297.2</ele>
        <time>2015-08-31T07:13:52Z</time>
      </trkpt>
      <trkpt lat="47.4267" lon="6.61701">
        <ele>297.3</ele>
        <time>2015-08-31T07:13:53Z</time>
      </trkpt>
      <trkpt lat="47.42671" lon="6.61694">
        <ele>297.4</ele>
        <time>2015-08-31T07:13:54Z</time>
      </trkpt>
      <trkpt lat="47.42672" lon="6.61687">
        <ele>297.5</ele>
        <time>2015-08-31T07:13:55Z</time>
      </trkpt>
      <trkpt lat="47.42674" lon="6.61681">
        <ele>298.4</ele>
        <time>2015-08-31T07:13:56Z</time>
      </trkpt>
      <trkpt lat="47.42676" lon="6.61674">
        <ele>298.1</ele>
        <time>2015-08-31T07:13:57Z</time>
      </trkpt>
      <trkpt lat="47.42677" lon="6.61667">
        <ele>298.2</ele>
        <time>2015-08-31T07:13:58Z</time>
      </trkpt>
      <trkpt lat="47.42679" lon="6.6166">
        <ele>298.3</ele>
        <time>2015-08-31T07:13:59Z</time>
      </trkpt>
      <trkpt lat="47.4268" lon="6.61653">
        <ele>298.5</ele>
        <time>2015-08-31T07:14:00Z</time>
      </trkpt>
      <trkpt lat="47.42682" lon="6.61646">
        <ele>298.7</ele>
        <time>2015-08-31T07:14:01Z</time>
      </trkpt>
      <trkpt lat="47.42683" lon="6.61639">
        <ele>298.5</ele>
        <time>2015-08-31T07:14:02Z</time>
      </trkpt>
      <trkpt lat="47.42685" lon="6.61632">
        <ele>298.6</ele>
        <time>2015-08-31T07:14:03Z</time>
      </trkpt>
      <trkpt lat="47.42687" lon="6.61626">
        <ele>298.7</ele>
        <time>2015-08-31T07:14:04Z</time>
      </trkpt>
      <trkpt lat="47.42688" lon="6.61619">
        <ele>298.7</ele>
        <time>2015-08-31T07:14:05Z</time>
      </trkpt>
      <trkpt lat="47.4269" lon="6.61612">
        <ele>298.7</ele>
        <time>2015-08-31T07:14:06Z</time>
      </trkpt>
      <trkpt lat="47.42691" lon="6.61606">
        <ele>298.8</ele>
        <time>2015-08-31T07:14:07Z</time>
      </trkpt>
      <trkpt lat="47.42693" lon="6.61599">
        <ele>298.8</ele>
        <time>2015-08-31T07:14:08Z</time>
      </trkpt>
      <trkpt lat="47.42695" lon="6.61592">
        <ele>298.8</ele>
        <time>2015-08-31T07:14:09Z</time>
      </trkpt>
      <trkpt lat="47.42698" lon="6.61586">
        <ele>299.4</ele>
        <time>2015-08-31T07:14:10Z</time>
      </trkpt>
      <trkpt lat="47.42699" lon="6.61579">
        <ele>299.4</ele>
        <time>2015-08-31T07:14:11Z</time>
      </trkpt>
      <trkpt lat="47.42701" lon="6.61572">
        <ele>299.3</ele>
        <time>2015-08-31T07:14:12Z</time>
      </trkpt>
      <trkpt lat="47.42703" lon="6.61565">
        <ele>299.3</ele>
        <time>2015-08-31T07:14:13Z</time>
      </trkpt>
      <trkpt lat="47.42704" lon="6.61558">
        <ele>299.3</ele>
        <time>2015-08-31T07:14:14Z</time>
      </trkpt>
      <trkpt lat="47.42706" lon="6.61552">
        <ele>299.3</ele>
        <time>2015-08-31T07:14:15Z</time>
      </trkpt>
      <trkpt lat="47.42708" lon="6.61546">
        <ele>299.3</ele>
        <time>2015-08-31T07:14:16Z</time>
      </trkpt>
      <trkpt lat="47.4271" lon="6.61539">
        <ele>299.3</ele>
        <time>2015-08-31T07:14:17Z</time>
      </trkpt>
      <trkpt lat="47.42712" lon="6.61533">
        <ele>299.3</ele>
        <time>2015-08-31T07:14:18Z</time>
      </trkpt>
      <trkpt lat="47.42713" lon="6.61526">
        <ele>299.2</ele>
        <time>2015-08-31T07:14:19Z</time>
      </trkpt>
      <trkpt lat="47.42715" lon="6.6152">
        <ele>299.2</ele>
        <time>2015-08-31T07:14:20Z</time>
      </trkpt>
      <trkpt lat="47.42717" lon="6.61513">
        <ele>299.2</ele>
        <time>2015-08-31T07:14:21Z</time>
      </trkpt>
      <trkpt lat="47.42719" lon="6.61507">
        <ele>299.2</ele>
        <time>2015-08-31T07:14:22Z</time>
      </trkpt>
      <trkpt lat="47.42721" lon="6.615">
        <ele>299.1</ele>
        <time>2015-08-31T07:14:23Z</time>
      </trkpt>
      <trkpt lat="47.42723" lon="6.61494">
        <ele>299.1</ele>
        <time>2015-08-31T07:14:24Z</time>
      </trkpt>
      <trkpt lat="47.42725" lon="6.61487">
        <ele>299.2</ele>
        <time>2015-08-31T07:14:25Z</time>
      </trkpt>
      <trkpt lat="47.42727" lon="6.6148">
        <ele>299.2</ele>
        <time>2015-08-31T07:14:26Z</time>
      </trkpt>
      <trkpt lat="47.42729" lon="6.61474">
        <ele>299.1</ele>
        <time>2015-08-31T07:14:27Z</time>
      </trkpt>
      <trkpt lat="47.42731" lon="6.61467">
        <ele>299.1</ele>
        <time>2015-08-31T07:14:28Z</time>
      </trkpt>
      <trkpt lat="47.42733" lon="6.61461">
        <ele>299.1</ele>
        <time>2015-08-31T07:14:29Z</time>
      </trkpt>
      <trkpt lat="47.42736" lon="6.61454">
        <ele>299.1</ele>
        <time>2015-08-31T07:14:30Z</time>
      </trkpt>
      <trkpt lat="47.42738" lon="6.61448">
        <ele>299.1</ele>
        <time>2015-08-31T07:14:31Z</time>
      </trkpt>
      <trkpt lat="47.4274" lon="6.61441">
        <ele>299.1</ele>
        <time>2015-08-31T07:14:32Z</time>
      </trkpt>
      <trkpt lat="47.42742" lon="6.61435">
        <ele>299.2</ele>
        <time>2015-08-31T07:14:33Z</time>
      </trkpt>
      <trkpt lat="47.42744" lon="6.61429">
        <ele>299.3</ele>
        <time>2015-08-31T07:14:34Z</time>
      </trkpt>
      <trkpt lat="47.42746" lon="6.61422">
        <ele>299.1</ele>
        <time>2015-08-31T07:14:35Z</time>
      </trkpt>
      <trkpt lat="47.42748" lon="6.61416">
        <ele>298.9</ele>
        <time>2015-08-31T07:14:36Z</time>
      </trkpt>
      <trkpt lat="47.4275" lon="6.6141">
        <ele>298.9</ele>
        <time>2015-08-31T07:14:37Z</time>
      </trkpt>
      <trkpt lat="47.42752" lon="6.61403">
        <ele>298.8</ele>
        <time>2015-08-31T07:14:38Z</time>
      </trkpt>
      <trkpt lat="47.42755" lon="6.61397">
        <ele>298.8</ele>
        <time>2015-08-31T07:14:39Z</time>
      </trkpt>
      <trkpt lat="47.42757" lon="6.6139">
        <ele>298.9</ele>
        <time>2015-08-31T07:14:40Z</time>
      </trkpt>
      <trkpt lat="47.42759" lon="6.61384">
        <ele>299.2</ele>
        <time>2015-08-31T07:14:41Z</time>
      </trkpt>
      <trkpt lat="47.42762" lon="6.61378">
        <ele>299.7</ele>
        <time>2015-08-31T07:14:42Z</time>
      </trkpt>
      <trkpt lat="47.42765" lon="6.61371">
        <ele>299.1</ele>
        <time>2015-08-31T07:14:43Z</time>
      </trkpt>
      <trkpt lat="47.42768" lon="6.61364">
        <ele>298.4</ele>
        <time>2015-08-31T07:14:44Z</time>
      </trkpt>
      <trkpt lat="47.4277" lon="6.61357">
        <ele>298.4</ele>
        <time>2015-08-31T07:14:45Z</time>
      </trkpt>
      <trkpt lat="47.42773" lon="6.6135">
        <ele>298.4</ele>
        <time>2015-08-31T07:14:46Z</time>
      </trkpt>
      <trkpt lat="47.42776" lon="6.61343">
        <ele>298.5</ele>
        <time>2015-08-31T07:14:47Z</time>
      </trkpt>
      <trkpt lat="47.42779" lon="6.61336">
        <ele>298.5</ele>
        <time>2015-08-31T07:14:48Z</time>
      </trkpt>
      <trkpt lat="47.42781" lon="6.61328">
        <ele>298.4</ele>
        <time>2015-08-31T07:14:49Z</time>
      </trkpt>
      <trkpt lat="47.42783" lon="6.61321">
        <ele>298.4</ele>
        <time>2015-08-31T07:14:50Z</time>
      </trkpt>
      <trkpt lat="47.42785" lon="6.61314">
        <ele>298.3</ele>
        <time>2015-08-31T07:14:51Z</time>
      </trkpt>
      <trkpt lat="47.42787" lon="6.61307">
        <ele>298.3</ele>
        <time>2015-08-31T07:14:52Z</time>
      </trkpt>
      <trkpt lat="47.42789" lon="6.61301">
        <ele>298.3</ele>
        <time>2015-08-31T07:14:53Z</time>
      </trkpt>
      <trkpt lat="47.42791" lon="6.61295">
        <ele>298.5</ele>
        <time>2015-08-31T07:14:54Z</time>
      </trkpt>
      <trkpt lat="47.42793" lon="6.61291">
        <ele>298.7</ele>
        <time>2015-08-31T07:14:55Z</time>
      </trkpt>
      <trkpt lat="47.42794" lon="6.61286">
        <ele>298.6</ele>
        <time>2015-08-31T07:14:56Z</time>
      </trkpt>
      <trkpt lat="47.42795" lon="6.61281">
        <ele>298.5</ele>
        <time>2015-08-31T07:14:57Z</time>
      </trkpt>
      <trkpt lat="47.42796" lon="6.61276">
        <ele>298.5</ele>
        <time>2015-08-31T07:14:58Z</time>
      </trkpt>
      <trkpt lat="47.42797" lon="6.61271">
        <ele>298.5</ele>
        <time>2015-08-31T07:14:59Z</time>
      </trkpt>
      <trkpt lat="47.42798" lon="6.61266">
        <ele>298.8</ele>
        <time>2015-08-31T07:15:00Z</time>
      </trkpt>
      <trkpt lat="47.428" lon="6.61261">
        <ele>298.8</ele>
        <time>2015-08-31T07:15:01Z</time>
      </trkpt>
      <trkpt lat="47.42801" lon="6.61256">
        <ele>298.6</ele>
        <time>2015-08-31T07:15:02Z</time>
      </trkpt>
      <trkpt lat="47.42803" lon="6.61251">
        <ele>298.3</ele>
        <time>2015-08-31T07:15:03Z</time>
      </trkpt>
      <trkpt lat="47.42805" lon="6.61245">
        <ele>298.1</ele>
        <time>2015-08-31T07:15:04Z</time>
      </trkpt>
      <trkpt lat="47.42807" lon="6.6124">
        <ele>298</ele>
        <time>2015-08-31T07:15:05Z</time>
      </trkpt>
      <trkpt lat="47.42809" lon="6.61235">
        <ele>297.9</ele>
        <time>2015-08-31T07:15:06Z</time>
      </trkpt>
      <trkpt lat="47.42811" lon="6.6123">
        <ele>297.9</ele>
        <time>2015-08-31T07:15:07Z</time>
      </trkpt>
      <trkpt lat="47.42813" lon="6.61225">
        <ele>297.8</ele>
        <time>2015-08-31T07:15:08Z</time>
      </trkpt>
      <trkpt lat="47.42814" lon="6.6122">
        <ele>297.7</ele>
        <time>2015-08-31T07:15:09Z</time>
      </trkpt>
      <trkpt lat="47.42816" lon="6.61215">
        <ele>297.7</ele>
        <time>2015-08-31T07:15:10Z</time>
      </trkpt>
      <trkpt lat="47.42817" lon="6.6121">
        <ele>297.6</ele>
        <time>2015-08-31T07:15:11Z</time>
      </trkpt>
      <trkpt lat="47.42819" lon="6.61204">
        <ele>297.6</ele>
        <time>2015-08-31T07:15:12Z</time>
      </trkpt>
      <trkpt lat="47.42821" lon="6.61199">
        <ele>297.6</ele>
        <time>2015-08-31T07:15:13Z</time>
      </trkpt>
      <trkpt lat="47.42822" lon="6.61194">
        <ele>297.6</ele>
        <time>2015-08-31T07:15:14Z</time>
      </trkpt>
      <trkpt lat="47.42824" lon="6.61189">
        <ele>297.5</ele>
        <time>2015-08-31T07:15:15Z</time>
      </trkpt>
      <trkpt lat="47.42825" lon="6.61183">
        <ele>297.4</ele>
        <time>2015-08-31T07:15:16Z</time>
      </trkpt>
      <trkpt lat="47.42826" lon="6.61177">
        <ele>297.2</ele>
        <time>2015-08-31T07:15:17Z</time>
      </trkpt>
      <trkpt lat="47.42828" lon="6.61171">
        <ele>296.9</ele>
        <time>2015-08-31T07:15:18Z</time>
      </trkpt>
      <trkpt lat="47.42829" lon="6.61164">
        <ele>296.6</ele>
        <time>2015-08-31T07:15:19Z</time>
      </trkpt>
      <trkpt lat="47.4283" lon="6.61157">
        <ele>296.2</ele>
        <time>2015-08-31T07:15:20Z</time>
      </trkpt>
      <trkpt lat="47.4283" lon="6.61149">
        <ele>296</ele>
        <time>2015-08-31T07:15:21Z</time>
      </trkpt>
      <trkpt lat="47.42831" lon="6.61142">
        <ele>295.9</ele>
        <time>2015-08-31T07:15:22Z</time>
      </trkpt>
      <trkpt lat="47.42833" lon="6.61136">
        <ele>295.8</ele>
        <time>2015-08-31T07:15:23Z</time>
      </trkpt>
      <trkpt lat="47.42836" lon="6.61129">
        <ele>295.8</ele>
        <time>2015-08-31T07:15:24Z</time>
      </trkpt>
      <trkpt lat="47.42838" lon="6.61123">
        <ele>295.8</ele>
        <time>2015-08-31T07:15:25Z</time>
      </trkpt>
      <trkpt lat="47.42839" lon="6.61116">
        <ele>295.7</ele>
        <time>2015-08-31T07:15:26Z</time>
      </trkpt>
      <trkpt lat="47.42841" lon="6.6111">
        <ele>295.7</ele>
        <time>2015-08-31T07:15:27Z</time>
      </trkpt>
      <trkpt lat="47.42842" lon="6.61103">
        <ele>295.7</ele>
        <time>2015-08-31T07:15:28Z</time>
      </trkpt>
      <trkpt lat="47.42843" lon="6.61096">
        <ele>295.7</ele>
        <time>2015-08-31T07:15:29Z</time>
      </trkpt>
      <trkpt lat="47.42844" lon="6.6109">
        <ele>295.6</ele>
        <time>2015-08-31T07:15:30Z</time>
      </trkpt>
      <trkpt lat="47.42845" lon="6.61083">
        <ele>295.6</ele>
        <time>2015-08-31T07:15:31Z</time>
      </trkpt>
      <trkpt lat="47.42845" lon="6.61078">
        <ele>295.6</ele>
        <time>2015-08-31T07:15:32Z</time>
      </trkpt>
      <trkpt lat="47.42846" lon="6.61072">
        <ele>295.5</ele>
        <time>2015-08-31T07:15:33Z</time>
      </trkpt>
      <trkpt lat="47.42846" lon="6.61067">
        <ele>295.5</ele>
        <time>2015-08-31T07:15:34Z</time>
      </trkpt>
      <trkpt lat="47.42846" lon="6.61063">
        <ele>296</ele>
        <time>2015-08-31T07:15:35Z</time>
      </trkpt>
      <trkpt lat="47.42846" lon="6.61059">
        <ele>296</ele>
        <time>2015-08-31T07:15:36Z</time>
      </trkpt>
      <trkpt lat="47.42845" lon="6.61056">
        <ele>295.9</ele>
        <time>2015-08-31T07:15:37Z</time>
      </trkpt>
      <trkpt lat="47.42845" lon="6.61054">
        <ele>296</ele>
        <time>2015-08-31T07:15:38Z</time>
      </trkpt>
      <trkpt lat="47.42845" lon="6.61051">
        <ele>295.4</ele>
        <time>2015-08-31T07:15:39Z</time>
      </trkpt>
      <trkpt lat="47.42845" lon="6.61049">
        <ele>295.4</ele>
        <time>2015-08-31T07:15:40Z</time>
      </trkpt>
      <trkpt lat="47.42846" lon="6.61046">
        <ele>295.3</ele>
        <time>2015-08-31T07:15:41Z</time>
      </trkpt>
      <trkpt lat="47.42846" lon="6.61044">
        <ele>295.2</ele>
        <time>2015-08-31T07:15:42Z</time>
      </trkpt>
      <trkpt lat="47.42846" lon="6.61042">
        <ele>295.2</ele>
        <time>2015-08-31T07:15:44Z</time>
      </trkpt>
      <trkpt lat="47.42846" lon="6.61039">
        <ele>295.3</ele>
        <time>2015-08-31T07:16:24Z</time>
      </trkpt>
      <trkpt lat="47.42847" lon="6.61037">
        <ele>295.3</ele>
        <time>2015-08-31T07:16:25Z</time>
      </trkpt>
      <trkpt lat="47.42849" lon="6.61035">
        <ele>295.2</ele>
        <time>2015-08-31T07:16:26Z</time>
      </trkpt>
      <trkpt lat="47.4285" lon="6.61032">
        <ele>295.3</ele>
        <time>2015-08-31T07:16:27Z</time>
      </trkpt>
      <trkpt lat="47.4285" lon="6.61028">
        <ele>295.3</ele>
        <time>2015-08-31T07:16:28Z</time>
      </trkpt>
      <trkpt lat="47.4285" lon="6.61024">
        <ele>295.2</ele>
        <time>2015-08-31T07:16:29Z</time>
      </trkpt>
      <trkpt lat="47.4285" lon="6.61019">
        <ele>295.1</ele>
        <time>2015-08-31T07:16:30Z</time>
      </trkpt>
      <trkpt lat="47.42851" lon="6.61014">
        <ele>295</ele>
        <time>2015-08-31T07:16:31Z</time>
      </trkpt>
      <trkpt lat="47.42851" lon="6.61009">
        <ele>294.9</ele>
        <time>2015-08-31T07:16:32Z</time>
      </trkpt>
      <trkpt lat="47.42852" lon="6.61002">
        <ele>294.8</ele>
        <time>2015-08-31T07:16:33Z</time>
      </trkpt>
      <trkpt lat="47.42853" lon="6.60996">
        <ele>294.7</ele>
        <time>2015-08-31T07:16:34Z</time>
      </trkpt>
      <trkpt lat="47.42853" lon="6.6099">
        <ele>294.7</ele>
        <time>2015-08-31T07:16:35Z</time>
      </trkpt>
      <trkpt lat="47.42854" lon="6.60983">
        <ele>294.7</ele>
        <time>2015-08-31T07:16:36Z</time>
      </trkpt>
      <trkpt lat="47.42855" lon="6.60977">
        <ele>294.6</ele>
        <time>2015-08-31T07:16:37Z</time>
      </trkpt>
      <trkpt lat="47.42856" lon="6.60971">
        <ele>294.7</ele>
        <time>2015-08-31T07:16:38Z</time>
      </trkpt>
      <trkpt lat="47.42857" lon="6.60964">
        <ele>294.6</ele>
        <time>2015-08-31T07:16:39Z</time>
      </trkpt>
      <trkpt lat="47.42858" lon="6.60957">
        <ele>294.6</ele>
        <time>2015-08-31T07:16:40Z</time>
      </trkpt>
      <trkpt lat="47.42859" lon="6.60951">
        <ele>294.8</ele>
        <time>2015-08-31T07:16:41Z</time>
      </trkpt>
      <trkpt lat="47.4286" lon="6.60944">
        <ele>294.7</ele>
        <time>2015-08-31T07:16:42Z</time>
      </trkpt>
      <trkpt lat="47.42861" lon="6.60937">
        <ele>294.7</ele>
        <time>2015-08-31T07:16:43Z</time>
      </trkpt>
      <trkpt lat="47.42862" lon="6.60931">
        <ele>294.8</ele>
        <time>2015-08-31T07:16:44Z</time>
      </trkpt>
      <trkpt lat="47.42862" lon="6.60924">
        <ele>294.8</ele>
        <time>2015-08-31T07:16:45Z</time>
      </trkpt>
      <trkpt lat="47.42863" lon="6.60917">
        <ele>294.7</ele>
        <time>2015-08-31T07:16:46Z</time>
      </trkpt>
      <trkpt lat="47.42864" lon="6.60911">
        <ele>294.7</ele>
        <time>2015-08-31T07:16:47Z</time>
      </trkpt>
      <trkpt lat="47.42865" lon="6.60904">
        <ele>294.7</ele>
        <time>2015-08-31T07:16:48Z</time>
      </trkpt>
      <trkpt lat="47.42866" lon="6.60897">
        <ele>294.7</ele>
        <time>2015-08-31T07:16:49Z</time>
      </trkpt>
      <trkpt lat="47.42866" lon="6.60891">
        <ele>294.7</ele>
        <time>2015-08-31T07:16:50Z</time>
      </trkpt>
      <trkpt lat="47.42867" lon="6.60885">
        <ele>294.7</ele>
        <time>2015-08-31T07:16:51Z</time>
      </trkpt>
      <trkpt lat="47.42868" lon="6.60878">
        <ele>294.7</ele>
        <time>2015-08-31T07:16:52Z</time>
      </trkpt>
      <trkpt lat="47.42869" lon="6.60872">
        <ele>294.7</ele>
        <time>2015-08-31T07:16:53Z</time>
      </trkpt>
      <trkpt lat="47.4287" lon="6.60866">
        <ele>294.7</ele>
        <time>2015-08-31T07:16:54Z</time>
      </trkpt>
      <trkpt lat="47.42871" lon="6.60859">
        <ele>294.7</ele>
        <time>2015-08-31T07:16:55Z</time>
      </trkpt>
      <trkpt lat="47.42873" lon="6.60853">
        <ele>294.7</ele>
        <time>2015-08-31T07:16:56Z</time>
      </trkpt>
      <trkpt lat="47.42874" lon="6.60847">
        <ele>294.7</ele>
        <time>2015-08-31T07:16:57Z</time>
      </trkpt>
      <trkpt lat="47.42874" lon="6.60841">
        <ele>294.7</ele>
        <time>2015-08-31T07:16:58Z</time>
      </trkpt>
      <trkpt lat="47.42875" lon="6.60835">
        <ele>294.8</ele>
        <time>2015-08-31T07:16:59Z</time>
      </trkpt>
      <trkpt lat="47.42875" lon="6.60829">
        <ele>294.9</ele>
        <time>2015-08-31T07:17:00Z</time>
      </trkpt>
      <trkpt lat="47.42875" lon="6.60824">
        <ele>295</ele>
        <time>2015-08-31T07:17:01Z</time>
      </trkpt>
      <trkpt lat="47.42876" lon="6.60819">
        <ele>295.1</ele>
        <time>2015-08-31T07:17:02Z</time>
      </trkpt>
      <trkpt lat="47.42876" lon="6.60814">
        <ele>295.2</ele>
        <time>2015-08-31T07:17:03Z</time>
      </trkpt>
      <trkpt lat="47.42877" lon="6.6081">
        <ele>295.2</ele>
        <time>2015-08-31T07:17:04Z</time>
      </trkpt>
      <trkpt lat="47.42878" lon="6.60806">
        <ele>294.9</ele>
        <time>2015-08-31T07:17:05Z</time>
      </trkpt>
      <trkpt lat="47.42878" lon="6.60801">
        <ele>294.5</ele>
        <time>2015-08-31T07:17:06Z</time>
      </trkpt>
      <trkpt lat="47.42879" lon="6.60797">
        <ele>294</ele>
        <time>2015-08-31T07:17:07Z</time>
      </trkpt>
      <trkpt lat="47.42879" lon="6.60793">
        <ele>293.6</ele>
        <time>2015-08-31T07:17:08Z</time>
      </trkpt>
      <trkpt lat="47.42879" lon="6.60787">
        <ele>293.9</ele>
        <time>2015-08-31T07:17:09Z</time>
      </trkpt>
      <trkpt lat="47.42879" lon="6.60782">
        <ele>293.9</ele>
        <time>2015-08-31T07:17:10Z</time>
      </trkpt>
      <trkpt lat="47.42879" lon="6.60776">
        <ele>294</ele>
        <time>2015-08-31T07:17:11Z</time>
      </trkpt>
      <trkpt lat="47.42878" lon="6.60771">
        <ele>294</ele>
        <time>2015-08-31T07:17:12Z</time>
      </trkpt>
      <trkpt lat="47.42878" lon="6.60765">
        <ele>294.1</ele>
        <time>2015-08-31T07:17:13Z</time>
      </trkpt>
      <trkpt lat="47.42877" lon="6.6076">
        <ele>294.1</ele>
        <time>2015-08-31T07:17:14Z</time>
      </trkpt>
      <trkpt lat="47.42876" lon="6.60755">
        <ele>294.2</ele>
        <time>2015-08-31T07:17:15Z</time>
      </trkpt>
      <trkpt lat="47.42874" lon="6.60749">
        <ele>294.6</ele>
        <time>2015-08-31T07:17:16Z</time>
      </trkpt>
      <trkpt lat="47.42872" lon="6.60744">
        <ele>295.1</ele>
        <time>2015-08-31T07:17:17Z</time>
      </trkpt>
      <trkpt lat="47.42871" lon="6.60739">
        <ele>295</ele>
        <time>2015-08-31T07:17:18Z</time>
      </trkpt>
      <trkpt lat="47.4287" lon="6.60734">
        <ele>295.1</ele>
        <time>2015-08-31T07:17:19Z</time>
      </trkpt>
      <trkpt lat="47.4287" lon="6.60728">
        <ele>295.2</ele>
        <time>2015-08-31T07:17:20Z</time>
      </trkpt>
      <trkpt lat="47.42869" lon="6.60723">
        <ele>295.2</ele>
        <time>2015-08-31T07:17:21Z</time>
      </trkpt>
      <trkpt lat="47.42868" lon="6.60718">
        <ele>295.2</ele>
        <time>2015-08-31T07:17:22Z</time>
      </trkpt>
      <trkpt lat="47.42867" lon="6.60713">
        <ele>295.2</ele>
        <time>2015-08-31T07:17:23Z</time>
      </trkpt>
      <trkpt lat="47.42866" lon="6.60708">
        <ele>295.2</ele>
        <time>2015-08-31T07:17:24Z</time>
      </trkpt>
      <trkpt lat="47.42865" lon="6.60703">
        <ele>295.3</ele>
        <time>2015-08-31T07:17:25Z</time>
      </trkpt>
      <trkpt lat="47.42864" lon="6.60698">
        <ele>295.3</ele>
        <time>2015-08-31T07:17:26Z</time>
      </trkpt>
      <trkpt lat="47.42863" lon="6.60694">
        <ele>295.3</ele>
        <time>2015-08-31T07:17:27Z</time>
      </trkpt>
      <trkpt lat="47.42862" lon="6.6069">
        <ele>295.1</ele>
        <time>2015-08-31T07:17:28Z</time>
      </trkpt>
      <trkpt lat="47.42861" lon="6.60686">
        <ele>295.2</ele>
        <time>2015-08-31T07:17:29Z</time>
      </trkpt>
      <trkpt lat="47.4286" lon="6.60683">
        <ele>295.3</ele>
        <time>2015-08-31T07:17:30Z</time>
      </trkpt>
      <trkpt lat="47.42858" lon="6.60681">
        <ele>295.2</ele>
        <time>2015-08-31T07:17:31Z</time>
      </trkpt>
      <trkpt lat="47.42855" lon="6.6068">
        <ele>294.9</ele>
        <time>2015-08-31T07:17:32Z</time>
      </trkpt>
      <trkpt lat="47.42852" lon="6.60682">
        <ele>294.7</ele>
        <time>2015-08-31T07:17:33Z</time>
      </trkpt>
      <trkpt lat="47.42849" lon="6.60685">
        <ele>294.2</ele>
        <time>2015-08-31T07:17:34Z</time>
      </trkpt>
      <trkpt lat="47.42846" lon="6.60688">
        <ele>294.3</ele>
        <time>2015-08-31T07:17:35Z</time>
      </trkpt>
      <trkpt lat="47.42844" lon="6.60692">
        <ele>294.4</ele>
        <time>2015-08-31T07:17:36Z</time>
      </trkpt>
      <trkpt lat="47.42841" lon="6.60695">
        <ele>294.2</ele>
        <time>2015-08-31T07:17:37Z</time>
      </trkpt>
      <trkpt lat="47.42839" lon="6.60698">
        <ele>294.8</ele>
        <time>2015-08-31T07:17:38Z</time>
      </trkpt>
      <trkpt lat="47.42836" lon="6.60701">
        <ele>295.2</ele>
        <time>2015-08-31T07:17:39Z</time>
      </trkpt>
      <trkpt lat="47.42833" lon="6.60705">
        <ele>295.1</ele>
        <time>2015-08-31T07:17:40Z</time>
      </trkpt>
      <trkpt lat="47.42831" lon="6.60709">
        <ele>294.7</ele>
        <time>2015-08-31T07:17:41Z</time>
      </trkpt>
      <trkpt lat="47.42829" lon="6.60714">
        <ele>294.9</ele>
        <time>2015-08-31T07:17:42Z</time>
      </trkpt>
      <trkpt lat="47.42827" lon="6.60718">
        <ele>295</ele>
        <time>2015-08-31T07:17:43Z</time>
      </trkpt>
      <trkpt lat="47.42825" lon="6.60722">
        <ele>294.9</ele>
        <time>2015-08-31T07:17:44Z</time>
      </trkpt>
      <trkpt lat="47.42824" lon="6.60727">
        <ele>295.2</ele>
        <time>2015-08-31T07:17:45Z</time>
      </trkpt>
      <trkpt lat="47.42822" lon="6.60731">
        <ele>295.3</ele>
        <time>2015-08-31T07:17:46Z</time>
      </trkpt>
      <trkpt lat="47.42819" lon="6.60735">
        <ele>295.4</ele>
        <time>2015-08-31T07:17:47Z</time>
      </trkpt>
      <trkpt lat="47.42817" lon="6.60739">
        <ele>296.1</ele>
        <time>2015-08-31T07:17:48Z</time>
      </trkpt>
      <trkpt lat="47.42814" lon="6.60742">
        <ele>296.6</ele>
        <time>2015-08-31T07:17:49Z</time>
      </trkpt>
      <trkpt lat="47.42811" lon="6.60744">
        <ele>297</ele>
        <time>2015-08-31T07:17:50Z</time>
      </trkpt>
      <trkpt lat="47.42808" lon="6.60746">
        <ele>297.3</ele>
        <time>2015-08-31T07:17:51Z</time>
      </trkpt>
      <trkpt lat="47.42804" lon="6.60747">
        <ele>297.6</ele>
        <time>2015-08-31T07:17:52Z</time>
      </trkpt>
      <trkpt lat="47.42802" lon="6.60747">
        <ele>297.9</ele>
        <time>2015-08-31T07:17:53Z</time>
      </trkpt>
      <trkpt lat="47.42799" lon="6.60748">
        <ele>298.3</ele>
        <time>2015-08-31T07:17:54Z</time>
      </trkpt>
      <trkpt lat="47.42796" lon="6.60748">
        <ele>298.7</ele>
        <time>2015-08-31T07:17:55Z</time>
      </trkpt>
      <trkpt lat="47.42792" lon="6.60749">
        <ele>299</ele>
        <time>2015-08-31T07:17:56Z</time>
      </trkpt>
      <trkpt lat="47.42788" lon="6.6075">
        <ele>299.2</ele>
        <time>2015-08-31T07:17:57Z</time>
      </trkpt>
      <trkpt lat="47.42783" lon="6.60749">
        <ele>299.7</ele>
        <time>2015-08-31T07:17:58Z</time>
      </trkpt>
      <trkpt lat="47.42779" lon="6.6075">
        <ele>300.2</ele>
        <time>2015-08-31T07:17:59Z</time>
      </trkpt>
      <trkpt lat="47.42775" lon="6.60751">
        <ele>300.8</ele>
        <time>2015-08-31T07:18:00Z</time>
      </trkpt>
      <trkpt lat="47.42772" lon="6.60753">
        <ele>301.2</ele>
        <time>2015-08-31T07:18:01Z</time>
      </trkpt>
      <trkpt lat="47.42768" lon="6.60754">
        <ele>301.4</ele>
        <time>2015-08-31T07:18:02Z</time>
      </trkpt>
      <trkpt lat="47.42764" lon="6.60756">
        <ele>301.7</ele>
        <time>2015-08-31T07:18:03Z</time>
      </trkpt>
      <trkpt lat="47.42761" lon="6.60758">
        <ele>302.3</ele>
        <time>2015-08-31T07:18:04Z</time>
      </trkpt>
      <trkpt lat="47.42758" lon="6.60759">
        <ele>302.5</ele>
        <time>2015-08-31T07:18:05Z</time>
      </trkpt>
      <trkpt lat="47.42754" lon="6.6076">
        <ele>303.2</ele>
        <time>2015-08-31T07:18:06Z</time>
      </trkpt>
      <trkpt lat="47.42751" lon="6.60762">
        <ele>303.9</ele>
        <time>2015-08-31T07:18:07Z</time>
      </trkpt>
      <trkpt lat="47.42747" lon="6.60763">
        <ele>304.5</ele>
        <time>2015-08-31T07:18:08Z</time>
      </trkpt>
      <trkpt lat="47.42744" lon="6.60765">
        <ele>305.1</ele>
        <time>2015-08-31T07:18:09Z</time>
      </trkpt>
      <trkpt lat="47.42741" lon="6.60766">
        <ele>305.6</ele>
        <time>2015-08-31T07:18:10Z</time>
      </trkpt>
      <trkpt lat="47.42737" lon="6.60766">
        <ele>306.2</ele>
        <time>2015-08-31T07:18:11Z</time>
      </trkpt>
      <trkpt lat="47.42734" lon="6.60766">
        <ele>306.4</ele>
        <time>2015-08-31T07:18:12Z</time>
      </trkpt>
      <trkpt lat="47.42731" lon="6.60767">
        <ele>306.5</ele>
        <time>2015-08-31T07:18:13Z</time>
      </trkpt>
      <trkpt lat="47.42728" lon="6.60767">
        <ele>306.8</ele>
        <time>2015-08-31T07:18:14Z</time>
      </trkpt>
      <trkpt lat="47.42724" lon="6.60767">
        <ele>306.8</ele>
        <time>2015-08-31T07:18:15Z</time>
      </trkpt>
      <trkpt lat="47.42721" lon="6.60768">
        <ele>307</ele>
        <time>2015-08-31T07:18:16Z</time>
      </trkpt>
      <trkpt lat="47.42717" lon="6.60769">
        <ele>307.3</ele>
        <time>2015-08-31T07:18:17Z</time>
      </trkpt>
      <trkpt lat="47.42713" lon="6.60769">
        <ele>307.6</ele>
        <time>2015-08-31T07:18:18Z</time>
      </trkpt>
      <trkpt lat="47.42709" lon="6.60769">
        <ele>308.3</ele>
        <time>2015-08-31T07:18:19Z</time>
      </trkpt>
      <trkpt lat="47.42706" lon="6.6077">
        <ele>308.8</ele>
        <time>2015-08-31T07:18:20Z</time>
      </trkpt>
      <trkpt lat="47.42703" lon="6.6077">
        <ele>309.5</ele>
        <time>2015-08-31T07:18:21Z</time>
      </trkpt>
      <trkpt lat="47.42699" lon="6.6077">
        <ele>310.1</ele>
        <time>2015-08-31T07:18:22Z</time>
      </trkpt>
      <trkpt lat="47.42696" lon="6.6077">
        <ele>310.2</ele>
        <time>2015-08-31T07:18:23Z</time>
      </trkpt>
      <trkpt lat="47.42693" lon="6.6077">
        <ele>310.6</ele>
        <time>2015-08-31T07:18:24Z</time>
      </trkpt>
      <trkpt lat="47.42689" lon="6.6077">
        <ele>310.8</ele>
        <time>2015-08-31T07:18:25Z</time>
      </trkpt>
      <trkpt lat="47.42685" lon="6.6077">
        <ele>311.1</ele>
        <time>2015-08-31T07:18:26Z</time>
      </trkpt>
      <trkpt lat="47.42682" lon="6.6077">
        <ele>311.3</ele>
        <time>2015-08-31T07:18:27Z</time>
      </trkpt>
      <trkpt lat="47.42678" lon="6.60771">
        <ele>311.2</ele>
        <time>2015-08-31T07:18:28Z</time>
      </trkpt>
      <trkpt lat="47.42675" lon="6.60772">
        <ele>311.1</ele>
        <time>2015-08-31T07:18:29Z</time>
      </trkpt>
      <trkpt lat="47.42671" lon="6.60773">
        <ele>311.1</ele>
        <time>2015-08-31T07:18:30Z</time>
      </trkpt>
      <trkpt lat="47.42667" lon="6.60773">
        <ele>311.3</ele>
        <time>2015-08-31T07:18:31Z</time>
      </trkpt>
      <trkpt lat="47.42664" lon="6.60774">
        <ele>311.3</ele>
        <time>2015-08-31T07:18:32Z</time>
      </trkpt>
      <trkpt lat="47.42661" lon="6.60775">
        <ele>311.3</ele>
        <time>2015-08-31T07:18:33Z</time>
      </trkpt>
      <trkpt lat="47.42658" lon="6.60775">
        <ele>311.1</ele>
        <time>2015-08-31T07:18:34Z</time>
      </trkpt>
      <trkpt lat="47.42654" lon="6.60776">
        <ele>310.7</ele>
        <time>2015-08-31T07:18:35Z</time>
      </trkpt>
      <trkpt lat="47.42649" lon="6.60777">
        <ele>310.4</ele>
        <time>2015-08-31T07:18:36Z</time>
      </trkpt>
      <trkpt lat="47.42645" lon="6.60778">
        <ele>310.5</ele>
        <time>2015-08-31T07:18:37Z</time>
      </trkpt>
      <trkpt lat="47.42641" lon="6.60778">
        <ele>310.6</ele>
        <time>2015-08-31T07:18:38Z</time>
      </trkpt>
      <trkpt lat="47.42637" lon="6.60779">
        <ele>310.5</ele>
        <time>2015-08-31T07:18:39Z</time>
      </trkpt>
      <trkpt lat="47.42633" lon="6.6078">
        <ele>310.5</ele>
        <time>2015-08-31T07:18:40Z</time>
      </trkpt>
      <trkpt lat="47.42629" lon="6.60781">
        <ele>310</ele>
        <time>2015-08-31T07:18:41Z</time>
      </trkpt>
      <trkpt lat="47.42625" lon="6.60782">
        <ele>309.5</ele>
        <time>2015-08-31T07:18:42Z</time>
      </trkpt>
      <trkpt lat="47.42621" lon="6.60783">
        <ele>309.7</ele>
        <time>2015-08-31T07:18:43Z</time>
      </trkpt>
      <trkpt lat="47.42617" lon="6.60785">
        <ele>309.7</ele>
        <time>2015-08-31T07:18:44Z</time>
      </trkpt>
      <trkpt lat="47.42613" lon="6.60786">
        <ele>309.4</ele>
        <time>2015-08-31T07:18:45Z</time>
      </trkpt>
      <trkpt lat="47.42609" lon="6.60787">
        <ele>309</ele>
        <time>2015-08-31T07:18:46Z</time>
      </trkpt>
      <trkpt lat="47.42606" lon="6.60788">
        <ele>309</ele>
        <time>2015-08-31T07:18:47Z</time>
      </trkpt>
      <trkpt lat="47.42603" lon="6.60789">
        <ele>308.9</ele>
        <time>2015-08-31T07:18:48Z</time>
      </trkpt>
      <trkpt lat="47.42599" lon="6.60791">
        <ele>308.8</ele>
        <time>2015-08-31T07:18:49Z</time>
      </trkpt>
      <trkpt lat="47.42595" lon="6.60792">
        <ele>308.7</ele>
        <time>2015-08-31T07:18:50Z</time>
      </trkpt>
      <trkpt lat="47.42592" lon="6.60793">
        <ele>308.5</ele>
        <time>2015-08-31T07:18:51Z</time>
      </trkpt>
      <trkpt lat="47.42588" lon="6.60794">
        <ele>308.3</ele>
        <time>2015-08-31T07:18:52Z</time>
      </trkpt>
      <trkpt lat="47.42584" lon="6.60795">
        <ele>308</ele>
        <time>2015-08-31T07:18:53Z</time>
      </trkpt>
      <trkpt lat="47.42579" lon="6.60796">
        <ele>307.5</ele>
        <time>2015-08-31T07:18:54Z</time>
      </trkpt>
      <trkpt lat="47.42574" lon="6.60798">
        <ele>307.2</ele>
        <time>2015-08-31T07:18:55Z</time>
      </trkpt>
      <trkpt lat="47.4257" lon="6.60799">
        <ele>307</ele>
        <time>2015-08-31T07:18:56Z</time>
      </trkpt>
      <trkpt lat="47.42565" lon="6.60801">
        <ele>306.7</ele>
        <time>2015-08-31T07:18:57Z</time>
      </trkpt>
      <trkpt lat="47.4256" lon="6.60802">
        <ele>306.3</ele>
        <time>2015-08-31T07:18:58Z</time>
      </trkpt>
      <trkpt lat="47.42556" lon="6.60803">
        <ele>306</ele>
        <time>2015-08-31T07:18:59Z</time>
      </trkpt>
      <trkpt lat="47.42552" lon="6.60805">
        <ele>305.6</ele>
        <time>2015-08-31T07:19:00Z</time>
      </trkpt>
      <trkpt lat="47.42548" lon="6.60807">
        <ele>305.2</ele>
        <time>2015-08-31T07:19:01Z</time>
      </trkpt>
      <trkpt lat="47.42545" lon="6.60809">
        <ele>304.9</ele>
        <time>2015-08-31T07:19:02Z</time>
      </trkpt>
      <trkpt lat="47.42541" lon="6.60811">
        <ele>304.8</ele>
        <time>2015-08-31T07:19:03Z</time>
      </trkpt>
      <trkpt lat="47.42538" lon="6.60814">
        <ele>304.7</ele>
        <time>2015-08-31T07:19:04Z</time>
      </trkpt>
      <trkpt lat="47.42534" lon="6.60816">
        <ele>304.5</ele>
        <time>2015-08-31T07:19:05Z</time>
      </trkpt>
      <trkpt lat="47.42529" lon="6.60819">
        <ele>304.2</ele>
        <time>2015-08-31T07:19:06Z</time>
      </trkpt>
      <trkpt lat="47.42525" lon="6.60821">
        <ele>304.1</ele>
        <time>2015-08-31T07:19:07Z</time>
      </trkpt>
      <trkpt lat="47.42521" lon="6.60823">
        <ele>304.1</ele>
        <time>2015-08-31T07:19:08Z</time>
      </trkpt>
      <trkpt lat="47.42516" lon="6.60825">
        <ele>303.9</ele>
        <time>2015-08-31T07:19:09Z</time>
      </trkpt>
      <trkpt lat="47.42512" lon="6.60828">
        <ele>303.8</ele>
        <time>2015-08-31T07:19:10Z</time>
      </trkpt>
      <trkpt lat="47.42509" lon="6.60831">
        <ele>303.8</ele>
        <time>2015-08-31T07:19:11Z</time>
      </trkpt>
      <trkpt lat="47.42505" lon="6.60834">
        <ele>303.8</ele>
        <time>2015-08-31T07:19:12Z</time>
      </trkpt>
      <trkpt lat="47.42501" lon="6.60837">
        <ele>303.9</ele>
        <time>2015-08-31T07:19:13Z</time>
      </trkpt>
      <trkpt lat="47.42497" lon="6.6084">
        <ele>304</ele>
        <time>2015-08-31T07:19:14Z</time>
      </trkpt>
      <trkpt lat="47.42494" lon="6.60842">
        <ele>304.2</ele>
        <time>2015-08-31T07:19:15Z</time>
      </trkpt>
      <trkpt lat="47.4249" lon="6.60845">
        <ele>304.5</ele>
        <time>2015-08-31T07:19:16Z</time>
      </trkpt>
      <trkpt lat="47.42487" lon="6.60847">
        <ele>304.9</ele>
        <time>2015-08-31T07:19:17Z</time>
      </trkpt>
      <trkpt lat="47.42483" lon="6.6085">
        <ele>305.3</ele>
        <time>2015-08-31T07:19:18Z</time>
      </trkpt>
      <trkpt lat="47.4248" lon="6.60854">
        <ele>305.6</ele>
        <time>2015-08-31T07:19:19Z</time>
      </trkpt>
      <trkpt lat="47.42476" lon="6.60857">
        <ele>306</ele>
        <time>2015-08-31T07:19:20Z</time>
      </trkpt>
      <trkpt lat="47.42472" lon="6.6086">
        <ele>306.4</ele>
        <time>2015-08-31T07:19:21Z</time>
      </trkpt>
      <trkpt lat="47.42469" lon="6.60862">
        <ele>306.8</ele>
        <time>2015-08-31T07:19:22Z</time>
      </trkpt>
      <trkpt lat="47.42465" lon="6.60865">
        <ele>307.1</ele>
        <time>2015-08-31T07:19:23Z</time>
      </trkpt>
      <trkpt lat="47.42462" lon="6.60868">
        <ele>307.4</ele>
        <time>2015-08-31T07:19:24Z</time>
      </trkpt>
      <trkpt lat="47.42458" lon="6.60871">
        <ele>307.8</ele>
        <time>2015-08-31T07:19:25Z</time>
      </trkpt>
      <trkpt lat="47.42454" lon="6.60874">
        <ele>308</ele>
        <time>2015-08-31T07:19:26Z</time>
      </trkpt>
      <trkpt lat="47.42451" lon="6.60876">
        <ele>308.2</ele>
        <time>2015-08-31T07:19:27Z</time>
      </trkpt>
      <trkpt lat="47.42447" lon="6.60878">
        <ele>308.3</ele>
        <time>2015-08-31T07:19:28Z</time>
      </trkpt>
      <trkpt lat="47.42444" lon="6.60881">
        <ele>308.3</ele>
        <time>2015-08-31T07:19:29Z</time>
      </trkpt>
      <trkpt lat="47.4244" lon="6.60884">
        <ele>308.3</ele>
        <time>2015-08-31T07:19:30Z</time>
      </trkpt>
      <trkpt lat="47.42437" lon="6.60888">
        <ele>308.3</ele>
        <time>2015-08-31T07:19:31Z</time>
      </trkpt>
      <trkpt lat="47.42433" lon="6.6089">
        <ele>308.4</ele>
        <time>2015-08-31T07:19:32Z</time>
      </trkpt>
      <trkpt lat="47.4243" lon="6.60893">
        <ele>308.5</ele>
        <time>2015-08-31T07:19:33Z</time>
      </trkpt>
      <trkpt lat="47.42426" lon="6.60895">
        <ele>308.5</ele>
        <time>2015-08-31T07:19:34Z</time>
      </trkpt>
      <trkpt lat="47.42423" lon="6.60899">
        <ele>308.4</ele>
        <time>2015-08-31T07:19:35Z</time>
      </trkpt>
      <trkpt lat="47.4242" lon="6.60903">
        <ele>308.4</ele>
        <time>2015-08-31T07:19:36Z</time>
      </trkpt>
      <trkpt lat="47.42416" lon="6.60906">
        <ele>308.6</ele>
        <time>2015-08-31T07:19:37Z</time>
      </trkpt>
      <trkpt lat="47.42413" lon="6.60909">
        <ele>308.6</ele>
        <time>2015-08-31T07:19:38Z</time>
      </trkpt>
      <trkpt lat="47.4241" lon="6.60911">
        <ele>308.5</ele>
        <time>2015-08-31T07:19:39Z</time>
      </trkpt>
      <trkpt lat="47.42406" lon="6.60913">
        <ele>308.5</ele>
        <time>2015-08-31T07:19:40Z</time>
      </trkpt>
      <trkpt lat="47.42403" lon="6.60916">
        <ele>308.4</ele>
        <time>2015-08-31T07:19:41Z</time>
      </trkpt>
      <trkpt lat="47.42399" lon="6.60919">
        <ele>308.5</ele>
        <time>2015-08-31T07:19:42Z</time>
      </trkpt>
      <trkpt lat="47.42395" lon="6.60921">
        <ele>308.5</ele>
        <time>2015-08-31T07:19:43Z</time>
      </trkpt>
      <trkpt lat="47.42392" lon="6.60924">
        <ele>308.5</ele>
        <time>2015-08-31T07:19:44Z</time>
      </trkpt>
      <trkpt lat="47.42388" lon="6.60926">
        <ele>308.6</ele>
        <time>2015-08-31T07:19:45Z</time>
      </trkpt>
      <trkpt lat="47.42384" lon="6.60929">
        <ele>308.7</ele>
        <time>2015-08-31T07:19:46Z</time>
      </trkpt>
      <trkpt lat="47.42381" lon="6.60931">
        <ele>308.7</ele>
        <time>2015-08-31T07:19:47Z</time>
      </trkpt>
      <trkpt lat="47.42377" lon="6.60934">
        <ele>308.8</ele>
        <time>2015-08-31T07:19:48Z</time>
      </trkpt>
      <trkpt lat="47.42374" lon="6.60936">
        <ele>309</ele>
        <time>2015-08-31T07:19:49Z</time>
      </trkpt>
      <trkpt lat="47.4237" lon="6.60939">
        <ele>309.1</ele>
        <time>2015-08-31T07:19:50Z</time>
      </trkpt>
      <trkpt lat="47.42367" lon="6.6094">
        <ele>309.3</ele>
        <time>2015-08-31T07:19:51Z</time>
      </trkpt>
      <trkpt lat="47.42362" lon="6.60941">
        <ele>309.4</ele>
        <time>2015-08-31T07:19:52Z</time>
      </trkpt>
      <trkpt lat="47.42358" lon="6.60942">
        <ele>309.6</ele>
        <time>2015-08-31T07:19:53Z</time>
      </trkpt>
      <trkpt lat="47.42354" lon="6.60943">
        <ele>309.8</ele>
        <time>2015-08-31T07:19:54Z</time>
      </trkpt>
      <trkpt lat="47.4235" lon="6.60944">
        <ele>310</ele>
        <time>2015-08-31T07:19:55Z</time>
      </trkpt>
      <trkpt lat="47.42346" lon="6.60945">
        <ele>310.2</ele>
        <time>2015-08-31T07:19:56Z</time>
      </trkpt>
      <trkpt lat="47.42342" lon="6.60946">
        <ele>310.4</ele>
        <time>2015-08-31T07:19:57Z</time>
      </trkpt>
      <trkpt lat="47.42338" lon="6.60947">
        <ele>310.4</ele>
        <time>2015-08-31T07:19:58Z</time>
      </trkpt>
      <trkpt lat="47.42334" lon="6.60948">
        <ele>310.4</ele>
        <time>2015-08-31T07:19:59Z</time>
      </trkpt>
      <trkpt lat="47.42331" lon="6.60948">
        <ele>310.4</ele>
        <time>2015-08-31T07:20:00Z</time>
      </trkpt>
      <trkpt lat="47.42327" lon="6.60949">
        <ele>310.4</ele>
        <time>2015-08-31T07:20:01Z</time>
      </trkpt>
      <trkpt lat="47.42323" lon="6.6095">
        <ele>310.3</ele>
        <time>2015-08-31T07:20:02Z</time>
      </trkpt>
      <trkpt lat="47.42319" lon="6.60951">
        <ele>310.1</ele>
        <time>2015-08-31T07:20:03Z</time>
      </trkpt>
      <trkpt lat="47.42316" lon="6.60952">
        <ele>310</ele>
        <time>2015-08-31T07:20:04Z</time>
      </trkpt>
      <trkpt lat="47.42312" lon="6.60953">
        <ele>309.9</ele>
        <time>2015-08-31T07:20:05Z</time>
      </trkpt>
      <trkpt lat="47.42308" lon="6.60954">
        <ele>309.7</ele>
        <time>2015-08-31T07:20:06Z</time>
      </trkpt>
      <trkpt lat="47.42304" lon="6.60955">
        <ele>309.7</ele>
        <time>2015-08-31T07:20:07Z</time>
      </trkpt>
      <trkpt lat="47.423" lon="6.60956">
        <ele>309.8</ele>
        <time>2015-08-31T07:20:08Z</time>
      </trkpt>
      <trkpt lat="47.42296" lon="6.60956">
        <ele>309.9</ele>
        <time>2015-08-31T07:20:09Z</time>
      </trkpt>
      <trkpt lat="47.42292" lon="6.60958">
        <ele>310</ele>
        <time>2015-08-31T07:20:10Z</time>
      </trkpt>
      <trkpt lat="47.42288" lon="6.60958">
        <ele>310.2</ele>
        <time>2015-08-31T07:20:11Z</time>
      </trkpt>
      <trkpt lat="47.42284" lon="6.6096">
        <ele>310.1</ele>
        <time>2015-08-31T07:20:11Z</time>
      </trkpt>
      <trkpt lat="47.4228" lon="6.60961">
        <ele>310.4</ele>
        <time>2015-08-31T07:20:13Z</time>
      </trkpt>
      <trkpt lat="47.42277" lon="6.60962">
        <ele>310.5</ele>
        <time>2015-08-31T07:20:14Z</time>
      </trkpt>
      <trkpt lat="47.42273" lon="6.60963">
        <ele>310.7</ele>
        <time>2015-08-31T07:20:15Z</time>
      </trkpt>
      <trkpt lat="47.42269" lon="6.60964">
        <ele>311</ele>
        <time>2015-08-31T07:20:16Z</time>
      </trkpt>
      <trkpt lat="47.42265" lon="6.60964">
        <ele>311.2</ele>
        <time>2015-08-31T07:20:17Z</time>
      </trkpt>
      <trkpt lat="47.42261" lon="6.60965">
        <ele>311.4</ele>
        <time>2015-08-31T07:20:18Z</time>
      </trkpt>
      <trkpt lat="47.42258" lon="6.60966">
        <ele>311.6</ele>
        <time>2015-08-31T07:20:19Z</time>
      </trkpt>
      <trkpt lat="47.42254" lon="6.60966">
        <ele>311.8</ele>
        <time>2015-08-31T07:20:20Z</time>
      </trkpt>
      <trkpt lat="47.4225" lon="6.60967">
        <ele>312</ele>
        <time>2015-08-31T07:20:21Z</time>
      </trkpt>
      <trkpt lat="47.42246" lon="6.60968">
        <ele>312.3</ele>
        <time>2015-08-31T07:20:22Z</time>
      </trkpt>
      <trkpt lat="47.42242" lon="6.6097">
        <ele>312.5</ele>
        <time>2015-08-31T07:20:23Z</time>
      </trkpt>
      <trkpt lat="47.42239" lon="6.60971">
        <ele>312.7</ele>
        <time>2015-08-31T07:20:24Z</time>
      </trkpt>
      <trkpt lat="47.42235" lon="6.60972">
        <ele>313</ele>
        <time>2015-08-31T07:20:25Z</time>
      </trkpt>
      <trkpt lat="47.42232" lon="6.60974">
        <ele>313</ele>
        <time>2015-08-31T07:20:26Z</time>
      </trkpt>
      <trkpt lat="47.42228" lon="6.60976">
        <ele>312.9</ele>
        <time>2015-08-31T07:20:27Z</time>
      </trkpt>
      <trkpt lat="47.42225" lon="6.60979">
        <ele>312.8</ele>
        <time>2015-08-31T07:20:28Z</time>
      </trkpt>
      <trkpt lat="47.42221" lon="6.60981">
        <ele>312.7</ele>
        <time>2015-08-31T07:20:29Z</time>
      </trkpt>
      <trkpt lat="47.42218" lon="6.60984">
        <ele>312.8</ele>
        <time>2015-08-31T07:20:30Z</time>
      </trkpt>
      <trkpt lat="47.42215" lon="6.60988">
        <ele>313</ele>
        <time>2015-08-31T07:20:31Z</time>
      </trkpt>
      <trkpt lat="47.42213" lon="6.60991">
        <ele>313.2</ele>
        <time>2015-08-31T07:20:32Z</time>
      </trkpt>
      <trkpt lat="47.4221" lon="6.60994">
        <ele>313.6</ele>
        <time>2015-08-31T07:20:33Z</time>
      </trkpt>
      <trkpt lat="47.42207" lon="6.60998">
        <ele>313.9</ele>
        <time>2015-08-31T07:20:34Z</time>
      </trkpt>
      <trkpt lat="47.42205" lon="6.61002">
        <ele>314.2</ele>
        <time>2015-08-31T07:20:35Z</time>
      </trkpt>
      <trkpt lat="47.42203" lon="6.61006">
        <ele>314.4</ele>
        <time>2015-08-31T07:20:36Z</time>
      </trkpt>
      <trkpt lat="47.422" lon="6.61011">
        <ele>314.6</ele>
        <time>2015-08-31T07:20:37Z</time>
      </trkpt>
      <trkpt lat="47.42197" lon="6.61015">
        <ele>314.8</ele>
        <time>2015-08-31T07:20:38Z</time>
      </trkpt>
      <trkpt lat="47.42195" lon="6.6102">
        <ele>315</ele>
        <time>2015-08-31T07:20:39Z</time>
      </trkpt>
      <trkpt lat="47.42192" lon="6.61024">
        <ele>315.1</ele>
        <time>2015-08-31T07:20:40Z</time>
      </trkpt>
      <trkpt lat="47.4219" lon="6.61029">
        <ele>315.2</ele>
        <time>2015-08-31T07:20:41Z</time>
      </trkpt>
      <trkpt lat="47.42187" lon="6.61033">
        <ele>315.3</ele>
        <time>2015-08-31T07:20:42Z</time>
      </trkpt>
      <trkpt lat="47.42184" lon="6.61037">
        <ele>315.4</ele>
        <time>2015-08-31T07:20:43Z</time>
      </trkpt>
      <trkpt lat="47.42182" lon="6.61041">
        <ele>315.5</ele>
        <time>2015-08-31T07:20:44Z</time>
      </trkpt>
      <trkpt lat="47.42179" lon="6.61045">
        <ele>315.6</ele>
        <time>2015-08-31T07:20:45Z</time>
      </trkpt>
      <trkpt lat="47.42176" lon="6.61049">
        <ele>315.9</ele>
        <time>2015-08-31T07:20:46Z</time>
      </trkpt>
      <trkpt lat="47.42173" lon="6.61053">
        <ele>316</ele>
        <time>2015-08-31T07:20:47Z</time>
      </trkpt>
      <trkpt lat="47.42169" lon="6.61056">
        <ele>316.4</ele>
        <time>2015-08-31T07:20:48Z</time>
      </trkpt>
      <trkpt lat="47.42166" lon="6.61059">
        <ele>317.1</ele>
        <time>2015-08-31T07:20:49Z</time>
      </trkpt>
      <trkpt lat="47.42163" lon="6.61063">
        <ele>316.4</ele>
        <time>2015-08-31T07:20:50Z</time>
      </trkpt>
      <trkpt lat="47.4216" lon="6.61066">
        <ele>317.8</ele>
        <time>2015-08-31T07:20:51Z</time>
      </trkpt>
      <trkpt lat="47.42156" lon="6.61068">
        <ele>320.1</ele>
        <time>2015-08-31T07:20:52Z</time>
      </trkpt>
      <trkpt lat="47.42152" lon="6.6107">
        <ele>320.6</ele>
        <time>2015-08-31T07:20:53Z</time>
      </trkpt>
      <trkpt lat="47.42148" lon="6.61072">
        <ele>321.1</ele>
        <time>2015-08-31T07:20:54Z</time>
      </trkpt>
      <trkpt lat="47.42145" lon="6.61075">
        <ele>321.4</ele>
        <time>2015-08-31T07:20:55Z</time>
      </trkpt>
      <trkpt lat="47.42141" lon="6.61077">
        <ele>321.7</ele>
        <time>2015-08-31T07:20:56Z</time>
      </trkpt>
      <trkpt lat="47.42137" lon="6.61079">
        <ele>322</ele>
        <time>2015-08-31T07:20:57Z</time>
      </trkpt>
      <trkpt lat="47.42134" lon="6.61081">
        <ele>322.4</ele>
        <time>2015-08-31T07:20:58Z</time>
      </trkpt>
      <trkpt lat="47.4213" lon="6.61083">
        <ele>322.8</ele>
        <time>2015-08-31T07:20:59Z</time>
      </trkpt>
      <trkpt lat="47.42126" lon="6.61085">
        <ele>323.2</ele>
        <time>2015-08-31T07:21:00Z</time>
      </trkpt>
      <trkpt lat="47.42122" lon="6.61087">
        <ele>323.5</ele>
        <time>2015-08-31T07:21:01Z</time>
      </trkpt>
      <trkpt lat="47.42119" lon="6.61089">
        <ele>323.9</ele>
        <time>2015-08-31T07:21:02Z</time>
      </trkpt>
      <trkpt lat="47.42115" lon="6.61091">
        <ele>324.3</ele>
        <time>2015-08-31T07:21:03Z</time>
      </trkpt>
      <trkpt lat="47.42112" lon="6.61094">
        <ele>324.5</ele>
        <time>2015-08-31T07:21:04Z</time>
      </trkpt>
      <trkpt lat="47.42108" lon="6.61096">
        <ele>324.9</ele>
        <time>2015-08-31T07:21:05Z</time>
      </trkpt>
      <trkpt lat="47.42105" lon="6.61098">
        <ele>325.3</ele>
        <time>2015-08-31T07:21:06Z</time>
      </trkpt>
      <trkpt lat="47.42102" lon="6.61101">
        <ele>325.7</ele>
        <time>2015-08-31T07:21:07Z</time>
      </trkpt>
      <trkpt lat="47.42098" lon="6.61104">
        <ele>326.1</ele>
        <time>2015-08-31T07:21:08Z</time>
      </trkpt>
      <trkpt lat="47.42095" lon="6.61108">
        <ele>326.5</ele>
        <time>2015-08-31T07:21:09Z</time>
      </trkpt>
      <trkpt lat="47.42092" lon="6.61111">
        <ele>326.6</ele>
        <time>2015-08-31T07:21:10Z</time>
      </trkpt>
      <trkpt lat="47.42088" lon="6.61114">
        <ele>326.8</ele>
        <time>2015-08-31T07:21:11Z</time>
      </trkpt>
      <trkpt lat="47.42085" lon="6.61117">
        <ele>327.1</ele>
        <time>2015-08-31T07:21:12Z</time>
      </trkpt>
      <trkpt lat="47.42082" lon="6.61121">
        <ele>327.3</ele>
        <time>2015-08-31T07:21:13Z</time>
      </trkpt>
      <trkpt lat="47.42079" lon="6.61124">
        <ele>327.5</ele>
        <time>2015-08-31T07:21:14Z</time>
      </trkpt>
      <trkpt lat="47.42076" lon="6.61128">
        <ele>327.7</ele>
        <time>2015-08-31T07:21:15Z</time>
      </trkpt>
      <trkpt lat="47.42073" lon="6.61132">
        <ele>327.9</ele>
        <time>2015-08-31T07:21:16Z</time>
      </trkpt>
      <trkpt lat="47.4207" lon="6.61135">
        <ele>328.2</ele>
        <time>2015-08-31T07:21:17Z</time>
      </trkpt>
      <trkpt lat="47.42067" lon="6.61139">
        <ele>328.5</ele>
        <time>2015-08-31T07:21:18Z</time>
      </trkpt>
      <trkpt lat="47.42064" lon="6.61142">
        <ele>328.8</ele>
        <time>2015-08-31T07:21:19Z</time>
      </trkpt>
      <trkpt lat="47.42061" lon="6.61146">
        <ele>329</ele>
        <time>2015-08-31T07:21:20Z</time>
      </trkpt>
      <trkpt lat="47.42058" lon="6.61149">
        <ele>329.4</ele>
        <time>2015-08-31T07:21:21Z</time>
      </trkpt>
      <trkpt lat="47.42055" lon="6.61152">
        <ele>329.9</ele>
        <time>2015-08-31T07:21:22Z</time>
      </trkpt>
      <trkpt lat="47.42052" lon="6.61156">
        <ele>330.4</ele>
        <time>2015-08-31T07:21:23Z</time>
      </trkpt>
      <trkpt lat="47.42049" lon="6.6116">
        <ele>330.5</ele>
        <time>2015-08-31T07:21:24Z</time>
      </trkpt>
      <trkpt lat="47.42046" lon="6.61163">
        <ele>330.8</ele>
        <time>2015-08-31T07:21:25Z</time>
      </trkpt>
      <trkpt lat="47.42043" lon="6.61167">
        <ele>331</ele>
        <time>2015-08-31T07:21:26Z</time>
      </trkpt>
      <trkpt lat="47.42041" lon="6.6117">
        <ele>331.3</ele>
        <time>2015-08-31T07:21:27Z</time>
      </trkpt>
      <trkpt lat="47.42038" lon="6.61174">
        <ele>331.5</ele>
        <time>2015-08-31T07:21:28Z</time>
      </trkpt>
      <trkpt lat="47.42035" lon="6.61178">
        <ele>331.7</ele>
        <time>2015-08-31T07:21:29Z</time>
      </trkpt>
      <trkpt lat="47.42032" lon="6.61182">
        <ele>331.9</ele>
        <time>2015-08-31T07:21:30Z</time>
      </trkpt>
      <trkpt lat="47.42029" lon="6.61186">
        <ele>332</ele>
        <time>2015-08-31T07:21:31Z</time>
      </trkpt>
      <trkpt lat="47.42027" lon="6.6119">
        <ele>331.9</ele>
        <time>2015-08-31T07:21:32Z</time>
      </trkpt>
      <trkpt lat="47.42024" lon="6.61195">
        <ele>331.8</ele>
        <time>2015-08-31T07:21:33Z</time>
      </trkpt>
      <trkpt lat="47.42022" lon="6.612">
        <ele>331.7</ele>
        <time>2015-08-31T07:21:34Z</time>
      </trkpt>
      <trkpt lat="47.4202" lon="6.61205">
        <ele>331.7</ele>
        <time>2015-08-31T07:21:35Z</time>
      </trkpt>
      <trkpt lat="47.42018" lon="6.61209">
        <ele>331.7</ele>
        <time>2015-08-31T07:21:36Z</time>
      </trkpt>
      <trkpt lat="47.42016" lon="6.61214">
        <ele>331.8</ele>
        <time>2015-08-31T07:21:37Z</time>
      </trkpt>
      <trkpt lat="47.42013" lon="6.61218">
        <ele>332</ele>
        <time>2015-08-31T07:21:38Z</time>
      </trkpt>
      <trkpt lat="47.42011" lon="6.61222">
        <ele>332.1</ele>
        <time>2015-08-31T07:21:39Z</time>
      </trkpt>
      <trkpt lat="47.42008" lon="6.61227">
        <ele>332.3</ele>
        <time>2015-08-31T07:21:40Z</time>
      </trkpt>
      <trkpt lat="47.42007" lon="6.61232">
        <ele>332.4</ele>
        <time>2015-08-31T07:21:41Z</time>
      </trkpt>
      <trkpt lat="47.42005" lon="6.61237">
        <ele>332.5</ele>
        <time>2015-08-31T07:21:42Z</time>
      </trkpt>
      <trkpt lat="47.42003" lon="6.61241">
        <ele>332.6</ele>
        <time>2015-08-31T07:21:43Z</time>
      </trkpt>
      <trkpt lat="47.42001" lon="6.61246">
        <ele>332.6</ele>
        <time>2015-08-31T07:21:44Z</time>
      </trkpt>
      <trkpt lat="47.41999" lon="6.61251">
        <ele>332.7</ele>
        <time>2015-08-31T07:21:45Z</time>
      </trkpt>
      <trkpt lat="47.41996" lon="6.61256">
        <ele>332.7</ele>
        <time>2015-08-31T07:21:46Z</time>
      </trkpt>
      <trkpt lat="47.41993" lon="6.61261">
        <ele>332.8</ele>
        <time>2015-08-31T07:21:47Z</time>
      </trkpt>
      <trkpt lat="47.41991" lon="6.61267">
        <ele>332.8</ele>
        <time>2015-08-31T07:21:48Z</time>
      </trkpt>
      <trkpt lat="47.41989" lon="6.61272">
        <ele>333</ele>
        <time>2015-08-31T07:21:49Z</time>
      </trkpt>
      <trkpt lat="47.41987" lon="6.61278">
        <ele>333.1</ele>
        <time>2015-08-31T07:21:50Z</time>
      </trkpt>
      <trkpt lat="47.41985" lon="6.61282">
        <ele>333.2</ele>
        <time>2015-08-31T07:21:51Z</time>
      </trkpt>
      <trkpt lat="47.41982" lon="6.61287">
        <ele>333.3</ele>
        <time>2015-08-31T07:21:52Z</time>
      </trkpt>
      <trkpt lat="47.4198" lon="6.61292">
        <ele>333.5</ele>
        <time>2015-08-31T07:21:53Z</time>
      </trkpt>
      <trkpt lat="47.41978" lon="6.61297">
        <ele>333.6</ele>
        <time>2015-08-31T07:21:54Z</time>
      </trkpt>
      <trkpt lat="47.41975" lon="6.61301">
        <ele>333.8</ele>
        <time>2015-08-31T07:21:55Z</time>
      </trkpt>
      <trkpt lat="47.41972" lon="6.61306">
        <ele>333.8</ele>
        <time>2015-08-31T07:21:56Z</time>
      </trkpt>
      <trkpt lat="47.41969" lon="6.6131">
        <ele>334</ele>
        <time>2015-08-31T07:21:57Z</time>
      </trkpt>
      <trkpt lat="47.41966" lon="6.61312">
        <ele>334.2</ele>
        <time>2015-08-31T07:21:58Z</time>
      </trkpt>
      <trkpt lat="47.41963" lon="6.61315">
        <ele>334.2</ele>
        <time>2015-08-31T07:21:59Z</time>
      </trkpt>
      <trkpt lat="47.4196" lon="6.6132">
        <ele>334.1</ele>
        <time>2015-08-31T07:22:00Z</time>
      </trkpt>
      <trkpt lat="47.41956" lon="6.61323">
        <ele>334.1</ele>
        <time>2015-08-31T07:22:01Z</time>
      </trkpt>
      <trkpt lat="47.41953" lon="6.61328">
        <ele>334.1</ele>
        <time>2015-08-31T07:22:02Z</time>
      </trkpt>
      <trkpt lat="47.41949" lon="6.61331">
        <ele>334.2</ele>
        <time>2015-08-31T07:22:03Z</time>
      </trkpt>
      <trkpt lat="47.41945" lon="6.61335">
        <ele>334.2</ele>
        <time>2015-08-31T07:22:04Z</time>
      </trkpt>
      <trkpt lat="47.41941" lon="6.61339">
        <ele>334.2</ele>
        <time>2015-08-31T07:22:05Z</time>
      </trkpt>
      <trkpt lat="47.41937" lon="6.61344">
        <ele>334.2</ele>
        <time>2015-08-31T07:22:06Z</time>
      </trkpt>
      <trkpt lat="47.41934" lon="6.61349">
        <ele>334.3</ele>
        <time>2015-08-31T07:22:07Z</time>
      </trkpt>
      <trkpt lat="47.4193" lon="6.61354">
        <ele>334.2</ele>
        <time>2015-08-31T07:22:08Z</time>
      </trkpt>
      <trkpt lat="47.41926" lon="6.61359">
        <ele>334.1</ele>
        <time>2015-08-31T07:22:09Z</time>
      </trkpt>
      <trkpt lat="47.41923" lon="6.61364">
        <ele>334</ele>
        <time>2015-08-31T07:22:10Z</time>
      </trkpt>
      <trkpt lat="47.41919" lon="6.61368">
        <ele>334</ele>
        <time>2015-08-31T07:22:11Z</time>
      </trkpt>
      <trkpt lat="47.41915" lon="6.61373">
        <ele>334</ele>
        <time>2015-08-31T07:22:12Z</time>
      </trkpt>
      <trkpt lat="47.41912" lon="6.61377">
        <ele>334.2</ele>
        <time>2015-08-31T07:22:13Z</time>
      </trkpt>
      <trkpt lat="47.41908" lon="6.61381">
        <ele>334.4</ele>
        <time>2015-08-31T07:22:14Z</time>
      </trkpt>
      <trkpt lat="47.41904" lon="6.61385">
        <ele>334.6</ele>
        <time>2015-08-31T07:22:15Z</time>
      </trkpt>
      <trkpt lat="47.419" lon="6.61389">
        <ele>334.7</ele>
        <time>2015-08-31T07:22:16Z</time>
      </trkpt>
      <trkpt lat="47.41896" lon="6.61394">
        <ele>334.8</ele>
        <time>2015-08-31T07:22:17Z</time>
      </trkpt>
      <trkpt lat="47.41893" lon="6.61398">
        <ele>334.8</ele>
        <time>2015-08-31T07:22:18Z</time>
      </trkpt>
      <trkpt lat="47.41889" lon="6.61402">
        <ele>334.9</ele>
        <time>2015-08-31T07:22:19Z</time>
      </trkpt>
      <trkpt lat="47.41886" lon="6.61406">
        <ele>335</ele>
        <time>2015-08-31T07:22:20Z</time>
      </trkpt>
      <trkpt lat="47.41882" lon="6.61411">
        <ele>335.1</ele>
        <time>2015-08-31T07:22:21Z</time>
      </trkpt>
      <trkpt lat="47.41879" lon="6.61415">
        <ele>335.1</ele>
        <time>2015-08-31T07:22:22Z</time>
      </trkpt>
      <trkpt lat="47.41875" lon="6.61419">
        <ele>335.3</ele>
        <time>2015-08-31T07:22:23Z</time>
      </trkpt>
      <trkpt lat="47.41872" lon="6.61424">
        <ele>335.4</ele>
        <time>2015-08-31T07:22:24Z</time>
      </trkpt>
      <trkpt lat="47.41869" lon="6.61428">
        <ele>335.5</ele>
        <time>2015-08-31T07:22:25Z</time>
      </trkpt>
      <trkpt lat="47.41866" lon="6.61433">
        <ele>335.6</ele>
        <time>2015-08-31T07:22:26Z</time>
      </trkpt>
      <trkpt lat="47.41862" lon="6.61437">
        <ele>335.7</ele>
        <time>2015-08-31T07:22:27Z</time>
      </trkpt>
      <trkpt lat="47.41859" lon="6.61442">
        <ele>335.8</ele>
        <time>2015-08-31T07:22:28Z</time>
      </trkpt>
      <trkpt lat="47.41856" lon="6.61447">
        <ele>335.8</ele>
        <time>2015-08-31T07:22:29Z</time>
      </trkpt>
      <trkpt lat="47.41853" lon="6.61451">
        <ele>335.9</ele>
        <time>2015-08-31T07:22:30Z</time>
      </trkpt>
      <trkpt lat="47.4185" lon="6.61456">
        <ele>335.9</ele>
        <time>2015-08-31T07:22:31Z</time>
      </trkpt>
      <trkpt lat="47.41847" lon="6.61462">
        <ele>336.1</ele>
        <time>2015-08-31T07:22:32Z</time>
      </trkpt>
      <trkpt lat="47.41844" lon="6.61467">
        <ele>336.3</ele>
        <time>2015-08-31T07:22:33Z</time>
      </trkpt>
      <trkpt lat="47.41841" lon="6.61473">
        <ele>336.4</ele>
        <time>2015-08-31T07:22:34Z</time>
      </trkpt>
      <trkpt lat="47.41837" lon="6.61478">
        <ele>336.6</ele>
        <time>2015-08-31T07:22:35Z</time>
      </trkpt>
      <trkpt lat="47.41833" lon="6.61483">
        <ele>336.8</ele>
        <time>2015-08-31T07:22:36Z</time>
      </trkpt>
      <trkpt lat="47.4183" lon="6.6149">
        <ele>336.9</ele>
        <time>2015-08-31T07:22:37Z</time>
      </trkpt>
      <trkpt lat="47.41826" lon="6.61496">
        <ele>337.1</ele>
        <time>2015-08-31T07:22:38Z</time>
      </trkpt>
      <trkpt lat="47.41824" lon="6.61503">
        <ele>337.3</ele>
        <time>2015-08-31T07:22:39Z</time>
      </trkpt>
      <trkpt lat="47.41821" lon="6.61509">
        <ele>337.5</ele>
        <time>2015-08-31T07:22:40Z</time>
      </trkpt>
      <trkpt lat="47.41818" lon="6.61516">
        <ele>337.6</ele>
        <time>2015-08-31T07:22:41Z</time>
      </trkpt>
      <trkpt lat="47.41815" lon="6.61523">
        <ele>337.8</ele>
        <time>2015-08-31T07:22:42Z</time>
      </trkpt>
      <trkpt lat="47.41812" lon="6.61529">
        <ele>338</ele>
        <time>2015-08-31T07:22:43Z</time>
      </trkpt>
      <trkpt lat="47.4181" lon="6.61535">
        <ele>338.3</ele>
        <time>2015-08-31T07:22:44Z</time>
      </trkpt>
      <trkpt lat="47.41808" lon="6.61542">
        <ele>338.4</ele>
        <time>2015-08-31T07:22:45Z</time>
      </trkpt>
      <trkpt lat="47.41805" lon="6.61548">
        <ele>338.7</ele>
        <time>2015-08-31T07:22:46Z</time>
      </trkpt>
      <trkpt lat="47.41803" lon="6.61554">
        <ele>339.1</ele>
        <time>2015-08-31T07:22:47Z</time>
      </trkpt>
      <trkpt lat="47.41801" lon="6.6156">
        <ele>339.3</ele>
        <time>2015-08-31T07:22:48Z</time>
      </trkpt>
      <trkpt lat="47.41799" lon="6.61565">
        <ele>339.6</ele>
        <time>2015-08-31T07:22:49Z</time>
      </trkpt>
      <trkpt lat="47.41796" lon="6.6157">
        <ele>339.8</ele>
        <time>2015-08-31T07:22:50Z</time>
      </trkpt>
      <trkpt lat="47.41794" lon="6.61576">
        <ele>340</ele>
        <time>2015-08-31T07:22:51Z</time>
      </trkpt>
      <trkpt lat="47.41792" lon="6.61581">
        <ele>340.2</ele>
        <time>2015-08-31T07:22:52Z</time>
      </trkpt>
      <trkpt lat="47.4179" lon="6.61587">
        <ele>340.3</ele>
        <time>2015-08-31T07:22:53Z</time>
      </trkpt>
      <trkpt lat="47.41788" lon="6.61593">
        <ele>340.4</ele>
        <time>2015-08-31T07:22:54Z</time>
      </trkpt>
      <trkpt lat="47.41786" lon="6.61599">
        <ele>340.5</ele>
        <time>2015-08-31T07:22:55Z</time>
      </trkpt>
      <trkpt lat="47.41783" lon="6.61605">
        <ele>340.6</ele>
        <time>2015-08-31T07:22:56Z</time>
      </trkpt>
      <trkpt lat="47.4178" lon="6.6161">
        <ele>340.8</ele>
        <time>2015-08-31T07:22:57Z</time>
      </trkpt>
      <trkpt lat="47.41778" lon="6.61616">
        <ele>341</ele>
        <time>2015-08-31T07:22:58Z</time>
      </trkpt>
      <trkpt lat="47.41775" lon="6.61621">
        <ele>341.3</ele>
        <time>2015-08-31T07:22:59Z</time>
      </trkpt>
      <trkpt lat="47.41773" lon="6.61627">
        <ele>341.5</ele>
        <time>2015-08-31T07:23:00Z</time>
      </trkpt>
      <trkpt lat="47.4177" lon="6.61634">
        <ele>341.6</ele>
        <time>2015-08-31T07:23:01Z</time>
      </trkpt>
      <trkpt lat="47.41766" lon="6.6164">
        <ele>341.7</ele>
        <time>2015-08-31T07:23:02Z</time>
      </trkpt>
      <trkpt lat="47.41763" lon="6.61647">
        <ele>341.7</ele>
        <time>2015-08-31T07:23:03Z</time>
      </trkpt>
      <trkpt lat="47.41759" lon="6.61654">
        <ele>341.6</ele>
        <time>2015-08-31T07:23:04Z</time>
      </trkpt>
      <trkpt lat="47.41755" lon="6.61661">
        <ele>341.6</ele>
        <time>2015-08-31T07:23:05Z</time>
      </trkpt>
      <trkpt lat="47.41752" lon="6.61668">
        <ele>341.7</ele>
        <time>2015-08-31T07:23:06Z</time>
      </trkpt>
      <trkpt lat="47.41748" lon="6.61674">
        <ele>341.8</ele>
        <time>2015-08-31T07:23:07Z</time>
      </trkpt>
      <trkpt lat="47.41745" lon="6.61684">
        <ele>341.9</ele>
        <time>2015-08-31T07:23:08Z</time>
      </trkpt>
      <trkpt lat="47.41742" lon="6.61691">
        <ele>342</ele>
        <time>2015-08-31T07:23:09Z</time>
      </trkpt>
      <trkpt lat="47.41739" lon="6.61697">
        <ele>342.2</ele>
        <time>2015-08-31T07:23:10Z</time>
      </trkpt>
      <trkpt lat="47.41733" lon="6.61701">
        <ele>342.4</ele>
        <time>2015-08-31T07:23:11Z</time>
      </trkpt>
      <trkpt lat="47.41728" lon="6.61704">
        <ele>343.1</ele>
        <time>2015-08-31T07:23:12Z</time>
      </trkpt>
      <trkpt lat="47.41723" lon="6.61708">
        <ele>343.8</ele>
        <time>2015-08-31T07:23:13Z</time>
      </trkpt>
      <trkpt lat="47.41719" lon="6.61711">
        <ele>343.6</ele>
        <time>2015-08-31T07:23:14Z</time>
      </trkpt>
      <trkpt lat="47.41714" lon="6.61714">
        <ele>344.2</ele>
        <time>2015-08-31T07:23:15Z</time>
      </trkpt>
      <trkpt lat="47.4171" lon="6.61718">
        <ele>344.5</ele>
        <time>2015-08-31T07:23:16Z</time>
      </trkpt>
      <trkpt lat="47.41705" lon="6.61721">
        <ele>344.9</ele>
        <time>2015-08-31T07:23:17Z</time>
      </trkpt>
      <trkpt lat="47.41701" lon="6.61725">
        <ele>345.3</ele>
        <time>2015-08-31T07:23:18Z</time>
      </trkpt>
      <trkpt lat="47.41696" lon="6.61729">
        <ele>345.4</ele>
        <time>2015-08-31T07:23:19Z</time>
      </trkpt>
      <trkpt lat="47.41692" lon="6.61732">
        <ele>345.5</ele>
        <time>2015-08-31T07:23:20Z</time>
      </trkpt>
      <trkpt lat="47.41688" lon="6.61735">
        <ele>345.6</ele>
        <time>2015-08-31T07:23:21Z</time>
      </trkpt>
      <trkpt lat="47.41684" lon="6.61738">
        <ele>345.8</ele>
        <time>2015-08-31T07:23:22Z</time>
      </trkpt>
      <trkpt lat="47.4168" lon="6.61741">
        <ele>346</ele>
        <time>2015-08-31T07:23:23Z</time>
      </trkpt>
      <trkpt lat="47.41676" lon="6.61744">
        <ele>346.1</ele>
        <time>2015-08-31T07:23:24Z</time>
      </trkpt>
      <trkpt lat="47.41672" lon="6.61747">
        <ele>346.3</ele>
        <time>2015-08-31T07:23:25Z</time>
      </trkpt>
      <trkpt lat="47.41668" lon="6.6175">
        <ele>346.5</ele>
        <time>2015-08-31T07:23:26Z</time>
      </trkpt>
      <trkpt lat="47.41664" lon="6.61754">
        <ele>346.9</ele>
        <time>2015-08-31T07:23:27Z</time>
      </trkpt>
      <trkpt lat="47.41661" lon="6.61758">
        <ele>347.2</ele>
        <time>2015-08-31T07:23:28Z</time>
      </trkpt>
      <trkpt lat="47.41657" lon="6.61762">
        <ele>347.6</ele>
        <time>2015-08-31T07:23:29Z</time>
      </trkpt>
      <trkpt lat="47.41654" lon="6.61766">
        <ele>348</ele>
        <time>2015-08-31T07:23:30Z</time>
      </trkpt>
      <trkpt lat="47.41651" lon="6.61771">
        <ele>348</ele>
        <time>2015-08-31T07:23:31Z</time>
      </trkpt>
      <trkpt lat="47.41648" lon="6.61775">
        <ele>348.2</ele>
        <time>2015-08-31T07:23:32Z</time>
      </trkpt>
      <trkpt lat="47.41645" lon="6.61781">
        <ele>348.4</ele>
        <time>2015-08-31T07:23:33Z</time>
      </trkpt>
      <trkpt lat="47.41642" lon="6.61786">
        <ele>348.4</ele>
        <time>2015-08-31T07:23:34Z</time>
      </trkpt>
      <trkpt lat="47.4164" lon="6.61791">
        <ele>348.2</ele>
        <time>2015-08-31T07:23:35Z</time>
      </trkpt>
      <trkpt lat="47.41637" lon="6.61797">
        <ele>348.2</ele>
        <time>2015-08-31T07:23:36Z</time>
      </trkpt>
      <trkpt lat="47.41635" lon="6.61802">
        <ele>348.4</ele>
        <time>2015-08-31T07:23:37Z</time>
      </trkpt>
      <trkpt lat="47.41633" lon="6.61808">
        <ele>349</ele>
        <time>2015-08-31T07:23:38Z</time>
      </trkpt>
      <trkpt lat="47.41631" lon="6.61814">
        <ele>349.2</ele>
        <time>2015-08-31T07:23:39Z</time>
      </trkpt>
      <trkpt lat="47.4163" lon="6.6182">
        <ele>349.2</ele>
        <time>2015-08-31T07:23:40Z</time>
      </trkpt>
      <trkpt lat="47.41628" lon="6.61825">
        <ele>351.2</ele>
        <time>2015-08-31T07:23:41Z</time>
      </trkpt>
      <trkpt lat="47.41627" lon="6.61831">
        <ele>351.3</ele>
        <time>2015-08-31T07:23:42Z</time>
      </trkpt>
      <trkpt lat="47.41626" lon="6.61838">
        <ele>351.3</ele>
        <time>2015-08-31T07:23:43Z</time>
      </trkpt>
      <trkpt lat="47.41625" lon="6.61844">
        <ele>351.4</ele>
        <time>2015-08-31T07:23:44Z</time>
      </trkpt>
      <trkpt lat="47.41624" lon="6.61851">
        <ele>351.5</ele>
        <time>2015-08-31T07:23:45Z</time>
      </trkpt>
      <trkpt lat="47.41624" lon="6.61858">
        <ele>351.4</ele>
        <time>2015-08-31T07:23:46Z</time>
      </trkpt>
      <trkpt lat="47.41623" lon="6.61865">
        <ele>351.6</ele>
        <time>2015-08-31T07:23:47Z</time>
      </trkpt>
      <trkpt lat="47.41623" lon="6.61871">
        <ele>351.8</ele>
        <time>2015-08-31T07:23:48Z</time>
      </trkpt>
      <trkpt lat="47.41624" lon="6.61878">
        <ele>352</ele>
        <time>2015-08-31T07:23:49Z</time>
      </trkpt>
      <trkpt lat="47.41624" lon="6.61885">
        <ele>352.1</ele>
        <time>2015-08-31T07:23:50Z</time>
      </trkpt>
      <trkpt lat="47.41625" lon="6.61891">
        <ele>352.2</ele>
        <time>2015-08-31T07:23:51Z</time>
      </trkpt>
      <trkpt lat="47.41626" lon="6.61898">
        <ele>352.3</ele>
        <time>2015-08-31T07:23:52Z</time>
      </trkpt>
      <trkpt lat="47.41626" lon="6.61905">
        <ele>352.5</ele>
        <time>2015-08-31T07:23:53Z</time>
      </trkpt>
      <trkpt lat="47.41627" lon="6.61911">
        <ele>352.7</ele>
        <time>2015-08-31T07:23:54Z</time>
      </trkpt>
      <trkpt lat="47.41628" lon="6.61918">
        <ele>352.8</ele>
        <time>2015-08-31T07:23:55Z</time>
      </trkpt>
      <trkpt lat="47.41629" lon="6.61924">
        <ele>353</ele>
        <time>2015-08-31T07:23:56Z</time>
      </trkpt>
      <trkpt lat="47.4163" lon="6.6193">
        <ele>353.2</ele>
        <time>2015-08-31T07:23:57Z</time>
      </trkpt>
      <trkpt lat="47.41631" lon="6.61937">
        <ele>353.4</ele>
        <time>2015-08-31T07:23:58Z</time>
      </trkpt>
      <trkpt lat="47.41632" lon="6.61943">
        <ele>353.6</ele>
        <time>2015-08-31T07:23:59Z</time>
      </trkpt>
      <trkpt lat="47.41633" lon="6.61949">
        <ele>354</ele>
        <time>2015-08-31T07:24:00Z</time>
      </trkpt>
      <trkpt lat="47.41634" lon="6.61955">
        <ele>354.3</ele>
        <time>2015-08-31T07:24:01Z</time>
      </trkpt>
      <trkpt lat="47.41635" lon="6.61962">
        <ele>354.6</ele>
        <time>2015-08-31T07:24:02Z</time>
      </trkpt>
      <trkpt lat="47.41636" lon="6.61968">
        <ele>354.9</ele>
        <time>2015-08-31T07:24:03Z</time>
      </trkpt>
      <trkpt lat="47.41637" lon="6.61974">
        <ele>355.3</ele>
        <time>2015-08-31T07:24:04Z</time>
      </trkpt>
      <trkpt lat="47.41637" lon="6.6198">
        <ele>355.6</ele>
        <time>2015-08-31T07:24:05Z</time>
      </trkpt>
      <trkpt lat="47.41638" lon="6.61986">
        <ele>355.9</ele>
        <time>2015-08-31T07:24:06Z</time>
      </trkpt>
      <trkpt lat="47.41639" lon="6.61992">
        <ele>356.4</ele>
        <time>2015-08-31T07:24:07Z</time>
      </trkpt>
      <trkpt lat="47.4164" lon="6.61999">
        <ele>356.7</ele>
        <time>2015-08-31T07:24:08Z</time>
      </trkpt>
      <trkpt lat="47.41641" lon="6.62005">
        <ele>357</ele>
        <time>2015-08-31T07:24:09Z</time>
      </trkpt>
      <trkpt lat="47.41642" lon="6.62011">
        <ele>357.2</ele>
        <time>2015-08-31T07:24:10Z</time>
      </trkpt>
      <trkpt lat="47.41643" lon="6.62017">
        <ele>357.5</ele>
        <time>2015-08-31T07:24:11Z</time>
      </trkpt>
      <trkpt lat="47.41644" lon="6.62024">
        <ele>357.9</ele>
        <time>2015-08-31T07:24:12Z</time>
      </trkpt>
      <trkpt lat="47.41645" lon="6.6203">
        <ele>358.2</ele>
        <time>2015-08-31T07:24:13Z</time>
      </trkpt>
      <trkpt lat="47.41646" lon="6.62036">
        <ele>358.3</ele>
        <time>2015-08-31T07:24:14Z</time>
      </trkpt>
      <trkpt lat="47.41647" lon="6.62043">
        <ele>358.4</ele>
        <time>2015-08-31T07:24:15Z</time>
      </trkpt>
      <trkpt lat="47.41648" lon="6.62049">
        <ele>358.5</ele>
        <time>2015-08-31T07:24:16Z</time>
      </trkpt>
      <trkpt lat="47.41649" lon="6.62056">
        <ele>358.7</ele>
        <time>2015-08-31T07:24:17Z</time>
      </trkpt>
      <trkpt lat="47.4165" lon="6.62062">
        <ele>359</ele>
        <time>2015-08-31T07:24:18Z</time>
      </trkpt>
      <trkpt lat="47.4165" lon="6.62068">
        <ele>359.3</ele>
        <time>2015-08-31T07:24:19Z</time>
      </trkpt>
      <trkpt lat="47.41651" lon="6.62074">
        <ele>359.6</ele>
        <time>2015-08-31T07:24:20Z</time>
      </trkpt>
      <trkpt lat="47.41651" lon="6.6208">
        <ele>359.7</ele>
        <time>2015-08-31T07:24:21Z</time>
      </trkpt>
      <trkpt lat="47.41652" lon="6.62086">
        <ele>359.9</ele>
        <time>2015-08-31T07:24:22Z</time>
      </trkpt>
      <trkpt lat="47.41652" lon="6.62093">
        <ele>360.2</ele>
        <time>2015-08-31T07:24:23Z</time>
      </trkpt>
      <trkpt lat="47.41653" lon="6.62099">
        <ele>360.4</ele>
        <time>2015-08-31T07:24:24Z</time>
      </trkpt>
      <trkpt lat="47.41653" lon="6.62105">
        <ele>360.6</ele>
        <time>2015-08-31T07:24:25Z</time>
      </trkpt>
      <trkpt lat="47.41654" lon="6.62112">
        <ele>360.3</ele>
        <time>2015-08-31T07:24:26Z</time>
      </trkpt>
      <trkpt lat="47.41655" lon="6.62118">
        <ele>360.2</ele>
        <time>2015-08-31T07:24:27Z</time>
      </trkpt>
      <trkpt lat="47.41655" lon="6.62125">
        <ele>360.4</ele>
        <time>2015-08-31T07:24:28Z</time>
      </trkpt>
      <trkpt lat="47.41656" lon="6.62132">
        <ele>360.5</ele>
        <time>2015-08-31T07:24:29Z</time>
      </trkpt>
      <trkpt lat="47.41656" lon="6.62138">
        <ele>360.5</ele>
        <time>2015-08-31T07:24:30Z</time>
      </trkpt>
      <trkpt lat="47.41657" lon="6.62145">
        <ele>360.6</ele>
        <time>2015-08-31T07:24:31Z</time>
      </trkpt>
      <trkpt lat="47.41657" lon="6.62152">
        <ele>360.6</ele>
        <time>2015-08-31T07:24:32Z</time>
      </trkpt>
      <trkpt lat="47.41658" lon="6.62159">
        <ele>360.6</ele>
        <time>2015-08-31T07:24:33Z</time>
      </trkpt>
      <trkpt lat="47.41658" lon="6.62165">
        <ele>360.8</ele>
        <time>2015-08-31T07:24:34Z</time>
      </trkpt>
      <trkpt lat="47.41658" lon="6.62172">
        <ele>361.1</ele>
        <time>2015-08-31T07:24:35Z</time>
      </trkpt>
      <trkpt lat="47.41659" lon="6.62178">
        <ele>361</ele>
        <time>2015-08-31T07:24:36Z</time>
      </trkpt>
      <trkpt lat="47.41659" lon="6.62185">
        <ele>361.3</ele>
        <time>2015-08-31T07:24:37Z</time>
      </trkpt>
      <trkpt lat="47.41659" lon="6.62191">
        <ele>361.5</ele>
        <time>2015-08-31T07:24:38Z</time>
      </trkpt>
      <trkpt lat="47.41659" lon="6.62198">
        <ele>361.7</ele>
        <time>2015-08-31T07:24:39Z</time>
      </trkpt>
      <trkpt lat="47.41658" lon="6.62205">
        <ele>361.8</ele>
        <time>2015-08-31T07:24:40Z</time>
      </trkpt>
      <trkpt lat="47.41658" lon="6.62213">
        <ele>361.8</ele>
        <time>2015-08-31T07:24:41Z</time>
      </trkpt>
      <trkpt lat="47.41658" lon="6.6222">
        <ele>361.8</ele>
        <time>2015-08-31T07:24:42Z</time>
      </trkpt>
      <trkpt lat="47.41657" lon="6.62227">
        <ele>361.7</ele>
        <time>2015-08-31T07:24:43Z</time>
      </trkpt>
      <trkpt lat="47.41656" lon="6.62235">
        <ele>361.8</ele>
        <time>2015-08-31T07:24:44Z</time>
      </trkpt>
      <trkpt lat="47.41655" lon="6.62242">
        <ele>361.8</ele>
        <time>2015-08-31T07:24:45Z</time>
      </trkpt>
      <trkpt lat="47.41653" lon="6.62248">
        <ele>362</ele>
        <time>2015-08-31T07:24:46Z</time>
      </trkpt>
      <trkpt lat="47.41652" lon="6.62254">
        <ele>361.9</ele>
        <time>2015-08-31T07:24:47Z</time>
      </trkpt>
      <trkpt lat="47.41651" lon="6.62259">
        <ele>361.8</ele>
        <time>2015-08-31T07:24:48Z</time>
      </trkpt>
      <trkpt lat="47.4165" lon="6.62265">
        <ele>361.8</ele>
        <time>2015-08-31T07:24:49Z</time>
      </trkpt>
      <trkpt lat="47.41648" lon="6.62271">
        <ele>361.7</ele>
        <time>2015-08-31T07:24:50Z</time>
      </trkpt>
      <trkpt lat="47.41646" lon="6.62276">
        <ele>361.6</ele>
        <time>2015-08-31T07:24:51Z</time>
      </trkpt>
      <trkpt lat="47.41645" lon="6.62281">
        <ele>361.5</ele>
        <time>2015-08-31T07:24:52Z</time>
      </trkpt>
      <trkpt lat="47.41644" lon="6.62287">
        <ele>361.5</ele>
        <time>2015-08-31T07:24:53Z</time>
      </trkpt>
      <trkpt lat="47.41643" lon="6.62292">
        <ele>361.6</ele>
        <time>2015-08-31T07:24:54Z</time>
      </trkpt>
      <trkpt lat="47.41642" lon="6.62297">
        <ele>361.5</ele>
        <time>2015-08-31T07:24:55Z</time>
      </trkpt>
      <trkpt lat="47.41641" lon="6.62303">
        <ele>361.4</ele>
        <time>2015-08-31T07:24:56Z</time>
      </trkpt>
      <trkpt lat="47.4164" lon="6.62308">
        <ele>361.2</ele>
        <time>2015-08-31T07:24:57Z</time>
      </trkpt>
      <trkpt lat="47.41638" lon="6.62313">
        <ele>360.7</ele>
        <time>2015-08-31T07:24:58Z</time>
      </trkpt>
      <trkpt lat="47.41637" lon="6.62318">
        <ele>360.3</ele>
        <time>2015-08-31T07:24:59Z</time>
      </trkpt>
      <trkpt lat="47.41636" lon="6.62324">
        <ele>360</ele>
        <time>2015-08-31T07:25:00Z</time>
      </trkpt>
      <trkpt lat="47.41634" lon="6.62331">
        <ele>359.7</ele>
        <time>2015-08-31T07:25:01Z</time>
      </trkpt>
      <trkpt lat="47.41632" lon="6.62338">
        <ele>359.5</ele>
        <time>2015-08-31T07:25:02Z</time>
      </trkpt>
      <trkpt lat="47.4163" lon="6.62344">
        <ele>359.2</ele>
        <time>2015-08-31T07:25:03Z</time>
      </trkpt>
      <trkpt lat="47.41628" lon="6.62351">
        <ele>358.8</ele>
        <time>2015-08-31T07:25:04Z</time>
      </trkpt>
      <trkpt lat="47.41626" lon="6.62358">
        <ele>358.8</ele>
        <time>2015-08-31T07:25:05Z</time>
      </trkpt>
      <trkpt lat="47.41624" lon="6.62364">
        <ele>358.9</ele>
        <time>2015-08-31T07:25:06Z</time>
      </trkpt>
      <trkpt lat="47.41621" lon="6.6237">
        <ele>359.3</ele>
        <time>2015-08-31T07:25:07Z</time>
      </trkpt>
      <trkpt lat="47.41617" lon="6.62376">
        <ele>359.3</ele>
        <time>2015-08-31T07:25:08Z</time>
      </trkpt>
      <trkpt lat="47.41614" lon="6.62381">
        <ele>359.5</ele>
        <time>2015-08-31T07:25:09Z</time>
      </trkpt>
      <trkpt lat="47.41611" lon="6.62386">
        <ele>359.7</ele>
        <time>2015-08-31T07:25:10Z</time>
      </trkpt>
      <trkpt lat="47.41608" lon="6.62391">
        <ele>359.9</ele>
        <time>2015-08-31T07:25:11Z</time>
      </trkpt>
      <trkpt lat="47.41606" lon="6.62397">
        <ele>360</ele>
        <time>2015-08-31T07:25:12Z</time>
      </trkpt>
      <trkpt lat="47.41603" lon="6.62402">
        <ele>360.2</ele>
        <time>2015-08-31T07:25:13Z</time>
      </trkpt>
      <trkpt lat="47.416" lon="6.62406">
        <ele>360.6</ele>
        <time>2015-08-31T07:25:14Z</time>
      </trkpt>
      <trkpt lat="47.41597" lon="6.62411">
        <ele>360.9</ele>
        <time>2015-08-31T07:25:15Z</time>
      </trkpt>
      <trkpt lat="47.41594" lon="6.62415">
        <ele>361.3</ele>
        <time>2015-08-31T07:25:16Z</time>
      </trkpt>
      <trkpt lat="47.41591" lon="6.62418">
        <ele>361.9</ele>
        <time>2015-08-31T07:25:17Z</time>
      </trkpt>
      <trkpt lat="47.41587" lon="6.62422">
        <ele>362.4</ele>
        <time>2015-08-31T07:25:18Z</time>
      </trkpt>
      <trkpt lat="47.41584" lon="6.62425">
        <ele>362.7</ele>
        <time>2015-08-31T07:25:19Z</time>
      </trkpt>
      <trkpt lat="47.41581" lon="6.62429">
        <ele>362.9</ele>
        <time>2015-08-31T07:25:20Z</time>
      </trkpt>
      <trkpt lat="47.41577" lon="6.62432">
        <ele>363</ele>
        <time>2015-08-31T07:25:21Z</time>
      </trkpt>
      <trkpt lat="47.41574" lon="6.62435">
        <ele>363</ele>
        <time>2015-08-31T07:25:22Z</time>
      </trkpt>
      <trkpt lat="47.4157" lon="6.62437">
        <ele>363.1</ele>
        <time>2015-08-31T07:25:23Z</time>
      </trkpt>
      <trkpt lat="47.41566" lon="6.6244">
        <ele>363.1</ele>
        <time>2015-08-31T07:25:24Z</time>
      </trkpt>
      <trkpt lat="47.41562" lon="6.62441">
        <ele>363.1</ele>
        <time>2015-08-31T07:25:25Z</time>
      </trkpt>
      <trkpt lat="47.41558" lon="6.62441">
        <ele>363.1</ele>
        <time>2015-08-31T07:25:26Z</time>
      </trkpt>
      <trkpt lat="47.41554" lon="6.62441">
        <ele>362.3</ele>
        <time>2015-08-31T07:25:27Z</time>
      </trkpt>
      <trkpt lat="47.41551" lon="6.62439">
        <ele>362.1</ele>
        <time>2015-08-31T07:25:28Z</time>
      </trkpt>
      <trkpt lat="47.41547" lon="6.62437">
        <ele>362.5</ele>
        <time>2015-08-31T07:25:29Z</time>
      </trkpt>
      <trkpt lat="47.41543" lon="6.62434">
        <ele>362.8</ele>
        <time>2015-08-31T07:25:30Z</time>
      </trkpt>
      <trkpt lat="47.4154" lon="6.6243">
        <ele>363</ele>
        <time>2015-08-31T07:25:31Z</time>
      </trkpt>
      <trkpt lat="47.41538" lon="6.62425">
        <ele>363.1</ele>
        <time>2015-08-31T07:25:32Z</time>
      </trkpt>
      <trkpt lat="47.41535" lon="6.62421">
        <ele>363.4</ele>
        <time>2015-08-31T07:25:33Z</time>
      </trkpt>
      <trkpt lat="47.41533" lon="6.62417">
        <ele>363.8</ele>
        <time>2015-08-31T07:25:34Z</time>
      </trkpt>
      <trkpt lat="47.41531" lon="6.62414">
        <ele>364.2</ele>
        <time>2015-08-31T07:25:35Z</time>
      </trkpt>
      <trkpt lat="47.41528" lon="6.62409">
        <ele>364.3</ele>
        <time>2015-08-31T07:25:36Z</time>
      </trkpt>
      <trkpt lat="47.41526" lon="6.62405">
        <ele>364.7</ele>
        <time>2015-08-31T07:25:37Z</time>
      </trkpt>
      <trkpt lat="47.41524" lon="6.624">
        <ele>364.9</ele>
        <time>2015-08-31T07:25:38Z</time>
      </trkpt>
      <trkpt lat="47.41522" lon="6.62395">
        <ele>365</ele>
        <time>2015-08-31T07:25:39Z</time>
      </trkpt>
      <trkpt lat="47.4152" lon="6.6239">
        <ele>365</ele>
        <time>2015-08-31T07:25:40Z</time>
      </trkpt>
      <trkpt lat="47.41518" lon="6.62385">
        <ele>365</ele>
        <time>2015-08-31T07:25:41Z</time>
      </trkpt>
      <trkpt lat="47.41516" lon="6.62381">
        <ele>364.8</ele>
        <time>2015-08-31T07:25:42Z</time>
      </trkpt>
      <trkpt lat="47.41513" lon="6.62376">
        <ele>365</ele>
        <time>2015-08-31T07:25:43Z</time>
      </trkpt>
      <trkpt lat="47.41511" lon="6.62372">
        <ele>364.9</ele>
        <time>2015-08-31T07:25:44Z</time>
      </trkpt>
      <trkpt lat="47.41508" lon="6.62367">
        <ele>364.9</ele>
        <time>2015-08-31T07:25:45Z</time>
      </trkpt>
      <trkpt lat="47.41505" lon="6.62362">
        <ele>365</ele>
        <time>2015-08-31T07:25:46Z</time>
      </trkpt>
      <trkpt lat="47.41502" lon="6.62357">
        <ele>365.1</ele>
        <time>2015-08-31T07:25:47Z</time>
      </trkpt>
      <trkpt lat="47.41499" lon="6.62352">
        <ele>365.1</ele>
        <time>2015-08-31T07:25:48Z</time>
      </trkpt>
      <trkpt lat="47.41496" lon="6.62347">
        <ele>365</ele>
        <time>2015-08-31T07:25:49Z</time>
      </trkpt>
      <trkpt lat="47.41493" lon="6.62343">
        <ele>365</ele>
        <time>2015-08-31T07:25:50Z</time>
      </trkpt>
      <trkpt lat="47.41491" lon="6.62338">
        <ele>365.2</ele>
        <time>2015-08-31T07:25:51Z</time>
      </trkpt>
      <trkpt lat="47.41488" lon="6.62333">
        <ele>365.4</ele>
        <time>2015-08-31T07:25:52Z</time>
      </trkpt>
      <trkpt lat="47.41487" lon="6.62328">
        <ele>366.9</ele>
        <time>2015-08-31T07:25:53Z</time>
      </trkpt>
      <trkpt lat="47.41485" lon="6.62324">
        <ele>368</ele>
        <time>2015-08-31T07:25:54Z</time>
      </trkpt>
      <trkpt lat="47.41483" lon="6.6232">
        <ele>368.9</ele>
        <time>2015-08-31T07:25:55Z</time>
      </trkpt>
      <trkpt lat="47.4148" lon="6.62315">
        <ele>369.1</ele>
        <time>2015-08-31T07:25:56Z</time>
      </trkpt>
      <trkpt lat="47.41478" lon="6.62311">
        <ele>369.6</ele>
        <time>2015-08-31T07:25:57Z</time>
      </trkpt>
      <trkpt lat="47.41475" lon="6.62308">
        <ele>370</ele>
        <time>2015-08-31T07:25:58Z</time>
      </trkpt>
      <trkpt lat="47.41472" lon="6.62304">
        <ele>370.3</ele>
        <time>2015-08-31T07:25:59Z</time>
      </trkpt>
      <trkpt lat="47.41469" lon="6.623">
        <ele>371.5</ele>
        <time>2015-08-31T07:26:00Z</time>
      </trkpt>
      <trkpt lat="47.41465" lon="6.62297">
        <ele>371.8</ele>
        <time>2015-08-31T07:26:01Z</time>
      </trkpt>
      <trkpt lat="47.41462" lon="6.62293">
        <ele>371.9</ele>
        <time>2015-08-31T07:26:02Z</time>
      </trkpt>
      <trkpt lat="47.41455" lon="6.62285">
        <ele>372.3</ele>
        <time>2015-08-31T07:26:04Z</time>
      </trkpt>
      <trkpt lat="47.41452" lon="6.62281">
        <ele>372.6</ele>
        <time>2015-08-31T07:26:05Z</time>
      </trkpt>
      <trkpt lat="47.41449" lon="6.62278">
        <ele>372.8</ele>
        <time>2015-08-31T07:26:06Z</time>
      </trkpt>
      <trkpt lat="47.41445" lon="6.62274">
        <ele>373</ele>
        <time>2015-08-31T07:26:07Z</time>
      </trkpt>
      <trkpt lat="47.41442" lon="6.62271">
        <ele>373.2</ele>
        <time>2015-08-31T07:26:08Z</time>
      </trkpt>
      <trkpt lat="47.41439" lon="6.62268">
        <ele>373.3</ele>
        <time>2015-08-31T07:26:09Z</time>
      </trkpt>
      <trkpt lat="47.41435" lon="6.62265">
        <ele>373.4</ele>
        <time>2015-08-31T07:26:10Z</time>
      </trkpt>
      <trkpt lat="47.41432" lon="6.62261">
        <ele>373.6</ele>
        <time>2015-08-31T07:26:11Z</time>
      </trkpt>
      <trkpt lat="47.41429" lon="6.62258">
        <ele>373.8</ele>
        <time>2015-08-31T07:26:12Z</time>
      </trkpt>
      <trkpt lat="47.41426" lon="6.62255">
        <ele>374</ele>
        <time>2015-08-31T07:26:13Z</time>
      </trkpt>
      <trkpt lat="47.41423" lon="6.62252">
        <ele>374.1</ele>
        <time>2015-08-31T07:26:14Z</time>
      </trkpt>
      <trkpt lat="47.41419" lon="6.62249">
        <ele>374.2</ele>
        <time>2015-08-31T07:26:15Z</time>
      </trkpt>
      <trkpt lat="47.41416" lon="6.62246">
        <ele>374.4</ele>
        <time>2015-08-31T07:26:16Z</time>
      </trkpt>
      <trkpt lat="47.41412" lon="6.62244">
        <ele>374.6</ele>
        <time>2015-08-31T07:26:17Z</time>
      </trkpt>
      <trkpt lat="47.41408" lon="6.62241">
        <ele>374.8</ele>
        <time>2015-08-31T07:26:18Z</time>
      </trkpt>
      <trkpt lat="47.41404" lon="6.62239">
        <ele>374.9</ele>
        <time>2015-08-31T07:26:19Z</time>
      </trkpt>
      <trkpt lat="47.41401" lon="6.62237">
        <ele>374.9</ele>
        <time>2015-08-31T07:26:20Z</time>
      </trkpt>
      <trkpt lat="47.41397" lon="6.62235">
        <ele>375.1</ele>
        <time>2015-08-31T07:26:21Z</time>
      </trkpt>
      <trkpt lat="47.41393" lon="6.62234">
        <ele>375.2</ele>
        <time>2015-08-31T07:26:22Z</time>
      </trkpt>
      <trkpt lat="47.41389" lon="6.62232">
        <ele>375.3</ele>
        <time>2015-08-31T07:26:23Z</time>
      </trkpt>
      <trkpt lat="47.41385" lon="6.6223">
        <ele>375.4</ele>
        <time>2015-08-31T07:26:24Z</time>
      </trkpt>
      <trkpt lat="47.41381" lon="6.62229">
        <ele>375.6</ele>
        <time>2015-08-31T07:26:25Z</time>
      </trkpt>
      <trkpt lat="47.41377" lon="6.62228">
        <ele>375.7</ele>
        <time>2015-08-31T07:26:26Z</time>
      </trkpt>
      <trkpt lat="47.41373" lon="6.62226">
        <ele>375.9</ele>
        <time>2015-08-31T07:26:27Z</time>
      </trkpt>
      <trkpt lat="47.41369" lon="6.62225">
        <ele>376</ele>
        <time>2015-08-31T07:26:28Z</time>
      </trkpt>
      <trkpt lat="47.41365" lon="6.62224">
        <ele>376.1</ele>
        <time>2015-08-31T07:26:29Z</time>
      </trkpt>
      <trkpt lat="47.41361" lon="6.62222">
        <ele>376.2</ele>
        <time>2015-08-31T07:26:30Z</time>
      </trkpt>
      <trkpt lat="47.41356" lon="6.62221">
        <ele>376.4</ele>
        <time>2015-08-31T07:26:31Z</time>
      </trkpt>
      <trkpt lat="47.41352" lon="6.6222">
        <ele>376.5</ele>
        <time>2015-08-31T07:26:32Z</time>
      </trkpt>
      <trkpt lat="47.41348" lon="6.62219">
        <ele>376.6</ele>
        <time>2015-08-31T07:26:33Z</time>
      </trkpt>
      <trkpt lat="47.41344" lon="6.62219">
        <ele>376.7</ele>
        <time>2015-08-31T07:26:34Z</time>
      </trkpt>
      <trkpt lat="47.4134" lon="6.62218">
        <ele>376.8</ele>
        <time>2015-08-31T07:26:35Z</time>
      </trkpt>
      <trkpt lat="47.41336" lon="6.62218">
        <ele>376.8</ele>
        <time>2015-08-31T07:26:36Z</time>
      </trkpt>
      <trkpt lat="47.41331" lon="6.62218">
        <ele>376.9</ele>
        <time>2015-08-31T07:26:37Z</time>
      </trkpt>
      <trkpt lat="47.41327" lon="6.62218">
        <ele>377.1</ele>
        <time>2015-08-31T07:26:38Z</time>
      </trkpt>
      <trkpt lat="47.41323" lon="6.62217">
        <ele>377.2</ele>
        <time>2015-08-31T07:26:39Z</time>
      </trkpt>
      <trkpt lat="47.41318" lon="6.62217">
        <ele>377.3</ele>
        <time>2015-08-31T07:26:40Z</time>
      </trkpt>
      <trkpt lat="47.41314" lon="6.62217">
        <ele>377.6</ele>
        <time>2015-08-31T07:26:41Z</time>
      </trkpt>
      <trkpt lat="47.4131" lon="6.62216">
        <ele>377.7</ele>
        <time>2015-08-31T07:26:42Z</time>
      </trkpt>
      <trkpt lat="47.41306" lon="6.62216">
        <ele>377.8</ele>
        <time>2015-08-31T07:26:43Z</time>
      </trkpt>
      <trkpt lat="47.41302" lon="6.62216">
        <ele>377.7</ele>
        <time>2015-08-31T07:26:44Z</time>
      </trkpt>
      <trkpt lat="47.41296" lon="6.62216">
        <ele>377.5</ele>
        <time>2015-08-31T07:26:45Z</time>
      </trkpt>
      <trkpt lat="47.41292" lon="6.62216">
        <ele>377.6</ele>
        <time>2015-08-31T07:26:46Z</time>
      </trkpt>
      <trkpt lat="47.41287" lon="6.62216">
        <ele>377.7</ele>
        <time>2015-08-31T07:26:47Z</time>
      </trkpt>
      <trkpt lat="47.41283" lon="6.62215">
        <ele>377.8</ele>
        <time>2015-08-31T07:26:48Z</time>
      </trkpt>
      <trkpt lat="47.41279" lon="6.62215">
        <ele>377.7</ele>
        <time>2015-08-31T07:26:49Z</time>
      </trkpt>
      <trkpt lat="47.41275" lon="6.62215">
        <ele>377.7</ele>
        <time>2015-08-31T07:26:50Z</time>
      </trkpt>
      <trkpt lat="47.41271" lon="6.62215">
        <ele>377.6</ele>
        <time>2015-08-31T07:26:51Z</time>
      </trkpt>
      <trkpt lat="47.41268" lon="6.62215">
        <ele>377.8</ele>
        <time>2015-08-31T07:26:52Z</time>
      </trkpt>
      <trkpt lat="47.41264" lon="6.62214">
        <ele>377.9</ele>
        <time>2015-08-31T07:26:53Z</time>
      </trkpt>
      <trkpt lat="47.41261" lon="6.62214">
        <ele>378.4</ele>
        <time>2015-08-31T07:26:54Z</time>
      </trkpt>
      <trkpt lat="47.41258" lon="6.62214">
        <ele>378.4</ele>
        <time>2015-08-31T07:26:55Z</time>
      </trkpt>
      <trkpt lat="47.41254" lon="6.62214">
        <ele>378.5</ele>
        <time>2015-08-31T07:26:56Z</time>
      </trkpt>
      <trkpt lat="47.4125" lon="6.62215">
        <ele>378.5</ele>
        <time>2015-08-31T07:26:57Z</time>
      </trkpt>
      <trkpt lat="47.41246" lon="6.62216">
        <ele>378.7</ele>
        <time>2015-08-31T07:26:58Z</time>
      </trkpt>
      <trkpt lat="47.41241" lon="6.62216">
        <ele>378.9</ele>
        <time>2015-08-31T07:26:59Z</time>
      </trkpt>
      <trkpt lat="47.41236" lon="6.62217">
        <ele>379.5</ele>
        <time>2015-08-31T07:27:00Z</time>
      </trkpt>
      <trkpt lat="47.41232" lon="6.62218">
        <ele>379.6</ele>
        <time>2015-08-31T07:27:01Z</time>
      </trkpt>
      <trkpt lat="47.41227" lon="6.62218">
        <ele>379.4</ele>
        <time>2015-08-31T07:27:02Z</time>
      </trkpt>
      <trkpt lat="47.41223" lon="6.62219">
        <ele>379.8</ele>
        <time>2015-08-31T07:27:03Z</time>
      </trkpt>
      <trkpt lat="47.41218" lon="6.6222">
        <ele>380.4</ele>
        <time>2015-08-31T07:27:04Z</time>
      </trkpt>
      <trkpt lat="47.41214" lon="6.6222">
        <ele>380.9</ele>
        <time>2015-08-31T07:27:05Z</time>
      </trkpt>
      <trkpt lat="47.4121" lon="6.62221">
        <ele>381.1</ele>
        <time>2015-08-31T07:27:06Z</time>
      </trkpt>
      <trkpt lat="47.41206" lon="6.62222">
        <ele>381.3</ele>
        <time>2015-08-31T07:27:07Z</time>
      </trkpt>
      <trkpt lat="47.41202" lon="6.62224">
        <ele>381.5</ele>
        <time>2015-08-31T07:27:08Z</time>
      </trkpt>
      <trkpt lat="47.41198" lon="6.62225">
        <ele>381.6</ele>
        <time>2015-08-31T07:27:09Z</time>
      </trkpt>
      <trkpt lat="47.41194" lon="6.62227">
        <ele>381.9</ele>
        <time>2015-08-31T07:27:10Z</time>
      </trkpt>
      <trkpt lat="47.41189" lon="6.62228">
        <ele>382.1</ele>
        <time>2015-08-31T07:27:11Z</time>
      </trkpt>
      <trkpt lat="47.41185" lon="6.62229">
        <ele>382.2</ele>
        <time>2015-08-31T07:27:12Z</time>
      </trkpt>
      <trkpt lat="47.41181" lon="6.6223">
        <ele>382</ele>
        <time>2015-08-31T07:27:13Z</time>
      </trkpt>
      <trkpt lat="47.41177" lon="6.6223">
        <ele>381.9</ele>
        <time>2015-08-31T07:27:14Z</time>
      </trkpt>
      <trkpt lat="47.41173" lon="6.62231">
        <ele>382</ele>
        <time>2015-08-31T07:27:15Z</time>
      </trkpt>
      <trkpt lat="47.41168" lon="6.62232">
        <ele>382.2</ele>
        <time>2015-08-31T07:27:16Z</time>
      </trkpt>
      <trkpt lat="47.41164" lon="6.62234">
        <ele>382.6</ele>
        <time>2015-08-31T07:27:17Z</time>
      </trkpt>
      <trkpt lat="47.4116" lon="6.62235">
        <ele>383</ele>
        <time>2015-08-31T07:27:18Z</time>
      </trkpt>
      <trkpt lat="47.41156" lon="6.62237">
        <ele>383.3</ele>
        <time>2015-08-31T07:27:19Z</time>
      </trkpt>
      <trkpt lat="47.41153" lon="6.62237">
        <ele>383.7</ele>
        <time>2015-08-31T07:27:20Z</time>
      </trkpt>
      <trkpt lat="47.41149" lon="6.62238">
        <ele>383.7</ele>
        <time>2015-08-31T07:27:21Z</time>
      </trkpt>
      <trkpt lat="47.41145" lon="6.62239">
        <ele>384</ele>
        <time>2015-08-31T07:27:22Z</time>
      </trkpt>
      <trkpt lat="47.41141" lon="6.6224">
        <ele>384.2</ele>
        <time>2015-08-31T07:27:23Z</time>
      </trkpt>
      <trkpt lat="47.41137" lon="6.62241">
        <ele>384.3</ele>
        <time>2015-08-31T07:27:24Z</time>
      </trkpt>
      <trkpt lat="47.41133" lon="6.62243">
        <ele>384.4</ele>
        <time>2015-08-31T07:27:25Z</time>
      </trkpt>
      <trkpt lat="47.4113" lon="6.62244">
        <ele>384.4</ele>
        <time>2015-08-31T07:27:26Z</time>
      </trkpt>
      <trkpt lat="47.41126" lon="6.62245">
        <ele>384.5</ele>
        <time>2015-08-31T07:27:27Z</time>
      </trkpt>
      <trkpt lat="47.41123" lon="6.62247">
        <ele>384.5</ele>
        <time>2015-08-31T07:27:28Z</time>
      </trkpt>
      <trkpt lat="47.41119" lon="6.62248">
        <ele>384.4</ele>
        <time>2015-08-31T07:27:29Z</time>
      </trkpt>
      <trkpt lat="47.41114" lon="6.62249">
        <ele>384.4</ele>
        <time>2015-08-31T07:27:30Z</time>
      </trkpt>
      <trkpt lat="47.4111" lon="6.62251">
        <ele>384.5</ele>
        <time>2015-08-31T07:27:31Z</time>
      </trkpt>
      <trkpt lat="47.41107" lon="6.62252">
        <ele>384.6</ele>
        <time>2015-08-31T07:27:32Z</time>
      </trkpt>
      <trkpt lat="47.41103" lon="6.62254">
        <ele>384.7</ele>
        <time>2015-08-31T07:27:33Z</time>
      </trkpt>
      <trkpt lat="47.41099" lon="6.62255">
        <ele>384.7</ele>
        <time>2015-08-31T07:27:34Z</time>
      </trkpt>
      <trkpt lat="47.41095" lon="6.62257">
        <ele>384.5</ele>
        <time>2015-08-31T07:27:35Z</time>
      </trkpt>
      <trkpt lat="47.41091" lon="6.62258">
        <ele>384.3</ele>
        <time>2015-08-31T07:27:36Z</time>
      </trkpt>
      <trkpt lat="47.41087" lon="6.6226">
        <ele>384.2</ele>
        <time>2015-08-31T07:27:37Z</time>
      </trkpt>
      <trkpt lat="47.41083" lon="6.62261">
        <ele>384.1</ele>
        <time>2015-08-31T07:27:38Z</time>
      </trkpt>
      <trkpt lat="47.41079" lon="6.62263">
        <ele>384.1</ele>
        <time>2015-08-31T07:27:39Z</time>
      </trkpt>
      <trkpt lat="47.41075" lon="6.62265">
        <ele>384.2</ele>
        <time>2015-08-31T07:27:40Z</time>
      </trkpt>
      <trkpt lat="47.41072" lon="6.62267">
        <ele>384.4</ele>
        <time>2015-08-31T07:27:41Z</time>
      </trkpt>
      <trkpt lat="47.41068" lon="6.62269">
        <ele>384.7</ele>
        <time>2015-08-31T07:27:42Z</time>
      </trkpt>
      <trkpt lat="47.41064" lon="6.6227">
        <ele>385.1</ele>
        <time>2015-08-31T07:27:43Z</time>
      </trkpt>
      <trkpt lat="47.41061" lon="6.62273">
        <ele>385.3</ele>
        <time>2015-08-31T07:27:44Z</time>
      </trkpt>
      <trkpt lat="47.41057" lon="6.62274">
        <ele>385.5</ele>
        <time>2015-08-31T07:27:45Z</time>
      </trkpt>
      <trkpt lat="47.41054" lon="6.62277">
        <ele>385.8</ele>
        <time>2015-08-31T07:27:46Z</time>
      </trkpt>
      <trkpt lat="47.4105" lon="6.62278">
        <ele>386</ele>
        <time>2015-08-31T07:27:47Z</time>
      </trkpt>
      <trkpt lat="47.41047" lon="6.62281">
        <ele>386.2</ele>
        <time>2015-08-31T07:27:48Z</time>
      </trkpt>
      <trkpt lat="47.41044" lon="6.62284">
        <ele>386.1</ele>
        <time>2015-08-31T07:27:49Z</time>
      </trkpt>
      <trkpt lat="47.4104" lon="6.62287">
        <ele>386.1</ele>
        <time>2015-08-31T07:27:50Z</time>
      </trkpt>
      <trkpt lat="47.41037" lon="6.62289">
        <ele>386.2</ele>
        <time>2015-08-31T07:27:51Z</time>
      </trkpt>
      <trkpt lat="47.41034" lon="6.62292">
        <ele>386.2</ele>
        <time>2015-08-31T07:27:52Z</time>
      </trkpt>
      <trkpt lat="47.41031" lon="6.62295">
        <ele>386.4</ele>
        <time>2015-08-31T07:27:53Z</time>
      </trkpt>
      <trkpt lat="47.41027" lon="6.62298">
        <ele>386.5</ele>
        <time>2015-08-31T07:27:54Z</time>
      </trkpt>
      <trkpt lat="47.41024" lon="6.62301">
        <ele>386.6</ele>
        <time>2015-08-31T07:27:55Z</time>
      </trkpt>
      <trkpt lat="47.4102" lon="6.62304">
        <ele>386.7</ele>
        <time>2015-08-31T07:27:56Z</time>
      </trkpt>
      <trkpt lat="47.41017" lon="6.62307">
        <ele>386.7</ele>
        <time>2015-08-31T07:27:57Z</time>
      </trkpt>
      <trkpt lat="47.41014" lon="6.62311">
        <ele>386.7</ele>
        <time>2015-08-31T07:27:58Z</time>
      </trkpt>
      <trkpt lat="47.41011" lon="6.62314">
        <ele>386.5</ele>
        <time>2015-08-31T07:27:59Z</time>
      </trkpt>
      <trkpt lat="47.41008" lon="6.62317">
        <ele>386.5</ele>
        <time>2015-08-31T07:28:00Z</time>
      </trkpt>
      <trkpt lat="47.41004" lon="6.62321">
        <ele>386.6</ele>
        <time>2015-08-31T07:28:01Z</time>
      </trkpt>
      <trkpt lat="47.41001" lon="6.62324">
        <ele>386.8</ele>
        <time>2015-08-31T07:28:02Z</time>
      </trkpt>
      <trkpt lat="47.40998" lon="6.62327">
        <ele>387</ele>
        <time>2015-08-31T07:28:03Z</time>
      </trkpt>
      <trkpt lat="47.40995" lon="6.62331">
        <ele>387.3</ele>
        <time>2015-08-31T07:28:04Z</time>
      </trkpt>
      <trkpt lat="47.40991" lon="6.62334">
        <ele>387.4</ele>
        <time>2015-08-31T07:28:05Z</time>
      </trkpt>
      <trkpt lat="47.40989" lon="6.62338">
        <ele>387.7</ele>
        <time>2015-08-31T07:28:06Z</time>
      </trkpt>
      <trkpt lat="47.40986" lon="6.62342">
        <ele>387.9</ele>
        <time>2015-08-31T07:28:07Z</time>
      </trkpt>
      <trkpt lat="47.40983" lon="6.62346">
        <ele>388.1</ele>
        <time>2015-08-31T07:28:08Z</time>
      </trkpt>
      <trkpt lat="47.4098" lon="6.62351">
        <ele>388.1</ele>
        <time>2015-08-31T07:28:09Z</time>
      </trkpt>
      <trkpt lat="47.40977" lon="6.62355">
        <ele>388.2</ele>
        <time>2015-08-31T07:28:10Z</time>
      </trkpt>
      <trkpt lat="47.40974" lon="6.6236">
        <ele>388.3</ele>
        <time>2015-08-31T07:28:11Z</time>
      </trkpt>
      <trkpt lat="47.40971" lon="6.62364">
        <ele>388.5</ele>
        <time>2015-08-31T07:28:12Z</time>
      </trkpt>
      <trkpt lat="47.40968" lon="6.62369">
        <ele>388.6</ele>
        <time>2015-08-31T07:28:13Z</time>
      </trkpt>
      <trkpt lat="47.40966" lon="6.62373">
        <ele>388.5</ele>
        <time>2015-08-31T07:28:14Z</time>
      </trkpt>
      <trkpt lat="47.40963" lon="6.62378">
        <ele>389</ele>
        <time>2015-08-31T07:28:15Z</time>
      </trkpt>
      <trkpt lat="47.4096" lon="6.62382">
        <ele>389.2</ele>
        <time>2015-08-31T07:28:16Z</time>
      </trkpt>
      <trkpt lat="47.40958" lon="6.62387">
        <ele>389.5</ele>
        <time>2015-08-31T07:28:17Z</time>
      </trkpt>
      <trkpt lat="47.40956" lon="6.62391">
        <ele>389.8</ele>
        <time>2015-08-31T07:28:18Z</time>
      </trkpt>
      <trkpt lat="47.40954" lon="6.62396">
        <ele>390.1</ele>
        <time>2015-08-31T07:28:19Z</time>
      </trkpt>
      <trkpt lat="47.40952" lon="6.624">
        <ele>390.3</ele>
        <time>2015-08-31T07:28:20Z</time>
      </trkpt>
      <trkpt lat="47.4095" lon="6.62405">
        <ele>390.6</ele>
        <time>2015-08-31T07:28:21Z</time>
      </trkpt>
      <trkpt lat="47.40947" lon="6.6241">
        <ele>390.7</ele>
        <time>2015-08-31T07:28:22Z</time>
      </trkpt>
      <trkpt lat="47.40945" lon="6.62414">
        <ele>390.8</ele>
        <time>2015-08-31T07:28:23Z</time>
      </trkpt>
      <trkpt lat="47.40943" lon="6.62419">
        <ele>390.9</ele>
        <time>2015-08-31T07:28:24Z</time>
      </trkpt>
      <trkpt lat="47.4094" lon="6.62424">
        <ele>391</ele>
        <time>2015-08-31T07:28:25Z</time>
      </trkpt>
      <trkpt lat="47.40938" lon="6.62429">
        <ele>391.2</ele>
        <time>2015-08-31T07:28:26Z</time>
      </trkpt>
      <trkpt lat="47.40936" lon="6.62434">
        <ele>391.3</ele>
        <time>2015-08-31T07:28:27Z</time>
      </trkpt>
      <trkpt lat="47.40934" lon="6.62439">
        <ele>391.6</ele>
        <time>2015-08-31T07:28:28Z</time>
      </trkpt>
      <trkpt lat="47.40933" lon="6.62443">
        <ele>392.3</ele>
        <time>2015-08-31T07:28:29Z</time>
      </trkpt>
      <trkpt lat="47.40931" lon="6.62448">
        <ele>392.5</ele>
        <time>2015-08-31T07:28:30Z</time>
      </trkpt>
      <trkpt lat="47.40929" lon="6.62453">
        <ele>392.9</ele>
        <time>2015-08-31T07:28:31Z</time>
      </trkpt>
      <trkpt lat="47.40927" lon="6.62458">
        <ele>393.3</ele>
        <time>2015-08-31T07:28:32Z</time>
      </trkpt>
      <trkpt lat="47.40925" lon="6.62462">
        <ele>393.5</ele>
        <time>2015-08-31T07:28:33Z</time>
      </trkpt>
      <trkpt lat="47.40923" lon="6.62467">
        <ele>394.3</ele>
        <time>2015-08-31T07:28:34Z</time>
      </trkpt>
      <trkpt lat="47.40921" lon="6.62471">
        <ele>394.8</ele>
        <time>2015-08-31T07:28:35Z</time>
      </trkpt>
      <trkpt lat="47.40919" lon="6.62476">
        <ele>395.1</ele>
        <time>2015-08-31T07:28:36Z</time>
      </trkpt>
      <trkpt lat="47.40917" lon="6.62481">
        <ele>395.3</ele>
        <time>2015-08-31T07:28:37Z</time>
      </trkpt>
      <trkpt lat="47.40916" lon="6.62487">
        <ele>395.5</ele>
        <time>2015-08-31T07:28:38Z</time>
      </trkpt>
      <trkpt lat="47.40914" lon="6.62492">
        <ele>395.7</ele>
        <time>2015-08-31T07:28:39Z</time>
      </trkpt>
      <trkpt lat="47.40912" lon="6.62497">
        <ele>395.9</ele>
        <time>2015-08-31T07:28:40Z</time>
      </trkpt>
      <trkpt lat="47.40911" lon="6.62503">
        <ele>396.1</ele>
        <time>2015-08-31T07:28:41Z</time>
      </trkpt>
      <trkpt lat="47.40909" lon="6.62508">
        <ele>396.2</ele>
        <time>2015-08-31T07:28:42Z</time>
      </trkpt>
      <trkpt lat="47.40908" lon="6.62514">
        <ele>396.4</ele>
        <time>2015-08-31T07:28:43Z</time>
      </trkpt>
      <trkpt lat="47.40906" lon="6.62519">
        <ele>396.6</ele>
        <time>2015-08-31T07:28:44Z</time>
      </trkpt>
      <trkpt lat="47.40905" lon="6.62525">
        <ele>396.8</ele>
        <time>2015-08-31T07:28:45Z</time>
      </trkpt>
      <trkpt lat="47.40904" lon="6.62531">
        <ele>396.9</ele>
        <time>2015-08-31T07:28:46Z</time>
      </trkpt>
      <trkpt lat="47.40903" lon="6.62537">
        <ele>397</ele>
        <time>2015-08-31T07:28:47Z</time>
      </trkpt>
      <trkpt lat="47.40902" lon="6.62542">
        <ele>397.1</ele>
        <time>2015-08-31T07:28:48Z</time>
      </trkpt>
      <trkpt lat="47.40901" lon="6.62548">
        <ele>397.2</ele>
        <time>2015-08-31T07:28:49Z</time>
      </trkpt>
      <trkpt lat="47.409" lon="6.62554">
        <ele>397.3</ele>
        <time>2015-08-31T07:28:50Z</time>
      </trkpt>
      <trkpt lat="47.40899" lon="6.6256">
        <ele>397.5</ele>
        <time>2015-08-31T07:28:51Z</time>
      </trkpt>
      <trkpt lat="47.40898" lon="6.62566">
        <ele>397.6</ele>
        <time>2015-08-31T07:28:52Z</time>
      </trkpt>
      <trkpt lat="47.40898" lon="6.62572">
        <ele>397.8</ele>
        <time>2015-08-31T07:28:53Z</time>
      </trkpt>
      <trkpt lat="47.40897" lon="6.62578">
        <ele>398</ele>
        <time>2015-08-31T07:28:54Z</time>
      </trkpt>
      <trkpt lat="47.40896" lon="6.62584">
        <ele>398.2</ele>
        <time>2015-08-31T07:28:55Z</time>
      </trkpt>
      <trkpt lat="47.40895" lon="6.6259">
        <ele>398.4</ele>
        <time>2015-08-31T07:28:56Z</time>
      </trkpt>
      <trkpt lat="47.40894" lon="6.62596">
        <ele>398.5</ele>
        <time>2015-08-31T07:28:57Z</time>
      </trkpt>
      <trkpt lat="47.40893" lon="6.62602">
        <ele>398.5</ele>
        <time>2015-08-31T07:28:58Z</time>
      </trkpt>
      <trkpt lat="47.40892" lon="6.62608">
        <ele>398.6</ele>
        <time>2015-08-31T07:28:59Z</time>
      </trkpt>
      <trkpt lat="47.40891" lon="6.62613">
        <ele>398.6</ele>
        <time>2015-08-31T07:29:00Z</time>
      </trkpt>
      <trkpt lat="47.4089" lon="6.62619">
        <ele>398.8</ele>
        <time>2015-08-31T07:29:01Z</time>
      </trkpt>
      <trkpt lat="47.40889" lon="6.62625">
        <ele>398.9</ele>
        <time>2015-08-31T07:29:02Z</time>
      </trkpt>
      <trkpt lat="47.40888" lon="6.62631">
        <ele>399</ele>
        <time>2015-08-31T07:29:03Z</time>
      </trkpt>
      <trkpt lat="47.40887" lon="6.62636">
        <ele>399.1</ele>
        <time>2015-08-31T07:29:04Z</time>
      </trkpt>
      <trkpt lat="47.40885" lon="6.62642">
        <ele>399.2</ele>
        <time>2015-08-31T07:29:05Z</time>
      </trkpt>
      <trkpt lat="47.40884" lon="6.62648">
        <ele>399.3</ele>
        <time>2015-08-31T07:29:06Z</time>
      </trkpt>
      <trkpt lat="47.40883" lon="6.62653">
        <ele>399.5</ele>
        <time>2015-08-31T07:29:07Z</time>
      </trkpt>
      <trkpt lat="47.40881" lon="6.62659">
        <ele>399.7</ele>
        <time>2015-08-31T07:29:08Z</time>
      </trkpt>
      <trkpt lat="47.4088" lon="6.62664">
        <ele>399.9</ele>
        <time>2015-08-31T07:29:09Z</time>
      </trkpt>
      <trkpt lat="47.40878" lon="6.6267">
        <ele>400.1</ele>
        <time>2015-08-31T07:29:10Z</time>
      </trkpt>
      <trkpt lat="47.40876" lon="6.62675">
        <ele>400.3</ele>
        <time>2015-08-31T07:29:11Z</time>
      </trkpt>
      <trkpt lat="47.40874" lon="6.62681">
        <ele>400.4</ele>
        <time>2015-08-31T07:29:12Z</time>
      </trkpt>
      <trkpt lat="47.40872" lon="6.62686">
        <ele>400.6</ele>
        <time>2015-08-31T07:29:13Z</time>
      </trkpt>
      <trkpt lat="47.4087" lon="6.6269">
        <ele>400.7</ele>
        <time>2015-08-31T07:29:14Z</time>
      </trkpt>
      <trkpt lat="47.40867" lon="6.62695">
        <ele>400.8</ele>
        <time>2015-08-31T07:29:15Z</time>
      </trkpt>
      <trkpt lat="47.40864" lon="6.627">
        <ele>401</ele>
        <time>2015-08-31T07:29:16Z</time>
      </trkpt>
      <trkpt lat="47.40862" lon="6.62705">
        <ele>401</ele>
        <time>2015-08-31T07:29:17Z</time>
      </trkpt>
      <trkpt lat="47.40859" lon="6.62709">
        <ele>401.1</ele>
        <time>2015-08-31T07:29:18Z</time>
      </trkpt>
      <trkpt lat="47.40856" lon="6.62714">
        <ele>401.2</ele>
        <time>2015-08-31T07:29:19Z</time>
      </trkpt>
      <trkpt lat="47.40854" lon="6.62719">
        <ele>401</ele>
        <time>2015-08-31T07:29:20Z</time>
      </trkpt>
      <trkpt lat="47.40851" lon="6.62723">
        <ele>401.1</ele>
        <time>2015-08-31T07:29:21Z</time>
      </trkpt>
      <trkpt lat="47.40848" lon="6.62727">
        <ele>401.3</ele>
        <time>2015-08-31T07:29:22Z</time>
      </trkpt>
      <trkpt lat="47.40845" lon="6.62731">
        <ele>401.4</ele>
        <time>2015-08-31T07:29:23Z</time>
      </trkpt>
      <trkpt lat="47.40842" lon="6.62735">
        <ele>401.6</ele>
        <time>2015-08-31T07:29:24Z</time>
      </trkpt>
      <trkpt lat="47.40839" lon="6.62739">
        <ele>401.7</ele>
        <time>2015-08-31T07:29:25Z</time>
      </trkpt>
      <trkpt lat="47.40836" lon="6.62742">
        <ele>401.9</ele>
        <time>2015-08-31T07:29:26Z</time>
      </trkpt>
      <trkpt lat="47.40832" lon="6.62745">
        <ele>402</ele>
        <time>2015-08-31T07:29:27Z</time>
      </trkpt>
      <trkpt lat="47.40829" lon="6.62748">
        <ele>402.2</ele>
        <time>2015-08-31T07:29:28Z</time>
      </trkpt>
      <trkpt lat="47.40826" lon="6.62751">
        <ele>402.3</ele>
        <time>2015-08-31T07:29:29Z</time>
      </trkpt>
      <trkpt lat="47.40823" lon="6.62754">
        <ele>402.4</ele>
        <time>2015-08-31T07:29:30Z</time>
      </trkpt>
      <trkpt lat="47.4082" lon="6.62756">
        <ele>402.6</ele>
        <time>2015-08-31T07:29:31Z</time>
      </trkpt>
      <trkpt lat="47.40817" lon="6.62759">
        <ele>402.7</ele>
        <time>2015-08-31T07:29:32Z</time>
      </trkpt>
      <trkpt lat="47.40813" lon="6.62761">
        <ele>402.9</ele>
        <time>2015-08-31T07:29:33Z</time>
      </trkpt>
      <trkpt lat="47.4081" lon="6.62763">
        <ele>403</ele>
        <time>2015-08-31T07:29:34Z</time>
      </trkpt>
      <trkpt lat="47.40806" lon="6.62765">
        <ele>403.2</ele>
        <time>2015-08-31T07:29:35Z</time>
      </trkpt>
      <trkpt lat="47.40802" lon="6.62768">
        <ele>403.4</ele>
        <time>2015-08-31T07:29:36Z</time>
      </trkpt>
      <trkpt lat="47.40799" lon="6.6277">
        <ele>403.6</ele>
        <time>2015-08-31T07:29:37Z</time>
      </trkpt>
      <trkpt lat="47.40795" lon="6.62772">
        <ele>403.8</ele>
        <time>2015-08-31T07:29:38Z</time>
      </trkpt>
      <trkpt lat="47.40791" lon="6.62774">
        <ele>404</ele>
        <time>2015-08-31T07:29:39Z</time>
      </trkpt>
      <trkpt lat="47.40788" lon="6.62777">
        <ele>404.1</ele>
        <time>2015-08-31T07:29:40Z</time>
      </trkpt>
      <trkpt lat="47.40784" lon="6.62779">
        <ele>404.3</ele>
        <time>2015-08-31T07:29:41Z</time>
      </trkpt>
      <trkpt lat="47.4078" lon="6.62781">
        <ele>404.6</ele>
        <time>2015-08-31T07:29:42Z</time>
      </trkpt>
      <trkpt lat="47.40776" lon="6.62782">
        <ele>404.7</ele>
        <time>2015-08-31T07:29:43Z</time>
      </trkpt>
      <trkpt lat="47.40773" lon="6.62784">
        <ele>404.8</ele>
        <time>2015-08-31T07:29:44Z</time>
      </trkpt>
      <trkpt lat="47.40769" lon="6.62785">
        <ele>405</ele>
        <time>2015-08-31T07:29:45Z</time>
      </trkpt>
      <trkpt lat="47.40766" lon="6.62787">
        <ele>405.1</ele>
        <time>2015-08-31T07:29:46Z</time>
      </trkpt>
      <trkpt lat="47.40762" lon="6.62788">
        <ele>405.3</ele>
        <time>2015-08-31T07:29:47Z</time>
      </trkpt>
      <trkpt lat="47.40758" lon="6.6279">
        <ele>405.2</ele>
        <time>2015-08-31T07:29:48Z</time>
      </trkpt>
      <trkpt lat="47.40754" lon="6.62791">
        <ele>405.3</ele>
        <time>2015-08-31T07:29:49Z</time>
      </trkpt>
      <trkpt lat="47.40751" lon="6.62792">
        <ele>405.6</ele>
        <time>2015-08-31T07:29:50Z</time>
      </trkpt>
      <trkpt lat="47.40747" lon="6.62793">
        <ele>405.8</ele>
        <time>2015-08-31T07:29:51Z</time>
      </trkpt>
      <trkpt lat="47.40743" lon="6.62794">
        <ele>405.9</ele>
        <time>2015-08-31T07:29:52Z</time>
      </trkpt>
      <trkpt lat="47.40739" lon="6.62795">
        <ele>406</ele>
        <time>2015-08-31T07:29:53Z</time>
      </trkpt>
      <trkpt lat="47.40735" lon="6.62795">
        <ele>406</ele>
        <time>2015-08-31T07:29:54Z</time>
      </trkpt>
      <trkpt lat="47.40731" lon="6.62796">
        <ele>406.1</ele>
        <time>2015-08-31T07:29:55Z</time>
      </trkpt>
      <trkpt lat="47.40727" lon="6.62797">
        <ele>406.4</ele>
        <time>2015-08-31T07:29:56Z</time>
      </trkpt>
      <trkpt lat="47.40724" lon="6.62798">
        <ele>406.6</ele>
        <time>2015-08-31T07:29:57Z</time>
      </trkpt>
      <trkpt lat="47.4072" lon="6.62799">
        <ele>407</ele>
        <time>2015-08-31T07:29:58Z</time>
      </trkpt>
      <trkpt lat="47.40717" lon="6.62799">
        <ele>406.9</ele>
        <time>2015-08-31T07:29:59Z</time>
      </trkpt>
      <trkpt lat="47.40714" lon="6.628">
        <ele>406.7</ele>
        <time>2015-08-31T07:30:00Z</time>
      </trkpt>
      <trkpt lat="47.4071" lon="6.62801">
        <ele>406.8</ele>
        <time>2015-08-31T07:30:01Z</time>
      </trkpt>
      <trkpt lat="47.40707" lon="6.62801">
        <ele>407.2</ele>
        <time>2015-08-31T07:30:02Z</time>
      </trkpt>
      <trkpt lat="47.40704" lon="6.62802">
        <ele>408.2</ele>
        <time>2015-08-31T07:30:03Z</time>
      </trkpt>
      <trkpt lat="47.40701" lon="6.62802">
        <ele>408.4</ele>
        <time>2015-08-31T07:30:04Z</time>
      </trkpt>
      <trkpt lat="47.40698" lon="6.62803">
        <ele>408.7</ele>
        <time>2015-08-31T07:30:05Z</time>
      </trkpt>
      <trkpt lat="47.40695" lon="6.62803">
        <ele>409</ele>
        <time>2015-08-31T07:30:06Z</time>
      </trkpt>
      <trkpt lat="47.40692" lon="6.62804">
        <ele>409.1</ele>
        <time>2015-08-31T07:30:07Z</time>
      </trkpt>
      <trkpt lat="47.40689" lon="6.62805">
        <ele>409.1</ele>
        <time>2015-08-31T07:30:08Z</time>
      </trkpt>
      <trkpt lat="47.40687" lon="6.62806">
        <ele>409.5</ele>
        <time>2015-08-31T07:30:09Z</time>
      </trkpt>
      <trkpt lat="47.40685" lon="6.62807">
        <ele>409.7</ele>
        <time>2015-08-31T07:30:10Z</time>
      </trkpt>
      <trkpt lat="47.40683" lon="6.6281">
        <ele>409.7</ele>
        <time>2015-08-31T07:30:11Z</time>
      </trkpt>
      <trkpt lat="47.40682" lon="6.62812">
        <ele>409.8</ele>
        <time>2015-08-31T07:30:12Z</time>
      </trkpt>
      <trkpt lat="47.4068" lon="6.62814">
        <ele>409.6</ele>
        <time>2015-08-31T07:30:13Z</time>
      </trkpt>
      <trkpt lat="47.40678" lon="6.62816">
        <ele>409.3</ele>
        <time>2015-08-31T07:30:14Z</time>
      </trkpt>
      <trkpt lat="47.40677" lon="6.62816">
        <ele>409.3</ele>
        <time>2015-08-31T07:30:15Z</time>
      </trkpt>
      <trkpt lat="47.40675" lon="6.62815">
        <ele>409.9</ele>
        <time>2015-08-31T07:31:47Z</time>
      </trkpt>
      <trkpt lat="47.40672" lon="6.62814">
        <ele>409.9</ele>
        <time>2015-08-31T07:31:48Z</time>
      </trkpt>
      <trkpt lat="47.4067" lon="6.62811">
        <ele>409.9</ele>
        <time>2015-08-31T07:31:49Z</time>
      </trkpt>
      <trkpt lat="47.40668" lon="6.62806">
        <ele>409.9</ele>
        <time>2015-08-31T07:31:50Z</time>
      </trkpt>
      <trkpt lat="47.40667" lon="6.62802">
        <ele>410.3</ele>
        <time>2015-08-31T07:31:51Z</time>
      </trkpt>
      <trkpt lat="47.40665" lon="6.62797">
        <ele>410.6</ele>
        <time>2015-08-31T07:31:52Z</time>
      </trkpt>
      <trkpt lat="47.40662" lon="6.62794">
        <ele>411.1</ele>
        <time>2015-08-31T07:31:53Z</time>
      </trkpt>
      <trkpt lat="47.40658" lon="6.6279">
        <ele>411.5</ele>
        <time>2015-08-31T07:31:54Z</time>
      </trkpt>
      <trkpt lat="47.40655" lon="6.62788">
        <ele>411.9</ele>
        <time>2015-08-31T07:31:55Z</time>
      </trkpt>
      <trkpt lat="47.40652" lon="6.62785">
        <ele>412.2</ele>
        <time>2015-08-31T07:31:56Z</time>
      </trkpt>
      <trkpt lat="47.40648" lon="6.62783">
        <ele>412.5</ele>
        <time>2015-08-31T07:31:57Z</time>
      </trkpt>
      <trkpt lat="47.40645" lon="6.6278">
        <ele>412.7</ele>
        <time>2015-08-31T07:31:58Z</time>
      </trkpt>
      <trkpt lat="47.40641" lon="6.62777">
        <ele>412.9</ele>
        <time>2015-08-31T07:31:59Z</time>
      </trkpt>
      <trkpt lat="47.40637" lon="6.62775">
        <ele>413.1</ele>
        <time>2015-08-31T07:32:00Z</time>
      </trkpt>
      <trkpt lat="47.40634" lon="6.62772">
        <ele>413.3</ele>
        <time>2015-08-31T07:32:01Z</time>
      </trkpt>
      <trkpt lat="47.4063" lon="6.62769">
        <ele>413.5</ele>
        <time>2015-08-31T07:32:02Z</time>
      </trkpt>
      <trkpt lat="47.40627" lon="6.62767">
        <ele>413.7</ele>
        <time>2015-08-31T07:32:03Z</time>
      </trkpt>
      <trkpt lat="47.40624" lon="6.62764">
        <ele>413.8</ele>
        <time>2015-08-31T07:32:04Z</time>
      </trkpt>
      <trkpt lat="47.4062" lon="6.62762">
        <ele>414.1</ele>
        <time>2015-08-31T07:32:05Z</time>
      </trkpt>
      <trkpt lat="47.40617" lon="6.62759">
        <ele>414.2</ele>
        <time>2015-08-31T07:32:06Z</time>
      </trkpt>
      <trkpt lat="47.40613" lon="6.62756">
        <ele>414.5</ele>
        <time>2015-08-31T07:32:07Z</time>
      </trkpt>
      <trkpt lat="47.4061" lon="6.62754">
        <ele>414.7</ele>
        <time>2015-08-31T07:32:08Z</time>
      </trkpt>
      <trkpt lat="47.40606" lon="6.62751">
        <ele>414.9</ele>
        <time>2015-08-31T07:32:09Z</time>
      </trkpt>
      <trkpt lat="47.40602" lon="6.62749">
        <ele>415.1</ele>
        <time>2015-08-31T07:32:10Z</time>
      </trkpt>
      <trkpt lat="47.40599" lon="6.62746">
        <ele>415.3</ele>
        <time>2015-08-31T07:32:11Z</time>
      </trkpt>
      <trkpt lat="47.40595" lon="6.62743">
        <ele>415.6</ele>
        <time>2015-08-31T07:32:12Z</time>
      </trkpt>
      <trkpt lat="47.40592" lon="6.62741">
        <ele>415.7</ele>
        <time>2015-08-31T07:32:13Z</time>
      </trkpt>
      <trkpt lat="47.40589" lon="6.62738">
        <ele>415.9</ele>
        <time>2015-08-31T07:32:14Z</time>
      </trkpt>
      <trkpt lat="47.40585" lon="6.62735">
        <ele>416.1</ele>
        <time>2015-08-31T07:32:15Z</time>
      </trkpt>
      <trkpt lat="47.40581" lon="6.62731">
        <ele>416.4</ele>
        <time>2015-08-31T07:32:16Z</time>
      </trkpt>
      <trkpt lat="47.40578" lon="6.62728">
        <ele>416.6</ele>
        <time>2015-08-31T07:32:17Z</time>
      </trkpt>
      <trkpt lat="47.40576" lon="6.62724">
        <ele>417.1</ele>
        <time>2015-08-31T07:32:18Z</time>
      </trkpt>
      <trkpt lat="47.40573" lon="6.6272">
        <ele>417.5</ele>
        <time>2015-08-31T07:32:19Z</time>
      </trkpt>
      <trkpt lat="47.40571" lon="6.62715">
        <ele>417.9</ele>
        <time>2015-08-31T07:32:20Z</time>
      </trkpt>
      <trkpt lat="47.40569" lon="6.62711">
        <ele>418.2</ele>
        <time>2015-08-31T07:32:21Z</time>
      </trkpt>
      <trkpt lat="47.40566" lon="6.62706">
        <ele>418.6</ele>
        <time>2015-08-31T07:32:22Z</time>
      </trkpt>
      <trkpt lat="47.40564" lon="6.62702">
        <ele>419</ele>
        <time>2015-08-31T07:32:23Z</time>
      </trkpt>
      <trkpt lat="47.40563" lon="6.62698">
        <ele>419.6</ele>
        <time>2015-08-31T07:32:24Z</time>
      </trkpt>
      <trkpt lat="47.4056" lon="6.62693">
        <ele>420.1</ele>
        <time>2015-08-31T07:32:25Z</time>
      </trkpt>
      <trkpt lat="47.40558" lon="6.62689">
        <ele>419.8</ele>
        <time>2015-08-31T07:32:26Z</time>
      </trkpt>
      <trkpt lat="47.40556" lon="6.62684">
        <ele>419.8</ele>
        <time>2015-08-31T07:32:27Z</time>
      </trkpt>
      <trkpt lat="47.40554" lon="6.62679">
        <ele>420.2</ele>
        <time>2015-08-31T07:32:28Z</time>
      </trkpt>
      <trkpt lat="47.40552" lon="6.62675">
        <ele>420.5</ele>
        <time>2015-08-31T07:32:29Z</time>
      </trkpt>
      <trkpt lat="47.4055" lon="6.6267">
        <ele>420.9</ele>
        <time>2015-08-31T07:32:30Z</time>
      </trkpt>
      <trkpt lat="47.40547" lon="6.62666">
        <ele>421.3</ele>
        <time>2015-08-31T07:32:31Z</time>
      </trkpt>
      <trkpt lat="47.40545" lon="6.62662">
        <ele>421.5</ele>
        <time>2015-08-31T07:32:32Z</time>
      </trkpt>
      <trkpt lat="47.40543" lon="6.62657">
        <ele>421.6</ele>
        <time>2015-08-31T07:32:33Z</time>
      </trkpt>
      <trkpt lat="47.40541" lon="6.62652">
        <ele>421.8</ele>
        <time>2015-08-31T07:32:34Z</time>
      </trkpt>
      <trkpt lat="47.40539" lon="6.62648">
        <ele>422</ele>
        <time>2015-08-31T07:32:35Z</time>
      </trkpt>
      <trkpt lat="47.40538" lon="6.62643">
        <ele>422.2</ele>
        <time>2015-08-31T07:32:36Z</time>
      </trkpt>
      <trkpt lat="47.40536" lon="6.62638">
        <ele>422.4</ele>
        <time>2015-08-31T07:32:37Z</time>
      </trkpt>
      <trkpt lat="47.40534" lon="6.62634">
        <ele>422.6</ele>
        <time>2015-08-31T07:32:38Z</time>
      </trkpt>
      <trkpt lat="47.40532" lon="6.62629">
        <ele>423.2</ele>
        <time>2015-08-31T07:32:39Z</time>
      </trkpt>
      <trkpt lat="47.4053" lon="6.62625">
        <ele>423.9</ele>
        <time>2015-08-31T07:32:40Z</time>
      </trkpt>
      <trkpt lat="47.40528" lon="6.6262">
        <ele>423.9</ele>
        <time>2015-08-31T07:32:41Z</time>
      </trkpt>
      <trkpt lat="47.40526" lon="6.62615">
        <ele>424.2</ele>
        <time>2015-08-31T07:32:42Z</time>
      </trkpt>
      <trkpt lat="47.40525" lon="6.6261">
        <ele>424.5</ele>
        <time>2015-08-31T07:32:43Z</time>
      </trkpt>
      <trkpt lat="47.40523" lon="6.62605">
        <ele>424.7</ele>
        <time>2015-08-31T07:32:44Z</time>
      </trkpt>
      <trkpt lat="47.40521" lon="6.626">
        <ele>424.8</ele>
        <time>2015-08-31T07:32:45Z</time>
      </trkpt>
      <trkpt lat="47.40519" lon="6.62596">
        <ele>425</ele>
        <time>2015-08-31T07:32:46Z</time>
      </trkpt>
      <trkpt lat="47.40518" lon="6.62591">
        <ele>425.2</ele>
        <time>2015-08-31T07:32:47Z</time>
      </trkpt>
      <trkpt lat="47.40516" lon="6.62586">
        <ele>425.4</ele>
        <time>2015-08-31T07:32:48Z</time>
      </trkpt>
      <trkpt lat="47.40514" lon="6.62581">
        <ele>425.5</ele>
        <time>2015-08-31T07:32:49Z</time>
      </trkpt>
      <trkpt lat="47.40512" lon="6.62576">
        <ele>425.5</ele>
        <time>2015-08-31T07:32:50Z</time>
      </trkpt>
      <trkpt lat="47.4051" lon="6.62572">
        <ele>425.4</ele>
        <time>2015-08-31T07:32:51Z</time>
      </trkpt>
      <trkpt lat="47.40507" lon="6.62569">
        <ele>425.2</ele>
        <time>2015-08-31T07:32:52Z</time>
      </trkpt>
      <trkpt lat="47.40504" lon="6.62566">
        <ele>425.3</ele>
        <time>2015-08-31T07:32:53Z</time>
      </trkpt>
      <trkpt lat="47.405" lon="6.62564">
        <ele>425.2</ele>
        <time>2015-08-31T07:32:54Z</time>
      </trkpt>
      <trkpt lat="47.40496" lon="6.62564">
        <ele>425.4</ele>
        <time>2015-08-31T07:32:55Z</time>
      </trkpt>
      <trkpt lat="47.40492" lon="6.62566">
        <ele>425.7</ele>
        <time>2015-08-31T07:32:56Z</time>
      </trkpt>
      <trkpt lat="47.40489" lon="6.62569">
        <ele>426.1</ele>
        <time>2015-08-31T07:32:57Z</time>
      </trkpt>
      <trkpt lat="47.40486" lon="6.62573">
        <ele>426.4</ele>
        <time>2015-08-31T07:32:58Z</time>
      </trkpt>
      <trkpt lat="47.40484" lon="6.62578">
        <ele>426.9</ele>
        <time>2015-08-31T07:32:59Z</time>
      </trkpt>
      <trkpt lat="47.40482" lon="6.62582">
        <ele>427.5</ele>
        <time>2015-08-31T07:33:00Z</time>
      </trkpt>
      <trkpt lat="47.40482" lon="6.62587">
        <ele>428</ele>
        <time>2015-08-31T07:33:01Z</time>
      </trkpt>
      <trkpt lat="47.40482" lon="6.62592">
        <ele>428.6</ele>
        <time>2015-08-31T07:33:02Z</time>
      </trkpt>
      <trkpt lat="47.40482" lon="6.62597">
        <ele>429.1</ele>
        <time>2015-08-31T07:33:03Z</time>
      </trkpt>
      <trkpt lat="47.40482" lon="6.62602">
        <ele>429.8</ele>
        <time>2015-08-31T07:33:04Z</time>
      </trkpt>
      <trkpt lat="47.40483" lon="6.62607">
        <ele>430.3</ele>
        <time>2015-08-31T07:33:05Z</time>
      </trkpt>
      <trkpt lat="47.40482" lon="6.62612">
        <ele>430.8</ele>
        <time>2015-08-31T07:33:06Z</time>
      </trkpt>
      <trkpt lat="47.40482" lon="6.62617">
        <ele>431.1</ele>
        <time>2015-08-31T07:33:07Z</time>
      </trkpt>
      <trkpt lat="47.40482" lon="6.62622">
        <ele>431.8</ele>
        <time>2015-08-31T07:33:08Z</time>
      </trkpt>
      <trkpt lat="47.40482" lon="6.62628">
        <ele>432.1</ele>
        <time>2015-08-31T07:33:09Z</time>
      </trkpt>
      <trkpt lat="47.40481" lon="6.62633">
        <ele>432.6</ele>
        <time>2015-08-31T07:33:10Z</time>
      </trkpt>
      <trkpt lat="47.4048" lon="6.62638">
        <ele>432.8</ele>
        <time>2015-08-31T07:33:11Z</time>
      </trkpt>
      <trkpt lat="47.40479" lon="6.62643">
        <ele>433.2</ele>
        <time>2015-08-31T07:33:12Z</time>
      </trkpt>
      <trkpt lat="47.40478" lon="6.62648">
        <ele>433.7</ele>
        <time>2015-08-31T07:33:13Z</time>
      </trkpt>
      <trkpt lat="47.40477" lon="6.62653">
        <ele>434.3</ele>
        <time>2015-08-31T07:33:14Z</time>
      </trkpt>
      <trkpt lat="47.40475" lon="6.62658">
        <ele>434.4</ele>
        <time>2015-08-31T07:33:15Z</time>
      </trkpt>
      <trkpt lat="47.40474" lon="6.62662">
        <ele>434.7</ele>
        <time>2015-08-31T07:33:16Z</time>
      </trkpt>
      <trkpt lat="47.40473" lon="6.62668">
        <ele>435.2</ele>
        <time>2015-08-31T07:33:17Z</time>
      </trkpt>
      <trkpt lat="47.40471" lon="6.62672">
        <ele>435.5</ele>
        <time>2015-08-31T07:33:18Z</time>
      </trkpt>
      <trkpt lat="47.40469" lon="6.62677">
        <ele>435.8</ele>
        <time>2015-08-31T07:33:19Z</time>
      </trkpt>
      <trkpt lat="47.40467" lon="6.62682">
        <ele>435.8</ele>
        <time>2015-08-31T07:33:20Z</time>
      </trkpt>
      <trkpt lat="47.40465" lon="6.62686">
        <ele>436.1</ele>
        <time>2015-08-31T07:33:21Z</time>
      </trkpt>
      <trkpt lat="47.40463" lon="6.62691">
        <ele>436.3</ele>
        <time>2015-08-31T07:33:22Z</time>
      </trkpt>
      <trkpt lat="47.40462" lon="6.62695">
        <ele>436.4</ele>
        <time>2015-08-31T07:33:23Z</time>
      </trkpt>
      <trkpt lat="47.4046" lon="6.627">
        <ele>436.6</ele>
        <time>2015-08-31T07:33:24Z</time>
      </trkpt>
      <trkpt lat="47.40458" lon="6.62704">
        <ele>436.9</ele>
        <time>2015-08-31T07:33:25Z</time>
      </trkpt>
      <trkpt lat="47.40455" lon="6.62708">
        <ele>437.4</ele>
        <time>2015-08-31T07:33:26Z</time>
      </trkpt>
      <trkpt lat="47.40453" lon="6.62712">
        <ele>437.8</ele>
        <time>2015-08-31T07:33:27Z</time>
      </trkpt>
      <trkpt lat="47.40451" lon="6.62716">
        <ele>438.3</ele>
        <time>2015-08-31T07:33:28Z</time>
      </trkpt>
      <trkpt lat="47.40449" lon="6.62719">
        <ele>439</ele>
        <time>2015-08-31T07:33:29Z</time>
      </trkpt>
      <trkpt lat="47.40446" lon="6.62723">
        <ele>439.7</ele>
        <time>2015-08-31T07:33:30Z</time>
      </trkpt>
      <trkpt lat="47.40444" lon="6.62726">
        <ele>440.6</ele>
        <time>2015-08-31T07:33:31Z</time>
      </trkpt>
      <trkpt lat="47.40442" lon="6.62729">
        <ele>441.4</ele>
        <time>2015-08-31T07:33:32Z</time>
      </trkpt>
      <trkpt lat="47.40439" lon="6.62732">
        <ele>442.2</ele>
        <time>2015-08-31T07:33:33Z</time>
      </trkpt>
      <trkpt lat="47.40437" lon="6.62735">
        <ele>443</ele>
        <time>2015-08-31T07:33:34Z</time>
      </trkpt>
      <trkpt lat="47.40435" lon="6.62738">
        <ele>444</ele>
        <time>2015-08-31T07:33:35Z</time>
      </trkpt>
      <trkpt lat="47.40433" lon="6.62741">
        <ele>444.5</ele>
        <time>2015-08-31T07:33:36Z</time>
      </trkpt>
      <trkpt lat="47.40431" lon="6.62743">
        <ele>445.4</ele>
        <time>2015-08-31T07:33:37Z</time>
      </trkpt>
      <trkpt lat="47.40428" lon="6.62745">
        <ele>445.8</ele>
        <time>2015-08-31T07:33:38Z</time>
      </trkpt>
      <trkpt lat="47.40425" lon="6.62747">
        <ele>446.4</ele>
        <time>2015-08-31T07:33:39Z</time>
      </trkpt>
      <trkpt lat="47.40423" lon="6.6275">
        <ele>446.3</ele>
        <time>2015-08-31T07:33:40Z</time>
      </trkpt>
      <trkpt lat="47.40419" lon="6.62752">
        <ele>446.1</ele>
        <time>2015-08-31T07:33:41Z</time>
      </trkpt>
      <trkpt lat="47.40416" lon="6.62754">
        <ele>445.9</ele>
        <time>2015-08-31T07:33:42Z</time>
      </trkpt>
      <trkpt lat="47.40413" lon="6.62756">
        <ele>446.3</ele>
        <time>2015-08-31T07:33:43Z</time>
      </trkpt>
      <trkpt lat="47.4041" lon="6.62758">
        <ele>446.6</ele>
        <time>2015-08-31T07:33:44Z</time>
      </trkpt>
      <trkpt lat="47.40407" lon="6.6276">
        <ele>446.6</ele>
        <time>2015-08-31T07:33:45Z</time>
      </trkpt>
      <trkpt lat="47.40404" lon="6.62762">
        <ele>446.7</ele>
        <time>2015-08-31T07:33:46Z</time>
      </trkpt>
      <trkpt lat="47.40401" lon="6.62765">
        <ele>446.8</ele>
        <time>2015-08-31T07:33:47Z</time>
      </trkpt>
      <trkpt lat="47.40398" lon="6.62767">
        <ele>447</ele>
        <time>2015-08-31T07:33:48Z</time>
      </trkpt>
      <trkpt lat="47.40395" lon="6.6277">
        <ele>447.4</ele>
        <time>2015-08-31T07:33:49Z</time>
      </trkpt>
      <trkpt lat="47.40392" lon="6.62772">
        <ele>447.7</ele>
        <time>2015-08-31T07:33:50Z</time>
      </trkpt>
      <trkpt lat="47.40389" lon="6.62774">
        <ele>447.9</ele>
        <time>2015-08-31T07:33:51Z</time>
      </trkpt>
      <trkpt lat="47.40384" lon="6.62778">
        <ele>448.1</ele>
        <time>2015-08-31T07:33:52Z</time>
      </trkpt>
      <trkpt lat="47.40379" lon="6.62781">
        <ele>448.3</ele>
        <time>2015-08-31T07:33:53Z</time>
      </trkpt>
      <trkpt lat="47.40375" lon="6.62785">
        <ele>448.2</ele>
        <time>2015-08-31T07:33:54Z</time>
      </trkpt>
      <trkpt lat="47.4037" lon="6.62788">
        <ele>448</ele>
        <time>2015-08-31T07:33:55Z</time>
      </trkpt>
      <trkpt lat="47.40366" lon="6.6279">
        <ele>447.8</ele>
        <time>2015-08-31T07:33:56Z</time>
      </trkpt>
      <trkpt lat="47.40363" lon="6.62792">
        <ele>447.6</ele>
        <time>2015-08-31T07:33:57Z</time>
      </trkpt>
      <trkpt lat="47.4036" lon="6.62794">
        <ele>447.4</ele>
        <time>2015-08-31T07:33:58Z</time>
      </trkpt>
      <trkpt lat="47.40357" lon="6.62795">
        <ele>447.2</ele>
        <time>2015-08-31T07:33:59Z</time>
      </trkpt>
      <trkpt lat="47.40354" lon="6.62797">
        <ele>447</ele>
        <time>2015-08-31T07:34:00Z</time>
      </trkpt>
      <trkpt lat="47.40351" lon="6.62798">
        <ele>446.8</ele>
        <time>2015-08-31T07:34:01Z</time>
      </trkpt>
      <trkpt lat="47.40347" lon="6.628">
        <ele>446.6</ele>
        <time>2015-08-31T07:34:02Z</time>
      </trkpt>
      <trkpt lat="47.40344" lon="6.62801">
        <ele>446.4</ele>
        <time>2015-08-31T07:34:03Z</time>
      </trkpt>
      <trkpt lat="47.4034" lon="6.62803">
        <ele>446.2</ele>
        <time>2015-08-31T07:34:04Z</time>
      </trkpt>
      <trkpt lat="47.40336" lon="6.62805">
        <ele>446</ele>
        <time>2015-08-31T07:34:05Z</time>
      </trkpt>
      <trkpt lat="47.40332" lon="6.62806">
        <ele>445.9</ele>
        <time>2015-08-31T07:34:06Z</time>
      </trkpt>
      <trkpt lat="47.40328" lon="6.62806">
        <ele>445.9</ele>
        <time>2015-08-31T07:34:07Z</time>
      </trkpt>
      <trkpt lat="47.40325" lon="6.62807">
        <ele>446.2</ele>
        <time>2015-08-31T07:34:08Z</time>
      </trkpt>
      <trkpt lat="47.40322" lon="6.62807">
        <ele>446.7</ele>
        <time>2015-08-31T07:34:09Z</time>
      </trkpt>
      <trkpt lat="47.40318" lon="6.62807">
        <ele>447.2</ele>
        <time>2015-08-31T07:34:10Z</time>
      </trkpt>
      <trkpt lat="47.40315" lon="6.62807">
        <ele>447.8</ele>
        <time>2015-08-31T07:34:11Z</time>
      </trkpt>
      <trkpt lat="47.40312" lon="6.62807">
        <ele>448.4</ele>
        <time>2015-08-31T07:34:12Z</time>
      </trkpt>
      <trkpt lat="47.40308" lon="6.62806">
        <ele>449</ele>
        <time>2015-08-31T07:34:13Z</time>
      </trkpt>
      <trkpt lat="47.40304" lon="6.62807">
        <ele>449.4</ele>
        <time>2015-08-31T07:34:14Z</time>
      </trkpt>
      <trkpt lat="47.403" lon="6.62807">
        <ele>449.7</ele>
        <time>2015-08-31T07:34:15Z</time>
      </trkpt>
      <trkpt lat="47.40296" lon="6.62807">
        <ele>450</ele>
        <time>2015-08-31T07:34:16Z</time>
      </trkpt>
      <trkpt lat="47.40292" lon="6.62806">
        <ele>450.4</ele>
        <time>2015-08-31T07:34:17Z</time>
      </trkpt>
      <trkpt lat="47.40288" lon="6.62806">
        <ele>450.6</ele>
        <time>2015-08-31T07:34:18Z</time>
      </trkpt>
      <trkpt lat="47.40285" lon="6.62806">
        <ele>450.7</ele>
        <time>2015-08-31T07:34:19Z</time>
      </trkpt>
      <trkpt lat="47.40281" lon="6.62806">
        <ele>450.7</ele>
        <time>2015-08-31T07:34:20Z</time>
      </trkpt>
      <trkpt lat="47.40277" lon="6.62806">
        <ele>450.8</ele>
        <time>2015-08-31T07:34:21Z</time>
      </trkpt>
      <trkpt lat="47.40273" lon="6.62805">
        <ele>450.8</ele>
        <time>2015-08-31T07:34:22Z</time>
      </trkpt>
      <trkpt lat="47.40266" lon="6.62804">
        <ele>450.8</ele>
        <time>2015-08-31T07:34:23Z</time>
      </trkpt>
      <trkpt lat="47.40262" lon="6.62804">
        <ele>451</ele>
        <time>2015-08-31T07:34:24Z</time>
      </trkpt>
      <trkpt lat="47.40259" lon="6.62805">
        <ele>451.2</ele>
        <time>2015-08-31T07:34:25Z</time>
      </trkpt>
      <trkpt lat="47.40255" lon="6.62805">
        <ele>451.3</ele>
        <time>2015-08-31T07:34:26Z</time>
      </trkpt>
      <trkpt lat="47.40252" lon="6.62804">
        <ele>451.4</ele>
        <time>2015-08-31T07:34:27Z</time>
      </trkpt>
      <trkpt lat="47.40248" lon="6.62805">
        <ele>451.7</ele>
        <time>2015-08-31T07:34:28Z</time>
      </trkpt>
      <trkpt lat="47.40245" lon="6.62805">
        <ele>451.8</ele>
        <time>2015-08-31T07:34:29Z</time>
      </trkpt>
      <trkpt lat="47.40242" lon="6.62805">
        <ele>451.9</ele>
        <time>2015-08-31T07:34:30Z</time>
      </trkpt>
      <trkpt lat="47.40239" lon="6.62804">
        <ele>452</ele>
        <time>2015-08-31T07:34:31Z</time>
      </trkpt>
      <trkpt lat="47.40236" lon="6.62804">
        <ele>452.1</ele>
        <time>2015-08-31T07:34:32Z</time>
      </trkpt>
      <trkpt lat="47.40233" lon="6.62804">
        <ele>452.1</ele>
        <time>2015-08-31T07:34:33Z</time>
      </trkpt>
      <trkpt lat="47.40231" lon="6.62804">
        <ele>452.1</ele>
        <time>2015-08-31T07:34:34Z</time>
      </trkpt>
      <trkpt lat="47.40228" lon="6.62803">
        <ele>452.1</ele>
        <time>2015-08-31T07:34:35Z</time>
      </trkpt>
      <trkpt lat="47.40226" lon="6.62803">
        <ele>452.2</ele>
        <time>2015-08-31T07:34:36Z</time>
      </trkpt>
      <trkpt lat="47.40224" lon="6.62803">
        <ele>452.2</ele>
        <time>2015-08-31T07:34:37Z</time>
      </trkpt>
      <trkpt lat="47.40221" lon="6.62802">
        <ele>452.3</ele>
        <time>2015-08-31T07:34:38Z</time>
      </trkpt>
      <trkpt lat="47.40218" lon="6.62803">
        <ele>452.4</ele>
        <time>2015-08-31T07:34:39Z</time>
      </trkpt>
      <trkpt lat="47.40215" lon="6.62803">
        <ele>452.4</ele>
        <time>2015-08-31T07:34:40Z</time>
      </trkpt>
      <trkpt lat="47.40211" lon="6.62803">
        <ele>452.4</ele>
        <time>2015-08-31T07:34:41Z</time>
      </trkpt>
      <trkpt lat="47.40208" lon="6.62804">
        <ele>452.6</ele>
        <time>2015-08-31T07:34:42Z</time>
      </trkpt>
      <trkpt lat="47.40205" lon="6.62804">
        <ele>452.5</ele>
        <time>2015-08-31T07:34:43Z</time>
      </trkpt>
      <trkpt lat="47.40202" lon="6.62804">
        <ele>452.6</ele>
        <time>2015-08-31T07:34:44Z</time>
      </trkpt>
      <trkpt lat="47.40199" lon="6.62804">
        <ele>452.6</ele>
        <time>2015-08-31T07:34:45Z</time>
      </trkpt>
      <trkpt lat="47.40196" lon="6.62805">
        <ele>452.5</ele>
        <time>2015-08-31T07:34:46Z</time>
      </trkpt>
      <trkpt lat="47.40193" lon="6.62805">
        <ele>452.6</ele>
        <time>2015-08-31T07:34:47Z</time>
      </trkpt>
      <trkpt lat="47.4019" lon="6.62806">
        <ele>452.6</ele>
        <time>2015-08-31T07:34:48Z</time>
      </trkpt>
      <trkpt lat="47.40188" lon="6.62807">
        <ele>452.7</ele>
        <time>2015-08-31T07:34:49Z</time>
      </trkpt>
      <trkpt lat="47.40186" lon="6.62808">
        <ele>452.6</ele>
        <time>2015-08-31T07:34:50Z</time>
      </trkpt>
      <trkpt lat="47.40183" lon="6.62808">
        <ele>452.5</ele>
        <time>2015-08-31T07:34:51Z</time>
      </trkpt>
      <trkpt lat="47.40181" lon="6.62809">
        <ele>452.3</ele>
        <time>2015-08-31T07:34:52Z</time>
      </trkpt>
      <trkpt lat="47.40178" lon="6.62809">
        <ele>452</ele>
        <time>2015-08-31T07:34:53Z</time>
      </trkpt>
      <trkpt lat="47.40175" lon="6.6281">
        <ele>451.8</ele>
        <time>2015-08-31T07:34:54Z</time>
      </trkpt>
      <trkpt lat="47.40172" lon="6.6281">
        <ele>451.5</ele>
        <time>2015-08-31T07:34:55Z</time>
      </trkpt>
      <trkpt lat="47.40168" lon="6.6281">
        <ele>451.1</ele>
        <time>2015-08-31T07:34:56Z</time>
      </trkpt>
      <trkpt lat="47.40164" lon="6.62811">
        <ele>450.8</ele>
        <time>2015-08-31T07:34:57Z</time>
      </trkpt>
      <trkpt lat="47.40162" lon="6.6281">
        <ele>450.5</ele>
        <time>2015-08-31T07:34:58Z</time>
      </trkpt>
      <trkpt lat="47.40158" lon="6.6281">
        <ele>450.1</ele>
        <time>2015-08-31T07:34:59Z</time>
      </trkpt>
      <trkpt lat="47.40154" lon="6.6281">
        <ele>450.5</ele>
        <time>2015-08-31T07:35:00Z</time>
      </trkpt>
      <trkpt lat="47.40149" lon="6.62811">
        <ele>451.1</ele>
        <time>2015-08-31T07:35:01Z</time>
      </trkpt>
      <trkpt lat="47.40144" lon="6.62811">
        <ele>451.3</ele>
        <time>2015-08-31T07:35:02Z</time>
      </trkpt>
      <trkpt lat="47.40139" lon="6.62811">
        <ele>451.6</ele>
        <time>2015-08-31T07:35:03Z</time>
      </trkpt>
      <trkpt lat="47.40135" lon="6.62811">
        <ele>452.3</ele>
        <time>2015-08-31T07:35:04Z</time>
      </trkpt>
      <trkpt lat="47.4013" lon="6.62811">
        <ele>452.7</ele>
        <time>2015-08-31T07:35:05Z</time>
      </trkpt>
      <trkpt lat="47.40125" lon="6.62811">
        <ele>453.2</ele>
        <time>2015-08-31T07:35:06Z</time>
      </trkpt>
      <trkpt lat="47.40121" lon="6.6281">
        <ele>453.7</ele>
        <time>2015-08-31T07:35:07Z</time>
      </trkpt>
      <trkpt lat="47.40117" lon="6.6281">
        <ele>454.1</ele>
        <time>2015-08-31T07:35:08Z</time>
      </trkpt>
      <trkpt lat="47.40112" lon="6.6281">
        <ele>454.4</ele>
        <time>2015-08-31T07:35:09Z</time>
      </trkpt>
      <trkpt lat="47.40107" lon="6.62811">
        <ele>454.6</ele>
        <time>2015-08-31T07:35:10Z</time>
      </trkpt>
      <trkpt lat="47.40103" lon="6.62811">
        <ele>454.9</ele>
        <time>2015-08-31T07:35:11Z</time>
      </trkpt>
      <trkpt lat="47.40099" lon="6.62811">
        <ele>455.3</ele>
        <time>2015-08-31T07:35:12Z</time>
      </trkpt>
      <trkpt lat="47.40095" lon="6.62811">
        <ele>455.7</ele>
        <time>2015-08-31T07:35:13Z</time>
      </trkpt>
      <trkpt lat="47.4009" lon="6.62811">
        <ele>455.8</ele>
        <time>2015-08-31T07:35:14Z</time>
      </trkpt>
      <trkpt lat="47.40086" lon="6.62811">
        <ele>455.8</ele>
        <time>2015-08-31T07:35:15Z</time>
      </trkpt>
      <trkpt lat="47.40082" lon="6.62811">
        <ele>456.3</ele>
        <time>2015-08-31T07:35:16Z</time>
      </trkpt>
      <trkpt lat="47.40078" lon="6.62812">
        <ele>456.6</ele>
        <time>2015-08-31T07:35:17Z</time>
      </trkpt>
      <trkpt lat="47.40073" lon="6.62812">
        <ele>457</ele>
        <time>2015-08-31T07:35:18Z</time>
      </trkpt>
      <trkpt lat="47.40069" lon="6.62812">
        <ele>457.2</ele>
        <time>2015-08-31T07:35:19Z</time>
      </trkpt>
      <trkpt lat="47.40064" lon="6.62811">
        <ele>457.2</ele>
        <time>2015-08-31T07:35:20Z</time>
      </trkpt>
      <trkpt lat="47.4006" lon="6.62811">
        <ele>457.8</ele>
        <time>2015-08-31T07:35:21Z</time>
      </trkpt>
      <trkpt lat="47.40056" lon="6.62811">
        <ele>458.3</ele>
        <time>2015-08-31T07:35:22Z</time>
      </trkpt>
      <trkpt lat="47.40051" lon="6.62811">
        <ele>458.5</ele>
        <time>2015-08-31T07:35:23Z</time>
      </trkpt>
      <trkpt lat="47.40047" lon="6.62811">
        <ele>458.8</ele>
        <time>2015-08-31T07:35:24Z</time>
      </trkpt>
      <trkpt lat="47.40043" lon="6.62813">
        <ele>459</ele>
        <time>2015-08-31T07:35:25Z</time>
      </trkpt>
      <trkpt lat="47.40039" lon="6.62813">
        <ele>459.2</ele>
        <time>2015-08-31T07:35:26Z</time>
      </trkpt>
      <trkpt lat="47.40033" lon="6.62813">
        <ele>459.7</ele>
        <time>2015-08-31T07:35:27Z</time>
      </trkpt>
      <trkpt lat="47.40029" lon="6.62813">
        <ele>460.7</ele>
        <time>2015-08-31T07:35:28Z</time>
      </trkpt>
      <trkpt lat="47.40025" lon="6.62814">
        <ele>460.7</ele>
        <time>2015-08-31T07:35:29Z</time>
      </trkpt>
      <trkpt lat="47.40021" lon="6.62815">
        <ele>460.8</ele>
        <time>2015-08-31T07:35:30Z</time>
      </trkpt>
      <trkpt lat="47.40017" lon="6.62817">
        <ele>460.8</ele>
        <time>2015-08-31T07:35:31Z</time>
      </trkpt>
      <trkpt lat="47.40013" lon="6.62818">
        <ele>460.8</ele>
        <time>2015-08-31T07:35:32Z</time>
      </trkpt>
      <trkpt lat="47.40009" lon="6.6282">
        <ele>460.9</ele>
        <time>2015-08-31T07:35:33Z</time>
      </trkpt>
      <trkpt lat="47.40005" lon="6.62821">
        <ele>461.3</ele>
        <time>2015-08-31T07:35:34Z</time>
      </trkpt>
      <trkpt lat="47.40002" lon="6.62823">
        <ele>461.6</ele>
        <time>2015-08-31T07:35:35Z</time>
      </trkpt>
      <trkpt lat="47.39998" lon="6.62825">
        <ele>462</ele>
        <time>2015-08-31T07:35:36Z</time>
      </trkpt>
      <trkpt lat="47.39994" lon="6.62827">
        <ele>462.4</ele>
        <time>2015-08-31T07:35:37Z</time>
      </trkpt>
      <trkpt lat="47.39991" lon="6.62828">
        <ele>462.9</ele>
        <time>2015-08-31T07:35:38Z</time>
      </trkpt>
      <trkpt lat="47.39987" lon="6.6283">
        <ele>463.4</ele>
        <time>2015-08-31T07:35:39Z</time>
      </trkpt>
      <trkpt lat="47.39983" lon="6.62832">
        <ele>463.8</ele>
        <time>2015-08-31T07:35:40Z</time>
      </trkpt>
      <trkpt lat="47.3998" lon="6.62833">
        <ele>464.3</ele>
        <time>2015-08-31T07:35:41Z</time>
      </trkpt>
      <trkpt lat="47.39976" lon="6.62835">
        <ele>464.8</ele>
        <time>2015-08-31T07:35:42Z</time>
      </trkpt>
      <trkpt lat="47.39972" lon="6.62837">
        <ele>465.2</ele>
        <time>2015-08-31T07:35:43Z</time>
      </trkpt>
      <trkpt lat="47.39969" lon="6.62839">
        <ele>465.7</ele>
        <time>2015-08-31T07:35:44Z</time>
      </trkpt>
      <trkpt lat="47.39966" lon="6.6284">
        <ele>466.2</ele>
        <time>2015-08-31T07:35:45Z</time>
      </trkpt>
      <trkpt lat="47.39962" lon="6.62842">
        <ele>466.6</ele>
        <time>2015-08-31T07:35:46Z</time>
      </trkpt>
      <trkpt lat="47.39958" lon="6.62843">
        <ele>466.9</ele>
        <time>2015-08-31T07:35:47Z</time>
      </trkpt>
      <trkpt lat="47.39954" lon="6.62844">
        <ele>467.3</ele>
        <time>2015-08-31T07:35:48Z</time>
      </trkpt>
      <trkpt lat="47.39951" lon="6.62844">
        <ele>467.7</ele>
        <time>2015-08-31T07:35:49Z</time>
      </trkpt>
      <trkpt lat="47.39947" lon="6.62845">
        <ele>468</ele>
        <time>2015-08-31T07:35:50Z</time>
      </trkpt>
      <trkpt lat="47.39943" lon="6.62845">
        <ele>468.2</ele>
        <time>2015-08-31T07:35:51Z</time>
      </trkpt>
      <trkpt lat="47.39938" lon="6.62846">
        <ele>468.4</ele>
        <time>2015-08-31T07:35:52Z</time>
      </trkpt>
      <trkpt lat="47.39933" lon="6.62848">
        <ele>468.6</ele>
        <time>2015-08-31T07:35:53Z</time>
      </trkpt>
      <trkpt lat="47.39928" lon="6.6285">
        <ele>469.2</ele>
        <time>2015-08-31T07:35:54Z</time>
      </trkpt>
      <trkpt lat="47.39923" lon="6.62851">
        <ele>469.6</ele>
        <time>2015-08-31T07:35:55Z</time>
      </trkpt>
      <trkpt lat="47.39918" lon="6.62854">
        <ele>470</ele>
        <time>2015-08-31T07:35:56Z</time>
      </trkpt>
      <trkpt lat="47.39913" lon="6.62855">
        <ele>470.4</ele>
        <time>2015-08-31T07:35:57Z</time>
      </trkpt>
      <trkpt lat="47.39908" lon="6.62856">
        <ele>470.7</ele>
        <time>2015-08-31T07:35:58Z</time>
      </trkpt>
      <trkpt lat="47.39902" lon="6.62856">
        <ele>471</ele>
        <time>2015-08-31T07:35:59Z</time>
      </trkpt>
      <trkpt lat="47.39896" lon="6.62857">
        <ele>470.9</ele>
        <time>2015-08-31T07:36:00Z</time>
      </trkpt>
      <trkpt lat="47.3989" lon="6.62858">
        <ele>470.9</ele>
        <time>2015-08-31T07:36:01Z</time>
      </trkpt>
      <trkpt lat="47.39884" lon="6.62858">
        <ele>470.6</ele>
        <time>2015-08-31T07:36:02Z</time>
      </trkpt>
      <trkpt lat="47.39879" lon="6.62858">
        <ele>470.4</ele>
        <time>2015-08-31T07:36:03Z</time>
      </trkpt>
      <trkpt lat="47.39873" lon="6.62857">
        <ele>469.4</ele>
        <time>2015-08-31T07:36:04Z</time>
      </trkpt>
      <trkpt lat="47.39867" lon="6.62856">
        <ele>468.7</ele>
        <time>2015-08-31T07:36:05Z</time>
      </trkpt>
      <trkpt lat="47.39859" lon="6.62855">
        <ele>468.2</ele>
        <time>2015-08-31T07:36:06Z</time>
      </trkpt>
      <trkpt lat="47.39851" lon="6.62853">
        <ele>467.3</ele>
        <time>2015-08-31T07:36:07Z</time>
      </trkpt>
      <trkpt lat="47.39842" lon="6.6285">
        <ele>466.7</ele>
        <time>2015-08-31T07:36:08Z</time>
      </trkpt>
      <trkpt lat="47.39834" lon="6.62846">
        <ele>466.1</ele>
        <time>2015-08-31T07:36:09Z</time>
      </trkpt>
      <trkpt lat="47.39825" lon="6.62842">
        <ele>465.2</ele>
        <time>2015-08-31T07:36:10Z</time>
      </trkpt>
      <trkpt lat="47.39816" lon="6.62836">
        <ele>464.4</ele>
        <time>2015-08-31T07:36:11Z</time>
      </trkpt>
      <trkpt lat="47.39808" lon="6.62828">
        <ele>463.1</ele>
        <time>2015-08-31T07:36:12Z</time>
      </trkpt>
      <trkpt lat="47.39801" lon="6.62819">
        <ele>461.4</ele>
        <time>2015-08-31T07:36:13Z</time>
      </trkpt>
      <trkpt lat="47.39793" lon="6.6281">
        <ele>459.7</ele>
        <time>2015-08-31T07:36:14Z</time>
      </trkpt>
      <trkpt lat="47.39787" lon="6.628">
        <ele>459.2</ele>
        <time>2015-08-31T07:36:15Z</time>
      </trkpt>
      <trkpt lat="47.3978" lon="6.6279">
        <ele>458.5</ele>
        <time>2015-08-31T07:36:16Z</time>
      </trkpt>
      <trkpt lat="47.39773" lon="6.62779">
        <ele>458.1</ele>
        <time>2015-08-31T07:36:17Z</time>
      </trkpt>
      <trkpt lat="47.39765" lon="6.62769">
        <ele>457.6</ele>
        <time>2015-08-31T07:36:18Z</time>
      </trkpt>
      <trkpt lat="47.39756" lon="6.62759">
        <ele>456.8</ele>
        <time>2015-08-31T07:36:19Z</time>
      </trkpt>
      <trkpt lat="47.39748" lon="6.6275">
        <ele>456.4</ele>
        <time>2015-08-31T07:36:20Z</time>
      </trkpt>
      <trkpt lat="47.39739" lon="6.62742">
        <ele>456</ele>
        <time>2015-08-31T07:36:21Z</time>
      </trkpt>
      <trkpt lat="47.3973" lon="6.62734">
        <ele>456</ele>
        <time>2015-08-31T07:36:22Z</time>
      </trkpt>
      <trkpt lat="47.39722" lon="6.62728">
        <ele>455.6</ele>
        <time>2015-08-31T07:36:23Z</time>
      </trkpt>
      <trkpt lat="47.39713" lon="6.62723">
        <ele>455.4</ele>
        <time>2015-08-31T07:36:24Z</time>
      </trkpt>
      <trkpt lat="47.39704" lon="6.6272">
        <ele>455.4</ele>
        <time>2015-08-31T07:36:25Z</time>
      </trkpt>
      <trkpt lat="47.39695" lon="6.62718">
        <ele>455.2</ele>
        <time>2015-08-31T07:36:26Z</time>
      </trkpt>
      <trkpt lat="47.39686" lon="6.62718">
        <ele>454.5</ele>
        <time>2015-08-31T07:36:27Z</time>
      </trkpt>
      <trkpt lat="47.39678" lon="6.62718">
        <ele>453.6</ele>
        <time>2015-08-31T07:36:28Z</time>
      </trkpt>
      <trkpt lat="47.3967" lon="6.62718">
        <ele>453.3</ele>
        <time>2015-08-31T07:36:29Z</time>
      </trkpt>
      <trkpt lat="47.39661" lon="6.62719">
        <ele>453.1</ele>
        <time>2015-08-31T07:36:30Z</time>
      </trkpt>
      <trkpt lat="47.39653" lon="6.62721">
        <ele>453.1</ele>
        <time>2015-08-31T07:36:31Z</time>
      </trkpt>
      <trkpt lat="47.39645" lon="6.62721">
        <ele>452.7</ele>
        <time>2015-08-31T07:36:32Z</time>
      </trkpt>
      <trkpt lat="47.39637" lon="6.62721">
        <ele>452.4</ele>
        <time>2015-08-31T07:36:33Z</time>
      </trkpt>
      <trkpt lat="47.39629" lon="6.62721">
        <ele>451.6</ele>
        <time>2015-08-31T07:36:34Z</time>
      </trkpt>
      <trkpt lat="47.39621" lon="6.62718">
        <ele>451.6</ele>
        <time>2015-08-31T07:36:35Z</time>
      </trkpt>
      <trkpt lat="47.39615" lon="6.62713">
        <ele>451.7</ele>
        <time>2015-08-31T07:36:36Z</time>
      </trkpt>
      <trkpt lat="47.3961" lon="6.62708">
        <ele>452</ele>
        <time>2015-08-31T07:36:37Z</time>
      </trkpt>
      <trkpt lat="47.39605" lon="6.62702">
        <ele>451.6</ele>
        <time>2015-08-31T07:36:38Z</time>
      </trkpt>
      <trkpt lat="47.396" lon="6.62696">
        <ele>451.3</ele>
        <time>2015-08-31T07:36:39Z</time>
      </trkpt>
      <trkpt lat="47.39596" lon="6.6269">
        <ele>451.2</ele>
        <time>2015-08-31T07:36:40Z</time>
      </trkpt>
      <trkpt lat="47.39592" lon="6.62684">
        <ele>451.3</ele>
        <time>2015-08-31T07:36:41Z</time>
      </trkpt>
      <trkpt lat="47.39588" lon="6.62677">
        <ele>451.4</ele>
        <time>2015-08-31T07:36:42Z</time>
      </trkpt>
      <trkpt lat="47.39584" lon="6.62671">
        <ele>451.7</ele>
        <time>2015-08-31T07:36:43Z</time>
      </trkpt>
      <trkpt lat="47.39581" lon="6.62665">
        <ele>452.1</ele>
        <time>2015-08-31T07:36:44Z</time>
      </trkpt>
      <trkpt lat="47.39578" lon="6.62659">
        <ele>452.5</ele>
        <time>2015-08-31T07:36:45Z</time>
      </trkpt>
      <trkpt lat="47.39575" lon="6.62653">
        <ele>453.2</ele>
        <time>2015-08-31T07:36:46Z</time>
      </trkpt>
      <trkpt lat="47.39572" lon="6.62647">
        <ele>453.6</ele>
        <time>2015-08-31T07:36:47Z</time>
      </trkpt>
      <trkpt lat="47.39569" lon="6.62643">
        <ele>453.7</ele>
        <time>2015-08-31T07:36:48Z</time>
      </trkpt>
      <trkpt lat="47.39566" lon="6.62639">
        <ele>454.4</ele>
        <time>2015-08-31T07:36:49Z</time>
      </trkpt>
      <trkpt lat="47.39563" lon="6.62635">
        <ele>454.7</ele>
        <time>2015-08-31T07:36:50Z</time>
      </trkpt>
      <trkpt lat="47.39559" lon="6.62632">
        <ele>455.6</ele>
        <time>2015-08-31T07:36:51Z</time>
      </trkpt>
      <trkpt lat="47.39556" lon="6.6263">
        <ele>456.7</ele>
        <time>2015-08-31T07:36:52Z</time>
      </trkpt>
      <trkpt lat="47.39552" lon="6.62628">
        <ele>457.2</ele>
        <time>2015-08-31T07:36:53Z</time>
      </trkpt>
      <trkpt lat="47.39549" lon="6.62626">
        <ele>457.5</ele>
        <time>2015-08-31T07:36:54Z</time>
      </trkpt>
      <trkpt lat="47.39545" lon="6.62625">
        <ele>458</ele>
        <time>2015-08-31T07:36:55Z</time>
      </trkpt>
      <trkpt lat="47.39541" lon="6.62623">
        <ele>458.2</ele>
        <time>2015-08-31T07:36:56Z</time>
      </trkpt>
      <trkpt lat="47.39538" lon="6.62622">
        <ele>458.5</ele>
        <time>2015-08-31T07:36:57Z</time>
      </trkpt>
      <trkpt lat="47.39534" lon="6.62622">
        <ele>458.8</ele>
        <time>2015-08-31T07:36:58Z</time>
      </trkpt>
      <trkpt lat="47.39531" lon="6.62622">
        <ele>459.2</ele>
        <time>2015-08-31T07:36:59Z</time>
      </trkpt>
      <trkpt lat="47.39527" lon="6.62622">
        <ele>459.3</ele>
        <time>2015-08-31T07:37:00Z</time>
      </trkpt>
      <trkpt lat="47.39523" lon="6.62623">
        <ele>459.3</ele>
        <time>2015-08-31T07:37:01Z</time>
      </trkpt>
      <trkpt lat="47.3952" lon="6.62624">
        <ele>459.5</ele>
        <time>2015-08-31T07:37:02Z</time>
      </trkpt>
      <trkpt lat="47.39517" lon="6.62625">
        <ele>459.7</ele>
        <time>2015-08-31T07:37:03Z</time>
      </trkpt>
      <trkpt lat="47.39514" lon="6.62627">
        <ele>459.9</ele>
        <time>2015-08-31T07:37:04Z</time>
      </trkpt>
      <trkpt lat="47.39511" lon="6.62629">
        <ele>460.1</ele>
        <time>2015-08-31T07:37:05Z</time>
      </trkpt>
      <trkpt lat="47.39508" lon="6.62631">
        <ele>460.8</ele>
        <time>2015-08-31T07:37:06Z</time>
      </trkpt>
      <trkpt lat="47.39505" lon="6.62632">
        <ele>461.6</ele>
        <time>2015-08-31T07:37:07Z</time>
      </trkpt>
      <trkpt lat="47.39502" lon="6.62633">
        <ele>462.1</ele>
        <time>2015-08-31T07:37:08Z</time>
      </trkpt>
      <trkpt lat="47.39499" lon="6.62635">
        <ele>462.7</ele>
        <time>2015-08-31T07:37:09Z</time>
      </trkpt>
      <trkpt lat="47.39496" lon="6.62636">
        <ele>463.3</ele>
        <time>2015-08-31T07:37:10Z</time>
      </trkpt>
      <trkpt lat="47.39493" lon="6.62638">
        <ele>464.1</ele>
        <time>2015-08-31T07:37:11Z</time>
      </trkpt>
      <trkpt lat="47.3949" lon="6.62639">
        <ele>464.3</ele>
        <time>2015-08-31T07:37:12Z</time>
      </trkpt>
      <trkpt lat="47.39487" lon="6.62641">
        <ele>464.5</ele>
        <time>2015-08-31T07:37:13Z</time>
      </trkpt>
      <trkpt lat="47.39484" lon="6.62643">
        <ele>464.6</ele>
        <time>2015-08-31T07:37:14Z</time>
      </trkpt>
      <trkpt lat="47.39481" lon="6.62645">
        <ele>464.8</ele>
        <time>2015-08-31T07:37:15Z</time>
      </trkpt>
      <trkpt lat="47.39478" lon="6.62646">
        <ele>465</ele>
        <time>2015-08-31T07:37:16Z</time>
      </trkpt>
      <trkpt lat="47.39475" lon="6.62648">
        <ele>465.2</ele>
        <time>2015-08-31T07:37:17Z</time>
      </trkpt>
      <trkpt lat="47.39472" lon="6.6265">
        <ele>465.3</ele>
        <time>2015-08-31T07:37:18Z</time>
      </trkpt>
      <trkpt lat="47.39469" lon="6.62653">
        <ele>465.4</ele>
        <time>2015-08-31T07:37:19Z</time>
      </trkpt>
      <trkpt lat="47.39466" lon="6.62655">
        <ele>465.4</ele>
        <time>2015-08-31T07:37:20Z</time>
      </trkpt>
      <trkpt lat="47.39463" lon="6.62657">
        <ele>465.5</ele>
        <time>2015-08-31T07:37:21Z</time>
      </trkpt>
      <trkpt lat="47.3946" lon="6.62658">
        <ele>465.6</ele>
        <time>2015-08-31T07:37:22Z</time>
      </trkpt>
      <trkpt lat="47.39457" lon="6.62661">
        <ele>465.8</ele>
        <time>2015-08-31T07:37:23Z</time>
      </trkpt>
      <trkpt lat="47.39454" lon="6.62663">
        <ele>465.9</ele>
        <time>2015-08-31T07:37:24Z</time>
      </trkpt>
      <trkpt lat="47.3945" lon="6.62665">
        <ele>466.3</ele>
        <time>2015-08-31T07:37:25Z</time>
      </trkpt>
      <trkpt lat="47.39447" lon="6.62667">
        <ele>466.6</ele>
        <time>2015-08-31T07:37:26Z</time>
      </trkpt>
      <trkpt lat="47.39444" lon="6.62669">
        <ele>467.8</ele>
        <time>2015-08-31T07:37:27Z</time>
      </trkpt>
      <trkpt lat="47.39441" lon="6.62672">
        <ele>468.2</ele>
        <time>2015-08-31T07:37:28Z</time>
      </trkpt>
      <trkpt lat="47.39439" lon="6.62675">
        <ele>468.3</ele>
        <time>2015-08-31T07:37:29Z</time>
      </trkpt>
      <trkpt lat="47.39437" lon="6.62679">
        <ele>468.5</ele>
        <time>2015-08-31T07:37:30Z</time>
      </trkpt>
      <trkpt lat="47.39435" lon="6.62683">
        <ele>468.4</ele>
        <time>2015-08-31T07:37:31Z</time>
      </trkpt>
      <trkpt lat="47.39433" lon="6.62688">
        <ele>468.4</ele>
        <time>2015-08-31T07:37:32Z</time>
      </trkpt>
      <trkpt lat="47.39432" lon="6.62692">
        <ele>468.3</ele>
        <time>2015-08-31T07:37:33Z</time>
      </trkpt>
      <trkpt lat="47.39432" lon="6.62698">
        <ele>468.2</ele>
        <time>2015-08-31T07:37:34Z</time>
      </trkpt>
      <trkpt lat="47.39432" lon="6.62703">
        <ele>468.1</ele>
        <time>2015-08-31T07:37:35Z</time>
      </trkpt>
      <trkpt lat="47.39432" lon="6.62708">
        <ele>468.2</ele>
        <time>2015-08-31T07:37:36Z</time>
      </trkpt>
      <trkpt lat="47.39432" lon="6.62713">
        <ele>468.1</ele>
        <time>2015-08-31T07:37:37Z</time>
      </trkpt>
      <trkpt lat="47.39432" lon="6.62718">
        <ele>468.3</ele>
        <time>2015-08-31T07:37:38Z</time>
      </trkpt>
      <trkpt lat="47.39432" lon="6.62723">
        <ele>468.3</ele>
        <time>2015-08-31T07:37:39Z</time>
      </trkpt>
      <trkpt lat="47.39431" lon="6.62728">
        <ele>468.2</ele>
        <time>2015-08-31T07:37:40Z</time>
      </trkpt>
      <trkpt lat="47.3943" lon="6.62733">
        <ele>468.5</ele>
        <time>2015-08-31T07:37:41Z</time>
      </trkpt>
      <trkpt lat="47.39428" lon="6.62738">
        <ele>468.5</ele>
        <time>2015-08-31T07:37:42Z</time>
      </trkpt>
      <trkpt lat="47.39426" lon="6.62743">
        <ele>468.4</ele>
        <time>2015-08-31T07:37:43Z</time>
      </trkpt>
      <trkpt lat="47.39424" lon="6.62749">
        <ele>467.9</ele>
        <time>2015-08-31T07:37:44Z</time>
      </trkpt>
      <trkpt lat="47.39422" lon="6.62754">
        <ele>467.7</ele>
        <time>2015-08-31T07:37:45Z</time>
      </trkpt>
      <trkpt lat="47.39419" lon="6.6276">
        <ele>467.4</ele>
        <time>2015-08-31T07:37:46Z</time>
      </trkpt>
      <trkpt lat="47.39417" lon="6.62766">
        <ele>467.3</ele>
        <time>2015-08-31T07:37:47Z</time>
      </trkpt>
      <trkpt lat="47.39415" lon="6.62772">
        <ele>467.3</ele>
        <time>2015-08-31T07:37:48Z</time>
      </trkpt>
      <trkpt lat="47.39412" lon="6.62778">
        <ele>467.4</ele>
        <time>2015-08-31T07:37:49Z</time>
      </trkpt>
      <trkpt lat="47.39409" lon="6.62783">
        <ele>467.3</ele>
        <time>2015-08-31T07:37:50Z</time>
      </trkpt>
      <trkpt lat="47.39407" lon="6.62789">
        <ele>467.3</ele>
        <time>2015-08-31T07:37:51Z</time>
      </trkpt>
      <trkpt lat="47.39404" lon="6.62793">
        <ele>467.2</ele>
        <time>2015-08-31T07:37:52Z</time>
      </trkpt>
      <trkpt lat="47.39402" lon="6.62798">
        <ele>467.3</ele>
        <time>2015-08-31T07:37:53Z</time>
      </trkpt>
      <trkpt lat="47.394" lon="6.62803">
        <ele>467.4</ele>
        <time>2015-08-31T07:37:54Z</time>
      </trkpt>
      <trkpt lat="47.39398" lon="6.62807">
        <ele>467.7</ele>
        <time>2015-08-31T07:37:55Z</time>
      </trkpt>
      <trkpt lat="47.39395" lon="6.62811">
        <ele>468</ele>
        <time>2015-08-31T07:37:56Z</time>
      </trkpt>
      <trkpt lat="47.39393" lon="6.62814">
        <ele>468.3</ele>
        <time>2015-08-31T07:37:57Z</time>
      </trkpt>
      <trkpt lat="47.3939" lon="6.62818">
        <ele>468.5</ele>
        <time>2015-08-31T07:37:58Z</time>
      </trkpt>
      <trkpt lat="47.39386" lon="6.62822">
        <ele>468.5</ele>
        <time>2015-08-31T07:37:59Z</time>
      </trkpt>
      <trkpt lat="47.39383" lon="6.62825">
        <ele>468.5</ele>
        <time>2015-08-31T07:38:00Z</time>
      </trkpt>
      <trkpt lat="47.3938" lon="6.62829">
        <ele>468.6</ele>
        <time>2015-08-31T07:38:01Z</time>
      </trkpt>
      <trkpt lat="47.39376" lon="6.62832">
        <ele>469.1</ele>
        <time>2015-08-31T07:38:02Z</time>
      </trkpt>
      <trkpt lat="47.39373" lon="6.62836">
        <ele>469.3</ele>
        <time>2015-08-31T07:38:03Z</time>
      </trkpt>
      <trkpt lat="47.3937" lon="6.6284">
        <ele>469.3</ele>
        <time>2015-08-31T07:38:04Z</time>
      </trkpt>
      <trkpt lat="47.39367" lon="6.62843">
        <ele>469.3</ele>
        <time>2015-08-31T07:38:05Z</time>
      </trkpt>
      <trkpt lat="47.39363" lon="6.62846">
        <ele>469.3</ele>
        <time>2015-08-31T07:38:06Z</time>
      </trkpt>
      <trkpt lat="47.3936" lon="6.62849">
        <ele>469.3</ele>
        <time>2015-08-31T07:38:07Z</time>
      </trkpt>
      <trkpt lat="47.39357" lon="6.62853">
        <ele>469.3</ele>
        <time>2015-08-31T07:38:08Z</time>
      </trkpt>
      <trkpt lat="47.39354" lon="6.62856">
        <ele>469.4</ele>
        <time>2015-08-31T07:38:09Z</time>
      </trkpt>
      <trkpt lat="47.39351" lon="6.62859">
        <ele>469.3</ele>
        <time>2015-08-31T07:38:10Z</time>
      </trkpt>
      <trkpt lat="47.39348" lon="6.62863">
        <ele>469.5</ele>
        <time>2015-08-31T07:38:11Z</time>
      </trkpt>
      <trkpt lat="47.39345" lon="6.62867">
        <ele>469.3</ele>
        <time>2015-08-31T07:38:12Z</time>
      </trkpt>
      <trkpt lat="47.39341" lon="6.62871">
        <ele>469</ele>
        <time>2015-08-31T07:38:13Z</time>
      </trkpt>
      <trkpt lat="47.39338" lon="6.62874">
        <ele>468.7</ele>
        <time>2015-08-31T07:38:14Z</time>
      </trkpt>
      <trkpt lat="47.39334" lon="6.62878">
        <ele>468.9</ele>
        <time>2015-08-31T07:38:15Z</time>
      </trkpt>
      <trkpt lat="47.39331" lon="6.62881">
        <ele>469</ele>
        <time>2015-08-31T07:38:16Z</time>
      </trkpt>
      <trkpt lat="47.39328" lon="6.62884">
        <ele>469.4</ele>
        <time>2015-08-31T07:38:17Z</time>
      </trkpt>
      <trkpt lat="47.39325" lon="6.62888">
        <ele>469.4</ele>
        <time>2015-08-31T07:38:18Z</time>
      </trkpt>
      <trkpt lat="47.39322" lon="6.62893">
        <ele>469.5</ele>
        <time>2015-08-31T07:38:19Z</time>
      </trkpt>
      <trkpt lat="47.39319" lon="6.62898">
        <ele>469.5</ele>
        <time>2015-08-31T07:38:20Z</time>
      </trkpt>
      <trkpt lat="47.39316" lon="6.62903">
        <ele>469.6</ele>
        <time>2015-08-31T07:38:21Z</time>
      </trkpt>
      <trkpt lat="47.39314" lon="6.62908">
        <ele>470</ele>
        <time>2015-08-31T07:38:22Z</time>
      </trkpt>
      <trkpt lat="47.39312" lon="6.62913">
        <ele>470.1</ele>
        <time>2015-08-31T07:38:23Z</time>
      </trkpt>
      <trkpt lat="47.3931" lon="6.62919">
        <ele>470.5</ele>
        <time>2015-08-31T07:38:24Z</time>
      </trkpt>
      <trkpt lat="47.39308" lon="6.62925">
        <ele>471.1</ele>
        <time>2015-08-31T07:38:25Z</time>
      </trkpt>
      <trkpt lat="47.39306" lon="6.6293">
        <ele>471.4</ele>
        <time>2015-08-31T07:38:26Z</time>
      </trkpt>
      <trkpt lat="47.39304" lon="6.62936">
        <ele>471.7</ele>
        <time>2015-08-31T07:38:27Z</time>
      </trkpt>
      <trkpt lat="47.39302" lon="6.62942">
        <ele>471.8</ele>
        <time>2015-08-31T07:38:28Z</time>
      </trkpt>
      <trkpt lat="47.393" lon="6.62948">
        <ele>471.9</ele>
        <time>2015-08-31T07:38:29Z</time>
      </trkpt>
      <trkpt lat="47.39298" lon="6.62953">
        <ele>472.2</ele>
        <time>2015-08-31T07:38:30Z</time>
      </trkpt>
      <trkpt lat="47.39296" lon="6.62958">
        <ele>472.7</ele>
        <time>2015-08-31T07:38:31Z</time>
      </trkpt>
      <trkpt lat="47.39293" lon="6.62962">
        <ele>472.8</ele>
        <time>2015-08-31T07:38:32Z</time>
      </trkpt>
      <trkpt lat="47.3929" lon="6.62967">
        <ele>472.7</ele>
        <time>2015-08-31T07:38:33Z</time>
      </trkpt>
      <trkpt lat="47.39287" lon="6.62972">
        <ele>473</ele>
        <time>2015-08-31T07:38:34Z</time>
      </trkpt>
      <trkpt lat="47.39283" lon="6.62976">
        <ele>473.2</ele>
        <time>2015-08-31T07:38:35Z</time>
      </trkpt>
      <trkpt lat="47.3928" lon="6.62979">
        <ele>473.7</ele>
        <time>2015-08-31T07:38:36Z</time>
      </trkpt>
      <trkpt lat="47.39276" lon="6.62983">
        <ele>474</ele>
        <time>2015-08-31T07:38:37Z</time>
      </trkpt>
      <trkpt lat="47.39272" lon="6.62986">
        <ele>474.6</ele>
        <time>2015-08-31T07:38:38Z</time>
      </trkpt>
      <trkpt lat="47.39268" lon="6.62988">
        <ele>475</ele>
        <time>2015-08-31T07:38:39Z</time>
      </trkpt>
      <trkpt lat="47.39264" lon="6.62991">
        <ele>475.3</ele>
        <time>2015-08-31T07:38:40Z</time>
      </trkpt>
      <trkpt lat="47.39261" lon="6.62993">
        <ele>475.6</ele>
        <time>2015-08-31T07:38:41Z</time>
      </trkpt>
      <trkpt lat="47.39257" lon="6.62996">
        <ele>476</ele>
        <time>2015-08-31T07:38:42Z</time>
      </trkpt>
      <trkpt lat="47.39253" lon="6.62998">
        <ele>476.2</ele>
        <time>2015-08-31T07:38:43Z</time>
      </trkpt>
      <trkpt lat="47.3925" lon="6.63001">
        <ele>476.6</ele>
        <time>2015-08-31T07:38:44Z</time>
      </trkpt>
      <trkpt lat="47.39246" lon="6.63003">
        <ele>476.9</ele>
        <time>2015-08-31T07:38:45Z</time>
      </trkpt>
      <trkpt lat="47.39243" lon="6.63006">
        <ele>477.4</ele>
        <time>2015-08-31T07:38:46Z</time>
      </trkpt>
      <trkpt lat="47.39239" lon="6.63008">
        <ele>477.8</ele>
        <time>2015-08-31T07:38:47Z</time>
      </trkpt>
      <trkpt lat="47.39236" lon="6.63011">
        <ele>478.1</ele>
        <time>2015-08-31T07:38:48Z</time>
      </trkpt>
      <trkpt lat="47.39233" lon="6.63013">
        <ele>478.6</ele>
        <time>2015-08-31T07:38:49Z</time>
      </trkpt>
      <trkpt lat="47.39229" lon="6.63015">
        <ele>478.9</ele>
        <time>2015-08-31T07:38:50Z</time>
      </trkpt>
      <trkpt lat="47.39226" lon="6.63017">
        <ele>479.3</ele>
        <time>2015-08-31T07:38:51Z</time>
      </trkpt>
      <trkpt lat="47.39223" lon="6.63019">
        <ele>479.7</ele>
        <time>2015-08-31T07:38:52Z</time>
      </trkpt>
      <trkpt lat="47.39219" lon="6.63021">
        <ele>479.9</ele>
        <time>2015-08-31T07:38:53Z</time>
      </trkpt>
      <trkpt lat="47.39215" lon="6.63023">
        <ele>480.2</ele>
        <time>2015-08-31T07:38:54Z</time>
      </trkpt>
      <trkpt lat="47.39212" lon="6.63025">
        <ele>480.6</ele>
        <time>2015-08-31T07:38:55Z</time>
      </trkpt>
      <trkpt lat="47.39208" lon="6.63027">
        <ele>480.7</ele>
        <time>2015-08-31T07:38:56Z</time>
      </trkpt>
      <trkpt lat="47.39205" lon="6.63029">
        <ele>480.6</ele>
        <time>2015-08-31T07:38:57Z</time>
      </trkpt>
      <trkpt lat="47.39202" lon="6.63031">
        <ele>480.2</ele>
        <time>2015-08-31T07:38:58Z</time>
      </trkpt>
      <trkpt lat="47.39198" lon="6.63033">
        <ele>480.2</ele>
        <time>2015-08-31T07:38:59Z</time>
      </trkpt>
      <trkpt lat="47.39194" lon="6.63035">
        <ele>480.1</ele>
        <time>2015-08-31T07:39:00Z</time>
      </trkpt>
      <trkpt lat="47.39191" lon="6.63038">
        <ele>480</ele>
        <time>2015-08-31T07:39:01Z</time>
      </trkpt>
      <trkpt lat="47.39187" lon="6.6304">
        <ele>479.9</ele>
        <time>2015-08-31T07:39:02Z</time>
      </trkpt>
      <trkpt lat="47.39183" lon="6.63042">
        <ele>479.5</ele>
        <time>2015-08-31T07:39:03Z</time>
      </trkpt>
      <trkpt lat="47.39179" lon="6.63044">
        <ele>479.5</ele>
        <time>2015-08-31T07:39:04Z</time>
      </trkpt>
      <trkpt lat="47.39175" lon="6.63047">
        <ele>479.5</ele>
        <time>2015-08-31T07:39:05Z</time>
      </trkpt>
      <trkpt lat="47.39171" lon="6.6305">
        <ele>479.5</ele>
        <time>2015-08-31T07:39:06Z</time>
      </trkpt>
      <trkpt lat="47.39167" lon="6.63052">
        <ele>479.7</ele>
        <time>2015-08-31T07:39:07Z</time>
      </trkpt>
      <trkpt lat="47.39164" lon="6.63054">
        <ele>479.6</ele>
        <time>2015-08-31T07:39:08Z</time>
      </trkpt>
      <trkpt lat="47.3916" lon="6.63056">
        <ele>479.8</ele>
        <time>2015-08-31T07:39:09Z</time>
      </trkpt>
      <trkpt lat="47.39156" lon="6.63058">
        <ele>479.8</ele>
        <time>2015-08-31T07:39:10Z</time>
      </trkpt>
      <trkpt lat="47.39152" lon="6.6306">
        <ele>479.8</ele>
        <time>2015-08-31T07:39:11Z</time>
      </trkpt>
      <trkpt lat="47.39148" lon="6.63061">
        <ele>480</ele>
        <time>2015-08-31T07:39:12Z</time>
      </trkpt>
      <trkpt lat="47.39144" lon="6.63063">
        <ele>479.8</ele>
        <time>2015-08-31T07:39:13Z</time>
      </trkpt>
      <trkpt lat="47.3914" lon="6.63065">
        <ele>479.8</ele>
        <time>2015-08-31T07:39:14Z</time>
      </trkpt>
      <trkpt lat="47.39136" lon="6.63067">
        <ele>479.7</ele>
        <time>2015-08-31T07:39:15Z</time>
      </trkpt>
      <trkpt lat="47.39132" lon="6.63068">
        <ele>479.7</ele>
        <time>2015-08-31T07:39:16Z</time>
      </trkpt>
      <trkpt lat="47.39128" lon="6.6307">
        <ele>479.6</ele>
        <time>2015-08-31T07:39:17Z</time>
      </trkpt>
      <trkpt lat="47.39124" lon="6.63072">
        <ele>479.7</ele>
        <time>2015-08-31T07:39:18Z</time>
      </trkpt>
      <trkpt lat="47.3912" lon="6.63073">
        <ele>479.7</ele>
        <time>2015-08-31T07:39:19Z</time>
      </trkpt>
      <trkpt lat="47.39116" lon="6.63075">
        <ele>479.7</ele>
        <time>2015-08-31T07:39:20Z</time>
      </trkpt>
      <trkpt lat="47.39112" lon="6.63076">
        <ele>479.8</ele>
        <time>2015-08-31T07:39:21Z</time>
      </trkpt>
      <trkpt lat="47.39108" lon="6.63078">
        <ele>479.8</ele>
        <time>2015-08-31T07:39:22Z</time>
      </trkpt>
      <trkpt lat="47.39104" lon="6.6308">
        <ele>480</ele>
        <time>2015-08-31T07:39:23Z</time>
      </trkpt>
      <trkpt lat="47.39101" lon="6.63081">
        <ele>480.1</ele>
        <time>2015-08-31T07:39:24Z</time>
      </trkpt>
      <trkpt lat="47.39097" lon="6.63082">
        <ele>480.4</ele>
        <time>2015-08-31T07:39:25Z</time>
      </trkpt>
      <trkpt lat="47.39093" lon="6.63083">
        <ele>480.7</ele>
        <time>2015-08-31T07:39:26Z</time>
      </trkpt>
      <trkpt lat="47.39089" lon="6.63084">
        <ele>480.6</ele>
        <time>2015-08-31T07:39:27Z</time>
      </trkpt>
      <trkpt lat="47.39086" lon="6.63086">
        <ele>480.8</ele>
        <time>2015-08-31T07:39:28Z</time>
      </trkpt>
      <trkpt lat="47.39082" lon="6.63087">
        <ele>480.9</ele>
        <time>2015-08-31T07:39:29Z</time>
      </trkpt>
      <trkpt lat="47.39078" lon="6.63088">
        <ele>481</ele>
        <time>2015-08-31T07:39:30Z</time>
      </trkpt>
      <trkpt lat="47.39074" lon="6.63089">
        <ele>481.1</ele>
        <time>2015-08-31T07:39:31Z</time>
      </trkpt>
      <trkpt lat="47.3907" lon="6.63091">
        <ele>481.3</ele>
        <time>2015-08-31T07:39:32Z</time>
      </trkpt>
      <trkpt lat="47.39066" lon="6.63092">
        <ele>481.3</ele>
        <time>2015-08-31T07:39:33Z</time>
      </trkpt>
      <trkpt lat="47.39063" lon="6.63093">
        <ele>481.6</ele>
        <time>2015-08-31T07:39:34Z</time>
      </trkpt>
      <trkpt lat="47.39059" lon="6.63093">
        <ele>481.8</ele>
        <time>2015-08-31T07:39:35Z</time>
      </trkpt>
      <trkpt lat="47.39055" lon="6.63094">
        <ele>482.1</ele>
        <time>2015-08-31T07:39:36Z</time>
      </trkpt>
      <trkpt lat="47.39052" lon="6.63095">
        <ele>482.3</ele>
        <time>2015-08-31T07:39:37Z</time>
      </trkpt>
      <trkpt lat="47.39048" lon="6.63095">
        <ele>482.7</ele>
        <time>2015-08-31T07:39:38Z</time>
      </trkpt>
      <trkpt lat="47.39044" lon="6.63095">
        <ele>483.1</ele>
        <time>2015-08-31T07:39:39Z</time>
      </trkpt>
      <trkpt lat="47.3904" lon="6.63095">
        <ele>483.5</ele>
        <time>2015-08-31T07:39:40Z</time>
      </trkpt>
      <trkpt lat="47.39036" lon="6.63094">
        <ele>483.8</ele>
        <time>2015-08-31T07:39:41Z</time>
      </trkpt>
      <trkpt lat="47.39032" lon="6.63094">
        <ele>484.3</ele>
        <time>2015-08-31T07:39:42Z</time>
      </trkpt>
      <trkpt lat="47.39028" lon="6.63093">
        <ele>484.8</ele>
        <time>2015-08-31T07:39:43Z</time>
      </trkpt>
      <trkpt lat="47.39024" lon="6.63093">
        <ele>485.1</ele>
        <time>2015-08-31T07:39:44Z</time>
      </trkpt>
      <trkpt lat="47.3902" lon="6.63092">
        <ele>485.4</ele>
        <time>2015-08-31T07:39:45Z</time>
      </trkpt>
      <trkpt lat="47.39017" lon="6.6309">
        <ele>485.7</ele>
        <time>2015-08-31T07:39:46Z</time>
      </trkpt>
      <trkpt lat="47.39013" lon="6.63089">
        <ele>486</ele>
        <time>2015-08-31T07:39:47Z</time>
      </trkpt>
      <trkpt lat="47.3901" lon="6.63088">
        <ele>486.4</ele>
        <time>2015-08-31T07:39:48Z</time>
      </trkpt>
      <trkpt lat="47.39006" lon="6.63087">
        <ele>486.6</ele>
        <time>2015-08-31T07:39:49Z</time>
      </trkpt>
      <trkpt lat="47.39003" lon="6.63085">
        <ele>487.3</ele>
        <time>2015-08-31T07:39:50Z</time>
      </trkpt>
      <trkpt lat="47.39" lon="6.63084">
        <ele>487.7</ele>
        <time>2015-08-31T07:39:51Z</time>
      </trkpt>
      <trkpt lat="47.38997" lon="6.63083">
        <ele>488.1</ele>
        <time>2015-08-31T07:39:52Z</time>
      </trkpt>
      <trkpt lat="47.38993" lon="6.63081">
        <ele>488.5</ele>
        <time>2015-08-31T07:39:53Z</time>
      </trkpt>
      <trkpt lat="47.3899" lon="6.63079">
        <ele>488.9</ele>
        <time>2015-08-31T07:39:54Z</time>
      </trkpt>
      <trkpt lat="47.38986" lon="6.63078">
        <ele>489.2</ele>
        <time>2015-08-31T07:39:55Z</time>
      </trkpt>
      <trkpt lat="47.38983" lon="6.63077">
        <ele>489.5</ele>
        <time>2015-08-31T07:39:56Z</time>
      </trkpt>
      <trkpt lat="47.38979" lon="6.63075">
        <ele>489.8</ele>
        <time>2015-08-31T07:39:57Z</time>
      </trkpt>
      <trkpt lat="47.38975" lon="6.63074">
        <ele>490.1</ele>
        <time>2015-08-31T07:39:58Z</time>
      </trkpt>
      <trkpt lat="47.38972" lon="6.63073">
        <ele>490.4</ele>
        <time>2015-08-31T07:39:59Z</time>
      </trkpt>
      <trkpt lat="47.38968" lon="6.63072">
        <ele>490.6</ele>
        <time>2015-08-31T07:40:00Z</time>
      </trkpt>
      <trkpt lat="47.38965" lon="6.63071">
        <ele>490.9</ele>
        <time>2015-08-31T07:40:01Z</time>
      </trkpt>
      <trkpt lat="47.38961" lon="6.6307">
        <ele>491.1</ele>
        <time>2015-08-31T07:40:02Z</time>
      </trkpt>
      <trkpt lat="47.38957" lon="6.6307">
        <ele>491.4</ele>
        <time>2015-08-31T07:40:03Z</time>
      </trkpt>
      <trkpt lat="47.38954" lon="6.6307">
        <ele>491.8</ele>
        <time>2015-08-31T07:40:04Z</time>
      </trkpt>
      <trkpt lat="47.3895" lon="6.6307">
        <ele>492.1</ele>
        <time>2015-08-31T07:40:05Z</time>
      </trkpt>
      <trkpt lat="47.38946" lon="6.63071">
        <ele>492.4</ele>
        <time>2015-08-31T07:40:06Z</time>
      </trkpt>
      <trkpt lat="47.38942" lon="6.63072">
        <ele>492.7</ele>
        <time>2015-08-31T07:40:07Z</time>
      </trkpt>
      <trkpt lat="47.38939" lon="6.63073">
        <ele>493</ele>
        <time>2015-08-31T07:40:08Z</time>
      </trkpt>
      <trkpt lat="47.38935" lon="6.63073">
        <ele>493.2</ele>
        <time>2015-08-31T07:40:09Z</time>
      </trkpt>
      <trkpt lat="47.38932" lon="6.63073">
        <ele>493.5</ele>
        <time>2015-08-31T07:40:10Z</time>
      </trkpt>
      <trkpt lat="47.38928" lon="6.63073">
        <ele>493.9</ele>
        <time>2015-08-31T07:40:11Z</time>
      </trkpt>
      <trkpt lat="47.38925" lon="6.63072">
        <ele>494.1</ele>
        <time>2015-08-31T07:40:12Z</time>
      </trkpt>
      <trkpt lat="47.38921" lon="6.63072">
        <ele>494.5</ele>
        <time>2015-08-31T07:40:13Z</time>
      </trkpt>
      <trkpt lat="47.38918" lon="6.63073">
        <ele>494.8</ele>
        <time>2015-08-31T07:40:14Z</time>
      </trkpt>
      <trkpt lat="47.38915" lon="6.63073">
        <ele>495.1</ele>
        <time>2015-08-31T07:40:15Z</time>
      </trkpt>
      <trkpt lat="47.38911" lon="6.63074">
        <ele>495.3</ele>
        <time>2015-08-31T07:40:16Z</time>
      </trkpt>
      <trkpt lat="47.38907" lon="6.63074">
        <ele>495.5</ele>
        <time>2015-08-31T07:40:17Z</time>
      </trkpt>
      <trkpt lat="47.38904" lon="6.63074">
        <ele>495.9</ele>
        <time>2015-08-31T07:40:18Z</time>
      </trkpt>
      <trkpt lat="47.389" lon="6.63075">
        <ele>496</ele>
        <time>2015-08-31T07:40:19Z</time>
      </trkpt>
      <trkpt lat="47.38896" lon="6.63076">
        <ele>496.2</ele>
        <time>2015-08-31T07:40:20Z</time>
      </trkpt>
      <trkpt lat="47.38892" lon="6.63077">
        <ele>496.4</ele>
        <time>2015-08-31T07:40:21Z</time>
      </trkpt>
      <trkpt lat="47.38889" lon="6.63077">
        <ele>496.6</ele>
        <time>2015-08-31T07:40:22Z</time>
      </trkpt>
      <trkpt lat="47.38885" lon="6.63078">
        <ele>496.9</ele>
        <time>2015-08-31T07:40:23Z</time>
      </trkpt>
      <trkpt lat="47.38882" lon="6.63078">
        <ele>497.1</ele>
        <time>2015-08-31T07:40:24Z</time>
      </trkpt>
      <trkpt lat="47.38878" lon="6.63078">
        <ele>497.4</ele>
        <time>2015-08-31T07:40:25Z</time>
      </trkpt>
      <trkpt lat="47.38874" lon="6.63078">
        <ele>497.6</ele>
        <time>2015-08-31T07:40:26Z</time>
      </trkpt>
      <trkpt lat="47.38871" lon="6.63078">
        <ele>498</ele>
        <time>2015-08-31T07:40:27Z</time>
      </trkpt>
      <trkpt lat="47.38868" lon="6.63078">
        <ele>498.4</ele>
        <time>2015-08-31T07:40:28Z</time>
      </trkpt>
      <trkpt lat="47.38865" lon="6.63078">
        <ele>498.8</ele>
        <time>2015-08-31T07:40:29Z</time>
      </trkpt>
      <trkpt lat="47.38861" lon="6.63078">
        <ele>499.2</ele>
        <time>2015-08-31T07:40:30Z</time>
      </trkpt>
      <trkpt lat="47.38858" lon="6.63079">
        <ele>499.6</ele>
        <time>2015-08-31T07:40:31Z</time>
      </trkpt>
      <trkpt lat="47.38854" lon="6.63079">
        <ele>499.7</ele>
        <time>2015-08-31T07:40:32Z</time>
      </trkpt>
      <trkpt lat="47.38851" lon="6.6308">
        <ele>499.7</ele>
        <time>2015-08-31T07:40:33Z</time>
      </trkpt>
      <trkpt lat="47.38847" lon="6.6308">
        <ele>499.8</ele>
        <time>2015-08-31T07:40:34Z</time>
      </trkpt>
      <trkpt lat="47.38843" lon="6.63081">
        <ele>500</ele>
        <time>2015-08-31T07:40:35Z</time>
      </trkpt>
      <trkpt lat="47.3884" lon="6.63081">
        <ele>500.3</ele>
        <time>2015-08-31T07:40:36Z</time>
      </trkpt>
      <trkpt lat="47.38836" lon="6.63081">
        <ele>500.5</ele>
        <time>2015-08-31T07:40:37Z</time>
      </trkpt>
      <trkpt lat="47.38832" lon="6.63082">
        <ele>500.6</ele>
        <time>2015-08-31T07:40:38Z</time>
      </trkpt>
      <trkpt lat="47.38829" lon="6.63082">
        <ele>500.8</ele>
        <time>2015-08-31T07:40:39Z</time>
      </trkpt>
      <trkpt lat="47.38825" lon="6.63083">
        <ele>501</ele>
        <time>2015-08-31T07:40:40Z</time>
      </trkpt>
      <trkpt lat="47.38821" lon="6.63083">
        <ele>501.1</ele>
        <time>2015-08-31T07:40:41Z</time>
      </trkpt>
      <trkpt lat="47.38817" lon="6.63084">
        <ele>501.4</ele>
        <time>2015-08-31T07:40:42Z</time>
      </trkpt>
      <trkpt lat="47.38813" lon="6.63084">
        <ele>501.7</ele>
        <time>2015-08-31T07:40:43Z</time>
      </trkpt>
      <trkpt lat="47.38809" lon="6.63084">
        <ele>502</ele>
        <time>2015-08-31T07:40:44Z</time>
      </trkpt>
      <trkpt lat="47.38806" lon="6.63085">
        <ele>502.3</ele>
        <time>2015-08-31T07:40:45Z</time>
      </trkpt>
      <trkpt lat="47.38802" lon="6.63086">
        <ele>502.3</ele>
        <time>2015-08-31T07:40:46Z</time>
      </trkpt>
      <trkpt lat="47.38798" lon="6.63086">
        <ele>502.5</ele>
        <time>2015-08-31T07:40:47Z</time>
      </trkpt>
      <trkpt lat="47.38794" lon="6.63086">
        <ele>502.7</ele>
        <time>2015-08-31T07:40:48Z</time>
      </trkpt>
      <trkpt lat="47.3879" lon="6.63086">
        <ele>502.6</ele>
        <time>2015-08-31T07:40:49Z</time>
      </trkpt>
      <trkpt lat="47.38787" lon="6.63086">
        <ele>502.8</ele>
        <time>2015-08-31T07:40:50Z</time>
      </trkpt>
      <trkpt lat="47.38783" lon="6.63086">
        <ele>503</ele>
        <time>2015-08-31T07:40:51Z</time>
      </trkpt>
      <trkpt lat="47.3878" lon="6.63086">
        <ele>503.3</ele>
        <time>2015-08-31T07:40:52Z</time>
      </trkpt>
      <trkpt lat="47.38776" lon="6.63087">
        <ele>503.6</ele>
        <time>2015-08-31T07:40:53Z</time>
      </trkpt>
      <trkpt lat="47.38775" lon="6.63087">
        <ele>505.7</ele>
        <time>2015-08-31T07:40:54Z</time>
      </trkpt>
      <trkpt lat="47.38771" lon="6.63087">
        <ele>506.1</ele>
        <time>2015-08-31T07:40:55Z</time>
      </trkpt>
      <trkpt lat="47.38768" lon="6.63088">
        <ele>506.2</ele>
        <time>2015-08-31T07:40:56Z</time>
      </trkpt>
      <trkpt lat="47.38764" lon="6.63088">
        <ele>506.3</ele>
        <time>2015-08-31T07:40:57Z</time>
      </trkpt>
      <trkpt lat="47.3876" lon="6.63088">
        <ele>506.5</ele>
        <time>2015-08-31T07:40:58Z</time>
      </trkpt>
      <trkpt lat="47.38757" lon="6.63088">
        <ele>506.6</ele>
        <time>2015-08-31T07:40:59Z</time>
      </trkpt>
      <trkpt lat="47.38753" lon="6.63089">
        <ele>506.8</ele>
        <time>2015-08-31T07:41:00Z</time>
      </trkpt>
      <trkpt lat="47.38749" lon="6.63089">
        <ele>507</ele>
        <time>2015-08-31T07:41:01Z</time>
      </trkpt>
      <trkpt lat="47.38746" lon="6.63089">
        <ele>507.1</ele>
        <time>2015-08-31T07:41:02Z</time>
      </trkpt>
      <trkpt lat="47.38742" lon="6.63089">
        <ele>507.3</ele>
        <time>2015-08-31T07:41:03Z</time>
      </trkpt>
      <trkpt lat="47.38739" lon="6.63089">
        <ele>507.4</ele>
        <time>2015-08-31T07:41:04Z</time>
      </trkpt>
      <trkpt lat="47.38735" lon="6.63089">
        <ele>507.4</ele>
        <time>2015-08-31T07:41:05Z</time>
      </trkpt>
      <trkpt lat="47.38732" lon="6.63089">
        <ele>507.5</ele>
        <time>2015-08-31T07:41:06Z</time>
      </trkpt>
      <trkpt lat="47.38729" lon="6.63088">
        <ele>507.4</ele>
        <time>2015-08-31T07:41:07Z</time>
      </trkpt>
      <trkpt lat="47.38725" lon="6.63088">
        <ele>507.3</ele>
        <time>2015-08-31T07:41:08Z</time>
      </trkpt>
      <trkpt lat="47.38722" lon="6.63087">
        <ele>507.2</ele>
        <time>2015-08-31T07:41:09Z</time>
      </trkpt>
      <trkpt lat="47.3872" lon="6.63086">
        <ele>507.2</ele>
        <time>2015-08-31T07:41:10Z</time>
      </trkpt>
      <trkpt lat="47.38717" lon="6.63085">
        <ele>507.3</ele>
        <time>2015-08-31T07:41:11Z</time>
      </trkpt>
      <trkpt lat="47.38713" lon="6.63085">
        <ele>507.1</ele>
        <time>2015-08-31T07:41:12Z</time>
      </trkpt>
      <trkpt lat="47.3871" lon="6.63085">
        <ele>507.1</ele>
        <time>2015-08-31T07:41:13Z</time>
      </trkpt>
      <trkpt lat="47.38706" lon="6.63084">
        <ele>507.2</ele>
        <time>2015-08-31T07:41:14Z</time>
      </trkpt>
      <trkpt lat="47.38703" lon="6.63083">
        <ele>507.3</ele>
        <time>2015-08-31T07:41:15Z</time>
      </trkpt>
      <trkpt lat="47.38699" lon="6.63081">
        <ele>507.5</ele>
        <time>2015-08-31T07:41:16Z</time>
      </trkpt>
      <trkpt lat="47.38696" lon="6.63077">
        <ele>508</ele>
        <time>2015-08-31T07:41:17Z</time>
      </trkpt>
      <trkpt lat="47.38694" lon="6.63073">
        <ele>508.4</ele>
        <time>2015-08-31T07:41:18Z</time>
      </trkpt>
      <trkpt lat="47.38693" lon="6.63068">
        <ele>508.7</ele>
        <time>2015-08-31T07:41:19Z</time>
      </trkpt>
      <trkpt lat="47.38693" lon="6.63062">
        <ele>508.9</ele>
        <time>2015-08-31T07:41:20Z</time>
      </trkpt>
      <trkpt lat="47.38693" lon="6.63056">
        <ele>509.2</ele>
        <time>2015-08-31T07:41:21Z</time>
      </trkpt>
      <trkpt lat="47.38693" lon="6.63051">
        <ele>509.5</ele>
        <time>2015-08-31T07:41:22Z</time>
      </trkpt>
      <trkpt lat="47.38693" lon="6.63046">
        <ele>509.7</ele>
        <time>2015-08-31T07:41:23Z</time>
      </trkpt>
      <trkpt lat="47.38693" lon="6.6304">
        <ele>509.9</ele>
        <time>2015-08-31T07:41:24Z</time>
      </trkpt>
      <trkpt lat="47.38693" lon="6.63035">
        <ele>510.3</ele>
        <time>2015-08-31T07:41:25Z</time>
      </trkpt>
      <trkpt lat="47.38693" lon="6.6303">
        <ele>510.6</ele>
        <time>2015-08-31T07:41:26Z</time>
      </trkpt>
      <trkpt lat="47.38692" lon="6.63025">
        <ele>510.8</ele>
        <time>2015-08-31T07:41:27Z</time>
      </trkpt>
      <trkpt lat="47.38692" lon="6.63019">
        <ele>509.2</ele>
        <time>2015-08-31T07:41:28Z</time>
      </trkpt>
      <trkpt lat="47.38692" lon="6.63014">
        <ele>509.6</ele>
        <time>2015-08-31T07:41:29Z</time>
      </trkpt>
      <trkpt lat="47.38692" lon="6.63008">
        <ele>509.9</ele>
        <time>2015-08-31T07:41:30Z</time>
      </trkpt>
      <trkpt lat="47.38691" lon="6.63003">
        <ele>510.2</ele>
        <time>2015-08-31T07:41:31Z</time>
      </trkpt>
      <trkpt lat="47.38691" lon="6.62998">
        <ele>510.5</ele>
        <time>2015-08-31T07:41:32Z</time>
      </trkpt>
      <trkpt lat="47.38691" lon="6.62992">
        <ele>510.6</ele>
        <time>2015-08-31T07:41:33Z</time>
      </trkpt>
      <trkpt lat="47.38691" lon="6.62986">
        <ele>510.8</ele>
        <time>2015-08-31T07:41:34Z</time>
      </trkpt>
      <trkpt lat="47.3869" lon="6.62981">
        <ele>511</ele>
        <time>2015-08-31T07:41:35Z</time>
      </trkpt>
      <trkpt lat="47.3869" lon="6.62975">
        <ele>511.3</ele>
        <time>2015-08-31T07:41:36Z</time>
      </trkpt>
      <trkpt lat="47.38689" lon="6.6297">
        <ele>511.4</ele>
        <time>2015-08-31T07:41:37Z</time>
      </trkpt>
      <trkpt lat="47.38687" lon="6.62965">
        <ele>511.5</ele>
        <time>2015-08-31T07:41:38Z</time>
      </trkpt>
      <trkpt lat="47.38684" lon="6.62961">
        <ele>511.7</ele>
        <time>2015-08-31T07:41:39Z</time>
      </trkpt>
      <trkpt lat="47.38681" lon="6.62957">
        <ele>512</ele>
        <time>2015-08-31T07:41:40Z</time>
      </trkpt>
      <trkpt lat="47.38678" lon="6.62953">
        <ele>512.2</ele>
        <time>2015-08-31T07:41:41Z</time>
      </trkpt>
      <trkpt lat="47.38676" lon="6.62949">
        <ele>512.6</ele>
        <time>2015-08-31T07:41:42Z</time>
      </trkpt>
      <trkpt lat="47.38673" lon="6.62945">
        <ele>512.8</ele>
        <time>2015-08-31T07:41:43Z</time>
      </trkpt>
      <trkpt lat="47.38671" lon="6.62941">
        <ele>513</ele>
        <time>2015-08-31T07:41:44Z</time>
      </trkpt>
      <trkpt lat="47.38668" lon="6.62937">
        <ele>513.2</ele>
        <time>2015-08-31T07:41:45Z</time>
      </trkpt>
      <trkpt lat="47.38666" lon="6.62933">
        <ele>513.4</ele>
        <time>2015-08-31T07:41:46Z</time>
      </trkpt>
      <trkpt lat="47.38664" lon="6.62929">
        <ele>513.6</ele>
        <time>2015-08-31T07:41:47Z</time>
      </trkpt>
      <trkpt lat="47.38661" lon="6.62925">
        <ele>513.8</ele>
        <time>2015-08-31T07:41:48Z</time>
      </trkpt>
      <trkpt lat="47.38659" lon="6.62921">
        <ele>514</ele>
        <time>2015-08-31T07:41:49Z</time>
      </trkpt>
      <trkpt lat="47.38656" lon="6.62917">
        <ele>514.2</ele>
        <time>2015-08-31T07:41:50Z</time>
      </trkpt>
      <trkpt lat="47.38654" lon="6.62913">
        <ele>514.3</ele>
        <time>2015-08-31T07:41:51Z</time>
      </trkpt>
      <trkpt lat="47.38651" lon="6.62909">
        <ele>514.4</ele>
        <time>2015-08-31T07:41:52Z</time>
      </trkpt>
      <trkpt lat="47.38649" lon="6.62904">
        <ele>514.5</ele>
        <time>2015-08-31T07:41:53Z</time>
      </trkpt>
      <trkpt lat="47.38646" lon="6.629">
        <ele>514.8</ele>
        <time>2015-08-31T07:41:54Z</time>
      </trkpt>
      <trkpt lat="47.38644" lon="6.62896">
        <ele>515</ele>
        <time>2015-08-31T07:41:55Z</time>
      </trkpt>
      <trkpt lat="47.38641" lon="6.62892">
        <ele>515.2</ele>
        <time>2015-08-31T07:41:56Z</time>
      </trkpt>
      <trkpt lat="47.38639" lon="6.62888">
        <ele>515.2</ele>
        <time>2015-08-31T07:41:57Z</time>
      </trkpt>
      <trkpt lat="47.38636" lon="6.62884">
        <ele>515.2</ele>
        <time>2015-08-31T07:41:58Z</time>
      </trkpt>
      <trkpt lat="47.38633" lon="6.6288">
        <ele>515</ele>
        <time>2015-08-31T07:41:59Z</time>
      </trkpt>
      <trkpt lat="47.3863" lon="6.62876">
        <ele>514.8</ele>
        <time>2015-08-31T07:42:00Z</time>
      </trkpt>
      <trkpt lat="47.38627" lon="6.62872">
        <ele>514.7</ele>
        <time>2015-08-31T07:42:01Z</time>
      </trkpt>
      <trkpt lat="47.38625" lon="6.62868">
        <ele>514.7</ele>
        <time>2015-08-31T07:42:02Z</time>
      </trkpt>
      <trkpt lat="47.38623" lon="6.62865">
        <ele>514.7</ele>
        <time>2015-08-31T07:42:03Z</time>
      </trkpt>
      <trkpt lat="47.3862" lon="6.62863">
        <ele>514.7</ele>
        <time>2015-08-31T07:42:04Z</time>
      </trkpt>
      <trkpt lat="47.38619" lon="6.62861">
        <ele>514.8</ele>
        <time>2015-08-31T07:42:05Z</time>
      </trkpt>
      <trkpt lat="47.38618" lon="6.6286">
        <ele>514.9</ele>
        <time>2015-08-31T07:42:06Z</time>
      </trkpt>
      <trkpt lat="47.38617" lon="6.6286">
        <ele>515.3</ele>
        <time>2015-08-31T07:42:10Z</time>
      </trkpt>
      <trkpt lat="47.38618" lon="6.62861">
        <ele>515.4</ele>
        <time>2015-08-31T07:42:12Z</time>
      </trkpt>
      <trkpt lat="47.38617" lon="6.62861">
        <ele>515.3</ele>
        <time>2015-08-31T07:42:37Z</time>
      </trkpt>
      <trkpt lat="47.38615" lon="6.6286">
        <ele>515.1</ele>
        <time>2015-08-31T07:42:38Z</time>
      </trkpt>
      <trkpt lat="47.38613" lon="6.62859">
        <ele>515.1</ele>
        <time>2015-08-31T07:42:39Z</time>
      </trkpt>
      <trkpt lat="47.38611" lon="6.62858">
        <ele>515</ele>
        <time>2015-08-31T07:42:40Z</time>
      </trkpt>
      <trkpt lat="47.38608" lon="6.62856">
        <ele>515.1</ele>
        <time>2015-08-31T07:42:41Z</time>
      </trkpt>
      <trkpt lat="47.38606" lon="6.62854">
        <ele>515.3</ele>
        <time>2015-08-31T07:42:42Z</time>
      </trkpt>
      <trkpt lat="47.38603" lon="6.62852">
        <ele>515.4</ele>
        <time>2015-08-31T07:42:43Z</time>
      </trkpt>
      <trkpt lat="47.386" lon="6.6285">
        <ele>515.7</ele>
        <time>2015-08-31T07:42:44Z</time>
      </trkpt>
      <trkpt lat="47.38597" lon="6.62848">
        <ele>515.9</ele>
        <time>2015-08-31T07:42:45Z</time>
      </trkpt>
      <trkpt lat="47.38595" lon="6.62846">
        <ele>516.1</ele>
        <time>2015-08-31T07:42:46Z</time>
      </trkpt>
      <trkpt lat="47.38592" lon="6.62844">
        <ele>516.2</ele>
        <time>2015-08-31T07:42:47Z</time>
      </trkpt>
      <trkpt lat="47.38588" lon="6.62841">
        <ele>516.5</ele>
        <time>2015-08-31T07:42:48Z</time>
      </trkpt>
      <trkpt lat="47.38585" lon="6.62839">
        <ele>516.6</ele>
        <time>2015-08-31T07:42:49Z</time>
      </trkpt>
      <trkpt lat="47.38582" lon="6.62836">
        <ele>516.7</ele>
        <time>2015-08-31T07:42:50Z</time>
      </trkpt>
      <trkpt lat="47.38579" lon="6.62833">
        <ele>516.8</ele>
        <time>2015-08-31T07:42:51Z</time>
      </trkpt>
      <trkpt lat="47.38576" lon="6.6283">
        <ele>516.9</ele>
        <time>2015-08-31T07:42:52Z</time>
      </trkpt>
      <trkpt lat="47.38573" lon="6.62828">
        <ele>517.1</ele>
        <time>2015-08-31T07:42:53Z</time>
      </trkpt>
      <trkpt lat="47.3857" lon="6.62825">
        <ele>517.3</ele>
        <time>2015-08-31T07:42:54Z</time>
      </trkpt>
      <trkpt lat="47.38567" lon="6.62823">
        <ele>517.6</ele>
        <time>2015-08-31T07:42:55Z</time>
      </trkpt>
      <trkpt lat="47.38564" lon="6.6282">
        <ele>517.8</ele>
        <time>2015-08-31T07:42:56Z</time>
      </trkpt>
      <trkpt lat="47.3856" lon="6.62818">
        <ele>518</ele>
        <time>2015-08-31T07:42:57Z</time>
      </trkpt>
      <trkpt lat="47.38557" lon="6.62816">
        <ele>518.1</ele>
        <time>2015-08-31T07:42:58Z</time>
      </trkpt>
      <trkpt lat="47.38554" lon="6.62813">
        <ele>518.2</ele>
        <time>2015-08-31T07:42:59Z</time>
      </trkpt>
      <trkpt lat="47.38551" lon="6.62811">
        <ele>518.4</ele>
        <time>2015-08-31T07:43:00Z</time>
      </trkpt>
      <trkpt lat="47.38548" lon="6.62808">
        <ele>518.5</ele>
        <time>2015-08-31T07:43:01Z</time>
      </trkpt>
      <trkpt lat="47.38545" lon="6.62806">
        <ele>518.6</ele>
        <time>2015-08-31T07:43:02Z</time>
      </trkpt>
      <trkpt lat="47.38542" lon="6.62804">
        <ele>518.7</ele>
        <time>2015-08-31T07:43:03Z</time>
      </trkpt>
      <trkpt lat="47.38539" lon="6.62801">
        <ele>518.8</ele>
        <time>2015-08-31T07:43:04Z</time>
      </trkpt>
      <trkpt lat="47.38536" lon="6.62799">
        <ele>519</ele>
        <time>2015-08-31T07:43:05Z</time>
      </trkpt>
      <trkpt lat="47.38533" lon="6.62797">
        <ele>519.1</ele>
        <time>2015-08-31T07:43:06Z</time>
      </trkpt>
      <trkpt lat="47.3853" lon="6.62795">
        <ele>519.3</ele>
        <time>2015-08-31T07:43:07Z</time>
      </trkpt>
      <trkpt lat="47.38527" lon="6.62793">
        <ele>519.5</ele>
        <time>2015-08-31T07:43:08Z</time>
      </trkpt>
      <trkpt lat="47.38523" lon="6.6279">
        <ele>519.7</ele>
        <time>2015-08-31T07:43:09Z</time>
      </trkpt>
      <trkpt lat="47.38521" lon="6.62788">
        <ele>519.8</ele>
        <time>2015-08-31T07:43:10Z</time>
      </trkpt>
      <trkpt lat="47.38518" lon="6.62785">
        <ele>519.9</ele>
        <time>2015-08-31T07:43:11Z</time>
      </trkpt>
      <trkpt lat="47.38515" lon="6.62781">
        <ele>519.9</ele>
        <time>2015-08-31T07:43:12Z</time>
      </trkpt>
      <trkpt lat="47.38512" lon="6.62777">
        <ele>519.9</ele>
        <time>2015-08-31T07:43:13Z</time>
      </trkpt>
      <trkpt lat="47.3851" lon="6.62772">
        <ele>520</ele>
        <time>2015-08-31T07:43:14Z</time>
      </trkpt>
      <trkpt lat="47.38508" lon="6.62766">
        <ele>520.1</ele>
        <time>2015-08-31T07:43:15Z</time>
      </trkpt>
      <trkpt lat="47.38507" lon="6.6276">
        <ele>520.4</ele>
        <time>2015-08-31T07:43:16Z</time>
      </trkpt>
      <trkpt lat="47.38507" lon="6.62754">
        <ele>520.6</ele>
        <time>2015-08-31T07:43:17Z</time>
      </trkpt>
      <trkpt lat="47.38508" lon="6.62749">
        <ele>521.1</ele>
        <time>2015-08-31T07:43:18Z</time>
      </trkpt>
      <trkpt lat="47.3851" lon="6.62744">
        <ele>521.8</ele>
        <time>2015-08-31T07:43:19Z</time>
      </trkpt>
      <trkpt lat="47.38514" lon="6.62741">
        <ele>522.4</ele>
        <time>2015-08-31T07:43:20Z</time>
      </trkpt>
      <trkpt lat="47.38517" lon="6.62737">
        <ele>523</ele>
        <time>2015-08-31T07:43:21Z</time>
      </trkpt>
      <trkpt lat="47.38522" lon="6.62733">
        <ele>524.2</ele>
        <time>2015-08-31T07:43:22Z</time>
      </trkpt>
      <trkpt lat="47.38525" lon="6.62729">
        <ele>525.2</ele>
        <time>2015-08-31T07:43:23Z</time>
      </trkpt>
      <trkpt lat="47.38529" lon="6.62725">
        <ele>525.9</ele>
        <time>2015-08-31T07:43:24Z</time>
      </trkpt>
      <trkpt lat="47.38532" lon="6.62721">
        <ele>526.5</ele>
        <time>2015-08-31T07:43:25Z</time>
      </trkpt>
      <trkpt lat="47.38535" lon="6.62718">
        <ele>527</ele>
        <time>2015-08-31T07:43:26Z</time>
      </trkpt>
      <trkpt lat="47.38538" lon="6.62714">
        <ele>527.4</ele>
        <time>2015-08-31T07:43:27Z</time>
      </trkpt>
      <trkpt lat="47.38541" lon="6.6271">
        <ele>527.7</ele>
        <time>2015-08-31T07:43:28Z</time>
      </trkpt>
      <trkpt lat="47.38544" lon="6.62706">
        <ele>527.8</ele>
        <time>2015-08-31T07:43:29Z</time>
      </trkpt>
      <trkpt lat="47.38546" lon="6.62702">
        <ele>528</ele>
        <time>2015-08-31T07:43:30Z</time>
      </trkpt>
      <trkpt lat="47.38549" lon="6.62698">
        <ele>528.4</ele>
        <time>2015-08-31T07:43:31Z</time>
      </trkpt>
      <trkpt lat="47.38552" lon="6.62694">
        <ele>528.9</ele>
        <time>2015-08-31T07:43:32Z</time>
      </trkpt>
      <trkpt lat="47.38555" lon="6.62691">
        <ele>529.4</ele>
        <time>2015-08-31T07:43:33Z</time>
      </trkpt>
      <trkpt lat="47.38557" lon="6.62686">
        <ele>530</ele>
        <time>2015-08-31T07:43:34Z</time>
      </trkpt>
      <trkpt lat="47.3856" lon="6.62682">
        <ele>530.6</ele>
        <time>2015-08-31T07:43:35Z</time>
      </trkpt>
      <trkpt lat="47.38562" lon="6.62678">
        <ele>531.2</ele>
        <time>2015-08-31T07:43:36Z</time>
      </trkpt>
      <trkpt lat="47.38564" lon="6.62674">
        <ele>531.9</ele>
        <time>2015-08-31T07:43:37Z</time>
      </trkpt>
      <trkpt lat="47.38566" lon="6.6267">
        <ele>532.8</ele>
        <time>2015-08-31T07:43:38Z</time>
      </trkpt>
      <trkpt lat="47.38569" lon="6.62665">
        <ele>533.1</ele>
        <time>2015-08-31T07:43:39Z</time>
      </trkpt>
      <trkpt lat="47.38571" lon="6.6266">
        <ele>533.3</ele>
        <time>2015-08-31T07:43:40Z</time>
      </trkpt>
      <trkpt lat="47.38572" lon="6.62654">
        <ele>533.5</ele>
        <time>2015-08-31T07:43:41Z</time>
      </trkpt>
      <trkpt lat="47.38574" lon="6.62649">
        <ele>533.7</ele>
        <time>2015-08-31T07:43:42Z</time>
      </trkpt>
      <trkpt lat="47.38576" lon="6.62643">
        <ele>534</ele>
        <time>2015-08-31T07:43:43Z</time>
      </trkpt>
      <trkpt lat="47.38578" lon="6.62638">
        <ele>534.4</ele>
        <time>2015-08-31T07:43:44Z</time>
      </trkpt>
      <trkpt lat="47.3858" lon="6.62633">
        <ele>534.9</ele>
        <time>2015-08-31T07:43:45Z</time>
      </trkpt>
      <trkpt lat="47.38581" lon="6.62629">
        <ele>535.3</ele>
        <time>2015-08-31T07:43:46Z</time>
      </trkpt>
      <trkpt lat="47.38583" lon="6.62624">
        <ele>535.6</ele>
        <time>2015-08-31T07:43:47Z</time>
      </trkpt>
      <trkpt lat="47.38585" lon="6.62619">
        <ele>536</ele>
        <time>2015-08-31T07:43:48Z</time>
      </trkpt>
      <trkpt lat="47.38587" lon="6.62614">
        <ele>536.4</ele>
        <time>2015-08-31T07:43:49Z</time>
      </trkpt>
      <trkpt lat="47.38589" lon="6.6261">
        <ele>536.6</ele>
        <time>2015-08-31T07:43:50Z</time>
      </trkpt>
      <trkpt lat="47.38591" lon="6.62605">
        <ele>536.9</ele>
        <time>2015-08-31T07:43:51Z</time>
      </trkpt>
      <trkpt lat="47.38593" lon="6.626">
        <ele>537.2</ele>
        <time>2015-08-31T07:43:52Z</time>
      </trkpt>
      <trkpt lat="47.38594" lon="6.62595">
        <ele>537.4</ele>
        <time>2015-08-31T07:43:53Z</time>
      </trkpt>
      <trkpt lat="47.38596" lon="6.6259">
        <ele>537.8</ele>
        <time>2015-08-31T07:43:54Z</time>
      </trkpt>
      <trkpt lat="47.38598" lon="6.62585">
        <ele>538.1</ele>
        <time>2015-08-31T07:43:55Z</time>
      </trkpt>
      <trkpt lat="47.38599" lon="6.6258">
        <ele>538.4</ele>
        <time>2015-08-31T07:43:56Z</time>
      </trkpt>
      <trkpt lat="47.386" lon="6.62575">
        <ele>538.7</ele>
        <time>2015-08-31T07:43:57Z</time>
      </trkpt>
      <trkpt lat="47.38601" lon="6.6257">
        <ele>538.8</ele>
        <time>2015-08-31T07:43:58Z</time>
      </trkpt>
      <trkpt lat="47.38601" lon="6.62564">
        <ele>539.1</ele>
        <time>2015-08-31T07:43:59Z</time>
      </trkpt>
      <trkpt lat="47.38601" lon="6.62559">
        <ele>539.4</ele>
        <time>2015-08-31T07:44:00Z</time>
      </trkpt>
      <trkpt lat="47.386" lon="6.62554">
        <ele>539.6</ele>
        <time>2015-08-31T07:44:01Z</time>
      </trkpt>
      <trkpt lat="47.38599" lon="6.6255">
        <ele>539.9</ele>
        <time>2015-08-31T07:44:02Z</time>
      </trkpt>
      <trkpt lat="47.38596" lon="6.62545">
        <ele>539.9</ele>
        <time>2015-08-31T07:44:03Z</time>
      </trkpt>
      <trkpt lat="47.38594" lon="6.62541">
        <ele>539.9</ele>
        <time>2015-08-31T07:44:04Z</time>
      </trkpt>
      <trkpt lat="47.38592" lon="6.62536">
        <ele>540.1</ele>
        <time>2015-08-31T07:44:05Z</time>
      </trkpt>
      <trkpt lat="47.38589" lon="6.62533">
        <ele>540.2</ele>
        <time>2015-08-31T07:44:06Z</time>
      </trkpt>
      <trkpt lat="47.38586" lon="6.62529">
        <ele>540.5</ele>
        <time>2015-08-31T07:44:07Z</time>
      </trkpt>
      <trkpt lat="47.38583" lon="6.62526">
        <ele>540.7</ele>
        <time>2015-08-31T07:44:08Z</time>
      </trkpt>
      <trkpt lat="47.38579" lon="6.62522">
        <ele>540.8</ele>
        <time>2015-08-31T07:44:09Z</time>
      </trkpt>
      <trkpt lat="47.38576" lon="6.62519">
        <ele>541</ele>
        <time>2015-08-31T07:44:10Z</time>
      </trkpt>
      <trkpt lat="47.38573" lon="6.62516">
        <ele>541.2</ele>
        <time>2015-08-31T07:44:11Z</time>
      </trkpt>
      <trkpt lat="47.3857" lon="6.62513">
        <ele>541.4</ele>
        <time>2015-08-31T07:44:12Z</time>
      </trkpt>
      <trkpt lat="47.38567" lon="6.6251">
        <ele>541.7</ele>
        <time>2015-08-31T07:44:13Z</time>
      </trkpt>
      <trkpt lat="47.38563" lon="6.62507">
        <ele>541.9</ele>
        <time>2015-08-31T07:44:14Z</time>
      </trkpt>
      <trkpt lat="47.3856" lon="6.62504">
        <ele>542.1</ele>
        <time>2015-08-31T07:44:15Z</time>
      </trkpt>
      <trkpt lat="47.38557" lon="6.625">
        <ele>542.3</ele>
        <time>2015-08-31T07:44:16Z</time>
      </trkpt>
      <trkpt lat="47.38554" lon="6.62497">
        <ele>542.5</ele>
        <time>2015-08-31T07:44:17Z</time>
      </trkpt>
      <trkpt lat="47.38551" lon="6.62494">
        <ele>542.8</ele>
        <time>2015-08-31T07:44:18Z</time>
      </trkpt>
      <trkpt lat="47.38548" lon="6.6249">
        <ele>543</ele>
        <time>2015-08-31T07:44:19Z</time>
      </trkpt>
      <trkpt lat="47.38545" lon="6.62487">
        <ele>543.1</ele>
        <time>2015-08-31T07:44:20Z</time>
      </trkpt>
      <trkpt lat="47.38542" lon="6.62484">
        <ele>543.4</ele>
        <time>2015-08-31T07:44:21Z</time>
      </trkpt>
      <trkpt lat="47.38538" lon="6.6248">
        <ele>543.6</ele>
        <time>2015-08-31T07:44:22Z</time>
      </trkpt>
      <trkpt lat="47.38535" lon="6.62477">
        <ele>543.8</ele>
        <time>2015-08-31T07:44:23Z</time>
      </trkpt>
      <trkpt lat="47.38532" lon="6.62474">
        <ele>544</ele>
        <time>2015-08-31T07:44:24Z</time>
      </trkpt>
      <trkpt lat="47.38529" lon="6.6247">
        <ele>544</ele>
        <time>2015-08-31T07:44:25Z</time>
      </trkpt>
      <trkpt lat="47.38526" lon="6.62467">
        <ele>544.3</ele>
        <time>2015-08-31T07:44:26Z</time>
      </trkpt>
      <trkpt lat="47.38523" lon="6.62464">
        <ele>544.4</ele>
        <time>2015-08-31T07:44:27Z</time>
      </trkpt>
      <trkpt lat="47.3852" lon="6.6246">
        <ele>544.6</ele>
        <time>2015-08-31T07:44:28Z</time>
      </trkpt>
      <trkpt lat="47.38517" lon="6.62457">
        <ele>544.8</ele>
        <time>2015-08-31T07:44:29Z</time>
      </trkpt>
      <trkpt lat="47.38514" lon="6.62453">
        <ele>545</ele>
        <time>2015-08-31T07:44:30Z</time>
      </trkpt>
      <trkpt lat="47.3851" lon="6.6245">
        <ele>545</ele>
        <time>2015-08-31T07:44:31Z</time>
      </trkpt>
      <trkpt lat="47.38507" lon="6.62447">
        <ele>545.1</ele>
        <time>2015-08-31T07:44:32Z</time>
      </trkpt>
      <trkpt lat="47.38504" lon="6.62443">
        <ele>545</ele>
        <time>2015-08-31T07:44:33Z</time>
      </trkpt>
      <trkpt lat="47.38501" lon="6.62441">
        <ele>545.6</ele>
        <time>2015-08-31T07:44:34Z</time>
      </trkpt>
      <trkpt lat="47.38498" lon="6.62438">
        <ele>545.9</ele>
        <time>2015-08-31T07:44:35Z</time>
      </trkpt>
      <trkpt lat="47.38494" lon="6.62435">
        <ele>546</ele>
        <time>2015-08-31T07:44:36Z</time>
      </trkpt>
      <trkpt lat="47.38491" lon="6.62433">
        <ele>545.9</ele>
        <time>2015-08-31T07:44:37Z</time>
      </trkpt>
      <trkpt lat="47.38487" lon="6.62431">
        <ele>546</ele>
        <time>2015-08-31T07:44:38Z</time>
      </trkpt>
      <trkpt lat="47.38483" lon="6.62429">
        <ele>546</ele>
        <time>2015-08-31T07:44:39Z</time>
      </trkpt>
      <trkpt lat="47.38479" lon="6.62428">
        <ele>546</ele>
        <time>2015-08-31T07:44:40Z</time>
      </trkpt>
      <trkpt lat="47.38475" lon="6.62429">
        <ele>545.9</ele>
        <time>2015-08-31T07:44:41Z</time>
      </trkpt>
      <trkpt lat="47.38471" lon="6.62429">
        <ele>545.9</ele>
        <time>2015-08-31T07:44:42Z</time>
      </trkpt>
      <trkpt lat="47.38467" lon="6.62431">
        <ele>545.7</ele>
        <time>2015-08-31T07:44:43Z</time>
      </trkpt>
      <trkpt lat="47.38464" lon="6.62434">
        <ele>545.5</ele>
        <time>2015-08-31T07:44:44Z</time>
      </trkpt>
      <trkpt lat="47.38461" lon="6.62437">
        <ele>545.3</ele>
        <time>2015-08-31T07:44:45Z</time>
      </trkpt>
      <trkpt lat="47.38459" lon="6.6244">
        <ele>545.1</ele>
        <time>2015-08-31T07:44:46Z</time>
      </trkpt>
      <trkpt lat="47.38457" lon="6.62443">
        <ele>544.8</ele>
        <time>2015-08-31T07:44:47Z</time>
      </trkpt>
      <trkpt lat="47.38455" lon="6.62448">
        <ele>544.6</ele>
        <time>2015-08-31T07:44:48Z</time>
      </trkpt>
      <trkpt lat="47.38453" lon="6.62453">
        <ele>544.7</ele>
        <time>2015-08-31T07:44:49Z</time>
      </trkpt>
      <trkpt lat="47.38453" lon="6.62459">
        <ele>544.6</ele>
        <time>2015-08-31T07:44:50Z</time>
      </trkpt>
      <trkpt lat="47.38452" lon="6.62464">
        <ele>544.4</ele>
        <time>2015-08-31T07:44:51Z</time>
      </trkpt>
      <trkpt lat="47.38451" lon="6.62469">
        <ele>544</ele>
        <time>2015-08-31T07:44:52Z</time>
      </trkpt>
      <trkpt lat="47.3845" lon="6.62475">
        <ele>543.6</ele>
        <time>2015-08-31T07:44:53Z</time>
      </trkpt>
      <trkpt lat="47.38451" lon="6.62481">
        <ele>543.3</ele>
        <time>2015-08-31T07:44:54Z</time>
      </trkpt>
      <trkpt lat="47.38451" lon="6.62487">
        <ele>542.8</ele>
        <time>2015-08-31T07:44:55Z</time>
      </trkpt>
      <trkpt lat="47.38451" lon="6.62492">
        <ele>542.4</ele>
        <time>2015-08-31T07:44:56Z</time>
      </trkpt>
      <trkpt lat="47.38451" lon="6.62497">
        <ele>542</ele>
        <time>2015-08-31T07:44:57Z</time>
      </trkpt>
      <trkpt lat="47.38451" lon="6.62501">
        <ele>541.8</ele>
        <time>2015-08-31T07:44:58Z</time>
      </trkpt>
      <trkpt lat="47.38451" lon="6.62506">
        <ele>541.5</ele>
        <time>2015-08-31T07:44:59Z</time>
      </trkpt>
      <trkpt lat="47.3845" lon="6.6251">
        <ele>541.5</ele>
        <time>2015-08-31T07:45:00Z</time>
      </trkpt>
      <trkpt lat="47.38449" lon="6.62515">
        <ele>541.5</ele>
        <time>2015-08-31T07:45:01Z</time>
      </trkpt>
      <trkpt lat="47.38448" lon="6.62519">
        <ele>541.3</ele>
        <time>2015-08-31T07:45:02Z</time>
      </trkpt>
      <trkpt lat="47.38446" lon="6.62524">
        <ele>541.3</ele>
        <time>2015-08-31T07:45:03Z</time>
      </trkpt>
      <trkpt lat="47.38444" lon="6.62528">
        <ele>541.8</ele>
        <time>2015-08-31T07:45:04Z</time>
      </trkpt>
      <trkpt lat="47.38441" lon="6.62532">
        <ele>542.6</ele>
        <time>2015-08-31T07:45:05Z</time>
      </trkpt>
      <trkpt lat="47.38437" lon="6.62534">
        <ele>543.3</ele>
        <time>2015-08-31T07:45:06Z</time>
      </trkpt>
      <trkpt lat="47.38434" lon="6.62536">
        <ele>544.1</ele>
        <time>2015-08-31T07:45:07Z</time>
      </trkpt>
      <trkpt lat="47.3843" lon="6.62537">
        <ele>545.3</ele>
        <time>2015-08-31T07:45:08Z</time>
      </trkpt>
      <trkpt lat="47.38427" lon="6.62536">
        <ele>546.2</ele>
        <time>2015-08-31T07:45:09Z</time>
      </trkpt>
      <trkpt lat="47.38424" lon="6.62535">
        <ele>547.1</ele>
        <time>2015-08-31T07:45:10Z</time>
      </trkpt>
      <trkpt lat="47.38421" lon="6.62534">
        <ele>547.8</ele>
        <time>2015-08-31T07:45:11Z</time>
      </trkpt>
      <trkpt lat="47.38418" lon="6.62531">
        <ele>548.4</ele>
        <time>2015-08-31T07:45:12Z</time>
      </trkpt>
      <trkpt lat="47.38415" lon="6.62529">
        <ele>548.4</ele>
        <time>2015-08-31T07:45:13Z</time>
      </trkpt>
      <trkpt lat="47.38412" lon="6.62526">
        <ele>548.5</ele>
        <time>2015-08-31T07:45:14Z</time>
      </trkpt>
      <trkpt lat="47.38411" lon="6.62523">
        <ele>548.4</ele>
        <time>2015-08-31T07:45:15Z</time>
      </trkpt>
      <trkpt lat="47.38409" lon="6.62518">
        <ele>548.7</ele>
        <time>2015-08-31T07:45:16Z</time>
      </trkpt>
      <trkpt lat="47.38409" lon="6.62513">
        <ele>549.3</ele>
        <time>2015-08-31T07:45:17Z</time>
      </trkpt>
      <trkpt lat="47.38408" lon="6.62508">
        <ele>549.8</ele>
        <time>2015-08-31T07:45:18Z</time>
      </trkpt>
      <trkpt lat="47.38409" lon="6.62504">
        <ele>550.3</ele>
        <time>2015-08-31T07:45:19Z</time>
      </trkpt>
      <trkpt lat="47.38409" lon="6.625">
        <ele>550.7</ele>
        <time>2015-08-31T07:45:20Z</time>
      </trkpt>
      <trkpt lat="47.38409" lon="6.62496">
        <ele>551.2</ele>
        <time>2015-08-31T07:45:21Z</time>
      </trkpt>
      <trkpt lat="47.3841" lon="6.62491">
        <ele>551.8</ele>
        <time>2015-08-31T07:45:22Z</time>
      </trkpt>
      <trkpt lat="47.3841" lon="6.62487">
        <ele>552.4</ele>
        <time>2015-08-31T07:45:23Z</time>
      </trkpt>
      <trkpt lat="47.3841" lon="6.62484">
        <ele>552.9</ele>
        <time>2015-08-31T07:45:24Z</time>
      </trkpt>
      <trkpt lat="47.38411" lon="6.6248">
        <ele>553.6</ele>
        <time>2015-08-31T07:45:25Z</time>
      </trkpt>
      <trkpt lat="47.38412" lon="6.62477">
        <ele>554.2</ele>
        <time>2015-08-31T07:45:26Z</time>
      </trkpt>
      <trkpt lat="47.38414" lon="6.62474">
        <ele>554.7</ele>
        <time>2015-08-31T07:45:27Z</time>
      </trkpt>
      <trkpt lat="47.38414" lon="6.6247">
        <ele>555.3</ele>
        <time>2015-08-31T07:45:28Z</time>
      </trkpt>
      <trkpt lat="47.38416" lon="6.62465">
        <ele>556.1</ele>
        <time>2015-08-31T07:45:29Z</time>
      </trkpt>
      <trkpt lat="47.38417" lon="6.62461">
        <ele>556.8</ele>
        <time>2015-08-31T07:45:30Z</time>
      </trkpt>
      <trkpt lat="47.38418" lon="6.62456">
        <ele>557.1</ele>
        <time>2015-08-31T07:45:31Z</time>
      </trkpt>
      <trkpt lat="47.38418" lon="6.62451">
        <ele>557.7</ele>
        <time>2015-08-31T07:45:32Z</time>
      </trkpt>
      <trkpt lat="47.38419" lon="6.62446">
        <ele>558.2</ele>
        <time>2015-08-31T07:45:33Z</time>
      </trkpt>
      <trkpt lat="47.38419" lon="6.62441">
        <ele>558.7</ele>
        <time>2015-08-31T07:45:34Z</time>
      </trkpt>
      <trkpt lat="47.38419" lon="6.62436">
        <ele>558.8</ele>
        <time>2015-08-31T07:45:35Z</time>
      </trkpt>
      <trkpt lat="47.38419" lon="6.62431">
        <ele>559.4</ele>
        <time>2015-08-31T07:45:36Z</time>
      </trkpt>
      <trkpt lat="47.38419" lon="6.62425">
        <ele>559.8</ele>
        <time>2015-08-31T07:45:37Z</time>
      </trkpt>
      <trkpt lat="47.3842" lon="6.6242">
        <ele>560.4</ele>
        <time>2015-08-31T07:45:38Z</time>
      </trkpt>
      <trkpt lat="47.3842" lon="6.62415">
        <ele>560.8</ele>
        <time>2015-08-31T07:45:39Z</time>
      </trkpt>
      <trkpt lat="47.3842" lon="6.62409">
        <ele>561.5</ele>
        <time>2015-08-31T07:45:40Z</time>
      </trkpt>
      <trkpt lat="47.38421" lon="6.62404">
        <ele>561.8</ele>
        <time>2015-08-31T07:45:41Z</time>
      </trkpt>
      <trkpt lat="47.38421" lon="6.62399">
        <ele>562.2</ele>
        <time>2015-08-31T07:45:42Z</time>
      </trkpt>
      <trkpt lat="47.38422" lon="6.62394">
        <ele>562.5</ele>
        <time>2015-08-31T07:45:43Z</time>
      </trkpt>
      <trkpt lat="47.38422" lon="6.6239">
        <ele>562.8</ele>
        <time>2015-08-31T07:45:44Z</time>
      </trkpt>
      <trkpt lat="47.38422" lon="6.62383">
        <ele>563</ele>
        <time>2015-08-31T07:45:45Z</time>
      </trkpt>
      <trkpt lat="47.38421" lon="6.62377">
        <ele>563.5</ele>
        <time>2015-08-31T07:45:46Z</time>
      </trkpt>
      <trkpt lat="47.38421" lon="6.62372">
        <ele>563.9</ele>
        <time>2015-08-31T07:45:47Z</time>
      </trkpt>
      <trkpt lat="47.38421" lon="6.62366">
        <ele>564.3</ele>
        <time>2015-08-31T07:45:48Z</time>
      </trkpt>
      <trkpt lat="47.38421" lon="6.62359">
        <ele>564.5</ele>
        <time>2015-08-31T07:45:49Z</time>
      </trkpt>
      <trkpt lat="47.38421" lon="6.62353">
        <ele>564.8</ele>
        <time>2015-08-31T07:45:50Z</time>
      </trkpt>
      <trkpt lat="47.38421" lon="6.62347">
        <ele>565.3</ele>
        <time>2015-08-31T07:45:51Z</time>
      </trkpt>
      <trkpt lat="47.38421" lon="6.62341">
        <ele>565.8</ele>
        <time>2015-08-31T07:45:52Z</time>
      </trkpt>
      <trkpt lat="47.3842" lon="6.62337">
        <ele>566.7</ele>
        <time>2015-08-31T07:45:53Z</time>
      </trkpt>
      <trkpt lat="47.38419" lon="6.62332">
        <ele>567</ele>
        <time>2015-08-31T07:45:54Z</time>
      </trkpt>
      <trkpt lat="47.38419" lon="6.62326">
        <ele>567.4</ele>
        <time>2015-08-31T07:45:55Z</time>
      </trkpt>
      <trkpt lat="47.38419" lon="6.62321">
        <ele>567.7</ele>
        <time>2015-08-31T07:45:56Z</time>
      </trkpt>
      <trkpt lat="47.3842" lon="6.62315">
        <ele>567.8</ele>
        <time>2015-08-31T07:45:57Z</time>
      </trkpt>
      <trkpt lat="47.3842" lon="6.62309">
        <ele>567.8</ele>
        <time>2015-08-31T07:45:58Z</time>
      </trkpt>
      <trkpt lat="47.38421" lon="6.62303">
        <ele>567.7</ele>
        <time>2015-08-31T07:45:59Z</time>
      </trkpt>
      <trkpt lat="47.38422" lon="6.62296">
        <ele>567.4</ele>
        <time>2015-08-31T07:46:00Z</time>
      </trkpt>
      <trkpt lat="47.38424" lon="6.62289">
        <ele>566.6</ele>
        <time>2015-08-31T07:46:01Z</time>
      </trkpt>
      <trkpt lat="47.38425" lon="6.62282">
        <ele>566.6</ele>
        <time>2015-08-31T07:46:02Z</time>
      </trkpt>
      <trkpt lat="47.38425" lon="6.62275">
        <ele>566.6</ele>
        <time>2015-08-31T07:46:03Z</time>
      </trkpt>
      <trkpt lat="47.38425" lon="6.62268">
        <ele>566.2</ele>
        <time>2015-08-31T07:46:04Z</time>
      </trkpt>
      <trkpt lat="47.38424" lon="6.62261">
        <ele>566</ele>
        <time>2015-08-31T07:46:05Z</time>
      </trkpt>
      <trkpt lat="47.38423" lon="6.62256">
        <ele>566.3</ele>
        <time>2015-08-31T07:46:06Z</time>
      </trkpt>
      <trkpt lat="47.38422" lon="6.6225">
        <ele>566.2</ele>
        <time>2015-08-31T07:46:07Z</time>
      </trkpt>
      <trkpt lat="47.3842" lon="6.62245">
        <ele>566.1</ele>
        <time>2015-08-31T07:46:08Z</time>
      </trkpt>
      <trkpt lat="47.38417" lon="6.6224">
        <ele>565.8</ele>
        <time>2015-08-31T07:46:09Z</time>
      </trkpt>
      <trkpt lat="47.38415" lon="6.62235">
        <ele>565.3</ele>
        <time>2015-08-31T07:46:10Z</time>
      </trkpt>
      <trkpt lat="47.38413" lon="6.6223">
        <ele>565.1</ele>
        <time>2015-08-31T07:46:11Z</time>
      </trkpt>
      <trkpt lat="47.3841" lon="6.62225">
        <ele>565.4</ele>
        <time>2015-08-31T07:46:12Z</time>
      </trkpt>
      <trkpt lat="47.38407" lon="6.62221">
        <ele>565.6</ele>
        <time>2015-08-31T07:46:13Z</time>
      </trkpt>
      <trkpt lat="47.38404" lon="6.62217">
        <ele>565.7</ele>
        <time>2015-08-31T07:46:14Z</time>
      </trkpt>
      <trkpt lat="47.38401" lon="6.62213">
        <ele>566</ele>
        <time>2015-08-31T07:46:15Z</time>
      </trkpt>
      <trkpt lat="47.38398" lon="6.62209">
        <ele>566.3</ele>
        <time>2015-08-31T07:46:16Z</time>
      </trkpt>
      <trkpt lat="47.38394" lon="6.62206">
        <ele>566.4</ele>
        <time>2015-08-31T07:46:17Z</time>
      </trkpt>
      <trkpt lat="47.38391" lon="6.62203">
        <ele>566.5</ele>
        <time>2015-08-31T07:46:18Z</time>
      </trkpt>
      <trkpt lat="47.38388" lon="6.62199">
        <ele>566.6</ele>
        <time>2015-08-31T07:46:19Z</time>
      </trkpt>
      <trkpt lat="47.38385" lon="6.62195">
        <ele>566.9</ele>
        <time>2015-08-31T07:46:20Z</time>
      </trkpt>
      <trkpt lat="47.38382" lon="6.62191">
        <ele>567</ele>
        <time>2015-08-31T07:46:21Z</time>
      </trkpt>
      <trkpt lat="47.38379" lon="6.62187">
        <ele>567.4</ele>
        <time>2015-08-31T07:46:22Z</time>
      </trkpt>
      <trkpt lat="47.38377" lon="6.62183">
        <ele>567.8</ele>
        <time>2015-08-31T07:46:23Z</time>
      </trkpt>
      <trkpt lat="47.38374" lon="6.62179">
        <ele>568</ele>
        <time>2015-08-31T07:46:24Z</time>
      </trkpt>
      <trkpt lat="47.38372" lon="6.62175">
        <ele>568.4</ele>
        <time>2015-08-31T07:46:25Z</time>
      </trkpt>
      <trkpt lat="47.38369" lon="6.62171">
        <ele>568.8</ele>
        <time>2015-08-31T07:46:26Z</time>
      </trkpt>
      <trkpt lat="47.38366" lon="6.62168">
        <ele>569</ele>
        <time>2015-08-31T07:46:27Z</time>
      </trkpt>
      <trkpt lat="47.38363" lon="6.62164">
        <ele>569.4</ele>
        <time>2015-08-31T07:46:28Z</time>
      </trkpt>
      <trkpt lat="47.3836" lon="6.6216">
        <ele>569.7</ele>
        <time>2015-08-31T07:46:29Z</time>
      </trkpt>
      <trkpt lat="47.38357" lon="6.62156">
        <ele>569.8</ele>
        <time>2015-08-31T07:46:30Z</time>
      </trkpt>
      <trkpt lat="47.38355" lon="6.62152">
        <ele>569.9</ele>
        <time>2015-08-31T07:46:31Z</time>
      </trkpt>
      <trkpt lat="47.38351" lon="6.62148">
        <ele>570</ele>
        <time>2015-08-31T07:46:32Z</time>
      </trkpt>
      <trkpt lat="47.38348" lon="6.62144">
        <ele>570.2</ele>
        <time>2015-08-31T07:46:33Z</time>
      </trkpt>
      <trkpt lat="47.38345" lon="6.6214">
        <ele>570.3</ele>
        <time>2015-08-31T07:46:34Z</time>
      </trkpt>
      <trkpt lat="47.38342" lon="6.62137">
        <ele>570.4</ele>
        <time>2015-08-31T07:46:35Z</time>
      </trkpt>
      <trkpt lat="47.38339" lon="6.62133">
        <ele>570.5</ele>
        <time>2015-08-31T07:46:36Z</time>
      </trkpt>
      <trkpt lat="47.38336" lon="6.6213">
        <ele>570.7</ele>
        <time>2015-08-31T07:46:37Z</time>
      </trkpt>
      <trkpt lat="47.38333" lon="6.62126">
        <ele>570.8</ele>
        <time>2015-08-31T07:46:38Z</time>
      </trkpt>
      <trkpt lat="47.3833" lon="6.62123">
        <ele>571.4</ele>
        <time>2015-08-31T07:46:39Z</time>
      </trkpt>
      <trkpt lat="47.38327" lon="6.62119">
        <ele>571.7</ele>
        <time>2015-08-31T07:46:40Z</time>
      </trkpt>
      <trkpt lat="47.38324" lon="6.62116">
        <ele>572.1</ele>
        <time>2015-08-31T07:46:41Z</time>
      </trkpt>
      <trkpt lat="47.38321" lon="6.62112">
        <ele>572.4</ele>
        <time>2015-08-31T07:46:42Z</time>
      </trkpt>
      <trkpt lat="47.38318" lon="6.62108">
        <ele>572.6</ele>
        <time>2015-08-31T07:46:43Z</time>
      </trkpt>
      <trkpt lat="47.38315" lon="6.62105">
        <ele>572.7</ele>
        <time>2015-08-31T07:46:44Z</time>
      </trkpt>
      <trkpt lat="47.38312" lon="6.62101">
        <ele>572.9</ele>
        <time>2015-08-31T07:46:45Z</time>
      </trkpt>
      <trkpt lat="47.3831" lon="6.62097">
        <ele>572.9</ele>
        <time>2015-08-31T07:46:46Z</time>
      </trkpt>
      <trkpt lat="47.38307" lon="6.62093">
        <ele>573.1</ele>
        <time>2015-08-31T07:46:47Z</time>
      </trkpt>
      <trkpt lat="47.38305" lon="6.62089">
        <ele>573.3</ele>
        <time>2015-08-31T07:46:48Z</time>
      </trkpt>
      <trkpt lat="47.38302" lon="6.62085">
        <ele>573.2</ele>
        <time>2015-08-31T07:46:49Z</time>
      </trkpt>
      <trkpt lat="47.38299" lon="6.62081">
        <ele>573.2</ele>
        <time>2015-08-31T07:46:50Z</time>
      </trkpt>
      <trkpt lat="47.38296" lon="6.62077">
        <ele>573.6</ele>
        <time>2015-08-31T07:46:51Z</time>
      </trkpt>
      <trkpt lat="47.38292" lon="6.62073">
        <ele>573.9</ele>
        <time>2015-08-31T07:46:52Z</time>
      </trkpt>
      <trkpt lat="47.38289" lon="6.6207">
        <ele>574.4</ele>
        <time>2015-08-31T07:46:53Z</time>
      </trkpt>
      <trkpt lat="47.38286" lon="6.62067">
        <ele>574.8</ele>
        <time>2015-08-31T07:46:54Z</time>
      </trkpt>
      <trkpt lat="47.38283" lon="6.62063">
        <ele>575.4</ele>
        <time>2015-08-31T07:46:55Z</time>
      </trkpt>
      <trkpt lat="47.3828" lon="6.62059">
        <ele>575.5</ele>
        <time>2015-08-31T07:46:56Z</time>
      </trkpt>
      <trkpt lat="47.38277" lon="6.62056">
        <ele>576</ele>
        <time>2015-08-31T07:46:57Z</time>
      </trkpt>
      <trkpt lat="47.38274" lon="6.62052">
        <ele>576.2</ele>
        <time>2015-08-31T07:46:58Z</time>
      </trkpt>
      <trkpt lat="47.38271" lon="6.62049">
        <ele>576.7</ele>
        <time>2015-08-31T07:46:59Z</time>
      </trkpt>
      <trkpt lat="47.38268" lon="6.62045">
        <ele>577.3</ele>
        <time>2015-08-31T07:47:00Z</time>
      </trkpt>
      <trkpt lat="47.38265" lon="6.62041">
        <ele>577.6</ele>
        <time>2015-08-31T07:47:01Z</time>
      </trkpt>
      <trkpt lat="47.38263" lon="6.62038">
        <ele>578</ele>
        <time>2015-08-31T07:47:02Z</time>
      </trkpt>
      <trkpt lat="47.3826" lon="6.62034">
        <ele>578.2</ele>
        <time>2015-08-31T07:47:03Z</time>
      </trkpt>
      <trkpt lat="47.38257" lon="6.6203">
        <ele>578.4</ele>
        <time>2015-08-31T07:47:04Z</time>
      </trkpt>
      <trkpt lat="47.38253" lon="6.62026">
        <ele>577.5</ele>
        <time>2015-08-31T07:47:05Z</time>
      </trkpt>
      <trkpt lat="47.3825" lon="6.62023">
        <ele>577.7</ele>
        <time>2015-08-31T07:47:06Z</time>
      </trkpt>
      <trkpt lat="47.38246" lon="6.6202">
        <ele>577.6</ele>
        <time>2015-08-31T07:47:07Z</time>
      </trkpt>
      <trkpt lat="47.38242" lon="6.62018">
        <ele>577.8</ele>
        <time>2015-08-31T07:47:08Z</time>
      </trkpt>
      <trkpt lat="47.38238" lon="6.62016">
        <ele>578.2</ele>
        <time>2015-08-31T07:47:09Z</time>
      </trkpt>
      <trkpt lat="47.38234" lon="6.62013">
        <ele>578.6</ele>
        <time>2015-08-31T07:47:10Z</time>
      </trkpt>
      <trkpt lat="47.3823" lon="6.62011">
        <ele>579</ele>
        <time>2015-08-31T07:47:11Z</time>
      </trkpt>
      <trkpt lat="47.38226" lon="6.62009">
        <ele>579.5</ele>
        <time>2015-08-31T07:47:12Z</time>
      </trkpt>
      <trkpt lat="47.38222" lon="6.62008">
        <ele>579.9</ele>
        <time>2015-08-31T07:47:13Z</time>
      </trkpt>
      <trkpt lat="47.38218" lon="6.62008">
        <ele>580.3</ele>
        <time>2015-08-31T07:47:14Z</time>
      </trkpt>
      <trkpt lat="47.38214" lon="6.62007">
        <ele>580.7</ele>
        <time>2015-08-31T07:47:15Z</time>
      </trkpt>
      <trkpt lat="47.3821" lon="6.62005">
        <ele>581.2</ele>
        <time>2015-08-31T07:47:16Z</time>
      </trkpt>
      <trkpt lat="47.38207" lon="6.62004">
        <ele>581.6</ele>
        <time>2015-08-31T07:47:17Z</time>
      </trkpt>
      <trkpt lat="47.38203" lon="6.62002">
        <ele>582.1</ele>
        <time>2015-08-31T07:47:18Z</time>
      </trkpt>
      <trkpt lat="47.38199" lon="6.62001">
        <ele>582.5</ele>
        <time>2015-08-31T07:47:19Z</time>
      </trkpt>
      <trkpt lat="47.38196" lon="6.61999">
        <ele>583.1</ele>
        <time>2015-08-31T07:47:20Z</time>
      </trkpt>
      <trkpt lat="47.38192" lon="6.61998">
        <ele>583.5</ele>
        <time>2015-08-31T07:47:21Z</time>
      </trkpt>
      <trkpt lat="47.38188" lon="6.61996">
        <ele>583.6</ele>
        <time>2015-08-31T07:47:22Z</time>
      </trkpt>
      <trkpt lat="47.38183" lon="6.61995">
        <ele>583.7</ele>
        <time>2015-08-31T07:47:23Z</time>
      </trkpt>
      <trkpt lat="47.3818" lon="6.61993">
        <ele>583.9</ele>
        <time>2015-08-31T07:47:24Z</time>
      </trkpt>
      <trkpt lat="47.38176" lon="6.61991">
        <ele>584.4</ele>
        <time>2015-08-31T07:47:25Z</time>
      </trkpt>
      <trkpt lat="47.38173" lon="6.61989">
        <ele>584.8</ele>
        <time>2015-08-31T07:47:26Z</time>
      </trkpt>
      <trkpt lat="47.3817" lon="6.61987">
        <ele>585.2</ele>
        <time>2015-08-31T07:47:27Z</time>
      </trkpt>
      <trkpt lat="47.38166" lon="6.61986">
        <ele>585.7</ele>
        <time>2015-08-31T07:47:28Z</time>
      </trkpt>
      <trkpt lat="47.38163" lon="6.61985">
        <ele>586.5</ele>
        <time>2015-08-31T07:47:29Z</time>
      </trkpt>
      <trkpt lat="47.38159" lon="6.61983">
        <ele>587.2</ele>
        <time>2015-08-31T07:47:30Z</time>
      </trkpt>
      <trkpt lat="47.38156" lon="6.61981">
        <ele>587.9</ele>
        <time>2015-08-31T07:47:31Z</time>
      </trkpt>
      <trkpt lat="47.38153" lon="6.6198">
        <ele>588.6</ele>
        <time>2015-08-31T07:47:32Z</time>
      </trkpt>
      <trkpt lat="47.38149" lon="6.61978">
        <ele>589.1</ele>
        <time>2015-08-31T07:47:33Z</time>
      </trkpt>
      <trkpt lat="47.38146" lon="6.61977">
        <ele>589.5</ele>
        <time>2015-08-31T07:47:34Z</time>
      </trkpt>
      <trkpt lat="47.38143" lon="6.61976">
        <ele>589.9</ele>
        <time>2015-08-31T07:47:35Z</time>
      </trkpt>
      <trkpt lat="47.3814" lon="6.61974">
        <ele>590.2</ele>
        <time>2015-08-31T07:47:36Z</time>
      </trkpt>
      <trkpt lat="47.38136" lon="6.61973">
        <ele>590.4</ele>
        <time>2015-08-31T07:47:37Z</time>
      </trkpt>
      <trkpt lat="47.38132" lon="6.61972">
        <ele>590.7</ele>
        <time>2015-08-31T07:47:38Z</time>
      </trkpt>
      <trkpt lat="47.38128" lon="6.61971">
        <ele>591</ele>
        <time>2015-08-31T07:47:39Z</time>
      </trkpt>
      <trkpt lat="47.38124" lon="6.6197">
        <ele>591.4</ele>
        <time>2015-08-31T07:47:40Z</time>
      </trkpt>
      <trkpt lat="47.38121" lon="6.61969">
        <ele>591.7</ele>
        <time>2015-08-31T07:47:41Z</time>
      </trkpt>
      <trkpt lat="47.38118" lon="6.61969">
        <ele>592.1</ele>
        <time>2015-08-31T07:47:42Z</time>
      </trkpt>
      <trkpt lat="47.38116" lon="6.61968">
        <ele>592.3</ele>
        <time>2015-08-31T07:47:43Z</time>
      </trkpt>
      <trkpt lat="47.38113" lon="6.61966">
        <ele>592.3</ele>
        <time>2015-08-31T07:47:44Z</time>
      </trkpt>
      <trkpt lat="47.38109" lon="6.61965">
        <ele>592.3</ele>
        <time>2015-08-31T07:47:45Z</time>
      </trkpt>
      <trkpt lat="47.38106" lon="6.61964">
        <ele>592.1</ele>
        <time>2015-08-31T07:47:46Z</time>
      </trkpt>
      <trkpt lat="47.38102" lon="6.61963">
        <ele>592</ele>
        <time>2015-08-31T07:47:47Z</time>
      </trkpt>
      <trkpt lat="47.38098" lon="6.61961">
        <ele>591.7</ele>
        <time>2015-08-31T07:47:48Z</time>
      </trkpt>
      <trkpt lat="47.38093" lon="6.61959">
        <ele>591.5</ele>
        <time>2015-08-31T07:47:49Z</time>
      </trkpt>
      <trkpt lat="47.38089" lon="6.61957">
        <ele>591.4</ele>
        <time>2015-08-31T07:47:50Z</time>
      </trkpt>
      <trkpt lat="47.38085" lon="6.61955">
        <ele>591.4</ele>
        <time>2015-08-31T07:47:51Z</time>
      </trkpt>
      <trkpt lat="47.3808" lon="6.61953">
        <ele>591.1</ele>
        <time>2015-08-31T07:47:52Z</time>
      </trkpt>
      <trkpt lat="47.38074" lon="6.6195">
        <ele>590.7</ele>
        <time>2015-08-31T07:47:53Z</time>
      </trkpt>
      <trkpt lat="47.38069" lon="6.61948">
        <ele>590.5</ele>
        <time>2015-08-31T07:47:54Z</time>
      </trkpt>
      <trkpt lat="47.38065" lon="6.61945">
        <ele>590.4</ele>
        <time>2015-08-31T07:47:55Z</time>
      </trkpt>
      <trkpt lat="47.38061" lon="6.61943">
        <ele>590.5</ele>
        <time>2015-08-31T07:47:56Z</time>
      </trkpt>
      <trkpt lat="47.38057" lon="6.61941">
        <ele>590.5</ele>
        <time>2015-08-31T07:47:57Z</time>
      </trkpt>
      <trkpt lat="47.38052" lon="6.6194">
        <ele>590.4</ele>
        <time>2015-08-31T07:47:58Z</time>
      </trkpt>
      <trkpt lat="47.38048" lon="6.61938">
        <ele>590.3</ele>
        <time>2015-08-31T07:47:59Z</time>
      </trkpt>
      <trkpt lat="47.38043" lon="6.61937">
        <ele>590</ele>
        <time>2015-08-31T07:48:00Z</time>
      </trkpt>
      <trkpt lat="47.38039" lon="6.61936">
        <ele>589.8</ele>
        <time>2015-08-31T07:48:01Z</time>
      </trkpt>
      <trkpt lat="47.38035" lon="6.61935">
        <ele>589.6</ele>
        <time>2015-08-31T07:48:02Z</time>
      </trkpt>
      <trkpt lat="47.3803" lon="6.61934">
        <ele>589.3</ele>
        <time>2015-08-31T07:48:03Z</time>
      </trkpt>
      <trkpt lat="47.38026" lon="6.61933">
        <ele>588.8</ele>
        <time>2015-08-31T07:48:04Z</time>
      </trkpt>
      <trkpt lat="47.38022" lon="6.61932">
        <ele>588.4</ele>
        <time>2015-08-31T07:48:05Z</time>
      </trkpt>
      <trkpt lat="47.38018" lon="6.6193">
        <ele>588.1</ele>
        <time>2015-08-31T07:48:06Z</time>
      </trkpt>
      <trkpt lat="47.38014" lon="6.61929">
        <ele>587.9</ele>
        <time>2015-08-31T07:48:07Z</time>
      </trkpt>
      <trkpt lat="47.3801" lon="6.61927">
        <ele>588.1</ele>
        <time>2015-08-31T07:48:08Z</time>
      </trkpt>
      <trkpt lat="47.38007" lon="6.61926">
        <ele>588.4</ele>
        <time>2015-08-31T07:48:09Z</time>
      </trkpt>
      <trkpt lat="47.38003" lon="6.61924">
        <ele>588.7</ele>
        <time>2015-08-31T07:48:10Z</time>
      </trkpt>
      <trkpt lat="47.38" lon="6.61923">
        <ele>588.8</ele>
        <time>2015-08-31T07:48:11Z</time>
      </trkpt>
      <trkpt lat="47.37997" lon="6.61921">
        <ele>589</ele>
        <time>2015-08-31T07:48:12Z</time>
      </trkpt>
      <trkpt lat="47.37994" lon="6.61919">
        <ele>589</ele>
        <time>2015-08-31T07:48:13Z</time>
      </trkpt>
      <trkpt lat="47.3799" lon="6.61918">
        <ele>589.2</ele>
        <time>2015-08-31T07:48:14Z</time>
      </trkpt>
      <trkpt lat="47.37986" lon="6.61916">
        <ele>589.3</ele>
        <time>2015-08-31T07:48:15Z</time>
      </trkpt>
      <trkpt lat="47.37983" lon="6.61914">
        <ele>589.5</ele>
        <time>2015-08-31T07:48:16Z</time>
      </trkpt>
      <trkpt lat="47.3798" lon="6.61912">
        <ele>589.8</ele>
        <time>2015-08-31T07:48:17Z</time>
      </trkpt>
      <trkpt lat="47.37976" lon="6.6191">
        <ele>590.1</ele>
        <time>2015-08-31T07:48:18Z</time>
      </trkpt>
      <trkpt lat="47.37973" lon="6.61907">
        <ele>590.6</ele>
        <time>2015-08-31T07:48:19Z</time>
      </trkpt>
      <trkpt lat="47.3797" lon="6.61906">
        <ele>591.1</ele>
        <time>2015-08-31T07:48:20Z</time>
      </trkpt>
      <trkpt lat="47.37967" lon="6.61903">
        <ele>591.8</ele>
        <time>2015-08-31T07:48:21Z</time>
      </trkpt>
      <trkpt lat="47.37963" lon="6.619">
        <ele>592.4</ele>
        <time>2015-08-31T07:48:22Z</time>
      </trkpt>
      <trkpt lat="47.3796" lon="6.61896">
        <ele>592.9</ele>
        <time>2015-08-31T07:48:23Z</time>
      </trkpt>
      <trkpt lat="47.37956" lon="6.61893">
        <ele>593.2</ele>
        <time>2015-08-31T07:48:24Z</time>
      </trkpt>
      <trkpt lat="47.37952" lon="6.61889">
        <ele>593.3</ele>
        <time>2015-08-31T07:48:25Z</time>
      </trkpt>
      <trkpt lat="47.37948" lon="6.61885">
        <ele>593.2</ele>
        <time>2015-08-31T07:48:26Z</time>
      </trkpt>
      <trkpt lat="47.37944" lon="6.6188">
        <ele>593.2</ele>
        <time>2015-08-31T07:48:27Z</time>
      </trkpt>
      <trkpt lat="47.3794" lon="6.61876">
        <ele>593.2</ele>
        <time>2015-08-31T07:48:28Z</time>
      </trkpt>
      <trkpt lat="47.37937" lon="6.61871">
        <ele>593.1</ele>
        <time>2015-08-31T07:48:29Z</time>
      </trkpt>
      <trkpt lat="47.37933" lon="6.61867">
        <ele>593</ele>
        <time>2015-08-31T07:48:30Z</time>
      </trkpt>
      <trkpt lat="47.37929" lon="6.61862">
        <ele>593.1</ele>
        <time>2015-08-31T07:48:31Z</time>
      </trkpt>
      <trkpt lat="47.37926" lon="6.61858">
        <ele>593.3</ele>
        <time>2015-08-31T07:48:32Z</time>
      </trkpt>
      <trkpt lat="47.37922" lon="6.61853">
        <ele>593.5</ele>
        <time>2015-08-31T07:48:33Z</time>
      </trkpt>
      <trkpt lat="47.37918" lon="6.61849">
        <ele>593.6</ele>
        <time>2015-08-31T07:48:34Z</time>
      </trkpt>
      <trkpt lat="47.37914" lon="6.61844">
        <ele>594</ele>
        <time>2015-08-31T07:48:35Z</time>
      </trkpt>
      <trkpt lat="47.37911" lon="6.6184">
        <ele>594.6</ele>
        <time>2015-08-31T07:48:36Z</time>
      </trkpt>
      <trkpt lat="47.37907" lon="6.61835">
        <ele>594.7</ele>
        <time>2015-08-31T07:48:37Z</time>
      </trkpt>
      <trkpt lat="47.37904" lon="6.6183">
        <ele>595.1</ele>
        <time>2015-08-31T07:48:38Z</time>
      </trkpt>
      <trkpt lat="47.379" lon="6.61826">
        <ele>595.5</ele>
        <time>2015-08-31T07:48:39Z</time>
      </trkpt>
      <trkpt lat="47.37897" lon="6.61821">
        <ele>594.8</ele>
        <time>2015-08-31T07:48:40Z</time>
      </trkpt>
      <trkpt lat="47.37893" lon="6.61817">
        <ele>595</ele>
        <time>2015-08-31T07:48:41Z</time>
      </trkpt>
      <trkpt lat="47.3789" lon="6.61812">
        <ele>595.2</ele>
        <time>2015-08-31T07:48:42Z</time>
      </trkpt>
      <trkpt lat="47.37886" lon="6.61807">
        <ele>595.1</ele>
        <time>2015-08-31T07:48:43Z</time>
      </trkpt>
      <trkpt lat="47.37886" lon="6.61807">
        <ele>595.2</ele>
        <time>2015-08-31T07:48:43Z</time>
      </trkpt>
      <trkpt lat="47.37883" lon="6.61803">
        <ele>595.2</ele>
        <time>2015-08-31T07:48:44Z</time>
      </trkpt>
      <trkpt lat="47.37879" lon="6.61798">
        <ele>595.3</ele>
        <time>2015-08-31T07:48:45Z</time>
      </trkpt>
      <trkpt lat="47.37876" lon="6.61794">
        <ele>595.5</ele>
        <time>2015-08-31T07:48:46Z</time>
      </trkpt>
      <trkpt lat="47.37872" lon="6.61789">
        <ele>595.7</ele>
        <time>2015-08-31T07:48:47Z</time>
      </trkpt>
      <trkpt lat="47.37869" lon="6.61785">
        <ele>596.2</ele>
        <time>2015-08-31T07:48:48Z</time>
      </trkpt>
      <trkpt lat="47.37866" lon="6.61781">
        <ele>596.7</ele>
        <time>2015-08-31T07:48:49Z</time>
      </trkpt>
      <trkpt lat="47.37862" lon="6.61776">
        <ele>597.4</ele>
        <time>2015-08-31T07:48:50Z</time>
      </trkpt>
      <trkpt lat="47.37858" lon="6.61772">
        <ele>598</ele>
        <time>2015-08-31T07:48:51Z</time>
      </trkpt>
      <trkpt lat="47.37855" lon="6.61767">
        <ele>598.4</ele>
        <time>2015-08-31T07:48:52Z</time>
      </trkpt>
      <trkpt lat="47.37851" lon="6.61762">
        <ele>598.6</ele>
        <time>2015-08-31T07:48:53Z</time>
      </trkpt>
      <trkpt lat="47.37847" lon="6.61758">
        <ele>598.7</ele>
        <time>2015-08-31T07:48:54Z</time>
      </trkpt>
      <trkpt lat="47.37844" lon="6.61753">
        <ele>599</ele>
        <time>2015-08-31T07:48:55Z</time>
      </trkpt>
      <trkpt lat="47.3784" lon="6.61749">
        <ele>599.2</ele>
        <time>2015-08-31T07:48:56Z</time>
      </trkpt>
      <trkpt lat="47.37836" lon="6.61745">
        <ele>599.6</ele>
        <time>2015-08-31T07:48:57Z</time>
      </trkpt>
      <trkpt lat="47.37833" lon="6.6174">
        <ele>599.9</ele>
        <time>2015-08-31T07:48:58Z</time>
      </trkpt>
      <trkpt lat="47.37829" lon="6.61735">
        <ele>600.3</ele>
        <time>2015-08-31T07:48:59Z</time>
      </trkpt>
      <trkpt lat="47.37826" lon="6.6173">
        <ele>600.4</ele>
        <time>2015-08-31T07:49:00Z</time>
      </trkpt>
      <trkpt lat="47.37823" lon="6.61725">
        <ele>600.5</ele>
        <time>2015-08-31T07:49:01Z</time>
      </trkpt>
      <trkpt lat="47.3782" lon="6.61719">
        <ele>600.6</ele>
        <time>2015-08-31T07:49:02Z</time>
      </trkpt>
      <trkpt lat="47.37817" lon="6.61713">
        <ele>600.6</ele>
        <time>2015-08-31T07:49:03Z</time>
      </trkpt>
      <trkpt lat="47.37814" lon="6.61708">
        <ele>600.4</ele>
        <time>2015-08-31T07:49:04Z</time>
      </trkpt>
      <trkpt lat="47.37812" lon="6.61702">
        <ele>600.3</ele>
        <time>2015-08-31T07:49:05Z</time>
      </trkpt>
      <trkpt lat="47.37809" lon="6.61697">
        <ele>600.2</ele>
        <time>2015-08-31T07:49:06Z</time>
      </trkpt>
      <trkpt lat="47.37806" lon="6.61691">
        <ele>600.2</ele>
        <time>2015-08-31T07:49:07Z</time>
      </trkpt>
      <trkpt lat="47.37804" lon="6.61685">
        <ele>600.2</ele>
        <time>2015-08-31T07:49:08Z</time>
      </trkpt>
      <trkpt lat="47.37801" lon="6.6168">
        <ele>600</ele>
        <time>2015-08-31T07:49:09Z</time>
      </trkpt>
      <trkpt lat="47.37798" lon="6.61674">
        <ele>599.8</ele>
        <time>2015-08-31T07:49:10Z</time>
      </trkpt>
      <trkpt lat="47.37795" lon="6.61668">
        <ele>599.6</ele>
        <time>2015-08-31T07:49:11Z</time>
      </trkpt>
      <trkpt lat="47.37793" lon="6.61662">
        <ele>599.6</ele>
        <time>2015-08-31T07:49:12Z</time>
      </trkpt>
      <trkpt lat="47.37791" lon="6.61656">
        <ele>599.4</ele>
        <time>2015-08-31T07:49:13Z</time>
      </trkpt>
      <trkpt lat="47.37789" lon="6.6165">
        <ele>599.3</ele>
        <time>2015-08-31T07:49:14Z</time>
      </trkpt>
      <trkpt lat="47.37786" lon="6.61644">
        <ele>599.1</ele>
        <time>2015-08-31T07:49:15Z</time>
      </trkpt>
      <trkpt lat="47.37783" lon="6.61638">
        <ele>599.1</ele>
        <time>2015-08-31T07:49:16Z</time>
      </trkpt>
      <trkpt lat="47.37781" lon="6.61632">
        <ele>599.1</ele>
        <time>2015-08-31T07:49:17Z</time>
      </trkpt>
      <trkpt lat="47.37778" lon="6.61626">
        <ele>598.8</ele>
        <time>2015-08-31T07:49:18Z</time>
      </trkpt>
      <trkpt lat="47.37776" lon="6.6162">
        <ele>598.6</ele>
        <time>2015-08-31T07:49:19Z</time>
      </trkpt>
      <trkpt lat="47.37773" lon="6.61614">
        <ele>598.5</ele>
        <time>2015-08-31T07:49:20Z</time>
      </trkpt>
      <trkpt lat="47.37771" lon="6.61608">
        <ele>598.4</ele>
        <time>2015-08-31T07:49:21Z</time>
      </trkpt>
      <trkpt lat="47.37768" lon="6.61602">
        <ele>598.4</ele>
        <time>2015-08-31T07:49:22Z</time>
      </trkpt>
      <trkpt lat="47.37766" lon="6.61596">
        <ele>598.3</ele>
        <time>2015-08-31T07:49:23Z</time>
      </trkpt>
      <trkpt lat="47.37764" lon="6.6159">
        <ele>598.1</ele>
        <time>2015-08-31T07:49:24Z</time>
      </trkpt>
      <trkpt lat="47.37762" lon="6.61584">
        <ele>598.1</ele>
        <time>2015-08-31T07:49:25Z</time>
      </trkpt>
      <trkpt lat="47.37759" lon="6.61578">
        <ele>598.2</ele>
        <time>2015-08-31T07:49:26Z</time>
      </trkpt>
      <trkpt lat="47.37756" lon="6.61573">
        <ele>598.4</ele>
        <time>2015-08-31T07:49:27Z</time>
      </trkpt>
      <trkpt lat="47.37753" lon="6.61567">
        <ele>598.5</ele>
        <time>2015-08-31T07:49:28Z</time>
      </trkpt>
      <trkpt lat="47.37751" lon="6.61562">
        <ele>598.8</ele>
        <time>2015-08-31T07:49:29Z</time>
      </trkpt>
      <trkpt lat="47.37748" lon="6.61556">
        <ele>598.9</ele>
        <time>2015-08-31T07:49:30Z</time>
      </trkpt>
      <trkpt lat="47.37746" lon="6.6155">
        <ele>599.1</ele>
        <time>2015-08-31T07:49:31Z</time>
      </trkpt>
      <trkpt lat="47.37743" lon="6.61544">
        <ele>599.4</ele>
        <time>2015-08-31T07:49:32Z</time>
      </trkpt>
      <trkpt lat="47.37741" lon="6.61539">
        <ele>599.5</ele>
        <time>2015-08-31T07:49:33Z</time>
      </trkpt>
      <trkpt lat="47.37738" lon="6.61533">
        <ele>599.4</ele>
        <time>2015-08-31T07:49:34Z</time>
      </trkpt>
      <trkpt lat="47.37736" lon="6.61526">
        <ele>599.2</ele>
        <time>2015-08-31T07:49:35Z</time>
      </trkpt>
      <trkpt lat="47.37734" lon="6.6152">
        <ele>599</ele>
        <time>2015-08-31T07:49:36Z</time>
      </trkpt>
      <trkpt lat="47.37732" lon="6.61515">
        <ele>599.2</ele>
        <time>2015-08-31T07:49:37Z</time>
      </trkpt>
      <trkpt lat="47.37729" lon="6.61509">
        <ele>599.5</ele>
        <time>2015-08-31T07:49:38Z</time>
      </trkpt>
      <trkpt lat="47.37727" lon="6.61503">
        <ele>599.4</ele>
        <time>2015-08-31T07:49:39Z</time>
      </trkpt>
      <trkpt lat="47.37725" lon="6.61497">
        <ele>599.4</ele>
        <time>2015-08-31T07:49:40Z</time>
      </trkpt>
      <trkpt lat="47.37723" lon="6.61491">
        <ele>599.3</ele>
        <time>2015-08-31T07:49:41Z</time>
      </trkpt>
      <trkpt lat="47.3772" lon="6.61485">
        <ele>599.4</ele>
        <time>2015-08-31T07:49:42Z</time>
      </trkpt>
      <trkpt lat="47.37718" lon="6.61479">
        <ele>599.5</ele>
        <time>2015-08-31T07:49:43Z</time>
      </trkpt>
      <trkpt lat="47.37716" lon="6.61473">
        <ele>599.6</ele>
        <time>2015-08-31T07:49:44Z</time>
      </trkpt>
      <trkpt lat="47.37714" lon="6.61467">
        <ele>599.8</ele>
        <time>2015-08-31T07:49:45Z</time>
      </trkpt>
      <trkpt lat="47.37712" lon="6.61461">
        <ele>599.9</ele>
        <time>2015-08-31T07:49:46Z</time>
      </trkpt>
      <trkpt lat="47.37709" lon="6.61455">
        <ele>600.1</ele>
        <time>2015-08-31T07:49:47Z</time>
      </trkpt>
      <trkpt lat="47.37707" lon="6.6145">
        <ele>600.3</ele>
        <time>2015-08-31T07:49:48Z</time>
      </trkpt>
      <trkpt lat="47.37705" lon="6.61444">
        <ele>600.9</ele>
        <time>2015-08-31T07:49:49Z</time>
      </trkpt>
      <trkpt lat="47.37702" lon="6.61438">
        <ele>601</ele>
        <time>2015-08-31T07:49:50Z</time>
      </trkpt>
      <trkpt lat="47.377" lon="6.61433">
        <ele>601.4</ele>
        <time>2015-08-31T07:49:51Z</time>
      </trkpt>
      <trkpt lat="47.37696" lon="6.61427">
        <ele>601.6</ele>
        <time>2015-08-31T07:49:52Z</time>
      </trkpt>
      <trkpt lat="47.37693" lon="6.61422">
        <ele>601.9</ele>
        <time>2015-08-31T07:49:53Z</time>
      </trkpt>
      <trkpt lat="47.37688" lon="6.61417">
        <ele>602.4</ele>
        <time>2015-08-31T07:49:54Z</time>
      </trkpt>
      <trkpt lat="47.37683" lon="6.61413">
        <ele>602.9</ele>
        <time>2015-08-31T07:49:55Z</time>
      </trkpt>
      <trkpt lat="47.37678" lon="6.6141">
        <ele>603.4</ele>
        <time>2015-08-31T07:49:56Z</time>
      </trkpt>
      <trkpt lat="47.37673" lon="6.61407">
        <ele>603.9</ele>
        <time>2015-08-31T07:49:57Z</time>
      </trkpt>
      <trkpt lat="47.37669" lon="6.61403">
        <ele>604.6</ele>
        <time>2015-08-31T07:49:58Z</time>
      </trkpt>
      <trkpt lat="47.37665" lon="6.614">
        <ele>604.9</ele>
        <time>2015-08-31T07:49:59Z</time>
      </trkpt>
      <trkpt lat="47.37661" lon="6.61397">
        <ele>605.1</ele>
        <time>2015-08-31T07:50:00Z</time>
      </trkpt>
      <trkpt lat="47.37657" lon="6.61394">
        <ele>605.3</ele>
        <time>2015-08-31T07:50:01Z</time>
      </trkpt>
      <trkpt lat="47.37652" lon="6.6139">
        <ele>605.4</ele>
        <time>2015-08-31T07:50:02Z</time>
      </trkpt>
      <trkpt lat="47.37648" lon="6.61387">
        <ele>605.4</ele>
        <time>2015-08-31T07:50:03Z</time>
      </trkpt>
      <trkpt lat="47.37644" lon="6.61384">
        <ele>604.9</ele>
        <time>2015-08-31T07:50:04Z</time>
      </trkpt>
      <trkpt lat="47.37639" lon="6.6138">
        <ele>604.7</ele>
        <time>2015-08-31T07:50:05Z</time>
      </trkpt>
      <trkpt lat="47.37635" lon="6.61377">
        <ele>604.6</ele>
        <time>2015-08-31T07:50:06Z</time>
      </trkpt>
      <trkpt lat="47.37631" lon="6.61372">
        <ele>604.7</ele>
        <time>2015-08-31T07:50:07Z</time>
      </trkpt>
      <trkpt lat="47.37627" lon="6.61368">
        <ele>604.5</ele>
        <time>2015-08-31T07:50:08Z</time>
      </trkpt>
      <trkpt lat="47.37622" lon="6.61363">
        <ele>604.3</ele>
        <time>2015-08-31T07:50:09Z</time>
      </trkpt>
      <trkpt lat="47.37617" lon="6.61358">
        <ele>604.2</ele>
        <time>2015-08-31T07:50:10Z</time>
      </trkpt>
      <trkpt lat="47.37612" lon="6.61353">
        <ele>604</ele>
        <time>2015-08-31T07:50:11Z</time>
      </trkpt>
      <trkpt lat="47.37607" lon="6.61348">
        <ele>603.9</ele>
        <time>2015-08-31T07:50:12Z</time>
      </trkpt>
      <trkpt lat="47.37602" lon="6.61343">
        <ele>603.6</ele>
        <time>2015-08-31T07:50:13Z</time>
      </trkpt>
      <trkpt lat="47.37596" lon="6.61337">
        <ele>603.4</ele>
        <time>2015-08-31T07:50:14Z</time>
      </trkpt>
      <trkpt lat="47.37591" lon="6.61331">
        <ele>602.9</ele>
        <time>2015-08-31T07:50:15Z</time>
      </trkpt>
      <trkpt lat="47.37585" lon="6.61325">
        <ele>602.5</ele>
        <time>2015-08-31T07:50:16Z</time>
      </trkpt>
      <trkpt lat="47.37579" lon="6.61319">
        <ele>601.8</ele>
        <time>2015-08-31T07:50:17Z</time>
      </trkpt>
      <trkpt lat="47.37573" lon="6.61313">
        <ele>601.4</ele>
        <time>2015-08-31T07:50:18Z</time>
      </trkpt>
      <trkpt lat="47.37567" lon="6.61307">
        <ele>601.1</ele>
        <time>2015-08-31T07:50:19Z</time>
      </trkpt>
      <trkpt lat="47.37561" lon="6.613">
        <ele>600.7</ele>
        <time>2015-08-31T07:50:20Z</time>
      </trkpt>
      <trkpt lat="47.37555" lon="6.61293">
        <ele>600.3</ele>
        <time>2015-08-31T07:50:21Z</time>
      </trkpt>
      <trkpt lat="47.37548" lon="6.61287">
        <ele>600</ele>
        <time>2015-08-31T07:50:22Z</time>
      </trkpt>
      <trkpt lat="47.37542" lon="6.61281">
        <ele>599.6</ele>
        <time>2015-08-31T07:50:23Z</time>
      </trkpt>
      <trkpt lat="47.37536" lon="6.61274">
        <ele>599.2</ele>
        <time>2015-08-31T07:50:24Z</time>
      </trkpt>
      <trkpt lat="47.37529" lon="6.61268">
        <ele>598.9</ele>
        <time>2015-08-31T07:50:25Z</time>
      </trkpt>
      <trkpt lat="47.37523" lon="6.61261">
        <ele>598.4</ele>
        <time>2015-08-31T07:50:26Z</time>
      </trkpt>
      <trkpt lat="47.37516" lon="6.61254">
        <ele>597.9</ele>
        <time>2015-08-31T07:50:27Z</time>
      </trkpt>
      <trkpt lat="47.3751" lon="6.61248">
        <ele>597.5</ele>
        <time>2015-08-31T07:50:28Z</time>
      </trkpt>
      <trkpt lat="47.37503" lon="6.61241">
        <ele>597</ele>
        <time>2015-08-31T07:50:29Z</time>
      </trkpt>
      <trkpt lat="47.37496" lon="6.61235">
        <ele>596.7</ele>
        <time>2015-08-31T07:50:30Z</time>
      </trkpt>
      <trkpt lat="47.37488" lon="6.61228">
        <ele>596.2</ele>
        <time>2015-08-31T07:50:31Z</time>
      </trkpt>
      <trkpt lat="47.37481" lon="6.61222">
        <ele>595.7</ele>
        <time>2015-08-31T07:50:32Z</time>
      </trkpt>
      <trkpt lat="47.37474" lon="6.61215">
        <ele>595.1</ele>
        <time>2015-08-31T07:50:33Z</time>
      </trkpt>
      <trkpt lat="47.37466" lon="6.61209">
        <ele>594.6</ele>
        <time>2015-08-31T07:50:34Z</time>
      </trkpt>
      <trkpt lat="47.37459" lon="6.61202">
        <ele>594.2</ele>
        <time>2015-08-31T07:50:35Z</time>
      </trkpt>
      <trkpt lat="47.37452" lon="6.61196">
        <ele>593.8</ele>
        <time>2015-08-31T07:50:36Z</time>
      </trkpt>
      <trkpt lat="47.37445" lon="6.6119">
        <ele>593.3</ele>
        <time>2015-08-31T07:50:37Z</time>
      </trkpt>
      <trkpt lat="47.37438" lon="6.61184">
        <ele>592.9</ele>
        <time>2015-08-31T07:50:38Z</time>
      </trkpt>
      <trkpt lat="47.37432" lon="6.61178">
        <ele>592.4</ele>
        <time>2015-08-31T07:50:39Z</time>
      </trkpt>
      <trkpt lat="47.37425" lon="6.61172">
        <ele>591.9</ele>
        <time>2015-08-31T07:50:40Z</time>
      </trkpt>
      <trkpt lat="47.37419" lon="6.61164">
        <ele>591.4</ele>
        <time>2015-08-31T07:50:41Z</time>
      </trkpt>
      <trkpt lat="47.37414" lon="6.61156">
        <ele>591.1</ele>
        <time>2015-08-31T07:50:42Z</time>
      </trkpt>
      <trkpt lat="47.3741" lon="6.61145">
        <ele>590.9</ele>
        <time>2015-08-31T07:50:43Z</time>
      </trkpt>
      <trkpt lat="47.37408" lon="6.61133">
        <ele>590.4</ele>
        <time>2015-08-31T07:50:44Z</time>
      </trkpt>
      <trkpt lat="47.37406" lon="6.61121">
        <ele>590.2</ele>
        <time>2015-08-31T07:50:45Z</time>
      </trkpt>
      <trkpt lat="47.37405" lon="6.61109">
        <ele>589.9</ele>
        <time>2015-08-31T07:50:46Z</time>
      </trkpt>
      <trkpt lat="47.37404" lon="6.61098">
        <ele>589.5</ele>
        <time>2015-08-31T07:50:47Z</time>
      </trkpt>
      <trkpt lat="47.37404" lon="6.61087">
        <ele>589.2</ele>
        <time>2015-08-31T07:50:48Z</time>
      </trkpt>
      <trkpt lat="47.37403" lon="6.61077">
        <ele>588.9</ele>
        <time>2015-08-31T07:50:49Z</time>
      </trkpt>
      <trkpt lat="47.37402" lon="6.61067">
        <ele>588.6</ele>
        <time>2015-08-31T07:50:50Z</time>
      </trkpt>
      <trkpt lat="47.37402" lon="6.61057">
        <ele>588.3</ele>
        <time>2015-08-31T07:50:51Z</time>
      </trkpt>
      <trkpt lat="47.37401" lon="6.61047">
        <ele>588</ele>
        <time>2015-08-31T07:50:52Z</time>
      </trkpt>
      <trkpt lat="47.37401" lon="6.61037">
        <ele>587.6</ele>
        <time>2015-08-31T07:50:53Z</time>
      </trkpt>
      <trkpt lat="47.37401" lon="6.61026">
        <ele>587</ele>
        <time>2015-08-31T07:50:54Z</time>
      </trkpt>
      <trkpt lat="47.37401" lon="6.61015">
        <ele>586.6</ele>
        <time>2015-08-31T07:50:55Z</time>
      </trkpt>
      <trkpt lat="47.37402" lon="6.61004">
        <ele>586.3</ele>
        <time>2015-08-31T07:50:56Z</time>
      </trkpt>
      <trkpt lat="47.37401" lon="6.60993">
        <ele>586</ele>
        <time>2015-08-31T07:50:57Z</time>
      </trkpt>
      <trkpt lat="47.37401" lon="6.60983">
        <ele>585.7</ele>
        <time>2015-08-31T07:50:58Z</time>
      </trkpt>
      <trkpt lat="47.374" lon="6.60973">
        <ele>585.4</ele>
        <time>2015-08-31T07:50:59Z</time>
      </trkpt>
      <trkpt lat="47.37399" lon="6.60963">
        <ele>585.1</ele>
        <time>2015-08-31T07:51:00Z</time>
      </trkpt>
      <trkpt lat="47.37398" lon="6.60954">
        <ele>585</ele>
        <time>2015-08-31T07:51:01Z</time>
      </trkpt>
      <trkpt lat="47.37395" lon="6.60944">
        <ele>584.9</ele>
        <time>2015-08-31T07:51:02Z</time>
      </trkpt>
      <trkpt lat="47.37392" lon="6.60935">
        <ele>584.5</ele>
        <time>2015-08-31T07:51:03Z</time>
      </trkpt>
      <trkpt lat="47.37388" lon="6.60926">
        <ele>584</ele>
        <time>2015-08-31T07:51:04Z</time>
      </trkpt>
      <trkpt lat="47.37383" lon="6.60917">
        <ele>583.2</ele>
        <time>2015-08-31T07:51:05Z</time>
      </trkpt>
      <trkpt lat="47.37378" lon="6.60908">
        <ele>582.6</ele>
        <time>2015-08-31T07:51:06Z</time>
      </trkpt>
      <trkpt lat="47.37372" lon="6.60899">
        <ele>582</ele>
        <time>2015-08-31T07:51:07Z</time>
      </trkpt>
      <trkpt lat="47.37366" lon="6.60891">
        <ele>581.5</ele>
        <time>2015-08-31T07:51:08Z</time>
      </trkpt>
      <trkpt lat="47.3736" lon="6.60884">
        <ele>581.3</ele>
        <time>2015-08-31T07:51:09Z</time>
      </trkpt>
      <trkpt lat="47.37354" lon="6.60876">
        <ele>580.8</ele>
        <time>2015-08-31T07:51:10Z</time>
      </trkpt>
      <trkpt lat="47.37348" lon="6.60869">
        <ele>580.4</ele>
        <time>2015-08-31T07:51:11Z</time>
      </trkpt>
      <trkpt lat="47.37342" lon="6.60862">
        <ele>580.5</ele>
        <time>2015-08-31T07:51:12Z</time>
      </trkpt>
      <trkpt lat="47.37336" lon="6.60854">
        <ele>580.1</ele>
        <time>2015-08-31T07:51:13Z</time>
      </trkpt>
      <trkpt lat="47.37331" lon="6.60845">
        <ele>579.6</ele>
        <time>2015-08-31T07:51:14Z</time>
      </trkpt>
      <trkpt lat="47.37326" lon="6.60838">
        <ele>579.2</ele>
        <time>2015-08-31T07:51:15Z</time>
      </trkpt>
      <trkpt lat="47.37319" lon="6.60831">
        <ele>578.7</ele>
        <time>2015-08-31T07:51:16Z</time>
      </trkpt>
      <trkpt lat="47.37313" lon="6.60824">
        <ele>578.2</ele>
        <time>2015-08-31T07:51:17Z</time>
      </trkpt>
      <trkpt lat="47.37307" lon="6.60817">
        <ele>577.6</ele>
        <time>2015-08-31T07:51:18Z</time>
      </trkpt>
      <trkpt lat="47.37301" lon="6.60809">
        <ele>577.1</ele>
        <time>2015-08-31T07:51:19Z</time>
      </trkpt>
      <trkpt lat="47.37295" lon="6.60802">
        <ele>576.7</ele>
        <time>2015-08-31T07:51:20Z</time>
      </trkpt>
      <trkpt lat="47.37288" lon="6.60797">
        <ele>576.5</ele>
        <time>2015-08-31T07:51:21Z</time>
      </trkpt>
      <trkpt lat="47.37281" lon="6.60794">
        <ele>576.7</ele>
        <time>2015-08-31T07:51:22Z</time>
      </trkpt>
      <trkpt lat="47.37275" lon="6.60791">
        <ele>576.4</ele>
        <time>2015-08-31T07:51:23Z</time>
      </trkpt>
      <trkpt lat="47.37268" lon="6.60788">
        <ele>576.4</ele>
        <time>2015-08-31T07:51:24Z</time>
      </trkpt>
      <trkpt lat="47.37261" lon="6.60786">
        <ele>576.5</ele>
        <time>2015-08-31T07:51:25Z</time>
      </trkpt>
      <trkpt lat="47.37254" lon="6.60785">
        <ele>576.4</ele>
        <time>2015-08-31T07:51:26Z</time>
      </trkpt>
      <trkpt lat="47.37248" lon="6.60784">
        <ele>576.3</ele>
        <time>2015-08-31T07:51:27Z</time>
      </trkpt>
      <trkpt lat="47.37242" lon="6.60782">
        <ele>575.9</ele>
        <time>2015-08-31T07:51:28Z</time>
      </trkpt>
      <trkpt lat="47.37236" lon="6.60781">
        <ele>575.9</ele>
        <time>2015-08-31T07:51:29Z</time>
      </trkpt>
      <trkpt lat="47.3723" lon="6.60778">
        <ele>576.1</ele>
        <time>2015-08-31T07:51:30Z</time>
      </trkpt>
      <trkpt lat="47.37226" lon="6.60775">
        <ele>576.8</ele>
        <time>2015-08-31T07:51:31Z</time>
      </trkpt>
      <trkpt lat="47.37221" lon="6.60771">
        <ele>577.3</ele>
        <time>2015-08-31T07:51:32Z</time>
      </trkpt>
      <trkpt lat="47.37217" lon="6.60767">
        <ele>577.8</ele>
        <time>2015-08-31T07:51:33Z</time>
      </trkpt>
      <trkpt lat="47.37212" lon="6.60762">
        <ele>577.8</ele>
        <time>2015-08-31T07:51:34Z</time>
      </trkpt>
      <trkpt lat="47.37207" lon="6.60758">
        <ele>577.7</ele>
        <time>2015-08-31T07:51:35Z</time>
      </trkpt>
      <trkpt lat="47.37203" lon="6.60754">
        <ele>577.6</ele>
        <time>2015-08-31T07:51:36Z</time>
      </trkpt>
      <trkpt lat="47.37199" lon="6.60749">
        <ele>577.8</ele>
        <time>2015-08-31T07:51:37Z</time>
      </trkpt>
      <trkpt lat="47.37195" lon="6.60745">
        <ele>577.9</ele>
        <time>2015-08-31T07:51:38Z</time>
      </trkpt>
      <trkpt lat="47.3719" lon="6.6074">
        <ele>577.9</ele>
        <time>2015-08-31T07:51:39Z</time>
      </trkpt>
      <trkpt lat="47.37186" lon="6.60736">
        <ele>578.2</ele>
        <time>2015-08-31T07:51:40Z</time>
      </trkpt>
      <trkpt lat="47.37182" lon="6.60732">
        <ele>578.4</ele>
        <time>2015-08-31T07:51:41Z</time>
      </trkpt>
      <trkpt lat="47.37178" lon="6.60728">
        <ele>578.5</ele>
        <time>2015-08-31T07:51:42Z</time>
      </trkpt>
      <trkpt lat="47.37174" lon="6.60724">
        <ele>578.5</ele>
        <time>2015-08-31T07:51:43Z</time>
      </trkpt>
      <trkpt lat="47.3717" lon="6.60719">
        <ele>578.5</ele>
        <time>2015-08-31T07:51:44Z</time>
      </trkpt>
      <trkpt lat="47.37166" lon="6.60714">
        <ele>578.3</ele>
        <time>2015-08-31T07:51:45Z</time>
      </trkpt>
      <trkpt lat="47.37163" lon="6.6071">
        <ele>578.4</ele>
        <time>2015-08-31T07:51:46Z</time>
      </trkpt>
      <trkpt lat="47.37159" lon="6.60706">
        <ele>578.5</ele>
        <time>2015-08-31T07:51:47Z</time>
      </trkpt>
      <trkpt lat="47.37155" lon="6.60701">
        <ele>578.4</ele>
        <time>2015-08-31T07:51:48Z</time>
      </trkpt>
      <trkpt lat="47.37151" lon="6.60697">
        <ele>578.5</ele>
        <time>2015-08-31T07:51:49Z</time>
      </trkpt>
      <trkpt lat="47.37148" lon="6.60693">
        <ele>578.5</ele>
        <time>2015-08-31T07:51:50Z</time>
      </trkpt>
      <trkpt lat="47.37144" lon="6.60689">
        <ele>578.6</ele>
        <time>2015-08-31T07:51:51Z</time>
      </trkpt>
      <trkpt lat="47.3714" lon="6.60685">
        <ele>578.7</ele>
        <time>2015-08-31T07:51:52Z</time>
      </trkpt>
      <trkpt lat="47.37137" lon="6.60681">
        <ele>578.8</ele>
        <time>2015-08-31T07:51:53Z</time>
      </trkpt>
      <trkpt lat="47.37133" lon="6.60677">
        <ele>578.8</ele>
        <time>2015-08-31T07:51:54Z</time>
      </trkpt>
      <trkpt lat="47.3713" lon="6.60674">
        <ele>578.9</ele>
        <time>2015-08-31T07:51:55Z</time>
      </trkpt>
      <trkpt lat="47.37127" lon="6.6067">
        <ele>579.1</ele>
        <time>2015-08-31T07:51:56Z</time>
      </trkpt>
      <trkpt lat="47.37123" lon="6.60666">
        <ele>579.2</ele>
        <time>2015-08-31T07:51:57Z</time>
      </trkpt>
      <trkpt lat="47.3712" lon="6.60663">
        <ele>579.2</ele>
        <time>2015-08-31T07:51:58Z</time>
      </trkpt>
      <trkpt lat="47.37117" lon="6.60659">
        <ele>579.1</ele>
        <time>2015-08-31T07:51:59Z</time>
      </trkpt>
      <trkpt lat="47.37113" lon="6.60656">
        <ele>579.2</ele>
        <time>2015-08-31T07:52:00Z</time>
      </trkpt>
      <trkpt lat="47.3711" lon="6.60652">
        <ele>579.3</ele>
        <time>2015-08-31T07:52:01Z</time>
      </trkpt>
      <trkpt lat="47.37107" lon="6.60649">
        <ele>579.4</ele>
        <time>2015-08-31T07:52:02Z</time>
      </trkpt>
      <trkpt lat="47.37104" lon="6.60645">
        <ele>579.4</ele>
        <time>2015-08-31T07:52:03Z</time>
      </trkpt>
      <trkpt lat="47.37101" lon="6.6064">
        <ele>579.7</ele>
        <time>2015-08-31T07:52:04Z</time>
      </trkpt>
      <trkpt lat="47.37099" lon="6.60636">
        <ele>580</ele>
        <time>2015-08-31T07:52:05Z</time>
      </trkpt>
      <trkpt lat="47.37096" lon="6.60631">
        <ele>580.2</ele>
        <time>2015-08-31T07:52:06Z</time>
      </trkpt>
      <trkpt lat="47.37094" lon="6.60627">
        <ele>580.5</ele>
        <time>2015-08-31T07:52:07Z</time>
      </trkpt>
      <trkpt lat="47.37091" lon="6.60622">
        <ele>580.7</ele>
        <time>2015-08-31T07:52:08Z</time>
      </trkpt>
      <trkpt lat="47.37089" lon="6.60617">
        <ele>580.8</ele>
        <time>2015-08-31T07:52:09Z</time>
      </trkpt>
      <trkpt lat="47.37086" lon="6.60612">
        <ele>581</ele>
        <time>2015-08-31T07:52:10Z</time>
      </trkpt>
      <trkpt lat="47.37084" lon="6.60608">
        <ele>581.2</ele>
        <time>2015-08-31T07:52:11Z</time>
      </trkpt>
      <trkpt lat="47.37082" lon="6.60602">
        <ele>581.3</ele>
        <time>2015-08-31T07:52:12Z</time>
      </trkpt>
      <trkpt lat="47.3708" lon="6.60597">
        <ele>581.6</ele>
        <time>2015-08-31T07:52:13Z</time>
      </trkpt>
      <trkpt lat="47.37077" lon="6.60593">
        <ele>581.9</ele>
        <time>2015-08-31T07:52:14Z</time>
      </trkpt>
      <trkpt lat="47.37075" lon="6.60588">
        <ele>582.2</ele>
        <time>2015-08-31T07:52:15Z</time>
      </trkpt>
      <trkpt lat="47.37072" lon="6.60583">
        <ele>582.4</ele>
        <time>2015-08-31T07:52:16Z</time>
      </trkpt>
      <trkpt lat="47.3707" lon="6.60578">
        <ele>582.6</ele>
        <time>2015-08-31T07:52:17Z</time>
      </trkpt>
      <trkpt lat="47.37068" lon="6.60573">
        <ele>582.7</ele>
        <time>2015-08-31T07:52:18Z</time>
      </trkpt>
      <trkpt lat="47.37066" lon="6.60567">
        <ele>582.2</ele>
        <time>2015-08-31T07:52:19Z</time>
      </trkpt>
      <trkpt lat="47.37064" lon="6.60562">
        <ele>581.6</ele>
        <time>2015-08-31T07:52:20Z</time>
      </trkpt>
      <trkpt lat="47.37061" lon="6.60556">
        <ele>581.4</ele>
        <time>2015-08-31T07:52:21Z</time>
      </trkpt>
      <trkpt lat="47.37059" lon="6.6055">
        <ele>581.1</ele>
        <time>2015-08-31T07:52:22Z</time>
      </trkpt>
      <trkpt lat="47.37057" lon="6.60544">
        <ele>581.1</ele>
        <time>2015-08-31T07:52:23Z</time>
      </trkpt>
      <trkpt lat="47.37055" lon="6.60538">
        <ele>580.7</ele>
        <time>2015-08-31T07:52:24Z</time>
      </trkpt>
      <trkpt lat="47.37054" lon="6.60532">
        <ele>580.4</ele>
        <time>2015-08-31T07:52:25Z</time>
      </trkpt>
      <trkpt lat="47.37052" lon="6.60526">
        <ele>580</ele>
        <time>2015-08-31T07:52:26Z</time>
      </trkpt>
      <trkpt lat="47.3705" lon="6.6052">
        <ele>579.8</ele>
        <time>2015-08-31T07:52:27Z</time>
      </trkpt>
      <trkpt lat="47.37049" lon="6.60514">
        <ele>580.5</ele>
        <time>2015-08-31T07:52:28Z</time>
      </trkpt>
      <trkpt lat="47.37047" lon="6.60507">
        <ele>580.3</ele>
        <time>2015-08-31T07:52:29Z</time>
      </trkpt>
      <trkpt lat="47.37045" lon="6.60501">
        <ele>580.2</ele>
        <time>2015-08-31T07:52:30Z</time>
      </trkpt>
      <trkpt lat="47.37043" lon="6.60495">
        <ele>581.9</ele>
        <time>2015-08-31T07:52:31Z</time>
      </trkpt>
      <trkpt lat="47.37042" lon="6.60489">
        <ele>582.3</ele>
        <time>2015-08-31T07:52:32Z</time>
      </trkpt>
      <trkpt lat="47.3704" lon="6.60483">
        <ele>582.2</ele>
        <time>2015-08-31T07:52:33Z</time>
      </trkpt>
      <trkpt lat="47.37038" lon="6.60476">
        <ele>582.1</ele>
        <time>2015-08-31T07:52:34Z</time>
      </trkpt>
      <trkpt lat="47.37036" lon="6.6047">
        <ele>582</ele>
        <time>2015-08-31T07:52:35Z</time>
      </trkpt>
      <trkpt lat="47.37034" lon="6.60464">
        <ele>581.8</ele>
        <time>2015-08-31T07:52:36Z</time>
      </trkpt>
      <trkpt lat="47.37033" lon="6.60459">
        <ele>582.6</ele>
        <time>2015-08-31T07:52:37Z</time>
      </trkpt>
      <trkpt lat="47.37031" lon="6.60453">
        <ele>582.3</ele>
        <time>2015-08-31T07:52:38Z</time>
      </trkpt>
      <trkpt lat="47.37029" lon="6.60447">
        <ele>582.2</ele>
        <time>2015-08-31T07:52:39Z</time>
      </trkpt>
      <trkpt lat="47.37027" lon="6.60441">
        <ele>582.3</ele>
        <time>2015-08-31T07:52:40Z</time>
      </trkpt>
      <trkpt lat="47.37025" lon="6.60435">
        <ele>582.4</ele>
        <time>2015-08-31T07:52:41Z</time>
      </trkpt>
      <trkpt lat="47.37023" lon="6.60429">
        <ele>582.4</ele>
        <time>2015-08-31T07:52:42Z</time>
      </trkpt>
      <trkpt lat="47.3702" lon="6.60423">
        <ele>582.2</ele>
        <time>2015-08-31T07:52:43Z</time>
      </trkpt>
      <trkpt lat="47.37018" lon="6.60417">
        <ele>582</ele>
        <time>2015-08-31T07:52:44Z</time>
      </trkpt>
      <trkpt lat="47.37015" lon="6.60412">
        <ele>582</ele>
        <time>2015-08-31T07:52:45Z</time>
      </trkpt>
      <trkpt lat="47.37013" lon="6.60406">
        <ele>582</ele>
        <time>2015-08-31T07:52:46Z</time>
      </trkpt>
      <trkpt lat="47.37009" lon="6.60401">
        <ele>582.1</ele>
        <time>2015-08-31T07:52:47Z</time>
      </trkpt>
      <trkpt lat="47.37006" lon="6.60395">
        <ele>582</ele>
        <time>2015-08-31T07:52:48Z</time>
      </trkpt>
      <trkpt lat="47.37003" lon="6.6039">
        <ele>582.1</ele>
        <time>2015-08-31T07:52:49Z</time>
      </trkpt>
      <trkpt lat="47.37" lon="6.60385">
        <ele>582.2</ele>
        <time>2015-08-31T07:52:50Z</time>
      </trkpt>
      <trkpt lat="47.36997" lon="6.60379">
        <ele>582.2</ele>
        <time>2015-08-31T07:52:51Z</time>
      </trkpt>
      <trkpt lat="47.36994" lon="6.60373">
        <ele>582.4</ele>
        <time>2015-08-31T07:52:52Z</time>
      </trkpt>
      <trkpt lat="47.36992" lon="6.60367">
        <ele>582.4</ele>
        <time>2015-08-31T07:52:53Z</time>
      </trkpt>
      <trkpt lat="47.36989" lon="6.60362">
        <ele>582.6</ele>
        <time>2015-08-31T07:52:54Z</time>
      </trkpt>
      <trkpt lat="47.36987" lon="6.60356">
        <ele>582.8</ele>
        <time>2015-08-31T07:52:55Z</time>
      </trkpt>
      <trkpt lat="47.36985" lon="6.6035">
        <ele>582.8</ele>
        <time>2015-08-31T07:52:56Z</time>
      </trkpt>
      <trkpt lat="47.36983" lon="6.60344">
        <ele>582.8</ele>
        <time>2015-08-31T07:52:57Z</time>
      </trkpt>
      <trkpt lat="47.36981" lon="6.60338">
        <ele>582.9</ele>
        <time>2015-08-31T07:52:58Z</time>
      </trkpt>
      <trkpt lat="47.36979" lon="6.60332">
        <ele>583</ele>
        <time>2015-08-31T07:52:59Z</time>
      </trkpt>
      <trkpt lat="47.36977" lon="6.60326">
        <ele>583</ele>
        <time>2015-08-31T07:53:00Z</time>
      </trkpt>
      <trkpt lat="47.36975" lon="6.60321">
        <ele>583.1</ele>
        <time>2015-08-31T07:53:01Z</time>
      </trkpt>
      <trkpt lat="47.36973" lon="6.60315">
        <ele>583.2</ele>
        <time>2015-08-31T07:53:02Z</time>
      </trkpt>
      <trkpt lat="47.36971" lon="6.60308">
        <ele>583.2</ele>
        <time>2015-08-31T07:53:03Z</time>
      </trkpt>
      <trkpt lat="47.36969" lon="6.60302">
        <ele>583.3</ele>
        <time>2015-08-31T07:53:04Z</time>
      </trkpt>
      <trkpt lat="47.36967" lon="6.60296">
        <ele>583.3</ele>
        <time>2015-08-31T07:53:05Z</time>
      </trkpt>
      <trkpt lat="47.36965" lon="6.6029">
        <ele>583.3</ele>
        <time>2015-08-31T07:53:06Z</time>
      </trkpt>
      <trkpt lat="47.36963" lon="6.60283">
        <ele>583.2</ele>
        <time>2015-08-31T07:53:07Z</time>
      </trkpt>
      <trkpt lat="47.36962" lon="6.60278">
        <ele>583.1</ele>
        <time>2015-08-31T07:53:08Z</time>
      </trkpt>
      <trkpt lat="47.3696" lon="6.60271">
        <ele>583</ele>
        <time>2015-08-31T07:53:09Z</time>
      </trkpt>
      <trkpt lat="47.36958" lon="6.60265">
        <ele>583</ele>
        <time>2015-08-31T07:53:10Z</time>
      </trkpt>
      <trkpt lat="47.36957" lon="6.60259">
        <ele>583</ele>
        <time>2015-08-31T07:53:11Z</time>
      </trkpt>
      <trkpt lat="47.36955" lon="6.60253">
        <ele>583.2</ele>
        <time>2015-08-31T07:53:12Z</time>
      </trkpt>
      <trkpt lat="47.36953" lon="6.60247">
        <ele>583.3</ele>
        <time>2015-08-31T07:53:13Z</time>
      </trkpt>
      <trkpt lat="47.36951" lon="6.6024">
        <ele>583.3</ele>
        <time>2015-08-31T07:53:14Z</time>
      </trkpt>
      <trkpt lat="47.36949" lon="6.60234">
        <ele>583.5</ele>
        <time>2015-08-31T07:53:15Z</time>
      </trkpt>
      <trkpt lat="47.36947" lon="6.60228">
        <ele>583.6</ele>
        <time>2015-08-31T07:53:16Z</time>
      </trkpt>
      <trkpt lat="47.36945" lon="6.60222">
        <ele>583.8</ele>
        <time>2015-08-31T07:53:17Z</time>
      </trkpt>
      <trkpt lat="47.36943" lon="6.60216">
        <ele>583.9</ele>
        <time>2015-08-31T07:53:18Z</time>
      </trkpt>
      <trkpt lat="47.36941" lon="6.6021">
        <ele>583.9</ele>
        <time>2015-08-31T07:53:19Z</time>
      </trkpt>
      <trkpt lat="47.36939" lon="6.60204">
        <ele>584.1</ele>
        <time>2015-08-31T07:53:20Z</time>
      </trkpt>
      <trkpt lat="47.36937" lon="6.60198">
        <ele>584.5</ele>
        <time>2015-08-31T07:53:21Z</time>
      </trkpt>
      <trkpt lat="47.36935" lon="6.60192">
        <ele>584.5</ele>
        <time>2015-08-31T07:53:22Z</time>
      </trkpt>
      <trkpt lat="47.36934" lon="6.60186">
        <ele>584.5</ele>
        <time>2015-08-31T07:53:23Z</time>
      </trkpt>
      <trkpt lat="47.36932" lon="6.6018">
        <ele>584.6</ele>
        <time>2015-08-31T07:53:24Z</time>
      </trkpt>
      <trkpt lat="47.3693" lon="6.60174">
        <ele>584.6</ele>
        <time>2015-08-31T07:53:25Z</time>
      </trkpt>
      <trkpt lat="47.36929" lon="6.60168">
        <ele>584.7</ele>
        <time>2015-08-31T07:53:26Z</time>
      </trkpt>
      <trkpt lat="47.36927" lon="6.60161">
        <ele>584.6</ele>
        <time>2015-08-31T07:53:27Z</time>
      </trkpt>
      <trkpt lat="47.36925" lon="6.60155">
        <ele>584.6</ele>
        <time>2015-08-31T07:53:28Z</time>
      </trkpt>
      <trkpt lat="47.36923" lon="6.60149">
        <ele>584.7</ele>
        <time>2015-08-31T07:53:29Z</time>
      </trkpt>
      <trkpt lat="47.36921" lon="6.60144">
        <ele>584.7</ele>
        <time>2015-08-31T07:53:30Z</time>
      </trkpt>
      <trkpt lat="47.3692" lon="6.60137">
        <ele>584.8</ele>
        <time>2015-08-31T07:53:31Z</time>
      </trkpt>
      <trkpt lat="47.36918" lon="6.60131">
        <ele>584.9</ele>
        <time>2015-08-31T07:53:32Z</time>
      </trkpt>
      <trkpt lat="47.36916" lon="6.60125">
        <ele>585</ele>
        <time>2015-08-31T07:53:33Z</time>
      </trkpt>
      <trkpt lat="47.36915" lon="6.60118">
        <ele>585.1</ele>
        <time>2015-08-31T07:53:34Z</time>
      </trkpt>
      <trkpt lat="47.36913" lon="6.60112">
        <ele>585.1</ele>
        <time>2015-08-31T07:53:35Z</time>
      </trkpt>
      <trkpt lat="47.36912" lon="6.60106">
        <ele>585.3</ele>
        <time>2015-08-31T07:53:36Z</time>
      </trkpt>
      <trkpt lat="47.3691" lon="6.601">
        <ele>585.4</ele>
        <time>2015-08-31T07:53:37Z</time>
      </trkpt>
      <trkpt lat="47.36909" lon="6.60094">
        <ele>585.6</ele>
        <time>2015-08-31T07:53:38Z</time>
      </trkpt>
      <trkpt lat="47.36908" lon="6.60088">
        <ele>585.7</ele>
        <time>2015-08-31T07:53:39Z</time>
      </trkpt>
      <trkpt lat="47.36907" lon="6.60081">
        <ele>585.9</ele>
        <time>2015-08-31T07:53:40Z</time>
      </trkpt>
      <trkpt lat="47.36906" lon="6.60075">
        <ele>586</ele>
        <time>2015-08-31T07:53:41Z</time>
      </trkpt>
      <trkpt lat="47.36904" lon="6.60069">
        <ele>586.2</ele>
        <time>2015-08-31T07:53:42Z</time>
      </trkpt>
      <trkpt lat="47.36903" lon="6.60063">
        <ele>586.4</ele>
        <time>2015-08-31T07:53:43Z</time>
      </trkpt>
      <trkpt lat="47.36902" lon="6.60057">
        <ele>586.4</ele>
        <time>2015-08-31T07:53:44Z</time>
      </trkpt>
      <trkpt lat="47.36901" lon="6.6005">
        <ele>586.6</ele>
        <time>2015-08-31T07:53:45Z</time>
      </trkpt>
      <trkpt lat="47.369" lon="6.60044">
        <ele>586.6</ele>
        <time>2015-08-31T07:53:46Z</time>
      </trkpt>
      <trkpt lat="47.36899" lon="6.60038">
        <ele>586.6</ele>
        <time>2015-08-31T07:53:47Z</time>
      </trkpt>
      <trkpt lat="47.36898" lon="6.60032">
        <ele>586.4</ele>
        <time>2015-08-31T07:53:48Z</time>
      </trkpt>
      <trkpt lat="47.36897" lon="6.60026">
        <ele>586.4</ele>
        <time>2015-08-31T07:53:49Z</time>
      </trkpt>
      <trkpt lat="47.36896" lon="6.60021">
        <ele>586.9</ele>
        <time>2015-08-31T07:53:50Z</time>
      </trkpt>
      <trkpt lat="47.36895" lon="6.60015">
        <ele>587.1</ele>
        <time>2015-08-31T07:53:51Z</time>
      </trkpt>
      <trkpt lat="47.36894" lon="6.6001">
        <ele>587.2</ele>
        <time>2015-08-31T07:53:52Z</time>
      </trkpt>
      <trkpt lat="47.36893" lon="6.60004">
        <ele>587.4</ele>
        <time>2015-08-31T07:53:53Z</time>
      </trkpt>
      <trkpt lat="47.36892" lon="6.59999">
        <ele>587.5</ele>
        <time>2015-08-31T07:53:54Z</time>
      </trkpt>
      <trkpt lat="47.36891" lon="6.59993">
        <ele>587.7</ele>
        <time>2015-08-31T07:53:55Z</time>
      </trkpt>
      <trkpt lat="47.3689" lon="6.59987">
        <ele>587.9</ele>
        <time>2015-08-31T07:53:56Z</time>
      </trkpt>
      <trkpt lat="47.3689" lon="6.59981">
        <ele>588.1</ele>
        <time>2015-08-31T07:53:57Z</time>
      </trkpt>
      <trkpt lat="47.36889" lon="6.59975">
        <ele>588.3</ele>
        <time>2015-08-31T07:53:58Z</time>
      </trkpt>
      <trkpt lat="47.36889" lon="6.5997">
        <ele>588.5</ele>
        <time>2015-08-31T07:53:59Z</time>
      </trkpt>
      <trkpt lat="47.36888" lon="6.59965">
        <ele>588.8</ele>
        <time>2015-08-31T07:54:00Z</time>
      </trkpt>
      <trkpt lat="47.36888" lon="6.59959">
        <ele>589</ele>
        <time>2015-08-31T07:54:01Z</time>
      </trkpt>
      <trkpt lat="47.36888" lon="6.59954">
        <ele>589.2</ele>
        <time>2015-08-31T07:54:02Z</time>
      </trkpt>
      <trkpt lat="47.36888" lon="6.59949">
        <ele>589.5</ele>
        <time>2015-08-31T07:54:03Z</time>
      </trkpt>
      <trkpt lat="47.36889" lon="6.59944">
        <ele>589.9</ele>
        <time>2015-08-31T07:54:04Z</time>
      </trkpt>
      <trkpt lat="47.36889" lon="6.59939">
        <ele>590.2</ele>
        <time>2015-08-31T07:54:05Z</time>
      </trkpt>
      <trkpt lat="47.36889" lon="6.59934">
        <ele>590.5</ele>
        <time>2015-08-31T07:54:06Z</time>
      </trkpt>
      <trkpt lat="47.36889" lon="6.59929">
        <ele>590.8</ele>
        <time>2015-08-31T07:54:07Z</time>
      </trkpt>
      <trkpt lat="47.3689" lon="6.59924">
        <ele>591.2</ele>
        <time>2015-08-31T07:54:08Z</time>
      </trkpt>
      <trkpt lat="47.3689" lon="6.59919">
        <ele>591.6</ele>
        <time>2015-08-31T07:54:09Z</time>
      </trkpt>
      <trkpt lat="47.3689" lon="6.59914">
        <ele>592.1</ele>
        <time>2015-08-31T07:54:10Z</time>
      </trkpt>
      <trkpt lat="47.3689" lon="6.5991">
        <ele>592.6</ele>
        <time>2015-08-31T07:54:11Z</time>
      </trkpt>
      <trkpt lat="47.3689" lon="6.59904">
        <ele>593.1</ele>
        <time>2015-08-31T07:54:12Z</time>
      </trkpt>
      <trkpt lat="47.3689" lon="6.59899">
        <ele>593.6</ele>
        <time>2015-08-31T07:54:13Z</time>
      </trkpt>
      <trkpt lat="47.36889" lon="6.59894">
        <ele>594.3</ele>
        <time>2015-08-31T07:54:14Z</time>
      </trkpt>
      <trkpt lat="47.36889" lon="6.59889">
        <ele>594.9</ele>
        <time>2015-08-31T07:54:15Z</time>
      </trkpt>
      <trkpt lat="47.36889" lon="6.59884">
        <ele>595.8</ele>
        <time>2015-08-31T07:54:16Z</time>
      </trkpt>
      <trkpt lat="47.36889" lon="6.59879">
        <ele>596.8</ele>
        <time>2015-08-31T07:54:17Z</time>
      </trkpt>
      <trkpt lat="47.36888" lon="6.59873">
        <ele>597.5</ele>
        <time>2015-08-31T07:54:18Z</time>
      </trkpt>
      <trkpt lat="47.36887" lon="6.59868">
        <ele>598.1</ele>
        <time>2015-08-31T07:54:19Z</time>
      </trkpt>
      <trkpt lat="47.36887" lon="6.59862">
        <ele>598.8</ele>
        <time>2015-08-31T07:54:20Z</time>
      </trkpt>
      <trkpt lat="47.36886" lon="6.59857">
        <ele>599.4</ele>
        <time>2015-08-31T07:54:21Z</time>
      </trkpt>
      <trkpt lat="47.36886" lon="6.59852">
        <ele>599.8</ele>
        <time>2015-08-31T07:54:22Z</time>
      </trkpt>
      <trkpt lat="47.36885" lon="6.59846">
        <ele>600.2</ele>
        <time>2015-08-31T07:54:23Z</time>
      </trkpt>
      <trkpt lat="47.36884" lon="6.5984">
        <ele>600.5</ele>
        <time>2015-08-31T07:54:24Z</time>
      </trkpt>
      <trkpt lat="47.36883" lon="6.59835">
        <ele>600.6</ele>
        <time>2015-08-31T07:54:25Z</time>
      </trkpt>
      <trkpt lat="47.36882" lon="6.59828">
        <ele>600.2</ele>
        <time>2015-08-31T07:54:26Z</time>
      </trkpt>
      <trkpt lat="47.36881" lon="6.59823">
        <ele>600.2</ele>
        <time>2015-08-31T07:54:27Z</time>
      </trkpt>
      <trkpt lat="47.36879" lon="6.59817">
        <ele>600.1</ele>
        <time>2015-08-31T07:54:28Z</time>
      </trkpt>
      <trkpt lat="47.36878" lon="6.59811">
        <ele>600</ele>
        <time>2015-08-31T07:54:29Z</time>
      </trkpt>
      <trkpt lat="47.36876" lon="6.59806">
        <ele>600</ele>
        <time>2015-08-31T07:54:30Z</time>
      </trkpt>
      <trkpt lat="47.36874" lon="6.598">
        <ele>599.9</ele>
        <time>2015-08-31T07:54:31Z</time>
      </trkpt>
      <trkpt lat="47.36873" lon="6.59794">
        <ele>599.6</ele>
        <time>2015-08-31T07:54:32Z</time>
      </trkpt>
      <trkpt lat="47.36871" lon="6.59789">
        <ele>599.5</ele>
        <time>2015-08-31T07:54:33Z</time>
      </trkpt>
      <trkpt lat="47.3687" lon="6.59784">
        <ele>599.5</ele>
        <time>2015-08-31T07:54:34Z</time>
      </trkpt>
      <trkpt lat="47.36868" lon="6.59778">
        <ele>599.4</ele>
        <time>2015-08-31T07:54:35Z</time>
      </trkpt>
      <trkpt lat="47.36867" lon="6.59773">
        <ele>599.5</ele>
        <time>2015-08-31T07:54:36Z</time>
      </trkpt>
      <trkpt lat="47.36866" lon="6.59768">
        <ele>599.4</ele>
        <time>2015-08-31T07:54:37Z</time>
      </trkpt>
      <trkpt lat="47.36865" lon="6.59763">
        <ele>599.5</ele>
        <time>2015-08-31T07:54:38Z</time>
      </trkpt>
      <trkpt lat="47.36863" lon="6.59757">
        <ele>599.7</ele>
        <time>2015-08-31T07:54:39Z</time>
      </trkpt>
      <trkpt lat="47.36862" lon="6.59752">
        <ele>599.8</ele>
        <time>2015-08-31T07:54:40Z</time>
      </trkpt>
      <trkpt lat="47.3686" lon="6.59746">
        <ele>599.9</ele>
        <time>2015-08-31T07:54:41Z</time>
      </trkpt>
      <trkpt lat="47.36859" lon="6.59741">
        <ele>600.2</ele>
        <time>2015-08-31T07:54:42Z</time>
      </trkpt>
      <trkpt lat="47.36858" lon="6.59736">
        <ele>600.4</ele>
        <time>2015-08-31T07:54:43Z</time>
      </trkpt>
      <trkpt lat="47.36857" lon="6.59731">
        <ele>600.6</ele>
        <time>2015-08-31T07:54:44Z</time>
      </trkpt>
      <trkpt lat="47.36856" lon="6.59725">
        <ele>600.8</ele>
        <time>2015-08-31T07:54:45Z</time>
      </trkpt>
      <trkpt lat="47.36854" lon="6.5972">
        <ele>601</ele>
        <time>2015-08-31T07:54:46Z</time>
      </trkpt>
      <trkpt lat="47.36853" lon="6.59714">
        <ele>601.1</ele>
        <time>2015-08-31T07:54:47Z</time>
      </trkpt>
      <trkpt lat="47.36852" lon="6.59709">
        <ele>601.2</ele>
        <time>2015-08-31T07:54:48Z</time>
      </trkpt>
      <trkpt lat="47.36851" lon="6.59703">
        <ele>601.3</ele>
        <time>2015-08-31T07:54:49Z</time>
      </trkpt>
      <trkpt lat="47.3685" lon="6.59697">
        <ele>601.5</ele>
        <time>2015-08-31T07:54:50Z</time>
      </trkpt>
      <trkpt lat="47.36849" lon="6.59691">
        <ele>601.7</ele>
        <time>2015-08-31T07:54:51Z</time>
      </trkpt>
      <trkpt lat="47.36848" lon="6.59686">
        <ele>601.8</ele>
        <time>2015-08-31T07:54:52Z</time>
      </trkpt>
      <trkpt lat="47.36847" lon="6.5968">
        <ele>602</ele>
        <time>2015-08-31T07:54:53Z</time>
      </trkpt>
      <trkpt lat="47.36846" lon="6.59674">
        <ele>602.1</ele>
        <time>2015-08-31T07:54:54Z</time>
      </trkpt>
      <trkpt lat="47.36846" lon="6.59668">
        <ele>602.3</ele>
        <time>2015-08-31T07:54:55Z</time>
      </trkpt>
      <trkpt lat="47.36845" lon="6.59662">
        <ele>602.5</ele>
        <time>2015-08-31T07:54:56Z</time>
      </trkpt>
      <trkpt lat="47.36845" lon="6.59656">
        <ele>602.7</ele>
        <time>2015-08-31T07:54:57Z</time>
      </trkpt>
      <trkpt lat="47.36844" lon="6.5965">
        <ele>602.8</ele>
        <time>2015-08-31T07:54:58Z</time>
      </trkpt>
      <trkpt lat="47.36844" lon="6.59644">
        <ele>603</ele>
        <time>2015-08-31T07:54:59Z</time>
      </trkpt>
      <trkpt lat="47.36844" lon="6.59638">
        <ele>603.1</ele>
        <time>2015-08-31T07:55:00Z</time>
      </trkpt>
      <trkpt lat="47.36843" lon="6.59632">
        <ele>603.2</ele>
        <time>2015-08-31T07:55:01Z</time>
      </trkpt>
      <trkpt lat="47.36843" lon="6.59626">
        <ele>603.4</ele>
        <time>2015-08-31T07:55:02Z</time>
      </trkpt>
      <trkpt lat="47.36843" lon="6.5962">
        <ele>603.6</ele>
        <time>2015-08-31T07:55:03Z</time>
      </trkpt>
      <trkpt lat="47.36842" lon="6.59614">
        <ele>603.8</ele>
        <time>2015-08-31T07:55:04Z</time>
      </trkpt>
      <trkpt lat="47.36842" lon="6.59608">
        <ele>604</ele>
        <time>2015-08-31T07:55:05Z</time>
      </trkpt>
      <trkpt lat="47.36841" lon="6.59601">
        <ele>604.1</ele>
        <time>2015-08-31T07:55:06Z</time>
      </trkpt>
      <trkpt lat="47.36841" lon="6.59595">
        <ele>604.3</ele>
        <time>2015-08-31T07:55:07Z</time>
      </trkpt>
      <trkpt lat="47.36841" lon="6.59589">
        <ele>604.5</ele>
        <time>2015-08-31T07:55:08Z</time>
      </trkpt>
      <trkpt lat="47.36841" lon="6.59583">
        <ele>604.7</ele>
        <time>2015-08-31T07:55:09Z</time>
      </trkpt>
      <trkpt lat="47.36841" lon="6.59578">
        <ele>604.9</ele>
        <time>2015-08-31T07:55:10Z</time>
      </trkpt>
      <trkpt lat="47.3684" lon="6.59572">
        <ele>605.1</ele>
        <time>2015-08-31T07:55:11Z</time>
      </trkpt>
      <trkpt lat="47.3684" lon="6.59566">
        <ele>605.3</ele>
        <time>2015-08-31T07:55:12Z</time>
      </trkpt>
      <trkpt lat="47.3684" lon="6.5956">
        <ele>605.4</ele>
        <time>2015-08-31T07:55:13Z</time>
      </trkpt>
      <trkpt lat="47.3684" lon="6.59554">
        <ele>605.6</ele>
        <time>2015-08-31T07:55:14Z</time>
      </trkpt>
      <trkpt lat="47.36839" lon="6.59549">
        <ele>605.8</ele>
        <time>2015-08-31T07:55:15Z</time>
      </trkpt>
      <trkpt lat="47.36838" lon="6.59543">
        <ele>606</ele>
        <time>2015-08-31T07:55:16Z</time>
      </trkpt>
      <trkpt lat="47.36837" lon="6.59537">
        <ele>606.3</ele>
        <time>2015-08-31T07:55:17Z</time>
      </trkpt>
      <trkpt lat="47.36837" lon="6.59531">
        <ele>606.5</ele>
        <time>2015-08-31T07:55:18Z</time>
      </trkpt>
      <trkpt lat="47.36836" lon="6.59525">
        <ele>606.7</ele>
        <time>2015-08-31T07:55:19Z</time>
      </trkpt>
      <trkpt lat="47.36835" lon="6.59519">
        <ele>606.9</ele>
        <time>2015-08-31T07:55:20Z</time>
      </trkpt>
      <trkpt lat="47.36835" lon="6.59513">
        <ele>607.2</ele>
        <time>2015-08-31T07:55:21Z</time>
      </trkpt>
      <trkpt lat="47.36834" lon="6.59507">
        <ele>607.4</ele>
        <time>2015-08-31T07:55:22Z</time>
      </trkpt>
      <trkpt lat="47.36833" lon="6.59502">
        <ele>607.6</ele>
        <time>2015-08-31T07:55:23Z</time>
      </trkpt>
      <trkpt lat="47.36832" lon="6.59496">
        <ele>607.8</ele>
        <time>2015-08-31T07:55:24Z</time>
      </trkpt>
      <trkpt lat="47.36831" lon="6.5949">
        <ele>608</ele>
        <time>2015-08-31T07:55:25Z</time>
      </trkpt>
      <trkpt lat="47.36829" lon="6.59484">
        <ele>608.2</ele>
        <time>2015-08-31T07:55:26Z</time>
      </trkpt>
      <trkpt lat="47.36828" lon="6.59478">
        <ele>608.4</ele>
        <time>2015-08-31T07:55:27Z</time>
      </trkpt>
      <trkpt lat="47.36827" lon="6.59472">
        <ele>608.6</ele>
        <time>2015-08-31T07:55:28Z</time>
      </trkpt>
      <trkpt lat="47.36826" lon="6.59467">
        <ele>608.8</ele>
        <time>2015-08-31T07:55:29Z</time>
      </trkpt>
      <trkpt lat="47.36825" lon="6.59461">
        <ele>609</ele>
        <time>2015-08-31T07:55:30Z</time>
      </trkpt>
      <trkpt lat="47.36824" lon="6.59455">
        <ele>609.2</ele>
        <time>2015-08-31T07:55:31Z</time>
      </trkpt>
      <trkpt lat="47.36823" lon="6.59449">
        <ele>609.3</ele>
        <time>2015-08-31T07:55:32Z</time>
      </trkpt>
      <trkpt lat="47.36822" lon="6.59443">
        <ele>609.5</ele>
        <time>2015-08-31T07:55:33Z</time>
      </trkpt>
      <trkpt lat="47.36821" lon="6.59437">
        <ele>609.7</ele>
        <time>2015-08-31T07:55:34Z</time>
      </trkpt>
      <trkpt lat="47.3682" lon="6.59431">
        <ele>609.8</ele>
        <time>2015-08-31T07:55:35Z</time>
      </trkpt>
      <trkpt lat="47.36819" lon="6.59426">
        <ele>609.9</ele>
        <time>2015-08-31T07:55:36Z</time>
      </trkpt>
      <trkpt lat="47.36817" lon="6.59419">
        <ele>610.1</ele>
        <time>2015-08-31T07:55:37Z</time>
      </trkpt>
      <trkpt lat="47.36816" lon="6.59413">
        <ele>610.2</ele>
        <time>2015-08-31T07:55:38Z</time>
      </trkpt>
      <trkpt lat="47.36815" lon="6.59407">
        <ele>610.4</ele>
        <time>2015-08-31T07:55:39Z</time>
      </trkpt>
      <trkpt lat="47.36813" lon="6.59401">
        <ele>610.5</ele>
        <time>2015-08-31T07:55:40Z</time>
      </trkpt>
      <trkpt lat="47.36812" lon="6.59394">
        <ele>610.7</ele>
        <time>2015-08-31T07:55:41Z</time>
      </trkpt>
      <trkpt lat="47.36811" lon="6.59388">
        <ele>610.8</ele>
        <time>2015-08-31T07:55:42Z</time>
      </trkpt>
      <trkpt lat="47.36809" lon="6.59381">
        <ele>611</ele>
        <time>2015-08-31T07:55:43Z</time>
      </trkpt>
      <trkpt lat="47.36808" lon="6.59374">
        <ele>611.3</ele>
        <time>2015-08-31T07:55:44Z</time>
      </trkpt>
      <trkpt lat="47.36806" lon="6.59368">
        <ele>611.6</ele>
        <time>2015-08-31T07:55:45Z</time>
      </trkpt>
      <trkpt lat="47.36804" lon="6.59361">
        <ele>611.9</ele>
        <time>2015-08-31T07:55:46Z</time>
      </trkpt>
      <trkpt lat="47.36803" lon="6.59355">
        <ele>612.1</ele>
        <time>2015-08-31T07:55:47Z</time>
      </trkpt>
      <trkpt lat="47.36801" lon="6.59348">
        <ele>612.4</ele>
        <time>2015-08-31T07:55:48Z</time>
      </trkpt>
      <trkpt lat="47.36799" lon="6.59342">
        <ele>612.6</ele>
        <time>2015-08-31T07:55:49Z</time>
      </trkpt>
      <trkpt lat="47.36797" lon="6.59335">
        <ele>612.9</ele>
        <time>2015-08-31T07:55:50Z</time>
      </trkpt>
      <trkpt lat="47.36794" lon="6.59329">
        <ele>613.2</ele>
        <time>2015-08-31T07:55:51Z</time>
      </trkpt>
      <trkpt lat="47.36792" lon="6.59322">
        <ele>613.5</ele>
        <time>2015-08-31T07:55:52Z</time>
      </trkpt>
      <trkpt lat="47.3679" lon="6.59316">
        <ele>613.9</ele>
        <time>2015-08-31T07:55:53Z</time>
      </trkpt>
      <trkpt lat="47.36787" lon="6.5931">
        <ele>614.2</ele>
        <time>2015-08-31T07:55:54Z</time>
      </trkpt>
      <trkpt lat="47.36784" lon="6.59304">
        <ele>614.6</ele>
        <time>2015-08-31T07:55:55Z</time>
      </trkpt>
      <trkpt lat="47.36782" lon="6.59299">
        <ele>614.8</ele>
        <time>2015-08-31T07:55:56Z</time>
      </trkpt>
      <trkpt lat="47.36778" lon="6.59293">
        <ele>615.2</ele>
        <time>2015-08-31T07:55:57Z</time>
      </trkpt>
      <trkpt lat="47.36775" lon="6.59288">
        <ele>615.6</ele>
        <time>2015-08-31T07:55:58Z</time>
      </trkpt>
      <trkpt lat="47.36771" lon="6.59284">
        <ele>616.1</ele>
        <time>2015-08-31T07:55:59Z</time>
      </trkpt>
      <trkpt lat="47.36768" lon="6.59279">
        <ele>616.5</ele>
        <time>2015-08-31T07:56:00Z</time>
      </trkpt>
      <trkpt lat="47.36764" lon="6.59275">
        <ele>616.8</ele>
        <time>2015-08-31T07:56:01Z</time>
      </trkpt>
      <trkpt lat="47.3676" lon="6.59271">
        <ele>617.2</ele>
        <time>2015-08-31T07:56:02Z</time>
      </trkpt>
      <trkpt lat="47.36756" lon="6.59266">
        <ele>617.5</ele>
        <time>2015-08-31T07:56:03Z</time>
      </trkpt>
      <trkpt lat="47.36752" lon="6.59262">
        <ele>617.9</ele>
        <time>2015-08-31T07:56:04Z</time>
      </trkpt>
      <trkpt lat="47.36747" lon="6.59258">
        <ele>618.3</ele>
        <time>2015-08-31T07:56:05Z</time>
      </trkpt>
      <trkpt lat="47.36743" lon="6.59253">
        <ele>618.7</ele>
        <time>2015-08-31T07:56:06Z</time>
      </trkpt>
      <trkpt lat="47.36739" lon="6.59249">
        <ele>619</ele>
        <time>2015-08-31T07:56:07Z</time>
      </trkpt>
      <trkpt lat="47.36735" lon="6.59246">
        <ele>619.3</ele>
        <time>2015-08-31T07:56:08Z</time>
      </trkpt>
      <trkpt lat="47.36731" lon="6.59242">
        <ele>619.4</ele>
        <time>2015-08-31T07:56:09Z</time>
      </trkpt>
      <trkpt lat="47.36727" lon="6.59239">
        <ele>619.7</ele>
        <time>2015-08-31T07:56:10Z</time>
      </trkpt>
      <trkpt lat="47.36723" lon="6.59235">
        <ele>620.2</ele>
        <time>2015-08-31T07:56:11Z</time>
      </trkpt>
      <trkpt lat="47.36719" lon="6.59231">
        <ele>620.9</ele>
        <time>2015-08-31T07:56:12Z</time>
      </trkpt>
      <trkpt lat="47.36716" lon="6.59228">
        <ele>621.6</ele>
        <time>2015-08-31T07:56:13Z</time>
      </trkpt>
      <trkpt lat="47.36712" lon="6.59224">
        <ele>622</ele>
        <time>2015-08-31T07:56:14Z</time>
      </trkpt>
      <trkpt lat="47.36709" lon="6.59219">
        <ele>622.4</ele>
        <time>2015-08-31T07:56:15Z</time>
      </trkpt>
      <trkpt lat="47.36705" lon="6.59215">
        <ele>623.2</ele>
        <time>2015-08-31T07:56:16Z</time>
      </trkpt>
      <trkpt lat="47.36702" lon="6.59211">
        <ele>623.7</ele>
        <time>2015-08-31T07:56:17Z</time>
      </trkpt>
      <trkpt lat="47.36699" lon="6.59206">
        <ele>623.6</ele>
        <time>2015-08-31T07:56:18Z</time>
      </trkpt>
      <trkpt lat="47.36697" lon="6.59201">
        <ele>623.7</ele>
        <time>2015-08-31T07:56:19Z</time>
      </trkpt>
      <trkpt lat="47.36694" lon="6.59195">
        <ele>623.7</ele>
        <time>2015-08-31T07:56:20Z</time>
      </trkpt>
      <trkpt lat="47.36692" lon="6.59189">
        <ele>623.9</ele>
        <time>2015-08-31T07:56:21Z</time>
      </trkpt>
      <trkpt lat="47.3669" lon="6.59183">
        <ele>624.2</ele>
        <time>2015-08-31T07:56:22Z</time>
      </trkpt>
      <trkpt lat="47.36689" lon="6.59177">
        <ele>624.5</ele>
        <time>2015-08-31T07:56:23Z</time>
      </trkpt>
      <trkpt lat="47.36687" lon="6.59171">
        <ele>625</ele>
        <time>2015-08-31T07:56:24Z</time>
      </trkpt>
      <trkpt lat="47.36685" lon="6.59164">
        <ele>625.5</ele>
        <time>2015-08-31T07:56:25Z</time>
      </trkpt>
      <trkpt lat="47.36683" lon="6.59158">
        <ele>625.8</ele>
        <time>2015-08-31T07:56:26Z</time>
      </trkpt>
      <trkpt lat="47.36681" lon="6.59152">
        <ele>626.3</ele>
        <time>2015-08-31T07:56:27Z</time>
      </trkpt>
      <trkpt lat="47.36679" lon="6.59146">
        <ele>626.7</ele>
        <time>2015-08-31T07:56:28Z</time>
      </trkpt>
      <trkpt lat="47.36676" lon="6.5914">
        <ele>626.7</ele>
        <time>2015-08-31T07:56:29Z</time>
      </trkpt>
      <trkpt lat="47.36674" lon="6.59134">
        <ele>627.1</ele>
        <time>2015-08-31T07:56:30Z</time>
      </trkpt>
      <trkpt lat="47.36673" lon="6.59128">
        <ele>627.3</ele>
        <time>2015-08-31T07:56:31Z</time>
      </trkpt>
      <trkpt lat="47.36671" lon="6.59122">
        <ele>627.5</ele>
        <time>2015-08-31T07:56:32Z</time>
      </trkpt>
      <trkpt lat="47.36669" lon="6.59116">
        <ele>627.7</ele>
        <time>2015-08-31T07:56:33Z</time>
      </trkpt>
      <trkpt lat="47.36668" lon="6.5911">
        <ele>627.9</ele>
        <time>2015-08-31T07:56:34Z</time>
      </trkpt>
      <trkpt lat="47.36666" lon="6.59104">
        <ele>628.1</ele>
        <time>2015-08-31T07:56:35Z</time>
      </trkpt>
      <trkpt lat="47.36664" lon="6.59098">
        <ele>628.6</ele>
        <time>2015-08-31T07:56:36Z</time>
      </trkpt>
      <trkpt lat="47.36662" lon="6.59092">
        <ele>628.8</ele>
        <time>2015-08-31T07:56:37Z</time>
      </trkpt>
      <trkpt lat="47.3666" lon="6.59086">
        <ele>629.5</ele>
        <time>2015-08-31T07:56:38Z</time>
      </trkpt>
      <trkpt lat="47.36658" lon="6.59079">
        <ele>629.9</ele>
        <time>2015-08-31T07:56:39Z</time>
      </trkpt>
      <trkpt lat="47.36655" lon="6.59073">
        <ele>630.4</ele>
        <time>2015-08-31T07:56:40Z</time>
      </trkpt>
      <trkpt lat="47.36653" lon="6.59066">
        <ele>631.1</ele>
        <time>2015-08-31T07:56:41Z</time>
      </trkpt>
      <trkpt lat="47.3665" lon="6.5906">
        <ele>631.1</ele>
        <time>2015-08-31T07:56:42Z</time>
      </trkpt>
      <trkpt lat="47.36647" lon="6.59054">
        <ele>631.5</ele>
        <time>2015-08-31T07:56:43Z</time>
      </trkpt>
      <trkpt lat="47.36644" lon="6.59048">
        <ele>631.9</ele>
        <time>2015-08-31T07:56:44Z</time>
      </trkpt>
      <trkpt lat="47.3664" lon="6.59042">
        <ele>631.5</ele>
        <time>2015-08-31T07:56:45Z</time>
      </trkpt>
      <trkpt lat="47.36637" lon="6.59036">
        <ele>631.4</ele>
        <time>2015-08-31T07:56:46Z</time>
      </trkpt>
      <trkpt lat="47.36634" lon="6.59029">
        <ele>631.4</ele>
        <time>2015-08-31T07:56:47Z</time>
      </trkpt>
      <trkpt lat="47.3663" lon="6.59022">
        <ele>631.4</ele>
        <time>2015-08-31T07:56:48Z</time>
      </trkpt>
      <trkpt lat="47.36627" lon="6.59016">
        <ele>631.4</ele>
        <time>2015-08-31T07:56:49Z</time>
      </trkpt>
      <trkpt lat="47.36624" lon="6.5901">
        <ele>631.2</ele>
        <time>2015-08-31T07:56:50Z</time>
      </trkpt>
      <trkpt lat="47.36621" lon="6.59003">
        <ele>630.9</ele>
        <time>2015-08-31T07:56:51Z</time>
      </trkpt>
      <trkpt lat="47.36617" lon="6.58996">
        <ele>630.7</ele>
        <time>2015-08-31T07:56:52Z</time>
      </trkpt>
      <trkpt lat="47.36614" lon="6.5899">
        <ele>630.6</ele>
        <time>2015-08-31T07:56:53Z</time>
      </trkpt>
      <trkpt lat="47.3661" lon="6.58983">
        <ele>630.2</ele>
        <time>2015-08-31T07:56:54Z</time>
      </trkpt>
      <trkpt lat="47.36606" lon="6.58976">
        <ele>629.9</ele>
        <time>2015-08-31T07:56:55Z</time>
      </trkpt>
      <trkpt lat="47.36602" lon="6.58968">
        <ele>629.3</ele>
        <time>2015-08-31T07:56:56Z</time>
      </trkpt>
      <trkpt lat="47.36598" lon="6.5896">
        <ele>629</ele>
        <time>2015-08-31T07:56:57Z</time>
      </trkpt>
      <trkpt lat="47.36593" lon="6.58952">
        <ele>628.6</ele>
        <time>2015-08-31T07:56:58Z</time>
      </trkpt>
      <trkpt lat="47.36589" lon="6.58944">
        <ele>628.4</ele>
        <time>2015-08-31T07:56:59Z</time>
      </trkpt>
      <trkpt lat="47.36584" lon="6.58935">
        <ele>628.2</ele>
        <time>2015-08-31T07:57:00Z</time>
      </trkpt>
      <trkpt lat="47.36579" lon="6.58927">
        <ele>627.9</ele>
        <time>2015-08-31T07:57:01Z</time>
      </trkpt>
      <trkpt lat="47.36574" lon="6.58918">
        <ele>627.5</ele>
        <time>2015-08-31T07:57:02Z</time>
      </trkpt>
      <trkpt lat="47.36569" lon="6.58909">
        <ele>627.2</ele>
        <time>2015-08-31T07:57:03Z</time>
      </trkpt>
      <trkpt lat="47.36564" lon="6.589">
        <ele>626.6</ele>
        <time>2015-08-31T07:57:04Z</time>
      </trkpt>
      <trkpt lat="47.3656" lon="6.58891">
        <ele>626</ele>
        <time>2015-08-31T07:57:05Z</time>
      </trkpt>
      <trkpt lat="47.36555" lon="6.58881">
        <ele>625.6</ele>
        <time>2015-08-31T07:57:06Z</time>
      </trkpt>
      <trkpt lat="47.36551" lon="6.58871">
        <ele>625.3</ele>
        <time>2015-08-31T07:57:07Z</time>
      </trkpt>
      <trkpt lat="47.36547" lon="6.58861">
        <ele>624.8</ele>
        <time>2015-08-31T07:57:08Z</time>
      </trkpt>
      <trkpt lat="47.36542" lon="6.5885">
        <ele>624</ele>
        <time>2015-08-31T07:57:09Z</time>
      </trkpt>
      <trkpt lat="47.36537" lon="6.5884">
        <ele>623.1</ele>
        <time>2015-08-31T07:57:10Z</time>
      </trkpt>
      <trkpt lat="47.36533" lon="6.5883">
        <ele>622.2</ele>
        <time>2015-08-31T07:57:11Z</time>
      </trkpt>
      <trkpt lat="47.36529" lon="6.5882">
        <ele>621.4</ele>
        <time>2015-08-31T07:57:12Z</time>
      </trkpt>
      <trkpt lat="47.36525" lon="6.58809">
        <ele>620.7</ele>
        <time>2015-08-31T07:57:13Z</time>
      </trkpt>
      <trkpt lat="47.3652" lon="6.58798">
        <ele>619.9</ele>
        <time>2015-08-31T07:57:14Z</time>
      </trkpt>
      <trkpt lat="47.36516" lon="6.58787">
        <ele>619.3</ele>
        <time>2015-08-31T07:57:15Z</time>
      </trkpt>
      <trkpt lat="47.36512" lon="6.58776">
        <ele>618.7</ele>
        <time>2015-08-31T07:57:16Z</time>
      </trkpt>
      <trkpt lat="47.36508" lon="6.58765">
        <ele>618.1</ele>
        <time>2015-08-31T07:57:17Z</time>
      </trkpt>
      <trkpt lat="47.36504" lon="6.58753">
        <ele>617.5</ele>
        <time>2015-08-31T07:57:18Z</time>
      </trkpt>
      <trkpt lat="47.365" lon="6.58741">
        <ele>616.9</ele>
        <time>2015-08-31T07:57:19Z</time>
      </trkpt>
      <trkpt lat="47.36496" lon="6.58729">
        <ele>616.2</ele>
        <time>2015-08-31T07:57:20Z</time>
      </trkpt>
      <trkpt lat="47.36491" lon="6.58718">
        <ele>615.5</ele>
        <time>2015-08-31T07:57:21Z</time>
      </trkpt>
      <trkpt lat="47.36487" lon="6.58706">
        <ele>614.8</ele>
        <time>2015-08-31T07:57:22Z</time>
      </trkpt>
      <trkpt lat="47.36482" lon="6.58694">
        <ele>614.3</ele>
        <time>2015-08-31T07:57:23Z</time>
      </trkpt>
      <trkpt lat="47.36478" lon="6.58683">
        <ele>613.8</ele>
        <time>2015-08-31T07:57:24Z</time>
      </trkpt>
      <trkpt lat="47.36473" lon="6.58671">
        <ele>613.2</ele>
        <time>2015-08-31T07:57:25Z</time>
      </trkpt>
      <trkpt lat="47.36467" lon="6.5866">
        <ele>612.8</ele>
        <time>2015-08-31T07:57:26Z</time>
      </trkpt>
      <trkpt lat="47.36462" lon="6.58649">
        <ele>612.5</ele>
        <time>2015-08-31T07:57:27Z</time>
      </trkpt>
      <trkpt lat="47.36457" lon="6.58638">
        <ele>612.3</ele>
        <time>2015-08-31T07:57:28Z</time>
      </trkpt>
      <trkpt lat="47.3645" lon="6.58628">
        <ele>612.1</ele>
        <time>2015-08-31T07:57:29Z</time>
      </trkpt>
      <trkpt lat="47.36445" lon="6.58618">
        <ele>611.6</ele>
        <time>2015-08-31T07:57:30Z</time>
      </trkpt>
      <trkpt lat="47.36439" lon="6.58607">
        <ele>611.3</ele>
        <time>2015-08-31T07:57:31Z</time>
      </trkpt>
      <trkpt lat="47.36433" lon="6.58596">
        <ele>610.8</ele>
        <time>2015-08-31T07:57:32Z</time>
      </trkpt>
      <trkpt lat="47.36427" lon="6.58585">
        <ele>610.4</ele>
        <time>2015-08-31T07:57:33Z</time>
      </trkpt>
      <trkpt lat="47.36422" lon="6.58573">
        <ele>610</ele>
        <time>2015-08-31T07:57:34Z</time>
      </trkpt>
      <trkpt lat="47.36416" lon="6.58562">
        <ele>609.5</ele>
        <time>2015-08-31T07:57:35Z</time>
      </trkpt>
      <trkpt lat="47.3641" lon="6.58551">
        <ele>609</ele>
        <time>2015-08-31T07:57:36Z</time>
      </trkpt>
      <trkpt lat="47.36405" lon="6.5854">
        <ele>608.6</ele>
        <time>2015-08-31T07:57:37Z</time>
      </trkpt>
      <trkpt lat="47.36399" lon="6.58528">
        <ele>607.9</ele>
        <time>2015-08-31T07:57:38Z</time>
      </trkpt>
      <trkpt lat="47.36393" lon="6.58517">
        <ele>607.2</ele>
        <time>2015-08-31T07:57:39Z</time>
      </trkpt>
      <trkpt lat="47.36387" lon="6.58505">
        <ele>606.4</ele>
        <time>2015-08-31T07:57:40Z</time>
      </trkpt>
      <trkpt lat="47.36382" lon="6.58493">
        <ele>605.7</ele>
        <time>2015-08-31T07:57:41Z</time>
      </trkpt>
      <trkpt lat="47.36377" lon="6.58481">
        <ele>605</ele>
        <time>2015-08-31T07:57:42Z</time>
      </trkpt>
      <trkpt lat="47.36373" lon="6.58468">
        <ele>604.3</ele>
        <time>2015-08-31T07:57:43Z</time>
      </trkpt>
      <trkpt lat="47.36368" lon="6.58455">
        <ele>603.5</ele>
        <time>2015-08-31T07:57:44Z</time>
      </trkpt>
      <trkpt lat="47.36364" lon="6.58442">
        <ele>602.7</ele>
        <time>2015-08-31T07:57:45Z</time>
      </trkpt>
      <trkpt lat="47.36361" lon="6.58429">
        <ele>602.6</ele>
        <time>2015-08-31T07:57:46Z</time>
      </trkpt>
      <trkpt lat="47.36358" lon="6.58416">
        <ele>602.1</ele>
        <time>2015-08-31T07:57:47Z</time>
      </trkpt>
      <trkpt lat="47.36355" lon="6.58403">
        <ele>601.5</ele>
        <time>2015-08-31T07:57:48Z</time>
      </trkpt>
      <trkpt lat="47.36352" lon="6.5839">
        <ele>601.5</ele>
        <time>2015-08-31T07:57:49Z</time>
      </trkpt>
      <trkpt lat="47.36349" lon="6.58376">
        <ele>600.9</ele>
        <time>2015-08-31T07:57:50Z</time>
      </trkpt>
      <trkpt lat="47.36346" lon="6.58363">
        <ele>600.3</ele>
        <time>2015-08-31T07:57:51Z</time>
      </trkpt>
      <trkpt lat="47.36343" lon="6.5835">
        <ele>600.2</ele>
        <time>2015-08-31T07:57:52Z</time>
      </trkpt>
      <trkpt lat="47.36339" lon="6.58336">
        <ele>599.4</ele>
        <time>2015-08-31T07:57:53Z</time>
      </trkpt>
      <trkpt lat="47.36336" lon="6.58323">
        <ele>598.7</ele>
        <time>2015-08-31T07:57:54Z</time>
      </trkpt>
      <trkpt lat="47.36332" lon="6.58309">
        <ele>597.9</ele>
        <time>2015-08-31T07:57:55Z</time>
      </trkpt>
      <trkpt lat="47.36328" lon="6.58295">
        <ele>597.2</ele>
        <time>2015-08-31T07:57:56Z</time>
      </trkpt>
      <trkpt lat="47.36324" lon="6.58282">
        <ele>596.5</ele>
        <time>2015-08-31T07:57:57Z</time>
      </trkpt>
      <trkpt lat="47.3632" lon="6.58268">
        <ele>595.7</ele>
        <time>2015-08-31T07:57:58Z</time>
      </trkpt>
      <trkpt lat="47.36316" lon="6.58255">
        <ele>594.9</ele>
        <time>2015-08-31T07:57:59Z</time>
      </trkpt>
      <trkpt lat="47.36311" lon="6.58242">
        <ele>594.3</ele>
        <time>2015-08-31T07:58:00Z</time>
      </trkpt>
      <trkpt lat="47.36307" lon="6.58229">
        <ele>593.6</ele>
        <time>2015-08-31T07:58:01Z</time>
      </trkpt>
      <trkpt lat="47.36302" lon="6.58216">
        <ele>592.9</ele>
        <time>2015-08-31T07:58:02Z</time>
      </trkpt>
      <trkpt lat="47.36296" lon="6.58203">
        <ele>592.6</ele>
        <time>2015-08-31T07:58:03Z</time>
      </trkpt>
      <trkpt lat="47.36291" lon="6.5819">
        <ele>592</ele>
        <time>2015-08-31T07:58:04Z</time>
      </trkpt>
      <trkpt lat="47.36287" lon="6.58178">
        <ele>591.4</ele>
        <time>2015-08-31T07:58:05Z</time>
      </trkpt>
      <trkpt lat="47.36282" lon="6.58166">
        <ele>590.9</ele>
        <time>2015-08-31T07:58:06Z</time>
      </trkpt>
      <trkpt lat="47.36278" lon="6.58153">
        <ele>590.6</ele>
        <time>2015-08-31T07:58:07Z</time>
      </trkpt>
      <trkpt lat="47.36275" lon="6.5814">
        <ele>590.3</ele>
        <time>2015-08-31T07:58:08Z</time>
      </trkpt>
      <trkpt lat="47.36272" lon="6.58127">
        <ele>590.1</ele>
        <time>2015-08-31T07:58:09Z</time>
      </trkpt>
      <trkpt lat="47.36269" lon="6.58114">
        <ele>589.9</ele>
        <time>2015-08-31T07:58:10Z</time>
      </trkpt>
      <trkpt lat="47.36266" lon="6.58101">
        <ele>589.8</ele>
        <time>2015-08-31T07:58:11Z</time>
      </trkpt>
      <trkpt lat="47.36264" lon="6.58089">
        <ele>589.5</ele>
        <time>2015-08-31T07:58:12Z</time>
      </trkpt>
      <trkpt lat="47.36262" lon="6.58076">
        <ele>589.2</ele>
        <time>2015-08-31T07:58:13Z</time>
      </trkpt>
      <trkpt lat="47.3626" lon="6.58064">
        <ele>589</ele>
        <time>2015-08-31T07:58:14Z</time>
      </trkpt>
      <trkpt lat="47.36259" lon="6.58053">
        <ele>588.8</ele>
        <time>2015-08-31T07:58:15Z</time>
      </trkpt>
      <trkpt lat="47.36258" lon="6.58043">
        <ele>588.8</ele>
        <time>2015-08-31T07:58:16Z</time>
      </trkpt>
      <trkpt lat="47.36257" lon="6.58032">
        <ele>588.7</ele>
        <time>2015-08-31T07:58:17Z</time>
      </trkpt>
      <trkpt lat="47.36256" lon="6.58022">
        <ele>588.8</ele>
        <time>2015-08-31T07:58:18Z</time>
      </trkpt>
      <trkpt lat="47.36256" lon="6.58011">
        <ele>588.9</ele>
        <time>2015-08-31T07:58:19Z</time>
      </trkpt>
      <trkpt lat="47.36255" lon="6.58">
        <ele>589</ele>
        <time>2015-08-31T07:58:20Z</time>
      </trkpt>
      <trkpt lat="47.36254" lon="6.5799">
        <ele>589</ele>
        <time>2015-08-31T07:58:21Z</time>
      </trkpt>
      <trkpt lat="47.36253" lon="6.57979">
        <ele>588.9</ele>
        <time>2015-08-31T07:58:22Z</time>
      </trkpt>
      <trkpt lat="47.36253" lon="6.57969">
        <ele>588.8</ele>
        <time>2015-08-31T07:58:23Z</time>
      </trkpt>
      <trkpt lat="47.36252" lon="6.57959">
        <ele>588.7</ele>
        <time>2015-08-31T07:58:24Z</time>
      </trkpt>
      <trkpt lat="47.36251" lon="6.57949">
        <ele>588.6</ele>
        <time>2015-08-31T07:58:25Z</time>
      </trkpt>
      <trkpt lat="47.3625" lon="6.57939">
        <ele>588.6</ele>
        <time>2015-08-31T07:58:26Z</time>
      </trkpt>
      <trkpt lat="47.36249" lon="6.5793">
        <ele>588.5</ele>
        <time>2015-08-31T07:58:27Z</time>
      </trkpt>
      <trkpt lat="47.36248" lon="6.5792">
        <ele>588.4</ele>
        <time>2015-08-31T07:58:28Z</time>
      </trkpt>
      <trkpt lat="47.36247" lon="6.5791">
        <ele>588.5</ele>
        <time>2015-08-31T07:58:29Z</time>
      </trkpt>
      <trkpt lat="47.36245" lon="6.57901">
        <ele>588.3</ele>
        <time>2015-08-31T07:58:30Z</time>
      </trkpt>
      <trkpt lat="47.36243" lon="6.57892">
        <ele>588.1</ele>
        <time>2015-08-31T07:58:31Z</time>
      </trkpt>
      <trkpt lat="47.36241" lon="6.57883">
        <ele>588</ele>
        <time>2015-08-31T07:58:32Z</time>
      </trkpt>
      <trkpt lat="47.3624" lon="6.57874">
        <ele>587.7</ele>
        <time>2015-08-31T07:58:33Z</time>
      </trkpt>
      <trkpt lat="47.36238" lon="6.57865">
        <ele>587.5</ele>
        <time>2015-08-31T07:58:34Z</time>
      </trkpt>
      <trkpt lat="47.36237" lon="6.57856">
        <ele>587.3</ele>
        <time>2015-08-31T07:58:35Z</time>
      </trkpt>
      <trkpt lat="47.36235" lon="6.57848">
        <ele>587.1</ele>
        <time>2015-08-31T07:58:36Z</time>
      </trkpt>
      <trkpt lat="47.36233" lon="6.57839">
        <ele>586.8</ele>
        <time>2015-08-31T07:58:37Z</time>
      </trkpt>
      <trkpt lat="47.36232" lon="6.5783">
        <ele>586.6</ele>
        <time>2015-08-31T07:58:38Z</time>
      </trkpt>
      <trkpt lat="47.3623" lon="6.57821">
        <ele>586.3</ele>
        <time>2015-08-31T07:58:39Z</time>
      </trkpt>
      <trkpt lat="47.36229" lon="6.57812">
        <ele>586.2</ele>
        <time>2015-08-31T07:58:40Z</time>
      </trkpt>
      <trkpt lat="47.36228" lon="6.57803">
        <ele>586</ele>
        <time>2015-08-31T07:58:41Z</time>
      </trkpt>
      <trkpt lat="47.36226" lon="6.57794">
        <ele>585.7</ele>
        <time>2015-08-31T07:58:42Z</time>
      </trkpt>
      <trkpt lat="47.36224" lon="6.57785">
        <ele>585.5</ele>
        <time>2015-08-31T07:58:43Z</time>
      </trkpt>
      <trkpt lat="47.36224" lon="6.57776">
        <ele>585.2</ele>
        <time>2015-08-31T07:58:44Z</time>
      </trkpt>
      <trkpt lat="47.36223" lon="6.57768">
        <ele>585.1</ele>
        <time>2015-08-31T07:58:45Z</time>
      </trkpt>
      <trkpt lat="47.36222" lon="6.5776">
        <ele>585.1</ele>
        <time>2015-08-31T07:58:46Z</time>
      </trkpt>
      <trkpt lat="47.36222" lon="6.57753">
        <ele>585.1</ele>
        <time>2015-08-31T07:58:47Z</time>
      </trkpt>
      <trkpt lat="47.36222" lon="6.57746">
        <ele>585.4</ele>
        <time>2015-08-31T07:58:48Z</time>
      </trkpt>
      <trkpt lat="47.36219" lon="6.57739">
        <ele>586</ele>
        <time>2015-08-31T07:58:49Z</time>
      </trkpt>
      <trkpt lat="47.36218" lon="6.57731">
        <ele>586.4</ele>
        <time>2015-08-31T07:58:50Z</time>
      </trkpt>
      <trkpt lat="47.36218" lon="6.57723">
        <ele>586.6</ele>
        <time>2015-08-31T07:58:51Z</time>
      </trkpt>
      <trkpt lat="47.36217" lon="6.57715">
        <ele>586.9</ele>
        <time>2015-08-31T07:58:52Z</time>
      </trkpt>
      <trkpt lat="47.36216" lon="6.57707">
        <ele>587.2</ele>
        <time>2015-08-31T07:58:53Z</time>
      </trkpt>
      <trkpt lat="47.36214" lon="6.57699">
        <ele>587.3</ele>
        <time>2015-08-31T07:58:54Z</time>
      </trkpt>
      <trkpt lat="47.36212" lon="6.5769">
        <ele>587.4</ele>
        <time>2015-08-31T07:58:55Z</time>
      </trkpt>
      <trkpt lat="47.36211" lon="6.57683">
        <ele>587.7</ele>
        <time>2015-08-31T07:58:56Z</time>
      </trkpt>
      <trkpt lat="47.36209" lon="6.57675">
        <ele>587.9</ele>
        <time>2015-08-31T07:58:57Z</time>
      </trkpt>
      <trkpt lat="47.36208" lon="6.57667">
        <ele>588.2</ele>
        <time>2015-08-31T07:58:58Z</time>
      </trkpt>
      <trkpt lat="47.36206" lon="6.57659">
        <ele>588.5</ele>
        <time>2015-08-31T07:58:59Z</time>
      </trkpt>
      <trkpt lat="47.36205" lon="6.57651">
        <ele>588.6</ele>
        <time>2015-08-31T07:59:00Z</time>
      </trkpt>
      <trkpt lat="47.36204" lon="6.57643">
        <ele>588.9</ele>
        <time>2015-08-31T07:59:01Z</time>
      </trkpt>
      <trkpt lat="47.36203" lon="6.57635">
        <ele>589</ele>
        <time>2015-08-31T07:59:02Z</time>
      </trkpt>
      <trkpt lat="47.36202" lon="6.57626">
        <ele>589.1</ele>
        <time>2015-08-31T07:59:03Z</time>
      </trkpt>
      <trkpt lat="47.362" lon="6.57619">
        <ele>589.2</ele>
        <time>2015-08-31T07:59:04Z</time>
      </trkpt>
      <trkpt lat="47.36198" lon="6.57611">
        <ele>589.2</ele>
        <time>2015-08-31T07:59:05Z</time>
      </trkpt>
      <trkpt lat="47.36197" lon="6.57603">
        <ele>589.3</ele>
        <time>2015-08-31T07:59:06Z</time>
      </trkpt>
      <trkpt lat="47.36195" lon="6.57595">
        <ele>589.4</ele>
        <time>2015-08-31T07:59:07Z</time>
      </trkpt>
      <trkpt lat="47.36193" lon="6.57588">
        <ele>589.5</ele>
        <time>2015-08-31T07:59:08Z</time>
      </trkpt>
      <trkpt lat="47.36191" lon="6.5758">
        <ele>589.7</ele>
        <time>2015-08-31T07:59:09Z</time>
      </trkpt>
      <trkpt lat="47.36189" lon="6.57573">
        <ele>589.8</ele>
        <time>2015-08-31T07:59:10Z</time>
      </trkpt>
      <trkpt lat="47.36187" lon="6.57566">
        <ele>590.1</ele>
        <time>2015-08-31T07:59:11Z</time>
      </trkpt>
      <trkpt lat="47.36185" lon="6.57559">
        <ele>590.1</ele>
        <time>2015-08-31T07:59:12Z</time>
      </trkpt>
      <trkpt lat="47.36183" lon="6.57553">
        <ele>589.8</ele>
        <time>2015-08-31T07:59:13Z</time>
      </trkpt>
      <trkpt lat="47.3618" lon="6.57546">
        <ele>589.8</ele>
        <time>2015-08-31T07:59:14Z</time>
      </trkpt>
      <trkpt lat="47.36178" lon="6.57539">
        <ele>589.8</ele>
        <time>2015-08-31T07:59:15Z</time>
      </trkpt>
      <trkpt lat="47.36176" lon="6.57533">
        <ele>589.9</ele>
        <time>2015-08-31T07:59:16Z</time>
      </trkpt>
      <trkpt lat="47.36173" lon="6.57527">
        <ele>590.2</ele>
        <time>2015-08-31T07:59:17Z</time>
      </trkpt>
      <trkpt lat="47.3617" lon="6.57521">
        <ele>590.6</ele>
        <time>2015-08-31T07:59:18Z</time>
      </trkpt>
      <trkpt lat="47.36168" lon="6.57514">
        <ele>590.8</ele>
        <time>2015-08-31T07:59:19Z</time>
      </trkpt>
      <trkpt lat="47.36166" lon="6.57508">
        <ele>591.2</ele>
        <time>2015-08-31T07:59:20Z</time>
      </trkpt>
      <trkpt lat="47.36164" lon="6.57501">
        <ele>591.4</ele>
        <time>2015-08-31T07:59:21Z</time>
      </trkpt>
      <trkpt lat="47.36162" lon="6.57495">
        <ele>591.5</ele>
        <time>2015-08-31T07:59:22Z</time>
      </trkpt>
      <trkpt lat="47.3616" lon="6.57488">
        <ele>591.4</ele>
        <time>2015-08-31T07:59:23Z</time>
      </trkpt>
      <trkpt lat="47.36158" lon="6.57481">
        <ele>591.4</ele>
        <time>2015-08-31T07:59:24Z</time>
      </trkpt>
      <trkpt lat="47.36156" lon="6.57474">
        <ele>591.7</ele>
        <time>2015-08-31T07:59:25Z</time>
      </trkpt>
      <trkpt lat="47.36154" lon="6.57467">
        <ele>592.1</ele>
        <time>2015-08-31T07:59:26Z</time>
      </trkpt>
      <trkpt lat="47.36152" lon="6.57461">
        <ele>592.6</ele>
        <time>2015-08-31T07:59:27Z</time>
      </trkpt>
      <trkpt lat="47.3615" lon="6.57455">
        <ele>593.1</ele>
        <time>2015-08-31T07:59:28Z</time>
      </trkpt>
      <trkpt lat="47.36148" lon="6.57449">
        <ele>593.7</ele>
        <time>2015-08-31T07:59:29Z</time>
      </trkpt>
      <trkpt lat="47.36146" lon="6.57443">
        <ele>594.3</ele>
        <time>2015-08-31T07:59:30Z</time>
      </trkpt>
      <trkpt lat="47.36145" lon="6.57437">
        <ele>594.7</ele>
        <time>2015-08-31T07:59:31Z</time>
      </trkpt>
      <trkpt lat="47.36142" lon="6.57431">
        <ele>595.5</ele>
        <time>2015-08-31T07:59:32Z</time>
      </trkpt>
      <trkpt lat="47.3614" lon="6.57425">
        <ele>595.8</ele>
        <time>2015-08-31T07:59:33Z</time>
      </trkpt>
      <trkpt lat="47.36139" lon="6.57418">
        <ele>595.9</ele>
        <time>2015-08-31T07:59:34Z</time>
      </trkpt>
      <trkpt lat="47.36137" lon="6.57412">
        <ele>596.5</ele>
        <time>2015-08-31T07:59:35Z</time>
      </trkpt>
      <trkpt lat="47.36135" lon="6.57405">
        <ele>596.7</ele>
        <time>2015-08-31T07:59:36Z</time>
      </trkpt>
      <trkpt lat="47.36133" lon="6.57399">
        <ele>597</ele>
        <time>2015-08-31T07:59:37Z</time>
      </trkpt>
      <trkpt lat="47.36131" lon="6.57392">
        <ele>597.3</ele>
        <time>2015-08-31T07:59:38Z</time>
      </trkpt>
      <trkpt lat="47.36128" lon="6.57385">
        <ele>597.6</ele>
        <time>2015-08-31T07:59:39Z</time>
      </trkpt>
      <trkpt lat="47.36126" lon="6.57379">
        <ele>597.8</ele>
        <time>2015-08-31T07:59:40Z</time>
      </trkpt>
      <trkpt lat="47.36124" lon="6.57373">
        <ele>598.1</ele>
        <time>2015-08-31T07:59:41Z</time>
      </trkpt>
      <trkpt lat="47.36122" lon="6.57366">
        <ele>598</ele>
        <time>2015-08-31T07:59:42Z</time>
      </trkpt>
      <trkpt lat="47.3612" lon="6.5736">
        <ele>598</ele>
        <time>2015-08-31T07:59:43Z</time>
      </trkpt>
      <trkpt lat="47.36118" lon="6.57353">
        <ele>598</ele>
        <time>2015-08-31T07:59:44Z</time>
      </trkpt>
      <trkpt lat="47.36116" lon="6.57346">
        <ele>597.8</ele>
        <time>2015-08-31T07:59:45Z</time>
      </trkpt>
      <trkpt lat="47.36113" lon="6.57339">
        <ele>597.2</ele>
        <time>2015-08-31T07:59:46Z</time>
      </trkpt>
      <trkpt lat="47.3611" lon="6.57332">
        <ele>596.8</ele>
        <time>2015-08-31T07:59:47Z</time>
      </trkpt>
      <trkpt lat="47.36107" lon="6.57324">
        <ele>596.5</ele>
        <time>2015-08-31T07:59:48Z</time>
      </trkpt>
      <trkpt lat="47.36103" lon="6.57317">
        <ele>596.2</ele>
        <time>2015-08-31T07:59:49Z</time>
      </trkpt>
      <trkpt lat="47.36099" lon="6.57309">
        <ele>595.5</ele>
        <time>2015-08-31T07:59:50Z</time>
      </trkpt>
      <trkpt lat="47.36096" lon="6.57302">
        <ele>595.1</ele>
        <time>2015-08-31T07:59:51Z</time>
      </trkpt>
      <trkpt lat="47.36092" lon="6.57296">
        <ele>595.1</ele>
        <time>2015-08-31T07:59:52Z</time>
      </trkpt>
      <trkpt lat="47.36089" lon="6.57289">
        <ele>594.9</ele>
        <time>2015-08-31T07:59:53Z</time>
      </trkpt>
      <trkpt lat="47.36086" lon="6.57282">
        <ele>594.2</ele>
        <time>2015-08-31T07:59:54Z</time>
      </trkpt>
      <trkpt lat="47.36083" lon="6.57277">
        <ele>594.1</ele>
        <time>2015-08-31T07:59:55Z</time>
      </trkpt>
      <trkpt lat="47.3608" lon="6.57271">
        <ele>594.3</ele>
        <time>2015-08-31T07:59:56Z</time>
      </trkpt>
      <trkpt lat="47.36077" lon="6.57266">
        <ele>594.6</ele>
        <time>2015-08-31T07:59:57Z</time>
      </trkpt>
      <trkpt lat="47.36073" lon="6.57261">
        <ele>595</ele>
        <time>2015-08-31T07:59:58Z</time>
      </trkpt>
      <trkpt lat="47.3607" lon="6.57255">
        <ele>595</ele>
        <time>2015-08-31T07:59:59Z</time>
      </trkpt>
      <trkpt lat="47.36066" lon="6.5725">
        <ele>594.8</ele>
        <time>2015-08-31T08:00:00Z</time>
      </trkpt>
      <trkpt lat="47.36063" lon="6.57245">
        <ele>594.9</ele>
        <time>2015-08-31T08:00:01Z</time>
      </trkpt>
      <trkpt lat="47.36059" lon="6.5724">
        <ele>594.4</ele>
        <time>2015-08-31T08:00:02Z</time>
      </trkpt>
      <trkpt lat="47.36056" lon="6.57236">
        <ele>594.2</ele>
        <time>2015-08-31T08:00:03Z</time>
      </trkpt>
      <trkpt lat="47.36052" lon="6.57233">
        <ele>593.6</ele>
        <time>2015-08-31T08:00:04Z</time>
      </trkpt>
      <trkpt lat="47.3605" lon="6.57229">
        <ele>593.2</ele>
        <time>2015-08-31T08:00:05Z</time>
      </trkpt>
      <trkpt lat="47.36047" lon="6.57226">
        <ele>592.6</ele>
        <time>2015-08-31T08:00:06Z</time>
      </trkpt>
      <trkpt lat="47.36045" lon="6.57223">
        <ele>591.6</ele>
        <time>2015-08-31T08:00:07Z</time>
      </trkpt>
      <trkpt lat="47.36043" lon="6.5722">
        <ele>591</ele>
        <time>2015-08-31T08:00:08Z</time>
      </trkpt>
      <trkpt lat="47.36042" lon="6.57217">
        <ele>590.2</ele>
        <time>2015-08-31T08:00:09Z</time>
      </trkpt>
      <trkpt lat="47.36041" lon="6.57216">
        <ele>589.7</ele>
        <time>2015-08-31T08:00:10Z</time>
      </trkpt>
      <trkpt lat="47.36042" lon="6.57215">
        <ele>589.5</ele>
        <time>2015-08-31T08:00:17Z</time>
      </trkpt>
      <trkpt lat="47.36043" lon="6.57215">
        <ele>589.1</ele>
        <time>2015-08-31T08:00:21Z</time>
      </trkpt>
      <trkpt lat="47.36042" lon="6.57213">
        <ele>588.8</ele>
        <time>2015-08-31T08:00:35Z</time>
      </trkpt>
      <trkpt lat="47.36041" lon="6.57214">
        <ele>588.8</ele>
        <time>2015-08-31T08:00:40Z</time>
      </trkpt>
      <trkpt lat="47.3604" lon="6.57214">
        <ele>588.8</ele>
        <time>2015-08-31T08:01:03Z</time>
      </trkpt>
    </trkseg>
  </trk>
</gpx>